<?xml version="1.0" encoding="UTF-8" standalone="no" ?>
<gpx xmlns="http://www.topografix.com/GPX/1/1" creator="MapSource 6.15.4" version="1.1" xmlns:xsi="http://www.w3.org/2001/XMLSchema-instance" xsi:schemaLocation="http://www.topografix.com/GPX/1/1 http://www.topografix.com/GPX/1/1/gpx.xsd">

  <metadata>
    <link href="http://www.garmin.com">
      <text>Garmin International</text>
    </link>
    <time>2013-04-08T20:39:55Z</time>
    <bounds maxlat="45.9559266" maxlon="4.6768700" minlat="45.8470168" minlon="4.5993612"/>
  </metadata>

  <trk>
    <name>Tracé actuel: 07 AVR 2013 08:00</name>
    <extensions>
      <gpxx:TrackExtension xmlns:gpxx="http://www.garmin.com/xmlschemas/GpxExtensions/v3">
        <gpxx:DisplayColor>Black</gpxx:DisplayColor>
      </gpxx:TrackExtension>
    </extensions>
    <trkseg>
      <trkpt lat="45.8482495" lon="4.6082410">
        <ele>240.9500000</ele>
        <time>2013-04-07T06:00:34Z</time>
      </trkpt>
      <trkpt lat="45.8482298" lon="4.6082594">
        <ele>245.2700000</ele>
        <time>2013-04-07T06:00:38Z</time>
      </trkpt>
      <trkpt lat="45.8482216" lon="4.6082590">
        <ele>246.7200000</ele>
        <time>2013-04-07T06:00:40Z</time>
      </trkpt>
      <trkpt lat="45.8482125" lon="4.6082491">
        <ele>250.5600000</ele>
        <time>2013-04-07T06:00:42Z</time>
      </trkpt>
      <trkpt lat="45.8481976" lon="4.6082275">
        <ele>253.4400000</ele>
        <time>2013-04-07T06:00:45Z</time>
      </trkpt>
      <trkpt lat="45.8481975" lon="4.6082213">
        <ele>256.8100000</ele>
        <time>2013-04-07T06:00:47Z</time>
      </trkpt>
      <trkpt lat="45.8482053" lon="4.6082151">
        <ele>257.2900000</ele>
        <time>2013-04-07T06:00:48Z</time>
      </trkpt>
      <trkpt lat="45.8482281" lon="4.6081968">
        <ele>260.1700000</ele>
        <time>2013-04-07T06:00:51Z</time>
      </trkpt>
      <trkpt lat="45.8482888" lon="4.6081868">
        <ele>264.5000000</ele>
        <time>2013-04-07T06:00:55Z</time>
      </trkpt>
      <trkpt lat="45.8482991" lon="4.6081823">
        <ele>267.3800000</ele>
        <time>2013-04-07T06:00:59Z</time>
      </trkpt>
      <trkpt lat="45.8483101" lon="4.6081784">
        <ele>271.2300000</ele>
        <time>2013-04-07T06:01:04Z</time>
      </trkpt>
      <trkpt lat="45.8483054" lon="4.6081720">
        <ele>273.6300000</ele>
        <time>2013-04-07T06:01:07Z</time>
      </trkpt>
      <trkpt lat="45.8483007" lon="4.6081679">
        <ele>276.5200000</ele>
        <time>2013-04-07T06:01:12Z</time>
      </trkpt>
      <trkpt lat="45.8482897" lon="4.6081653">
        <ele>278.9200000</ele>
        <time>2013-04-07T06:01:16Z</time>
      </trkpt>
      <trkpt lat="45.8482786" lon="4.6081600">
        <ele>282.2800000</ele>
        <time>2013-04-07T06:01:23Z</time>
      </trkpt>
      <trkpt lat="45.8482774" lon="4.6081628">
        <ele>284.2100000</ele>
        <time>2013-04-07T06:01:26Z</time>
      </trkpt>
      <trkpt lat="45.8484758" lon="4.6081902">
        <ele>285.1700000</ele>
        <time>2013-04-07T06:01:35Z</time>
      </trkpt>
      <trkpt lat="45.8485717" lon="4.6083278">
        <ele>287.0900000</ele>
        <time>2013-04-07T06:01:40Z</time>
      </trkpt>
      <trkpt lat="45.8486046" lon="4.6083708">
        <ele>288.0500000</ele>
        <time>2013-04-07T06:01:43Z</time>
      </trkpt>
      <trkpt lat="45.8486260" lon="4.6083738">
        <ele>289.0100000</ele>
        <time>2013-04-07T06:01:45Z</time>
      </trkpt>
      <trkpt lat="45.8486392" lon="4.6082155">
        <ele>288.0500000</ele>
        <time>2013-04-07T06:01:52Z</time>
      </trkpt>
      <trkpt lat="45.8484411" lon="4.6076911">
        <ele>289.9700000</ele>
        <time>2013-04-07T06:02:04Z</time>
      </trkpt>
      <trkpt lat="45.8485533" lon="4.6071057">
        <ele>289.9700000</ele>
        <time>2013-04-07T06:02:15Z</time>
      </trkpt>
      <trkpt lat="45.8486824" lon="4.6064289">
        <ele>290.4600000</ele>
        <time>2013-04-07T06:02:27Z</time>
      </trkpt>
      <trkpt lat="45.8487562" lon="4.6057102">
        <ele>291.4200000</ele>
        <time>2013-04-07T06:02:40Z</time>
      </trkpt>
      <trkpt lat="45.8488467" lon="4.6054089">
        <ele>291.4200000</ele>
        <time>2013-04-07T06:02:46Z</time>
      </trkpt>
      <trkpt lat="45.8490352" lon="4.6054264">
        <ele>290.9400000</ele>
        <time>2013-04-07T06:02:51Z</time>
      </trkpt>
      <trkpt lat="45.8493809" lon="4.6054992">
        <ele>290.4600000</ele>
        <time>2013-04-07T06:02:59Z</time>
      </trkpt>
      <trkpt lat="45.8499091" lon="4.6056986">
        <ele>290.4600000</ele>
        <time>2013-04-07T06:03:12Z</time>
      </trkpt>
      <trkpt lat="45.8500633" lon="4.6057616">
        <ele>290.4600000</ele>
        <time>2013-04-07T06:03:16Z</time>
      </trkpt>
      <trkpt lat="45.8503163" lon="4.6056176">
        <ele>289.9700000</ele>
        <time>2013-04-07T06:03:24Z</time>
      </trkpt>
      <trkpt lat="45.8503685" lon="4.6054851">
        <ele>289.9700000</ele>
        <time>2013-04-07T06:03:27Z</time>
      </trkpt>
      <trkpt lat="45.8505357" lon="4.6048899">
        <ele>289.4900000</ele>
        <time>2013-04-07T06:03:41Z</time>
      </trkpt>
      <trkpt lat="45.8506814" lon="4.6042947">
        <ele>289.4900000</ele>
        <time>2013-04-07T06:03:55Z</time>
      </trkpt>
      <trkpt lat="45.8507160" lon="4.6041645">
        <ele>289.9700000</ele>
        <time>2013-04-07T06:03:58Z</time>
      </trkpt>
      <trkpt lat="45.8510285" lon="4.6041885">
        <ele>290.4600000</ele>
        <time>2013-04-07T06:04:08Z</time>
      </trkpt>
      <trkpt lat="45.8514485" lon="4.6041625">
        <ele>290.4600000</ele>
        <time>2013-04-07T06:04:20Z</time>
      </trkpt>
      <trkpt lat="45.8514899" lon="4.6041485">
        <ele>290.4600000</ele>
        <time>2013-04-07T06:04:21Z</time>
      </trkpt>
      <trkpt lat="45.8516444" lon="4.6040527">
        <ele>290.4600000</ele>
        <time>2013-04-07T06:04:25Z</time>
      </trkpt>
      <trkpt lat="45.8516785" lon="4.6040126">
        <ele>290.9400000</ele>
        <time>2013-04-07T06:04:26Z</time>
      </trkpt>
      <trkpt lat="45.8517091" lon="4.6039663">
        <ele>290.4600000</ele>
        <time>2013-04-07T06:04:27Z</time>
      </trkpt>
      <trkpt lat="45.8518911" lon="4.6036366">
        <ele>291.4200000</ele>
        <time>2013-04-07T06:04:34Z</time>
      </trkpt>
      <trkpt lat="45.8520402" lon="4.6033870">
        <ele>292.3800000</ele>
        <time>2013-04-07T06:04:40Z</time>
      </trkpt>
      <trkpt lat="45.8520737" lon="4.6033941">
        <ele>292.8600000</ele>
        <time>2013-04-07T06:04:41Z</time>
      </trkpt>
      <trkpt lat="45.8521024" lon="4.6034084">
        <ele>292.8600000</ele>
        <time>2013-04-07T06:04:42Z</time>
      </trkpt>
      <trkpt lat="45.8524371" lon="4.6035618">
        <ele>293.3400000</ele>
        <time>2013-04-07T06:04:52Z</time>
      </trkpt>
      <trkpt lat="45.8527601" lon="4.6036710">
        <ele>294.3000000</ele>
        <time>2013-04-07T06:05:00Z</time>
      </trkpt>
      <trkpt lat="45.8528001" lon="4.6036886">
        <ele>294.3000000</ele>
        <time>2013-04-07T06:05:01Z</time>
      </trkpt>
      <trkpt lat="45.8532430" lon="4.6038610">
        <ele>296.2200000</ele>
        <time>2013-04-07T06:05:14Z</time>
      </trkpt>
      <trkpt lat="45.8536187" lon="4.6038608">
        <ele>299.1100000</ele>
        <time>2013-04-07T06:05:25Z</time>
      </trkpt>
      <trkpt lat="45.8538828" lon="4.6039187">
        <ele>300.5500000</ele>
        <time>2013-04-07T06:05:34Z</time>
      </trkpt>
      <trkpt lat="45.8542348" lon="4.6039824">
        <ele>302.4700000</ele>
        <time>2013-04-07T06:05:47Z</time>
      </trkpt>
      <trkpt lat="45.8545085" lon="4.6040388">
        <ele>305.8400000</ele>
        <time>2013-04-07T06:06:01Z</time>
      </trkpt>
      <trkpt lat="45.8547069" lon="4.6041324">
        <ele>308.2400000</ele>
        <time>2013-04-07T06:06:12Z</time>
      </trkpt>
      <trkpt lat="45.8547123" lon="4.6041561">
        <ele>308.7200000</ele>
        <time>2013-04-07T06:06:13Z</time>
      </trkpt>
      <trkpt lat="45.8547110" lon="4.6041800">
        <ele>308.7200000</ele>
        <time>2013-04-07T06:06:14Z</time>
      </trkpt>
      <trkpt lat="45.8546481" lon="4.6045783">
        <ele>308.7200000</ele>
        <time>2013-04-07T06:06:27Z</time>
      </trkpt>
      <trkpt lat="45.8545043" lon="4.6052608">
        <ele>308.2400000</ele>
        <time>2013-04-07T06:06:40Z</time>
      </trkpt>
      <trkpt lat="45.8544869" lon="4.6053240">
        <ele>308.2400000</ele>
        <time>2013-04-07T06:06:41Z</time>
      </trkpt>
      <trkpt lat="45.8544685" lon="4.6053907">
        <ele>308.2400000</ele>
        <time>2013-04-07T06:06:42Z</time>
      </trkpt>
      <trkpt lat="45.8543379" lon="4.6060914">
        <ele>307.2800000</ele>
        <time>2013-04-07T06:06:51Z</time>
      </trkpt>
      <trkpt lat="45.8543268" lon="4.6061703">
        <ele>306.8000000</ele>
        <time>2013-04-07T06:06:52Z</time>
      </trkpt>
      <trkpt lat="45.8543092" lon="4.6062471">
        <ele>306.8000000</ele>
        <time>2013-04-07T06:06:53Z</time>
      </trkpt>
      <trkpt lat="45.8539882" lon="4.6071182">
        <ele>308.2400000</ele>
        <time>2013-04-07T06:07:07Z</time>
      </trkpt>
      <trkpt lat="45.8538298" lon="4.6074836">
        <ele>309.2000000</ele>
        <time>2013-04-07T06:07:14Z</time>
      </trkpt>
      <trkpt lat="45.8535438" lon="4.6082310">
        <ele>312.0900000</ele>
        <time>2013-04-07T06:07:30Z</time>
      </trkpt>
      <trkpt lat="45.8534148" lon="4.6085108">
        <ele>312.0900000</ele>
        <time>2013-04-07T06:07:37Z</time>
      </trkpt>
      <trkpt lat="45.8534196" lon="4.6085501">
        <ele>312.0900000</ele>
        <time>2013-04-07T06:07:38Z</time>
      </trkpt>
      <trkpt lat="45.8534611" lon="4.6085943">
        <ele>312.5700000</ele>
        <time>2013-04-07T06:07:40Z</time>
      </trkpt>
      <trkpt lat="45.8537660" lon="4.6088026">
        <ele>315.9300000</ele>
        <time>2013-04-07T06:07:55Z</time>
      </trkpt>
      <trkpt lat="45.8539408" lon="4.6089215">
        <ele>317.8500000</ele>
        <time>2013-04-07T06:08:07Z</time>
      </trkpt>
      <trkpt lat="45.8541398" lon="4.6090501">
        <ele>319.7800000</ele>
        <time>2013-04-07T06:08:18Z</time>
      </trkpt>
      <trkpt lat="45.8544023" lon="4.6092231">
        <ele>322.6600000</ele>
        <time>2013-04-07T06:08:31Z</time>
      </trkpt>
      <trkpt lat="45.8546185" lon="4.6093863">
        <ele>324.1000000</ele>
        <time>2013-04-07T06:08:44Z</time>
      </trkpt>
      <trkpt lat="45.8546152" lon="4.6093842">
        <ele>323.6200000</ele>
        <time>2013-04-07T06:08:58Z</time>
      </trkpt>
      <trkpt lat="45.8546168" lon="4.6093842">
        <ele>323.6200000</ele>
        <time>2013-04-07T06:09:26Z</time>
      </trkpt>
      <trkpt lat="45.8546190" lon="4.6093794">
        <ele>323.6200000</ele>
        <time>2013-04-07T06:09:56Z</time>
      </trkpt>
      <trkpt lat="45.8546289" lon="4.6093726">
        <ele>324.1000000</ele>
        <time>2013-04-07T06:10:02Z</time>
      </trkpt>
      <trkpt lat="45.8546975" lon="4.6092789">
        <ele>324.1000000</ele>
        <time>2013-04-07T06:10:08Z</time>
      </trkpt>
      <trkpt lat="45.8547557" lon="4.6091303">
        <ele>325.0600000</ele>
        <time>2013-04-07T06:10:14Z</time>
      </trkpt>
      <trkpt lat="45.8549887" lon="4.6087523">
        <ele>324.5800000</ele>
        <time>2013-04-07T06:10:25Z</time>
      </trkpt>
      <trkpt lat="45.8553842" lon="4.6080979">
        <ele>324.5800000</ele>
        <time>2013-04-07T06:10:38Z</time>
      </trkpt>
      <trkpt lat="45.8557158" lon="4.6076633">
        <ele>327.4700000</ele>
        <time>2013-04-07T06:10:50Z</time>
      </trkpt>
      <trkpt lat="45.8557876" lon="4.6075639">
        <ele>327.9500000</ele>
        <time>2013-04-07T06:10:53Z</time>
      </trkpt>
      <trkpt lat="45.8559055" lon="4.6076643">
        <ele>328.9100000</ele>
        <time>2013-04-07T06:10:58Z</time>
      </trkpt>
      <trkpt lat="45.8559812" lon="4.6078872">
        <ele>329.3900000</ele>
        <time>2013-04-07T06:11:03Z</time>
      </trkpt>
      <trkpt lat="45.8559901" lon="4.6079431">
        <ele>329.3900000</ele>
        <time>2013-04-07T06:11:04Z</time>
      </trkpt>
      <trkpt lat="45.8560054" lon="4.6079931">
        <ele>328.9100000</ele>
        <time>2013-04-07T06:11:05Z</time>
      </trkpt>
      <trkpt lat="45.8560245" lon="4.6080389">
        <ele>328.9100000</ele>
        <time>2013-04-07T06:11:06Z</time>
      </trkpt>
      <trkpt lat="45.8559326" lon="4.6082310">
        <ele>328.9100000</ele>
        <time>2013-04-07T06:11:12Z</time>
      </trkpt>
      <trkpt lat="45.8559093" lon="4.6082816">
        <ele>328.4300000</ele>
        <time>2013-04-07T06:11:13Z</time>
      </trkpt>
      <trkpt lat="45.8558995" lon="4.6083410">
        <ele>328.9100000</ele>
        <time>2013-04-07T06:11:14Z</time>
      </trkpt>
      <trkpt lat="45.8558983" lon="4.6084014">
        <ele>328.4300000</ele>
        <time>2013-04-07T06:11:15Z</time>
      </trkpt>
      <trkpt lat="45.8559023" lon="4.6084590">
        <ele>328.4300000</ele>
        <time>2013-04-07T06:11:16Z</time>
      </trkpt>
      <trkpt lat="45.8559110" lon="4.6085135">
        <ele>328.4300000</ele>
        <time>2013-04-07T06:11:17Z</time>
      </trkpt>
      <trkpt lat="45.8559832" lon="4.6088392">
        <ele>328.4300000</ele>
        <time>2013-04-07T06:11:23Z</time>
      </trkpt>
      <trkpt lat="45.8560909" lon="4.6094404">
        <ele>327.4700000</ele>
        <time>2013-04-07T06:11:34Z</time>
      </trkpt>
      <trkpt lat="45.8561211" lon="4.6094696">
        <ele>326.9900000</ele>
        <time>2013-04-07T06:11:35Z</time>
      </trkpt>
      <trkpt lat="45.8561582" lon="4.6094793">
        <ele>326.9900000</ele>
        <time>2013-04-07T06:11:36Z</time>
      </trkpt>
      <trkpt lat="45.8563346" lon="4.6095626">
        <ele>327.4700000</ele>
        <time>2013-04-07T06:11:42Z</time>
      </trkpt>
      <trkpt lat="45.8563358" lon="4.6096070">
        <ele>326.9900000</ele>
        <time>2013-04-07T06:11:43Z</time>
      </trkpt>
      <trkpt lat="45.8562645" lon="4.6102157">
        <ele>324.1000000</ele>
        <time>2013-04-07T06:11:51Z</time>
      </trkpt>
      <trkpt lat="45.8561890" lon="4.6108253">
        <ele>320.7400000</ele>
        <time>2013-04-07T06:11:57Z</time>
      </trkpt>
      <trkpt lat="45.8561533" lon="4.6111557">
        <ele>319.3000000</ele>
        <time>2013-04-07T06:12:00Z</time>
      </trkpt>
      <trkpt lat="45.8560991" lon="4.6115175">
        <ele>315.9300000</ele>
        <time>2013-04-07T06:12:03Z</time>
      </trkpt>
      <trkpt lat="45.8559874" lon="4.6122346">
        <ele>312.5700000</ele>
        <time>2013-04-07T06:12:09Z</time>
      </trkpt>
      <trkpt lat="45.8559674" lon="4.6123336">
        <ele>312.0900000</ele>
        <time>2013-04-07T06:12:10Z</time>
      </trkpt>
      <trkpt lat="45.8558774" lon="4.6126751">
        <ele>310.6400000</ele>
        <time>2013-04-07T06:12:14Z</time>
      </trkpt>
      <trkpt lat="45.8558672" lon="4.6127637">
        <ele>309.2000000</ele>
        <time>2013-04-07T06:12:15Z</time>
      </trkpt>
      <trkpt lat="45.8558692" lon="4.6128603">
        <ele>308.2400000</ele>
        <time>2013-04-07T06:12:16Z</time>
      </trkpt>
      <trkpt lat="45.8558744" lon="4.6129616">
        <ele>308.2400000</ele>
        <time>2013-04-07T06:12:17Z</time>
      </trkpt>
      <trkpt lat="45.8558773" lon="4.6130594">
        <ele>307.2800000</ele>
        <time>2013-04-07T06:12:18Z</time>
      </trkpt>
      <trkpt lat="45.8558378" lon="4.6134667">
        <ele>305.3600000</ele>
        <time>2013-04-07T06:12:25Z</time>
      </trkpt>
      <trkpt lat="45.8558364" lon="4.6135322">
        <ele>305.3600000</ele>
        <time>2013-04-07T06:12:26Z</time>
      </trkpt>
      <trkpt lat="45.8558419" lon="4.6136083">
        <ele>304.3900000</ele>
        <time>2013-04-07T06:12:27Z</time>
      </trkpt>
      <trkpt lat="45.8558533" lon="4.6136873">
        <ele>303.4300000</ele>
        <time>2013-04-07T06:12:28Z</time>
      </trkpt>
      <trkpt lat="45.8558664" lon="4.6137676">
        <ele>302.4700000</ele>
        <time>2013-04-07T06:12:29Z</time>
      </trkpt>
      <trkpt lat="45.8558804" lon="4.6138488">
        <ele>302.4700000</ele>
        <time>2013-04-07T06:12:30Z</time>
      </trkpt>
      <trkpt lat="45.8559082" lon="4.6141815">
        <ele>301.5100000</ele>
        <time>2013-04-07T06:12:35Z</time>
      </trkpt>
      <trkpt lat="45.8558816" lon="4.6142043">
        <ele>301.0300000</ele>
        <time>2013-04-07T06:12:36Z</time>
      </trkpt>
      <trkpt lat="45.8558491" lon="4.6142213">
        <ele>301.0300000</ele>
        <time>2013-04-07T06:12:37Z</time>
      </trkpt>
      <trkpt lat="45.8558154" lon="4.6142401">
        <ele>301.0300000</ele>
        <time>2013-04-07T06:12:38Z</time>
      </trkpt>
      <trkpt lat="45.8557788" lon="4.6142669">
        <ele>300.5500000</ele>
        <time>2013-04-07T06:12:39Z</time>
      </trkpt>
      <trkpt lat="45.8557397" lon="4.6142991">
        <ele>301.0300000</ele>
        <time>2013-04-07T06:12:40Z</time>
      </trkpt>
      <trkpt lat="45.8557002" lon="4.6143368">
        <ele>301.0300000</ele>
        <time>2013-04-07T06:12:41Z</time>
      </trkpt>
      <trkpt lat="45.8556699" lon="4.6143890">
        <ele>301.0300000</ele>
        <time>2013-04-07T06:12:42Z</time>
      </trkpt>
      <trkpt lat="45.8556433" lon="4.6144539">
        <ele>300.5500000</ele>
        <time>2013-04-07T06:12:43Z</time>
      </trkpt>
      <trkpt lat="45.8555358" lon="4.6146428">
        <ele>300.5500000</ele>
        <time>2013-04-07T06:12:46Z</time>
      </trkpt>
      <trkpt lat="45.8554900" lon="4.6146915">
        <ele>300.5500000</ele>
        <time>2013-04-07T06:12:47Z</time>
      </trkpt>
      <trkpt lat="45.8554372" lon="4.6147285">
        <ele>300.5500000</ele>
        <time>2013-04-07T06:12:48Z</time>
      </trkpt>
      <trkpt lat="45.8553802" lon="4.6147581">
        <ele>300.5500000</ele>
        <time>2013-04-07T06:12:49Z</time>
      </trkpt>
      <trkpt lat="45.8553221" lon="4.6147829">
        <ele>300.0700000</ele>
        <time>2013-04-07T06:12:50Z</time>
      </trkpt>
      <trkpt lat="45.8552631" lon="4.6148030">
        <ele>300.0700000</ele>
        <time>2013-04-07T06:12:51Z</time>
      </trkpt>
      <trkpt lat="45.8551660" lon="4.6148597">
        <ele>300.0700000</ele>
        <time>2013-04-07T06:12:53Z</time>
      </trkpt>
      <trkpt lat="45.8551380" lon="4.6149129">
        <ele>299.5900000</ele>
        <time>2013-04-07T06:12:54Z</time>
      </trkpt>
      <trkpt lat="45.8551311" lon="4.6149837">
        <ele>299.5900000</ele>
        <time>2013-04-07T06:12:55Z</time>
      </trkpt>
      <trkpt lat="45.8551362" lon="4.6150691">
        <ele>298.6300000</ele>
        <time>2013-04-07T06:12:56Z</time>
      </trkpt>
      <trkpt lat="45.8551484" lon="4.6151607">
        <ele>298.6300000</ele>
        <time>2013-04-07T06:12:57Z</time>
      </trkpt>
      <trkpt lat="45.8551627" lon="4.6152557">
        <ele>297.6700000</ele>
        <time>2013-04-07T06:12:58Z</time>
      </trkpt>
      <trkpt lat="45.8551763" lon="4.6153548">
        <ele>297.1800000</ele>
        <time>2013-04-07T06:12:59Z</time>
      </trkpt>
      <trkpt lat="45.8552441" lon="4.6158399">
        <ele>295.2600000</ele>
        <time>2013-04-07T06:13:04Z</time>
      </trkpt>
      <trkpt lat="45.8552675" lon="4.6159605">
        <ele>294.3000000</ele>
        <time>2013-04-07T06:13:06Z</time>
      </trkpt>
      <trkpt lat="45.8552469" lon="4.6160109">
        <ele>294.3000000</ele>
        <time>2013-04-07T06:13:07Z</time>
      </trkpt>
      <trkpt lat="45.8552110" lon="4.6160561">
        <ele>293.3400000</ele>
        <time>2013-04-07T06:13:08Z</time>
      </trkpt>
      <trkpt lat="45.8551643" lon="4.6160980">
        <ele>293.3400000</ele>
        <time>2013-04-07T06:13:09Z</time>
      </trkpt>
      <trkpt lat="45.8551115" lon="4.6161363">
        <ele>293.8200000</ele>
        <time>2013-04-07T06:13:10Z</time>
      </trkpt>
      <trkpt lat="45.8549514" lon="4.6162331">
        <ele>293.3400000</ele>
        <time>2013-04-07T06:13:13Z</time>
      </trkpt>
      <trkpt lat="45.8542649" lon="4.6163947">
        <ele>290.9400000</ele>
        <time>2013-04-07T06:13:24Z</time>
      </trkpt>
      <trkpt lat="45.8533477" lon="4.6164018">
        <ele>289.9700000</ele>
        <time>2013-04-07T06:13:39Z</time>
      </trkpt>
      <trkpt lat="45.8532390" lon="4.6164068">
        <ele>289.9700000</ele>
        <time>2013-04-07T06:13:41Z</time>
      </trkpt>
      <trkpt lat="45.8531954" lon="4.6164193">
        <ele>289.9700000</ele>
        <time>2013-04-07T06:13:42Z</time>
      </trkpt>
      <trkpt lat="45.8531627" lon="4.6164488">
        <ele>289.4900000</ele>
        <time>2013-04-07T06:13:43Z</time>
      </trkpt>
      <trkpt lat="45.8531422" lon="4.6165022">
        <ele>289.4900000</ele>
        <time>2013-04-07T06:13:44Z</time>
      </trkpt>
      <trkpt lat="45.8531294" lon="4.6165785">
        <ele>288.5300000</ele>
        <time>2013-04-07T06:13:45Z</time>
      </trkpt>
      <trkpt lat="45.8531147" lon="4.6166611">
        <ele>288.0500000</ele>
        <time>2013-04-07T06:13:46Z</time>
      </trkpt>
      <trkpt lat="45.8530995" lon="4.6167506">
        <ele>287.5700000</ele>
        <time>2013-04-07T06:13:47Z</time>
      </trkpt>
      <trkpt lat="45.8530342" lon="4.6173065">
        <ele>284.6900000</ele>
        <time>2013-04-07T06:13:53Z</time>
      </trkpt>
      <trkpt lat="45.8530317" lon="4.6174570">
        <ele>282.2800000</ele>
        <time>2013-04-07T06:13:56Z</time>
      </trkpt>
      <trkpt lat="45.8530255" lon="4.6175229">
        <ele>281.3200000</ele>
        <time>2013-04-07T06:13:57Z</time>
      </trkpt>
      <trkpt lat="45.8530203" lon="4.6175975">
        <ele>279.8800000</ele>
        <time>2013-04-07T06:13:58Z</time>
      </trkpt>
      <trkpt lat="45.8530143" lon="4.6176824">
        <ele>278.4400000</ele>
        <time>2013-04-07T06:13:59Z</time>
      </trkpt>
      <trkpt lat="45.8530061" lon="4.6177716">
        <ele>277.4800000</ele>
        <time>2013-04-07T06:14:00Z</time>
      </trkpt>
      <trkpt lat="45.8530086" lon="4.6178692">
        <ele>275.0700000</ele>
        <time>2013-04-07T06:14:01Z</time>
      </trkpt>
      <trkpt lat="45.8530246" lon="4.6179791">
        <ele>272.6700000</ele>
        <time>2013-04-07T06:14:02Z</time>
      </trkpt>
      <trkpt lat="45.8530512" lon="4.6181075">
        <ele>271.2300000</ele>
        <time>2013-04-07T06:14:03Z</time>
      </trkpt>
      <trkpt lat="45.8531476" lon="4.6190376">
        <ele>273.1500000</ele>
        <time>2013-04-07T06:14:11Z</time>
      </trkpt>
      <trkpt lat="45.8531413" lon="4.6191010">
        <ele>274.5900000</ele>
        <time>2013-04-07T06:14:12Z</time>
      </trkpt>
      <trkpt lat="45.8531362" lon="4.6191471">
        <ele>275.0700000</ele>
        <time>2013-04-07T06:14:13Z</time>
      </trkpt>
      <trkpt lat="45.8531288" lon="4.6191890">
        <ele>276.0400000</ele>
        <time>2013-04-07T06:14:14Z</time>
      </trkpt>
      <trkpt lat="45.8531234" lon="4.6192315">
        <ele>276.0400000</ele>
        <time>2013-04-07T06:14:15Z</time>
      </trkpt>
      <trkpt lat="45.8531196" lon="4.6192740">
        <ele>276.0400000</ele>
        <time>2013-04-07T06:14:16Z</time>
      </trkpt>
      <trkpt lat="45.8530853" lon="4.6196168">
        <ele>279.4000000</ele>
        <time>2013-04-07T06:14:25Z</time>
      </trkpt>
      <trkpt lat="45.8530032" lon="4.6202127">
        <ele>282.2800000</ele>
        <time>2013-04-07T06:14:37Z</time>
      </trkpt>
      <trkpt lat="45.8529906" lon="4.6203295">
        <ele>281.8000000</ele>
        <time>2013-04-07T06:14:39Z</time>
      </trkpt>
      <trkpt lat="45.8530054" lon="4.6212787">
        <ele>283.2500000</ele>
        <time>2013-04-07T06:14:54Z</time>
      </trkpt>
      <trkpt lat="45.8530330" lon="4.6215364">
        <ele>283.2500000</ele>
        <time>2013-04-07T06:14:58Z</time>
      </trkpt>
      <trkpt lat="45.8530701" lon="4.6217339">
        <ele>283.7300000</ele>
        <time>2013-04-07T06:15:01Z</time>
      </trkpt>
      <trkpt lat="45.8531885" lon="4.6221127">
        <ele>284.2100000</ele>
        <time>2013-04-07T06:15:08Z</time>
      </trkpt>
      <trkpt lat="45.8532166" lon="4.6221276">
        <ele>285.1700000</ele>
        <time>2013-04-07T06:15:09Z</time>
      </trkpt>
      <trkpt lat="45.8532391" lon="4.6221173">
        <ele>285.1700000</ele>
        <time>2013-04-07T06:15:10Z</time>
      </trkpt>
      <trkpt lat="45.8532577" lon="4.6220956">
        <ele>285.1700000</ele>
        <time>2013-04-07T06:15:11Z</time>
      </trkpt>
      <trkpt lat="45.8532733" lon="4.6220662">
        <ele>286.1300000</ele>
        <time>2013-04-07T06:15:12Z</time>
      </trkpt>
      <trkpt lat="45.8534622" lon="4.6217729">
        <ele>288.0500000</ele>
        <time>2013-04-07T06:15:23Z</time>
      </trkpt>
      <trkpt lat="45.8537296" lon="4.6218807">
        <ele>290.9400000</ele>
        <time>2013-04-07T06:15:35Z</time>
      </trkpt>
      <trkpt lat="45.8540811" lon="4.6221971">
        <ele>293.8200000</ele>
        <time>2013-04-07T06:15:51Z</time>
      </trkpt>
      <trkpt lat="45.8543601" lon="4.6224421">
        <ele>295.2600000</ele>
        <time>2013-04-07T06:16:03Z</time>
      </trkpt>
      <trkpt lat="45.8542925" lon="4.6229716">
        <ele>294.3000000</ele>
        <time>2013-04-07T06:16:13Z</time>
      </trkpt>
      <trkpt lat="45.8541627" lon="4.6235231">
        <ele>292.3800000</ele>
        <time>2013-04-07T06:16:24Z</time>
      </trkpt>
      <trkpt lat="45.8540775" lon="4.6238313">
        <ele>291.4200000</ele>
        <time>2013-04-07T06:16:30Z</time>
      </trkpt>
      <trkpt lat="45.8542243" lon="4.6240892">
        <ele>291.9000000</ele>
        <time>2013-04-07T06:16:36Z</time>
      </trkpt>
      <trkpt lat="45.8544901" lon="4.6242262">
        <ele>292.8600000</ele>
        <time>2013-04-07T06:16:43Z</time>
      </trkpt>
      <trkpt lat="45.8545695" lon="4.6242700">
        <ele>292.8600000</ele>
        <time>2013-04-07T06:16:45Z</time>
      </trkpt>
      <trkpt lat="45.8546067" lon="4.6245360">
        <ele>293.3400000</ele>
        <time>2013-04-07T06:16:50Z</time>
      </trkpt>
      <trkpt lat="45.8545830" lon="4.6246666">
        <ele>292.8600000</ele>
        <time>2013-04-07T06:16:52Z</time>
      </trkpt>
      <trkpt lat="45.8544782" lon="4.6253011">
        <ele>289.4900000</ele>
        <time>2013-04-07T06:17:00Z</time>
      </trkpt>
      <trkpt lat="45.8542094" lon="4.6254961">
        <ele>288.0500000</ele>
        <time>2013-04-07T06:17:06Z</time>
      </trkpt>
      <trkpt lat="45.8537041" lon="4.6255490">
        <ele>285.6500000</ele>
        <time>2013-04-07T06:17:14Z</time>
      </trkpt>
      <trkpt lat="45.8534861" lon="4.6256548">
        <ele>285.6500000</ele>
        <time>2013-04-07T06:17:18Z</time>
      </trkpt>
      <trkpt lat="45.8534669" lon="4.6257098">
        <ele>285.6500000</ele>
        <time>2013-04-07T06:17:19Z</time>
      </trkpt>
      <trkpt lat="45.8534610" lon="4.6257668">
        <ele>285.1700000</ele>
        <time>2013-04-07T06:17:20Z</time>
      </trkpt>
      <trkpt lat="45.8534628" lon="4.6258227">
        <ele>285.6500000</ele>
        <time>2013-04-07T06:17:21Z</time>
      </trkpt>
      <trkpt lat="45.8534699" lon="4.6258771">
        <ele>285.6500000</ele>
        <time>2013-04-07T06:17:22Z</time>
      </trkpt>
      <trkpt lat="45.8534845" lon="4.6259309">
        <ele>285.6500000</ele>
        <time>2013-04-07T06:17:23Z</time>
      </trkpt>
      <trkpt lat="45.8535054" lon="4.6259848">
        <ele>285.1700000</ele>
        <time>2013-04-07T06:17:24Z</time>
      </trkpt>
      <trkpt lat="45.8535961" lon="4.6262501">
        <ele>284.2100000</ele>
        <time>2013-04-07T06:17:28Z</time>
      </trkpt>
      <trkpt lat="45.8536099" lon="4.6263275">
        <ele>284.6900000</ele>
        <time>2013-04-07T06:17:29Z</time>
      </trkpt>
      <trkpt lat="45.8536160" lon="4.6264081">
        <ele>284.6900000</ele>
        <time>2013-04-07T06:17:30Z</time>
      </trkpt>
      <trkpt lat="45.8536154" lon="4.6264901">
        <ele>284.6900000</ele>
        <time>2013-04-07T06:17:31Z</time>
      </trkpt>
      <trkpt lat="45.8536061" lon="4.6265762">
        <ele>284.2100000</ele>
        <time>2013-04-07T06:17:32Z</time>
      </trkpt>
      <trkpt lat="45.8535890" lon="4.6266674">
        <ele>283.7300000</ele>
        <time>2013-04-07T06:17:33Z</time>
      </trkpt>
      <trkpt lat="45.8535661" lon="4.6267590">
        <ele>283.2500000</ele>
        <time>2013-04-07T06:17:34Z</time>
      </trkpt>
      <trkpt lat="45.8534080" lon="4.6273121">
        <ele>281.8000000</ele>
        <time>2013-04-07T06:17:40Z</time>
      </trkpt>
      <trkpt lat="45.8533733" lon="4.6273571">
        <ele>281.8000000</ele>
        <time>2013-04-07T06:17:41Z</time>
      </trkpt>
      <trkpt lat="45.8531586" lon="4.6272624">
        <ele>280.8400000</ele>
        <time>2013-04-07T06:17:46Z</time>
      </trkpt>
      <trkpt lat="45.8524748" lon="4.6269516">
        <ele>281.3200000</ele>
        <time>2013-04-07T06:18:01Z</time>
      </trkpt>
      <trkpt lat="45.8521868" lon="4.6268959">
        <ele>279.8800000</ele>
        <time>2013-04-07T06:18:09Z</time>
      </trkpt>
      <trkpt lat="45.8521688" lon="4.6267519">
        <ele>279.4000000</ele>
        <time>2013-04-07T06:18:13Z</time>
      </trkpt>
      <trkpt lat="45.8522785" lon="4.6262982">
        <ele>279.8800000</ele>
        <time>2013-04-07T06:18:23Z</time>
      </trkpt>
      <trkpt lat="45.8521658" lon="4.6261059">
        <ele>278.9200000</ele>
        <time>2013-04-07T06:18:28Z</time>
      </trkpt>
      <trkpt lat="45.8518309" lon="4.6257555">
        <ele>275.0700000</ele>
        <time>2013-04-07T06:18:36Z</time>
      </trkpt>
      <trkpt lat="45.8517957" lon="4.6257136">
        <ele>275.0700000</ele>
        <time>2013-04-07T06:18:37Z</time>
      </trkpt>
      <trkpt lat="45.8516062" lon="4.6255074">
        <ele>272.6700000</ele>
        <time>2013-04-07T06:18:42Z</time>
      </trkpt>
      <trkpt lat="45.8516426" lon="4.6251795">
        <ele>272.1900000</ele>
        <time>2013-04-07T06:18:49Z</time>
      </trkpt>
      <trkpt lat="45.8518024" lon="4.6245426">
        <ele>271.7100000</ele>
        <time>2013-04-07T06:19:03Z</time>
      </trkpt>
      <trkpt lat="45.8519804" lon="4.6238965">
        <ele>269.7900000</ele>
        <time>2013-04-07T06:19:16Z</time>
      </trkpt>
      <trkpt lat="45.8521661" lon="4.6238161">
        <ele>271.7100000</ele>
        <time>2013-04-07T06:19:23Z</time>
      </trkpt>
      <trkpt lat="45.8522293" lon="4.6238299">
        <ele>272.6700000</ele>
        <time>2013-04-07T06:19:32Z</time>
      </trkpt>
      <trkpt lat="45.8522223" lon="4.6238180">
        <ele>272.1900000</ele>
        <time>2013-04-07T06:19:42Z</time>
      </trkpt>
      <trkpt lat="45.8521127" lon="4.6237637">
        <ele>270.7500000</ele>
        <time>2013-04-07T06:19:47Z</time>
      </trkpt>
      <trkpt lat="45.8520629" lon="4.6237516">
        <ele>269.7900000</ele>
        <time>2013-04-07T06:19:48Z</time>
      </trkpt>
      <trkpt lat="45.8520055" lon="4.6237395">
        <ele>268.3500000</ele>
        <time>2013-04-07T06:19:49Z</time>
      </trkpt>
      <trkpt lat="45.8517903" lon="4.6236767">
        <ele>264.0200000</ele>
        <time>2013-04-07T06:19:52Z</time>
      </trkpt>
      <trkpt lat="45.8515390" lon="4.6236113">
        <ele>260.1700000</ele>
        <time>2013-04-07T06:19:55Z</time>
      </trkpt>
      <trkpt lat="45.8512939" lon="4.6235652">
        <ele>257.7700000</ele>
        <time>2013-04-07T06:19:58Z</time>
      </trkpt>
      <trkpt lat="45.8511085" lon="4.6235196">
        <ele>256.3300000</ele>
        <time>2013-04-07T06:20:01Z</time>
      </trkpt>
      <trkpt lat="45.8510526" lon="4.6235199">
        <ele>256.3300000</ele>
        <time>2013-04-07T06:20:02Z</time>
      </trkpt>
      <trkpt lat="45.8510060" lon="4.6235308">
        <ele>256.3300000</ele>
        <time>2013-04-07T06:20:03Z</time>
      </trkpt>
      <trkpt lat="45.8509710" lon="4.6235492">
        <ele>256.3300000</ele>
        <time>2013-04-07T06:20:04Z</time>
      </trkpt>
      <trkpt lat="45.8509425" lon="4.6235705">
        <ele>256.3300000</ele>
        <time>2013-04-07T06:20:05Z</time>
      </trkpt>
      <trkpt lat="45.8507803" lon="4.6239213">
        <ele>253.9300000</ele>
        <time>2013-04-07T06:20:15Z</time>
      </trkpt>
      <trkpt lat="45.8507471" lon="4.6240625">
        <ele>253.4400000</ele>
        <time>2013-04-07T06:20:17Z</time>
      </trkpt>
      <trkpt lat="45.8506702" lon="4.6242912">
        <ele>252.4800000</ele>
        <time>2013-04-07T06:20:20Z</time>
      </trkpt>
      <trkpt lat="45.8504354" lon="4.6249554">
        <ele>248.6400000</ele>
        <time>2013-04-07T06:20:27Z</time>
      </trkpt>
      <trkpt lat="45.8503943" lon="4.6250706">
        <ele>248.1600000</ele>
        <time>2013-04-07T06:20:28Z</time>
      </trkpt>
      <trkpt lat="45.8503467" lon="4.6251779">
        <ele>248.1600000</ele>
        <time>2013-04-07T06:20:29Z</time>
      </trkpt>
      <trkpt lat="45.8503051" lon="4.6252565">
        <ele>248.6400000</ele>
        <time>2013-04-07T06:20:30Z</time>
      </trkpt>
      <trkpt lat="45.8502726" lon="4.6252881">
        <ele>249.1200000</ele>
        <time>2013-04-07T06:20:31Z</time>
      </trkpt>
      <trkpt lat="45.8502360" lon="4.6252846">
        <ele>249.1200000</ele>
        <time>2013-04-07T06:20:32Z</time>
      </trkpt>
      <trkpt lat="45.8501933" lon="4.6252769">
        <ele>249.1200000</ele>
        <time>2013-04-07T06:20:33Z</time>
      </trkpt>
      <trkpt lat="45.8501469" lon="4.6252775">
        <ele>248.6400000</ele>
        <time>2013-04-07T06:20:34Z</time>
      </trkpt>
      <trkpt lat="45.8500976" lon="4.6252848">
        <ele>248.6400000</ele>
        <time>2013-04-07T06:20:35Z</time>
      </trkpt>
      <trkpt lat="45.8499866" lon="4.6252959">
        <ele>248.6400000</ele>
        <time>2013-04-07T06:20:37Z</time>
      </trkpt>
      <trkpt lat="45.8499297" lon="4.6252849">
        <ele>248.1600000</ele>
        <time>2013-04-07T06:20:38Z</time>
      </trkpt>
      <trkpt lat="45.8498785" lon="4.6252612">
        <ele>248.6400000</ele>
        <time>2013-04-07T06:20:39Z</time>
      </trkpt>
      <trkpt lat="45.8498345" lon="4.6252283">
        <ele>248.1600000</ele>
        <time>2013-04-07T06:20:40Z</time>
      </trkpt>
      <trkpt lat="45.8497936" lon="4.6251887">
        <ele>248.6400000</ele>
        <time>2013-04-07T06:20:41Z</time>
      </trkpt>
      <trkpt lat="45.8496993" lon="4.6251195">
        <ele>248.1600000</ele>
        <time>2013-04-07T06:20:43Z</time>
      </trkpt>
      <trkpt lat="45.8496476" lon="4.6251045">
        <ele>248.1600000</ele>
        <time>2013-04-07T06:20:44Z</time>
      </trkpt>
      <trkpt lat="45.8495973" lon="4.6251106">
        <ele>247.6800000</ele>
        <time>2013-04-07T06:20:45Z</time>
      </trkpt>
      <trkpt lat="45.8495538" lon="4.6251321">
        <ele>248.1600000</ele>
        <time>2013-04-07T06:20:46Z</time>
      </trkpt>
      <trkpt lat="45.8495149" lon="4.6251555">
        <ele>248.6400000</ele>
        <time>2013-04-07T06:20:47Z</time>
      </trkpt>
      <trkpt lat="45.8494782" lon="4.6251785">
        <ele>248.6400000</ele>
        <time>2013-04-07T06:20:48Z</time>
      </trkpt>
      <trkpt lat="45.8493060" lon="4.6251759">
        <ele>251.5200000</ele>
        <time>2013-04-07T06:20:54Z</time>
      </trkpt>
      <trkpt lat="45.8490990" lon="4.6251545">
        <ele>254.8900000</ele>
        <time>2013-04-07T06:21:01Z</time>
      </trkpt>
      <trkpt lat="45.8490544" lon="4.6251517">
        <ele>255.3700000</ele>
        <time>2013-04-07T06:21:04Z</time>
      </trkpt>
      <trkpt lat="45.8489786" lon="4.6251314">
        <ele>257.2900000</ele>
        <time>2013-04-07T06:21:08Z</time>
      </trkpt>
      <trkpt lat="45.8489624" lon="4.6251187">
        <ele>256.8100000</ele>
        <time>2013-04-07T06:21:09Z</time>
      </trkpt>
      <trkpt lat="45.8489115" lon="4.6250775">
        <ele>258.2500000</ele>
        <time>2013-04-07T06:21:12Z</time>
      </trkpt>
      <trkpt lat="45.8487346" lon="4.6249201">
        <ele>261.6200000</ele>
        <time>2013-04-07T06:21:23Z</time>
      </trkpt>
      <trkpt lat="45.8487184" lon="4.6249077">
        <ele>261.6200000</ele>
        <time>2013-04-07T06:21:24Z</time>
      </trkpt>
      <trkpt lat="45.8486068" lon="4.6248187">
        <ele>264.0200000</ele>
        <time>2013-04-07T06:21:31Z</time>
      </trkpt>
      <trkpt lat="45.8484768" lon="4.6247453">
        <ele>266.9000000</ele>
        <time>2013-04-07T06:21:39Z</time>
      </trkpt>
      <trkpt lat="45.8484074" lon="4.6247779">
        <ele>268.8300000</ele>
        <time>2013-04-07T06:21:44Z</time>
      </trkpt>
      <trkpt lat="45.8483696" lon="4.6248021">
        <ele>269.3100000</ele>
        <time>2013-04-07T06:21:47Z</time>
      </trkpt>
      <trkpt lat="45.8483431" lon="4.6248082">
        <ele>269.3100000</ele>
        <time>2013-04-07T06:21:49Z</time>
      </trkpt>
      <trkpt lat="45.8482697" lon="4.6248257">
        <ele>270.2700000</ele>
        <time>2013-04-07T06:21:54Z</time>
      </trkpt>
      <trkpt lat="45.8482095" lon="4.6249001">
        <ele>270.7500000</ele>
        <time>2013-04-07T06:21:59Z</time>
      </trkpt>
      <trkpt lat="45.8481760" lon="4.6249788">
        <ele>270.7500000</ele>
        <time>2013-04-07T06:22:03Z</time>
      </trkpt>
      <trkpt lat="45.8482079" lon="4.6254380">
        <ele>268.8300000</ele>
        <time>2013-04-07T06:22:14Z</time>
      </trkpt>
      <trkpt lat="45.8482543" lon="4.6258242">
        <ele>264.5000000</ele>
        <time>2013-04-07T06:22:18Z</time>
      </trkpt>
      <trkpt lat="45.8482566" lon="4.6259469">
        <ele>262.1000000</ele>
        <time>2013-04-07T06:22:19Z</time>
      </trkpt>
      <trkpt lat="45.8482456" lon="4.6260776">
        <ele>260.1700000</ele>
        <time>2013-04-07T06:22:20Z</time>
      </trkpt>
      <trkpt lat="45.8482202" lon="4.6262139">
        <ele>258.7300000</ele>
        <time>2013-04-07T06:22:21Z</time>
      </trkpt>
      <trkpt lat="45.8481821" lon="4.6263477">
        <ele>257.7700000</ele>
        <time>2013-04-07T06:22:22Z</time>
      </trkpt>
      <trkpt lat="45.8481354" lon="4.6264836">
        <ele>255.8500000</ele>
        <time>2013-04-07T06:22:23Z</time>
      </trkpt>
      <trkpt lat="45.8479177" lon="4.6273928">
        <ele>252.9600000</ele>
        <time>2013-04-07T06:22:31Z</time>
      </trkpt>
      <trkpt lat="45.8479211" lon="4.6274565">
        <ele>252.9600000</ele>
        <time>2013-04-07T06:22:32Z</time>
      </trkpt>
      <trkpt lat="45.8479377" lon="4.6275141">
        <ele>252.0000000</ele>
        <time>2013-04-07T06:22:33Z</time>
      </trkpt>
      <trkpt lat="45.8479954" lon="4.6276440">
        <ele>250.0800000</ele>
        <time>2013-04-07T06:22:35Z</time>
      </trkpt>
      <trkpt lat="45.8480173" lon="4.6277250">
        <ele>248.6400000</ele>
        <time>2013-04-07T06:22:36Z</time>
      </trkpt>
      <trkpt lat="45.8480286" lon="4.6278160">
        <ele>247.2000000</ele>
        <time>2013-04-07T06:22:37Z</time>
      </trkpt>
      <trkpt lat="45.8480302" lon="4.6279108">
        <ele>245.7500000</ele>
        <time>2013-04-07T06:22:38Z</time>
      </trkpt>
      <trkpt lat="45.8480235" lon="4.6280027">
        <ele>245.2700000</ele>
        <time>2013-04-07T06:22:39Z</time>
      </trkpt>
      <trkpt lat="45.8480114" lon="4.6280829">
        <ele>244.3100000</ele>
        <time>2013-04-07T06:22:40Z</time>
      </trkpt>
      <trkpt lat="45.8479951" lon="4.6281603">
        <ele>243.8300000</ele>
        <time>2013-04-07T06:22:41Z</time>
      </trkpt>
      <trkpt lat="45.8479721" lon="4.6282470">
        <ele>242.3900000</ele>
        <time>2013-04-07T06:22:42Z</time>
      </trkpt>
      <trkpt lat="45.8478921" lon="4.6284716">
        <ele>240.4700000</ele>
        <time>2013-04-07T06:22:45Z</time>
      </trkpt>
      <trkpt lat="45.8478525" lon="4.6285225">
        <ele>240.4700000</ele>
        <time>2013-04-07T06:22:46Z</time>
      </trkpt>
      <trkpt lat="45.8478079" lon="4.6285650">
        <ele>239.5100000</ele>
        <time>2013-04-07T06:22:47Z</time>
      </trkpt>
      <trkpt lat="45.8477078" lon="4.6286505">
        <ele>238.5400000</ele>
        <time>2013-04-07T06:22:49Z</time>
      </trkpt>
      <trkpt lat="45.8476567" lon="4.6287018">
        <ele>238.5400000</ele>
        <time>2013-04-07T06:22:50Z</time>
      </trkpt>
      <trkpt lat="45.8475036" lon="4.6288765">
        <ele>237.5800000</ele>
        <time>2013-04-07T06:22:53Z</time>
      </trkpt>
      <trkpt lat="45.8471589" lon="4.6293717">
        <ele>237.1000000</ele>
        <time>2013-04-07T06:23:01Z</time>
      </trkpt>
      <trkpt lat="45.8471178" lon="4.6294282">
        <ele>237.1000000</ele>
        <time>2013-04-07T06:23:02Z</time>
      </trkpt>
      <trkpt lat="45.8470893" lon="4.6294937">
        <ele>236.6200000</ele>
        <time>2013-04-07T06:23:03Z</time>
      </trkpt>
      <trkpt lat="45.8470686" lon="4.6295724">
        <ele>235.1800000</ele>
        <time>2013-04-07T06:23:04Z</time>
      </trkpt>
      <trkpt lat="45.8470440" lon="4.6296647">
        <ele>233.7400000</ele>
        <time>2013-04-07T06:23:05Z</time>
      </trkpt>
      <trkpt lat="45.8470207" lon="4.6297701">
        <ele>231.8100000</ele>
        <time>2013-04-07T06:23:06Z</time>
      </trkpt>
      <trkpt lat="45.8470168" lon="4.6298746">
        <ele>230.8500000</ele>
        <time>2013-04-07T06:23:07Z</time>
      </trkpt>
      <trkpt lat="45.8470305" lon="4.6299664">
        <ele>230.8500000</ele>
        <time>2013-04-07T06:23:08Z</time>
      </trkpt>
      <trkpt lat="45.8470533" lon="4.6300460">
        <ele>230.8500000</ele>
        <time>2013-04-07T06:23:09Z</time>
      </trkpt>
      <trkpt lat="45.8470843" lon="4.6301159">
        <ele>230.8500000</ele>
        <time>2013-04-07T06:23:10Z</time>
      </trkpt>
      <trkpt lat="45.8471209" lon="4.6301802">
        <ele>230.8500000</ele>
        <time>2013-04-07T06:23:11Z</time>
      </trkpt>
      <trkpt lat="45.8471583" lon="4.6302441">
        <ele>230.8500000</ele>
        <time>2013-04-07T06:23:12Z</time>
      </trkpt>
      <trkpt lat="45.8471921" lon="4.6303098">
        <ele>231.3300000</ele>
        <time>2013-04-07T06:23:13Z</time>
      </trkpt>
      <trkpt lat="45.8472211" lon="4.6303718">
        <ele>231.8100000</ele>
        <time>2013-04-07T06:23:14Z</time>
      </trkpt>
      <trkpt lat="45.8473430" lon="4.6306049">
        <ele>234.7000000</ele>
        <time>2013-04-07T06:23:22Z</time>
      </trkpt>
      <trkpt lat="45.8472932" lon="4.6308807">
        <ele>237.5800000</ele>
        <time>2013-04-07T06:23:32Z</time>
      </trkpt>
      <trkpt lat="45.8472189" lon="4.6312552">
        <ele>240.9500000</ele>
        <time>2013-04-07T06:23:44Z</time>
      </trkpt>
      <trkpt lat="45.8472112" lon="4.6312870">
        <ele>240.9500000</ele>
        <time>2013-04-07T06:23:45Z</time>
      </trkpt>
      <trkpt lat="45.8471772" lon="4.6314848">
        <ele>242.8700000</ele>
        <time>2013-04-07T06:23:52Z</time>
      </trkpt>
      <trkpt lat="45.8472122" lon="4.6317446">
        <ele>246.2300000</ele>
        <time>2013-04-07T06:24:03Z</time>
      </trkpt>
      <trkpt lat="45.8473107" lon="4.6319766">
        <ele>249.6000000</ele>
        <time>2013-04-07T06:24:14Z</time>
      </trkpt>
      <trkpt lat="45.8475249" lon="4.6322403">
        <ele>251.0400000</ele>
        <time>2013-04-07T06:24:29Z</time>
      </trkpt>
      <trkpt lat="45.8476355" lon="4.6322683">
        <ele>253.4400000</ele>
        <time>2013-04-07T06:24:36Z</time>
      </trkpt>
      <trkpt lat="45.8476769" lon="4.6322519">
        <ele>254.4100000</ele>
        <time>2013-04-07T06:24:39Z</time>
      </trkpt>
      <trkpt lat="45.8476837" lon="4.6322341">
        <ele>254.4100000</ele>
        <time>2013-04-07T06:24:40Z</time>
      </trkpt>
      <trkpt lat="45.8476868" lon="4.6322129">
        <ele>254.4100000</ele>
        <time>2013-04-07T06:24:41Z</time>
      </trkpt>
      <trkpt lat="45.8476995" lon="4.6321366">
        <ele>255.3700000</ele>
        <time>2013-04-07T06:24:45Z</time>
      </trkpt>
      <trkpt lat="45.8478604" lon="4.6319519">
        <ele>257.7700000</ele>
        <time>2013-04-07T06:24:57Z</time>
      </trkpt>
      <trkpt lat="45.8481288" lon="4.6318433">
        <ele>260.1700000</ele>
        <time>2013-04-07T06:25:12Z</time>
      </trkpt>
      <trkpt lat="45.8484340" lon="4.6317824">
        <ele>262.5800000</ele>
        <time>2013-04-07T06:25:27Z</time>
      </trkpt>
      <trkpt lat="45.8487926" lon="4.6318456">
        <ele>263.0600000</ele>
        <time>2013-04-07T06:25:40Z</time>
      </trkpt>
      <trkpt lat="45.8492980" lon="4.6320709">
        <ele>263.5400000</ele>
        <time>2013-04-07T06:25:55Z</time>
      </trkpt>
      <trkpt lat="45.8498575" lon="4.6320769">
        <ele>265.9400000</ele>
        <time>2013-04-07T06:26:11Z</time>
      </trkpt>
      <trkpt lat="45.8502661" lon="4.6320301">
        <ele>267.8600000</ele>
        <time>2013-04-07T06:26:24Z</time>
      </trkpt>
      <trkpt lat="45.8507782" lon="4.6320396">
        <ele>268.3500000</ele>
        <time>2013-04-07T06:26:39Z</time>
      </trkpt>
      <trkpt lat="45.8514760" lon="4.6320031">
        <ele>266.4200000</ele>
        <time>2013-04-07T06:26:53Z</time>
      </trkpt>
      <trkpt lat="45.8520787" lon="4.6318142">
        <ele>267.3800000</ele>
        <time>2013-04-07T06:27:06Z</time>
      </trkpt>
      <trkpt lat="45.8523399" lon="4.6317213">
        <ele>267.8600000</ele>
        <time>2013-04-07T06:27:12Z</time>
      </trkpt>
      <trkpt lat="45.8525946" lon="4.6316705">
        <ele>269.7900000</ele>
        <time>2013-04-07T06:27:19Z</time>
      </trkpt>
      <trkpt lat="45.8526128" lon="4.6317033">
        <ele>269.7900000</ele>
        <time>2013-04-07T06:27:20Z</time>
      </trkpt>
      <trkpt lat="45.8526717" lon="4.6321858">
        <ele>271.2300000</ele>
        <time>2013-04-07T06:27:29Z</time>
      </trkpt>
      <trkpt lat="45.8527173" lon="4.6323593">
        <ele>271.2300000</ele>
        <time>2013-04-07T06:27:32Z</time>
      </trkpt>
      <trkpt lat="45.8528717" lon="4.6328204">
        <ele>271.7100000</ele>
        <time>2013-04-07T06:27:45Z</time>
      </trkpt>
      <trkpt lat="45.8529432" lon="4.6330867">
        <ele>271.7100000</ele>
        <time>2013-04-07T06:27:57Z</time>
      </trkpt>
      <trkpt lat="45.8529700" lon="4.6332397">
        <ele>271.7100000</ele>
        <time>2013-04-07T06:28:00Z</time>
      </trkpt>
      <trkpt lat="45.8531834" lon="4.6342188">
        <ele>269.3100000</ele>
        <time>2013-04-07T06:28:14Z</time>
      </trkpt>
      <trkpt lat="45.8532108" lon="4.6343629">
        <ele>269.7900000</ele>
        <time>2013-04-07T06:28:16Z</time>
      </trkpt>
      <trkpt lat="45.8532233" lon="4.6344367">
        <ele>269.3100000</ele>
        <time>2013-04-07T06:28:17Z</time>
      </trkpt>
      <trkpt lat="45.8534635" lon="4.6351236">
        <ele>268.8300000</ele>
        <time>2013-04-07T06:28:27Z</time>
      </trkpt>
      <trkpt lat="45.8535051" lon="4.6351696">
        <ele>268.8300000</ele>
        <time>2013-04-07T06:28:28Z</time>
      </trkpt>
      <trkpt lat="45.8535513" lon="4.6352063">
        <ele>268.3500000</ele>
        <time>2013-04-07T06:28:29Z</time>
      </trkpt>
      <trkpt lat="45.8537840" lon="4.6353278">
        <ele>267.3800000</ele>
        <time>2013-04-07T06:28:34Z</time>
      </trkpt>
      <trkpt lat="45.8540008" lon="4.6354608">
        <ele>264.9800000</ele>
        <time>2013-04-07T06:28:38Z</time>
      </trkpt>
      <trkpt lat="45.8540613" lon="4.6355068">
        <ele>264.0200000</ele>
        <time>2013-04-07T06:28:39Z</time>
      </trkpt>
      <trkpt lat="45.8542783" lon="4.6357217">
        <ele>260.6500000</ele>
        <time>2013-04-07T06:28:43Z</time>
      </trkpt>
      <trkpt lat="45.8543039" lon="4.6357566">
        <ele>260.6500000</ele>
        <time>2013-04-07T06:28:44Z</time>
      </trkpt>
      <trkpt lat="45.8543207" lon="4.6357798">
        <ele>260.6500000</ele>
        <time>2013-04-07T06:28:45Z</time>
      </trkpt>
      <trkpt lat="45.8543429" lon="4.6358000">
        <ele>260.1700000</ele>
        <time>2013-04-07T06:28:46Z</time>
      </trkpt>
      <trkpt lat="45.8544791" lon="4.6359071">
        <ele>257.7700000</ele>
        <time>2013-04-07T06:28:51Z</time>
      </trkpt>
      <trkpt lat="45.8544890" lon="4.6359488">
        <ele>257.2900000</ele>
        <time>2013-04-07T06:28:52Z</time>
      </trkpt>
      <trkpt lat="45.8544978" lon="4.6359901">
        <ele>256.8100000</ele>
        <time>2013-04-07T06:28:53Z</time>
      </trkpt>
      <trkpt lat="45.8545054" lon="4.6360300">
        <ele>256.8100000</ele>
        <time>2013-04-07T06:28:54Z</time>
      </trkpt>
      <trkpt lat="45.8545136" lon="4.6360747">
        <ele>256.8100000</ele>
        <time>2013-04-07T06:28:55Z</time>
      </trkpt>
      <trkpt lat="45.8545369" lon="4.6364251">
        <ele>255.3700000</ele>
        <time>2013-04-07T06:29:01Z</time>
      </trkpt>
      <trkpt lat="45.8545289" lon="4.6365020">
        <ele>254.8900000</ele>
        <time>2013-04-07T06:29:02Z</time>
      </trkpt>
      <trkpt lat="45.8545226" lon="4.6365912">
        <ele>254.4100000</ele>
        <time>2013-04-07T06:29:03Z</time>
      </trkpt>
      <trkpt lat="45.8545212" lon="4.6366940">
        <ele>253.9300000</ele>
        <time>2013-04-07T06:29:04Z</time>
      </trkpt>
      <trkpt lat="45.8545270" lon="4.6368010">
        <ele>253.4400000</ele>
        <time>2013-04-07T06:29:05Z</time>
      </trkpt>
      <trkpt lat="45.8545349" lon="4.6369118">
        <ele>253.4400000</ele>
        <time>2013-04-07T06:29:06Z</time>
      </trkpt>
      <trkpt lat="45.8545496" lon="4.6370164">
        <ele>252.4800000</ele>
        <time>2013-04-07T06:29:07Z</time>
      </trkpt>
      <trkpt lat="45.8546324" lon="4.6374250">
        <ele>253.4400000</ele>
        <time>2013-04-07T06:29:11Z</time>
      </trkpt>
      <trkpt lat="45.8546478" lon="4.6376844">
        <ele>253.9300000</ele>
        <time>2013-04-07T06:29:14Z</time>
      </trkpt>
      <trkpt lat="45.8546418" lon="4.6377769">
        <ele>254.8900000</ele>
        <time>2013-04-07T06:29:15Z</time>
      </trkpt>
      <trkpt lat="45.8545628" lon="4.6381020">
        <ele>257.7700000</ele>
        <time>2013-04-07T06:29:22Z</time>
      </trkpt>
      <trkpt lat="45.8543944" lon="4.6383930">
        <ele>261.1400000</ele>
        <time>2013-04-07T06:29:32Z</time>
      </trkpt>
      <trkpt lat="45.8543631" lon="4.6385484">
        <ele>262.5800000</ele>
        <time>2013-04-07T06:29:37Z</time>
      </trkpt>
      <trkpt lat="45.8543692" lon="4.6385801">
        <ele>263.0600000</ele>
        <time>2013-04-07T06:29:38Z</time>
      </trkpt>
      <trkpt lat="45.8543764" lon="4.6386076">
        <ele>263.0600000</ele>
        <time>2013-04-07T06:29:39Z</time>
      </trkpt>
      <trkpt lat="45.8543863" lon="4.6386326">
        <ele>264.0200000</ele>
        <time>2013-04-07T06:29:40Z</time>
      </trkpt>
      <trkpt lat="45.8544003" lon="4.6386545">
        <ele>264.0200000</ele>
        <time>2013-04-07T06:29:41Z</time>
      </trkpt>
      <trkpt lat="45.8544158" lon="4.6386691">
        <ele>264.0200000</ele>
        <time>2013-04-07T06:29:42Z</time>
      </trkpt>
      <trkpt lat="45.8544307" lon="4.6386815">
        <ele>264.0200000</ele>
        <time>2013-04-07T06:29:43Z</time>
      </trkpt>
      <trkpt lat="45.8544474" lon="4.6386911">
        <ele>264.5000000</ele>
        <time>2013-04-07T06:29:44Z</time>
      </trkpt>
      <trkpt lat="45.8544663" lon="4.6386966">
        <ele>264.5000000</ele>
        <time>2013-04-07T06:29:45Z</time>
      </trkpt>
      <trkpt lat="45.8544842" lon="4.6387037">
        <ele>264.9800000</ele>
        <time>2013-04-07T06:29:46Z</time>
      </trkpt>
      <trkpt lat="45.8545034" lon="4.6387138">
        <ele>264.9800000</ele>
        <time>2013-04-07T06:29:47Z</time>
      </trkpt>
      <trkpt lat="45.8548250" lon="4.6388522">
        <ele>265.9400000</ele>
        <time>2013-04-07T06:30:00Z</time>
      </trkpt>
      <trkpt lat="45.8552912" lon="4.6391865">
        <ele>266.9000000</ele>
        <time>2013-04-07T06:30:14Z</time>
      </trkpt>
      <trkpt lat="45.8557653" lon="4.6396516">
        <ele>263.5400000</ele>
        <time>2013-04-07T06:30:26Z</time>
      </trkpt>
      <trkpt lat="45.8561919" lon="4.6400156">
        <ele>262.5800000</ele>
        <time>2013-04-07T06:30:34Z</time>
      </trkpt>
      <trkpt lat="45.8563823" lon="4.6402400">
        <ele>262.1000000</ele>
        <time>2013-04-07T06:30:40Z</time>
      </trkpt>
      <trkpt lat="45.8564075" lon="4.6402917">
        <ele>262.1000000</ele>
        <time>2013-04-07T06:30:41Z</time>
      </trkpt>
      <trkpt lat="45.8564477" lon="4.6404047">
        <ele>262.5800000</ele>
        <time>2013-04-07T06:30:43Z</time>
      </trkpt>
      <trkpt lat="45.8566018" lon="4.6410052">
        <ele>263.5400000</ele>
        <time>2013-04-07T06:30:52Z</time>
      </trkpt>
      <trkpt lat="45.8566148" lon="4.6410669">
        <ele>264.0200000</ele>
        <time>2013-04-07T06:30:53Z</time>
      </trkpt>
      <trkpt lat="45.8566314" lon="4.6411228">
        <ele>264.0200000</ele>
        <time>2013-04-07T06:30:54Z</time>
      </trkpt>
      <trkpt lat="45.8566494" lon="4.6411726">
        <ele>264.9800000</ele>
        <time>2013-04-07T06:30:55Z</time>
      </trkpt>
      <trkpt lat="45.8566699" lon="4.6412169">
        <ele>265.4600000</ele>
        <time>2013-04-07T06:30:56Z</time>
      </trkpt>
      <trkpt lat="45.8566921" lon="4.6412533">
        <ele>265.4600000</ele>
        <time>2013-04-07T06:30:57Z</time>
      </trkpt>
      <trkpt lat="45.8567141" lon="4.6412839">
        <ele>265.9400000</ele>
        <time>2013-04-07T06:30:58Z</time>
      </trkpt>
      <trkpt lat="45.8570035" lon="4.6415360">
        <ele>267.8600000</ele>
        <time>2013-04-07T06:31:09Z</time>
      </trkpt>
      <trkpt lat="45.8574067" lon="4.6418162">
        <ele>271.2300000</ele>
        <time>2013-04-07T06:31:24Z</time>
      </trkpt>
      <trkpt lat="45.8577647" lon="4.6421102">
        <ele>273.6300000</ele>
        <time>2013-04-07T06:31:39Z</time>
      </trkpt>
      <trkpt lat="45.8581416" lon="4.6424410">
        <ele>276.0400000</ele>
        <time>2013-04-07T06:31:55Z</time>
      </trkpt>
      <trkpt lat="45.8582449" lon="4.6425490">
        <ele>277.0000000</ele>
        <time>2013-04-07T06:32:00Z</time>
      </trkpt>
      <trkpt lat="45.8581408" lon="4.6427631">
        <ele>276.5200000</ele>
        <time>2013-04-07T06:32:06Z</time>
      </trkpt>
      <trkpt lat="45.8580463" lon="4.6429425">
        <ele>276.5200000</ele>
        <time>2013-04-07T06:32:10Z</time>
      </trkpt>
      <trkpt lat="45.8578111" lon="4.6433205">
        <ele>274.1100000</ele>
        <time>2013-04-07T06:32:17Z</time>
      </trkpt>
      <trkpt lat="45.8570619" lon="4.6441502">
        <ele>270.2700000</ele>
        <time>2013-04-07T06:32:31Z</time>
      </trkpt>
      <trkpt lat="45.8565531" lon="4.6447098">
        <ele>267.8600000</ele>
        <time>2013-04-07T06:32:40Z</time>
      </trkpt>
      <trkpt lat="45.8564535" lon="4.6447709">
        <ele>267.8600000</ele>
        <time>2013-04-07T06:32:42Z</time>
      </trkpt>
      <trkpt lat="45.8564072" lon="4.6447408">
        <ele>268.3500000</ele>
        <time>2013-04-07T06:32:43Z</time>
      </trkpt>
      <trkpt lat="45.8563697" lon="4.6446931">
        <ele>267.8600000</ele>
        <time>2013-04-07T06:32:44Z</time>
      </trkpt>
      <trkpt lat="45.8563324" lon="4.6446384">
        <ele>267.8600000</ele>
        <time>2013-04-07T06:32:45Z</time>
      </trkpt>
      <trkpt lat="45.8561955" lon="4.6444890">
        <ele>267.8600000</ele>
        <time>2013-04-07T06:32:49Z</time>
      </trkpt>
      <trkpt lat="45.8562070" lon="4.6446630">
        <ele>267.8600000</ele>
        <time>2013-04-07T06:32:53Z</time>
      </trkpt>
      <trkpt lat="45.8562421" lon="4.6447165">
        <ele>267.3800000</ele>
        <time>2013-04-07T06:32:54Z</time>
      </trkpt>
      <trkpt lat="45.8567764" lon="4.6457819">
        <ele>266.4200000</ele>
        <time>2013-04-07T06:33:10Z</time>
      </trkpt>
      <trkpt lat="45.8572420" lon="4.6468705">
        <ele>268.8300000</ele>
        <time>2013-04-07T06:33:27Z</time>
      </trkpt>
      <trkpt lat="45.8574679" lon="4.6474236">
        <ele>268.3500000</ele>
        <time>2013-04-07T06:33:36Z</time>
      </trkpt>
      <trkpt lat="45.8575017" lon="4.6474582">
        <ele>267.8600000</ele>
        <time>2013-04-07T06:33:37Z</time>
      </trkpt>
      <trkpt lat="45.8575372" lon="4.6474612">
        <ele>268.3500000</ele>
        <time>2013-04-07T06:33:38Z</time>
      </trkpt>
      <trkpt lat="45.8575704" lon="4.6474367">
        <ele>268.3500000</ele>
        <time>2013-04-07T06:33:39Z</time>
      </trkpt>
      <trkpt lat="45.8576033" lon="4.6474032">
        <ele>268.3500000</ele>
        <time>2013-04-07T06:33:40Z</time>
      </trkpt>
      <trkpt lat="45.8576397" lon="4.6473708">
        <ele>269.3100000</ele>
        <time>2013-04-07T06:33:41Z</time>
      </trkpt>
      <trkpt lat="45.8579154" lon="4.6471367">
        <ele>271.2300000</ele>
        <time>2013-04-07T06:33:50Z</time>
      </trkpt>
      <trkpt lat="45.8579247" lon="4.6471165">
        <ele>271.7100000</ele>
        <time>2013-04-07T06:33:51Z</time>
      </trkpt>
      <trkpt lat="45.8579489" lon="4.6471065">
        <ele>272.1900000</ele>
        <time>2013-04-07T06:33:52Z</time>
      </trkpt>
      <trkpt lat="45.8579870" lon="4.6471160">
        <ele>272.6700000</ele>
        <time>2013-04-07T06:33:53Z</time>
      </trkpt>
      <trkpt lat="45.8580160" lon="4.6471428">
        <ele>272.1900000</ele>
        <time>2013-04-07T06:33:54Z</time>
      </trkpt>
      <trkpt lat="45.8582765" lon="4.6478939">
        <ele>271.7100000</ele>
        <time>2013-04-07T06:34:08Z</time>
      </trkpt>
      <trkpt lat="45.8584702" lon="4.6486204">
        <ele>268.8300000</ele>
        <time>2013-04-07T06:34:18Z</time>
      </trkpt>
      <trkpt lat="45.8585137" lon="4.6487842">
        <ele>267.8600000</ele>
        <time>2013-04-07T06:34:20Z</time>
      </trkpt>
      <trkpt lat="45.8585596" lon="4.6489555">
        <ele>266.9000000</ele>
        <time>2013-04-07T06:34:22Z</time>
      </trkpt>
      <trkpt lat="45.8586350" lon="4.6493152">
        <ele>264.9800000</ele>
        <time>2013-04-07T06:34:26Z</time>
      </trkpt>
      <trkpt lat="45.8587870" lon="4.6494295">
        <ele>263.5400000</ele>
        <time>2013-04-07T06:34:30Z</time>
      </trkpt>
      <trkpt lat="45.8589418" lon="4.6492935">
        <ele>263.5400000</ele>
        <time>2013-04-07T06:34:34Z</time>
      </trkpt>
      <trkpt lat="45.8594011" lon="4.6489269">
        <ele>264.9800000</ele>
        <time>2013-04-07T06:34:46Z</time>
      </trkpt>
      <trkpt lat="45.8598506" lon="4.6485874">
        <ele>266.9000000</ele>
        <time>2013-04-07T06:35:00Z</time>
      </trkpt>
      <trkpt lat="45.8600699" lon="4.6484144">
        <ele>267.3800000</ele>
        <time>2013-04-07T06:35:08Z</time>
      </trkpt>
      <trkpt lat="45.8600354" lon="4.6482138">
        <ele>268.8300000</ele>
        <time>2013-04-07T06:35:14Z</time>
      </trkpt>
      <trkpt lat="45.8598994" lon="4.6477527">
        <ele>271.7100000</ele>
        <time>2013-04-07T06:35:28Z</time>
      </trkpt>
      <trkpt lat="45.8599786" lon="4.6477315">
        <ele>271.2300000</ele>
        <time>2013-04-07T06:35:32Z</time>
      </trkpt>
      <trkpt lat="45.8604653" lon="4.6479333">
        <ele>267.8600000</ele>
        <time>2013-04-07T06:35:43Z</time>
      </trkpt>
      <trkpt lat="45.8605797" lon="4.6479485">
        <ele>266.9000000</ele>
        <time>2013-04-07T06:35:45Z</time>
      </trkpt>
      <trkpt lat="45.8606378" lon="4.6479490">
        <ele>266.4200000</ele>
        <time>2013-04-07T06:35:46Z</time>
      </trkpt>
      <trkpt lat="45.8607471" lon="4.6479215">
        <ele>265.4600000</ele>
        <time>2013-04-07T06:35:48Z</time>
      </trkpt>
      <trkpt lat="45.8608134" lon="4.6478392">
        <ele>265.9400000</ele>
        <time>2013-04-07T06:35:50Z</time>
      </trkpt>
      <trkpt lat="45.8608910" lon="4.6476304">
        <ele>266.4200000</ele>
        <time>2013-04-07T06:35:54Z</time>
      </trkpt>
      <trkpt lat="45.8611335" lon="4.6469792">
        <ele>267.3800000</ele>
        <time>2013-04-07T06:36:06Z</time>
      </trkpt>
      <trkpt lat="45.8612494" lon="4.6467199">
        <ele>267.3800000</ele>
        <time>2013-04-07T06:36:11Z</time>
      </trkpt>
      <trkpt lat="45.8612735" lon="4.6466680">
        <ele>267.3800000</ele>
        <time>2013-04-07T06:36:12Z</time>
      </trkpt>
      <trkpt lat="45.8615007" lon="4.6460153">
        <ele>266.9000000</ele>
        <time>2013-04-07T06:36:25Z</time>
      </trkpt>
      <trkpt lat="45.8615485" lon="4.6459251">
        <ele>266.9000000</ele>
        <time>2013-04-07T06:36:33Z</time>
      </trkpt>
      <trkpt lat="45.8616805" lon="4.6456200">
        <ele>266.4200000</ele>
        <time>2013-04-07T06:36:43Z</time>
      </trkpt>
      <trkpt lat="45.8617595" lon="4.6454346">
        <ele>266.9000000</ele>
        <time>2013-04-07T06:36:50Z</time>
      </trkpt>
      <trkpt lat="45.8619247" lon="4.6452535">
        <ele>267.3800000</ele>
        <time>2013-04-07T06:36:59Z</time>
      </trkpt>
      <trkpt lat="45.8620233" lon="4.6452135">
        <ele>267.8600000</ele>
        <time>2013-04-07T06:37:02Z</time>
      </trkpt>
      <trkpt lat="45.8622284" lon="4.6451095">
        <ele>270.2700000</ele>
        <time>2013-04-07T06:37:09Z</time>
      </trkpt>
      <trkpt lat="45.8622576" lon="4.6450823">
        <ele>270.2700000</ele>
        <time>2013-04-07T06:37:11Z</time>
      </trkpt>
      <trkpt lat="45.8625199" lon="4.6450044">
        <ele>271.2300000</ele>
        <time>2013-04-07T06:37:21Z</time>
      </trkpt>
      <trkpt lat="45.8625405" lon="4.6449937">
        <ele>271.2300000</ele>
        <time>2013-04-07T06:37:22Z</time>
      </trkpt>
      <trkpt lat="45.8627178" lon="4.6448252">
        <ele>271.2300000</ele>
        <time>2013-04-07T06:37:33Z</time>
      </trkpt>
      <trkpt lat="45.8629357" lon="4.6443662">
        <ele>271.7100000</ele>
        <time>2013-04-07T06:37:46Z</time>
      </trkpt>
      <trkpt lat="45.8630783" lon="4.6437671">
        <ele>271.7100000</ele>
        <time>2013-04-07T06:37:59Z</time>
      </trkpt>
      <trkpt lat="45.8631103" lon="4.6436828">
        <ele>271.7100000</ele>
        <time>2013-04-07T06:38:01Z</time>
      </trkpt>
      <trkpt lat="45.8632986" lon="4.6437274">
        <ele>271.7100000</ele>
        <time>2013-04-07T06:38:07Z</time>
      </trkpt>
      <trkpt lat="45.8634635" lon="4.6437704">
        <ele>271.7100000</ele>
        <time>2013-04-07T06:38:11Z</time>
      </trkpt>
      <trkpt lat="45.8635107" lon="4.6437670">
        <ele>271.2300000</ele>
        <time>2013-04-07T06:38:12Z</time>
      </trkpt>
      <trkpt lat="45.8641669" lon="4.6436430">
        <ele>270.2700000</ele>
        <time>2013-04-07T06:38:26Z</time>
      </trkpt>
      <trkpt lat="45.8643050" lon="4.6436066">
        <ele>270.2700000</ele>
        <time>2013-04-07T06:38:29Z</time>
      </trkpt>
      <trkpt lat="45.8643522" lon="4.6435974">
        <ele>270.2700000</ele>
        <time>2013-04-07T06:38:30Z</time>
      </trkpt>
      <trkpt lat="45.8644446" lon="4.6435758">
        <ele>270.2700000</ele>
        <time>2013-04-07T06:38:32Z</time>
      </trkpt>
      <trkpt lat="45.8644890" lon="4.6435636">
        <ele>269.7900000</ele>
        <time>2013-04-07T06:38:33Z</time>
      </trkpt>
      <trkpt lat="45.8645314" lon="4.6435487">
        <ele>269.7900000</ele>
        <time>2013-04-07T06:38:34Z</time>
      </trkpt>
      <trkpt lat="45.8645709" lon="4.6435256">
        <ele>269.7900000</ele>
        <time>2013-04-07T06:38:35Z</time>
      </trkpt>
      <trkpt lat="45.8646077" lon="4.6435014">
        <ele>269.3100000</ele>
        <time>2013-04-07T06:38:36Z</time>
      </trkpt>
      <trkpt lat="45.8647681" lon="4.6434298">
        <ele>268.3500000</ele>
        <time>2013-04-07T06:38:40Z</time>
      </trkpt>
      <trkpt lat="45.8648594" lon="4.6434069">
        <ele>267.8600000</ele>
        <time>2013-04-07T06:38:42Z</time>
      </trkpt>
      <trkpt lat="45.8650670" lon="4.6432969">
        <ele>267.3800000</ele>
        <time>2013-04-07T06:38:47Z</time>
      </trkpt>
      <trkpt lat="45.8650966" lon="4.6432789">
        <ele>267.3800000</ele>
        <time>2013-04-07T06:38:48Z</time>
      </trkpt>
      <trkpt lat="45.8651171" lon="4.6432705">
        <ele>266.9000000</ele>
        <time>2013-04-07T06:38:49Z</time>
      </trkpt>
      <trkpt lat="45.8651367" lon="4.6432542">
        <ele>266.9000000</ele>
        <time>2013-04-07T06:38:50Z</time>
      </trkpt>
      <trkpt lat="45.8651622" lon="4.6432426">
        <ele>266.4200000</ele>
        <time>2013-04-07T06:38:51Z</time>
      </trkpt>
      <trkpt lat="45.8651877" lon="4.6432358">
        <ele>266.4200000</ele>
        <time>2013-04-07T06:38:52Z</time>
      </trkpt>
      <trkpt lat="45.8652073" lon="4.6432213">
        <ele>266.4200000</ele>
        <time>2013-04-07T06:38:53Z</time>
      </trkpt>
      <trkpt lat="45.8652215" lon="4.6431982">
        <ele>265.9400000</ele>
        <time>2013-04-07T06:38:54Z</time>
      </trkpt>
      <trkpt lat="45.8652391" lon="4.6431654">
        <ele>265.9400000</ele>
        <time>2013-04-07T06:38:55Z</time>
      </trkpt>
      <trkpt lat="45.8652645" lon="4.6431440">
        <ele>265.9400000</ele>
        <time>2013-04-07T06:38:56Z</time>
      </trkpt>
      <trkpt lat="45.8652884" lon="4.6431288">
        <ele>265.9400000</ele>
        <time>2013-04-07T06:38:57Z</time>
      </trkpt>
      <trkpt lat="45.8655904" lon="4.6429629">
        <ele>264.0200000</ele>
        <time>2013-04-07T06:39:05Z</time>
      </trkpt>
      <trkpt lat="45.8657039" lon="4.6428974">
        <ele>263.5400000</ele>
        <time>2013-04-07T06:39:08Z</time>
      </trkpt>
      <trkpt lat="45.8657936" lon="4.6428687">
        <ele>262.5800000</ele>
        <time>2013-04-07T06:39:12Z</time>
      </trkpt>
      <trkpt lat="45.8660477" lon="4.6427470">
        <ele>260.6500000</ele>
        <time>2013-04-07T06:39:19Z</time>
      </trkpt>
      <trkpt lat="45.8663062" lon="4.6428331">
        <ele>258.7300000</ele>
        <time>2013-04-07T06:39:26Z</time>
      </trkpt>
      <trkpt lat="45.8665182" lon="4.6429607">
        <ele>257.2900000</ele>
        <time>2013-04-07T06:39:33Z</time>
      </trkpt>
      <trkpt lat="45.8665882" lon="4.6429958">
        <ele>256.8100000</ele>
        <time>2013-04-07T06:39:35Z</time>
      </trkpt>
      <trkpt lat="45.8667128" lon="4.6429774">
        <ele>254.8900000</ele>
        <time>2013-04-07T06:39:39Z</time>
      </trkpt>
      <trkpt lat="45.8669794" lon="4.6428564">
        <ele>251.5200000</ele>
        <time>2013-04-07T06:39:46Z</time>
      </trkpt>
      <trkpt lat="45.8670198" lon="4.6428483">
        <ele>251.0400000</ele>
        <time>2013-04-07T06:39:47Z</time>
      </trkpt>
      <trkpt lat="45.8672415" lon="4.6428703">
        <ele>249.6000000</ele>
        <time>2013-04-07T06:39:51Z</time>
      </trkpt>
      <trkpt lat="45.8674351" lon="4.6428723">
        <ele>248.1600000</ele>
        <time>2013-04-07T06:39:54Z</time>
      </trkpt>
      <trkpt lat="45.8674842" lon="4.6429010">
        <ele>247.6800000</ele>
        <time>2013-04-07T06:39:55Z</time>
      </trkpt>
      <trkpt lat="45.8675365" lon="4.6430101">
        <ele>247.6800000</ele>
        <time>2013-04-07T06:39:57Z</time>
      </trkpt>
      <trkpt lat="45.8677954" lon="4.6438664">
        <ele>244.7900000</ele>
        <time>2013-04-07T06:40:09Z</time>
      </trkpt>
      <trkpt lat="45.8678383" lon="4.6440236">
        <ele>243.3500000</ele>
        <time>2013-04-07T06:40:11Z</time>
      </trkpt>
      <trkpt lat="45.8679155" lon="4.6441846">
        <ele>243.3500000</ele>
        <time>2013-04-07T06:40:14Z</time>
      </trkpt>
      <trkpt lat="45.8679530" lon="4.6441965">
        <ele>242.8700000</ele>
        <time>2013-04-07T06:40:15Z</time>
      </trkpt>
      <trkpt lat="45.8679982" lon="4.6441766">
        <ele>242.3900000</ele>
        <time>2013-04-07T06:40:16Z</time>
      </trkpt>
      <trkpt lat="45.8680467" lon="4.6441350">
        <ele>241.9100000</ele>
        <time>2013-04-07T06:40:17Z</time>
      </trkpt>
      <trkpt lat="45.8680975" lon="4.6440869">
        <ele>240.9500000</ele>
        <time>2013-04-07T06:40:18Z</time>
      </trkpt>
      <trkpt lat="45.8681524" lon="4.6440392">
        <ele>240.9500000</ele>
        <time>2013-04-07T06:40:19Z</time>
      </trkpt>
      <trkpt lat="45.8684305" lon="4.6437603">
        <ele>239.5100000</ele>
        <time>2013-04-07T06:40:24Z</time>
      </trkpt>
      <trkpt lat="45.8684812" lon="4.6436897">
        <ele>239.5100000</ele>
        <time>2013-04-07T06:40:25Z</time>
      </trkpt>
      <trkpt lat="45.8685269" lon="4.6436102">
        <ele>239.5100000</ele>
        <time>2013-04-07T06:40:26Z</time>
      </trkpt>
      <trkpt lat="45.8687755" lon="4.6430930">
        <ele>239.0200000</ele>
        <time>2013-04-07T06:40:32Z</time>
      </trkpt>
      <trkpt lat="45.8688242" lon="4.6430237">
        <ele>239.5100000</ele>
        <time>2013-04-07T06:40:33Z</time>
      </trkpt>
      <trkpt lat="45.8688760" lon="4.6429645">
        <ele>239.5100000</ele>
        <time>2013-04-07T06:40:34Z</time>
      </trkpt>
      <trkpt lat="45.8692402" lon="4.6426165">
        <ele>239.0200000</ele>
        <time>2013-04-07T06:40:41Z</time>
      </trkpt>
      <trkpt lat="45.8692982" lon="4.6425842">
        <ele>238.5400000</ele>
        <time>2013-04-07T06:40:42Z</time>
      </trkpt>
      <trkpt lat="45.8693601" lon="4.6425672">
        <ele>237.5800000</ele>
        <time>2013-04-07T06:40:43Z</time>
      </trkpt>
      <trkpt lat="45.8696635" lon="4.6425330">
        <ele>234.2200000</ele>
        <time>2013-04-07T06:40:47Z</time>
      </trkpt>
      <trkpt lat="45.8700225" lon="4.6424788">
        <ele>230.3700000</ele>
        <time>2013-04-07T06:40:51Z</time>
      </trkpt>
      <trkpt lat="45.8702244" lon="4.6424566">
        <ele>227.4900000</ele>
        <time>2013-04-07T06:40:53Z</time>
      </trkpt>
      <trkpt lat="45.8706461" lon="4.6424897">
        <ele>224.1200000</ele>
        <time>2013-04-07T06:40:57Z</time>
      </trkpt>
      <trkpt lat="45.8707507" lon="4.6425288">
        <ele>222.6800000</ele>
        <time>2013-04-07T06:40:58Z</time>
      </trkpt>
      <trkpt lat="45.8708528" lon="4.6425821">
        <ele>222.2000000</ele>
        <time>2013-04-07T06:40:59Z</time>
      </trkpt>
      <trkpt lat="45.8711575" lon="4.6427675">
        <ele>219.3200000</ele>
        <time>2013-04-07T06:41:02Z</time>
      </trkpt>
      <trkpt lat="45.8714733" lon="4.6429577">
        <ele>215.4700000</ele>
        <time>2013-04-07T06:41:05Z</time>
      </trkpt>
      <trkpt lat="45.8716901" lon="4.6430676">
        <ele>213.0700000</ele>
        <time>2013-04-07T06:41:07Z</time>
      </trkpt>
      <trkpt lat="45.8718013" lon="4.6430942">
        <ele>212.1100000</ele>
        <time>2013-04-07T06:41:08Z</time>
      </trkpt>
      <trkpt lat="45.8719142" lon="4.6431048">
        <ele>210.6700000</ele>
        <time>2013-04-07T06:41:09Z</time>
      </trkpt>
      <trkpt lat="45.8720287" lon="4.6431097">
        <ele>210.6700000</ele>
        <time>2013-04-07T06:41:10Z</time>
      </trkpt>
      <trkpt lat="45.8730676" lon="4.6433516">
        <ele>208.7400000</ele>
        <time>2013-04-07T06:41:20Z</time>
      </trkpt>
      <trkpt lat="45.8739618" lon="4.6434450">
        <ele>211.6300000</ele>
        <time>2013-04-07T06:41:31Z</time>
      </trkpt>
      <trkpt lat="45.8746350" lon="4.6434669">
        <ele>213.5500000</ele>
        <time>2013-04-07T06:41:42Z</time>
      </trkpt>
      <trkpt lat="45.8750048" lon="4.6435858">
        <ele>210.6700000</ele>
        <time>2013-04-07T06:41:47Z</time>
      </trkpt>
      <trkpt lat="45.8757394" lon="4.6438945">
        <ele>213.0700000</ele>
        <time>2013-04-07T06:41:59Z</time>
      </trkpt>
      <trkpt lat="45.8757787" lon="4.6439257">
        <ele>213.5500000</ele>
        <time>2013-04-07T06:42:00Z</time>
      </trkpt>
      <trkpt lat="45.8758132" lon="4.6439602">
        <ele>214.0300000</ele>
        <time>2013-04-07T06:42:01Z</time>
      </trkpt>
      <trkpt lat="45.8758439" lon="4.6439969">
        <ele>213.5500000</ele>
        <time>2013-04-07T06:42:02Z</time>
      </trkpt>
      <trkpt lat="45.8758721" lon="4.6440358">
        <ele>214.0300000</ele>
        <time>2013-04-07T06:42:03Z</time>
      </trkpt>
      <trkpt lat="45.8760185" lon="4.6442058">
        <ele>213.5500000</ele>
        <time>2013-04-07T06:42:12Z</time>
      </trkpt>
      <trkpt lat="45.8762679" lon="4.6442145">
        <ele>213.0700000</ele>
        <time>2013-04-07T06:42:18Z</time>
      </trkpt>
      <trkpt lat="45.8765086" lon="4.6441670">
        <ele>212.1100000</ele>
        <time>2013-04-07T06:42:23Z</time>
      </trkpt>
      <trkpt lat="45.8765631" lon="4.6441684">
        <ele>211.6300000</ele>
        <time>2013-04-07T06:42:24Z</time>
      </trkpt>
      <trkpt lat="45.8770749" lon="4.6442997">
        <ele>212.1100000</ele>
        <time>2013-04-07T06:42:33Z</time>
      </trkpt>
      <trkpt lat="45.8772942" lon="4.6443436">
        <ele>213.0700000</ele>
        <time>2013-04-07T06:42:40Z</time>
      </trkpt>
      <trkpt lat="45.8773299" lon="4.6443592">
        <ele>212.5900000</ele>
        <time>2013-04-07T06:42:41Z</time>
      </trkpt>
      <trkpt lat="45.8773714" lon="4.6443788">
        <ele>213.0700000</ele>
        <time>2013-04-07T06:42:42Z</time>
      </trkpt>
      <trkpt lat="45.8774569" lon="4.6444229">
        <ele>213.0700000</ele>
        <time>2013-04-07T06:42:44Z</time>
      </trkpt>
      <trkpt lat="45.8775013" lon="4.6444531">
        <ele>213.0700000</ele>
        <time>2013-04-07T06:42:45Z</time>
      </trkpt>
      <trkpt lat="45.8775815" lon="4.6445247">
        <ele>213.0700000</ele>
        <time>2013-04-07T06:42:47Z</time>
      </trkpt>
      <trkpt lat="45.8776156" lon="4.6445719">
        <ele>213.0700000</ele>
        <time>2013-04-07T06:42:48Z</time>
      </trkpt>
      <trkpt lat="45.8776427" lon="4.6446208">
        <ele>213.5500000</ele>
        <time>2013-04-07T06:42:49Z</time>
      </trkpt>
      <trkpt lat="45.8778136" lon="4.6448420">
        <ele>213.0700000</ele>
        <time>2013-04-07T06:42:56Z</time>
      </trkpt>
      <trkpt lat="45.8778373" lon="4.6448299">
        <ele>213.0700000</ele>
        <time>2013-04-07T06:42:57Z</time>
      </trkpt>
      <trkpt lat="45.8778681" lon="4.6447947">
        <ele>212.5900000</ele>
        <time>2013-04-07T06:42:58Z</time>
      </trkpt>
      <trkpt lat="45.8780307" lon="4.6445364">
        <ele>213.5500000</ele>
        <time>2013-04-07T06:43:03Z</time>
      </trkpt>
      <trkpt lat="45.8783308" lon="4.6443472">
        <ele>216.9100000</ele>
        <time>2013-04-07T06:43:10Z</time>
      </trkpt>
      <trkpt lat="45.8784273" lon="4.6442908">
        <ele>217.8800000</ele>
        <time>2013-04-07T06:43:13Z</time>
      </trkpt>
      <trkpt lat="45.8785108" lon="4.6442437">
        <ele>219.3200000</ele>
        <time>2013-04-07T06:43:17Z</time>
      </trkpt>
      <trkpt lat="45.8785274" lon="4.6442371">
        <ele>219.3200000</ele>
        <time>2013-04-07T06:43:18Z</time>
      </trkpt>
      <trkpt lat="45.8785797" lon="4.6441900">
        <ele>220.7600000</ele>
        <time>2013-04-07T06:43:21Z</time>
      </trkpt>
      <trkpt lat="45.8789182" lon="4.6438071">
        <ele>223.1600000</ele>
        <time>2013-04-07T06:43:36Z</time>
      </trkpt>
      <trkpt lat="45.8789461" lon="4.6438038">
        <ele>223.6400000</ele>
        <time>2013-04-07T06:43:38Z</time>
      </trkpt>
      <trkpt lat="45.8789525" lon="4.6438240">
        <ele>224.1200000</ele>
        <time>2013-04-07T06:43:39Z</time>
      </trkpt>
      <trkpt lat="45.8789514" lon="4.6438495">
        <ele>224.1200000</ele>
        <time>2013-04-07T06:43:40Z</time>
      </trkpt>
      <trkpt lat="45.8789449" lon="4.6438733">
        <ele>224.6100000</ele>
        <time>2013-04-07T06:43:41Z</time>
      </trkpt>
      <trkpt lat="45.8789363" lon="4.6438965">
        <ele>225.0900000</ele>
        <time>2013-04-07T06:43:42Z</time>
      </trkpt>
      <trkpt lat="45.8788451" lon="4.6440785">
        <ele>227.4900000</ele>
        <time>2013-04-07T06:43:52Z</time>
      </trkpt>
      <trkpt lat="45.8788312" lon="4.6440898">
        <ele>227.4900000</ele>
        <time>2013-04-07T06:43:53Z</time>
      </trkpt>
      <trkpt lat="45.8787418" lon="4.6442777">
        <ele>230.8500000</ele>
        <time>2013-04-07T06:44:03Z</time>
      </trkpt>
      <trkpt lat="45.8786258" lon="4.6445094">
        <ele>232.7800000</ele>
        <time>2013-04-07T06:44:15Z</time>
      </trkpt>
      <trkpt lat="45.8786139" lon="4.6445283">
        <ele>233.2600000</ele>
        <time>2013-04-07T06:44:16Z</time>
      </trkpt>
      <trkpt lat="45.8786027" lon="4.6445505">
        <ele>233.2600000</ele>
        <time>2013-04-07T06:44:17Z</time>
      </trkpt>
      <trkpt lat="45.8785892" lon="4.6445704">
        <ele>233.2600000</ele>
        <time>2013-04-07T06:44:18Z</time>
      </trkpt>
      <trkpt lat="45.8785748" lon="4.6445899">
        <ele>233.7400000</ele>
        <time>2013-04-07T06:44:19Z</time>
      </trkpt>
      <trkpt lat="45.8785595" lon="4.6446120">
        <ele>233.7400000</ele>
        <time>2013-04-07T06:44:20Z</time>
      </trkpt>
      <trkpt lat="45.8785426" lon="4.6446346">
        <ele>233.7400000</ele>
        <time>2013-04-07T06:44:21Z</time>
      </trkpt>
      <trkpt lat="45.8785265" lon="4.6446557">
        <ele>234.2200000</ele>
        <time>2013-04-07T06:44:22Z</time>
      </trkpt>
      <trkpt lat="45.8785100" lon="4.6446788">
        <ele>233.7400000</ele>
        <time>2013-04-07T06:44:23Z</time>
      </trkpt>
      <trkpt lat="45.8784908" lon="4.6447037">
        <ele>234.2200000</ele>
        <time>2013-04-07T06:44:24Z</time>
      </trkpt>
      <trkpt lat="45.8784715" lon="4.6447285">
        <ele>234.2200000</ele>
        <time>2013-04-07T06:44:25Z</time>
      </trkpt>
      <trkpt lat="45.8784514" lon="4.6447533">
        <ele>234.2200000</ele>
        <time>2013-04-07T06:44:26Z</time>
      </trkpt>
      <trkpt lat="45.8783477" lon="4.6449072">
        <ele>233.2600000</ele>
        <time>2013-04-07T06:44:30Z</time>
      </trkpt>
      <trkpt lat="45.8782891" lon="4.6450162">
        <ele>233.2600000</ele>
        <time>2013-04-07T06:44:32Z</time>
      </trkpt>
      <trkpt lat="45.8782551" lon="4.6450668">
        <ele>233.7400000</ele>
        <time>2013-04-07T06:44:33Z</time>
      </trkpt>
      <trkpt lat="45.8780462" lon="4.6454894">
        <ele>235.1800000</ele>
        <time>2013-04-07T06:44:42Z</time>
      </trkpt>
      <trkpt lat="45.8780362" lon="4.6455444">
        <ele>235.1800000</ele>
        <time>2013-04-07T06:44:43Z</time>
      </trkpt>
      <trkpt lat="45.8780321" lon="4.6456017">
        <ele>235.1800000</ele>
        <time>2013-04-07T06:44:44Z</time>
      </trkpt>
      <trkpt lat="45.8780313" lon="4.6456594">
        <ele>235.1800000</ele>
        <time>2013-04-07T06:44:45Z</time>
      </trkpt>
      <trkpt lat="45.8780334" lon="4.6457107">
        <ele>235.6600000</ele>
        <time>2013-04-07T06:44:46Z</time>
      </trkpt>
      <trkpt lat="45.8780409" lon="4.6457485">
        <ele>235.6600000</ele>
        <time>2013-04-07T06:44:47Z</time>
      </trkpt>
      <trkpt lat="45.8781593" lon="4.6459055">
        <ele>238.5400000</ele>
        <time>2013-04-07T06:44:55Z</time>
      </trkpt>
      <trkpt lat="45.8784172" lon="4.6460736">
        <ele>241.4300000</ele>
        <time>2013-04-07T06:45:07Z</time>
      </trkpt>
      <trkpt lat="45.8786595" lon="4.6460393">
        <ele>244.7900000</ele>
        <time>2013-04-07T06:45:19Z</time>
      </trkpt>
      <trkpt lat="45.8789007" lon="4.6460070">
        <ele>247.6800000</ele>
        <time>2013-04-07T06:45:32Z</time>
      </trkpt>
      <trkpt lat="45.8791556" lon="4.6458526">
        <ele>250.5600000</ele>
        <time>2013-04-07T06:45:46Z</time>
      </trkpt>
      <trkpt lat="45.8793576" lon="4.6456854">
        <ele>253.4400000</ele>
        <time>2013-04-07T06:45:58Z</time>
      </trkpt>
      <trkpt lat="45.8794336" lon="4.6456112">
        <ele>254.4100000</ele>
        <time>2013-04-07T06:46:03Z</time>
      </trkpt>
      <trkpt lat="45.8794521" lon="4.6456051">
        <ele>254.4100000</ele>
        <time>2013-04-07T06:46:04Z</time>
      </trkpt>
      <trkpt lat="45.8794721" lon="4.6455959">
        <ele>254.8900000</ele>
        <time>2013-04-07T06:46:05Z</time>
      </trkpt>
      <trkpt lat="45.8794928" lon="4.6455861">
        <ele>255.3700000</ele>
        <time>2013-04-07T06:46:06Z</time>
      </trkpt>
      <trkpt lat="45.8795130" lon="4.6455791">
        <ele>255.3700000</ele>
        <time>2013-04-07T06:46:07Z</time>
      </trkpt>
      <trkpt lat="45.8796247" lon="4.6455139">
        <ele>256.8100000</ele>
        <time>2013-04-07T06:46:14Z</time>
      </trkpt>
      <trkpt lat="45.8796395" lon="4.6455104">
        <ele>257.2900000</ele>
        <time>2013-04-07T06:46:15Z</time>
      </trkpt>
      <trkpt lat="45.8798938" lon="4.6453889">
        <ele>259.6900000</ele>
        <time>2013-04-07T06:46:28Z</time>
      </trkpt>
      <trkpt lat="45.8799100" lon="4.6453760">
        <ele>260.1700000</ele>
        <time>2013-04-07T06:46:29Z</time>
      </trkpt>
      <trkpt lat="45.8799203" lon="4.6453671">
        <ele>260.1700000</ele>
        <time>2013-04-07T06:46:30Z</time>
      </trkpt>
      <trkpt lat="45.8799442" lon="4.6453533">
        <ele>260.6500000</ele>
        <time>2013-04-07T06:46:32Z</time>
      </trkpt>
      <trkpt lat="45.8799625" lon="4.6453424">
        <ele>260.6500000</ele>
        <time>2013-04-07T06:46:33Z</time>
      </trkpt>
      <trkpt lat="45.8799775" lon="4.6453309">
        <ele>261.1400000</ele>
        <time>2013-04-07T06:46:34Z</time>
      </trkpt>
      <trkpt lat="45.8799909" lon="4.6453137">
        <ele>261.1400000</ele>
        <time>2013-04-07T06:46:35Z</time>
      </trkpt>
      <trkpt lat="45.8800055" lon="4.6452918">
        <ele>261.1400000</ele>
        <time>2013-04-07T06:46:36Z</time>
      </trkpt>
      <trkpt lat="45.8800196" lon="4.6452740">
        <ele>261.6200000</ele>
        <time>2013-04-07T06:46:37Z</time>
      </trkpt>
      <trkpt lat="45.8801627" lon="4.6451521">
        <ele>264.0200000</ele>
        <time>2013-04-07T06:46:50Z</time>
      </trkpt>
      <trkpt lat="45.8801924" lon="4.6451880">
        <ele>263.5400000</ele>
        <time>2013-04-07T06:47:03Z</time>
      </trkpt>
      <trkpt lat="45.8802004" lon="4.6452093">
        <ele>263.5400000</ele>
        <time>2013-04-07T06:47:04Z</time>
      </trkpt>
      <trkpt lat="45.8802225" lon="4.6452392">
        <ele>262.5800000</ele>
        <time>2013-04-07T06:47:05Z</time>
      </trkpt>
      <trkpt lat="45.8802556" lon="4.6452807">
        <ele>260.6500000</ele>
        <time>2013-04-07T06:47:06Z</time>
      </trkpt>
      <trkpt lat="45.8802900" lon="4.6453328">
        <ele>259.2100000</ele>
        <time>2013-04-07T06:47:07Z</time>
      </trkpt>
      <trkpt lat="45.8803235" lon="4.6453867">
        <ele>257.7700000</ele>
        <time>2013-04-07T06:47:08Z</time>
      </trkpt>
      <trkpt lat="45.8803970" lon="4.6455255">
        <ele>253.9300000</ele>
        <time>2013-04-07T06:47:11Z</time>
      </trkpt>
      <trkpt lat="45.8804261" lon="4.6455718">
        <ele>252.4800000</ele>
        <time>2013-04-07T06:47:12Z</time>
      </trkpt>
      <trkpt lat="45.8804615" lon="4.6456060">
        <ele>251.0400000</ele>
        <time>2013-04-07T06:47:13Z</time>
      </trkpt>
      <trkpt lat="45.8804861" lon="4.6456248">
        <ele>250.5600000</ele>
        <time>2013-04-07T06:47:14Z</time>
      </trkpt>
      <trkpt lat="45.8805555" lon="4.6456470">
        <ele>249.6000000</ele>
        <time>2013-04-07T06:47:15Z</time>
      </trkpt>
      <trkpt lat="45.8806163" lon="4.6456480">
        <ele>249.1200000</ele>
        <time>2013-04-07T06:47:16Z</time>
      </trkpt>
      <trkpt lat="45.8806803" lon="4.6456460">
        <ele>248.6400000</ele>
        <time>2013-04-07T06:47:17Z</time>
      </trkpt>
      <trkpt lat="45.8808636" lon="4.6456741">
        <ele>244.7900000</ele>
        <time>2013-04-07T06:47:20Z</time>
      </trkpt>
      <trkpt lat="45.8810457" lon="4.6457041">
        <ele>240.9500000</ele>
        <time>2013-04-07T06:47:23Z</time>
      </trkpt>
      <trkpt lat="45.8811717" lon="4.6457190">
        <ele>238.0600000</ele>
        <time>2013-04-07T06:47:25Z</time>
      </trkpt>
      <trkpt lat="45.8812251" lon="4.6457422">
        <ele>237.1000000</ele>
        <time>2013-04-07T06:47:26Z</time>
      </trkpt>
      <trkpt lat="45.8812782" lon="4.6457720">
        <ele>236.1400000</ele>
        <time>2013-04-07T06:47:27Z</time>
      </trkpt>
      <trkpt lat="45.8813913" lon="4.6458224">
        <ele>232.3000000</ele>
        <time>2013-04-07T06:47:29Z</time>
      </trkpt>
      <trkpt lat="45.8814572" lon="4.6458376">
        <ele>230.3700000</ele>
        <time>2013-04-07T06:47:30Z</time>
      </trkpt>
      <trkpt lat="45.8815245" lon="4.6458526">
        <ele>228.9300000</ele>
        <time>2013-04-07T06:47:31Z</time>
      </trkpt>
      <trkpt lat="45.8815862" lon="4.6458781">
        <ele>226.5300000</ele>
        <time>2013-04-07T06:47:32Z</time>
      </trkpt>
      <trkpt lat="45.8816408" lon="4.6459090">
        <ele>225.0900000</ele>
        <time>2013-04-07T06:47:33Z</time>
      </trkpt>
      <trkpt lat="45.8816927" lon="4.6459516">
        <ele>223.6400000</ele>
        <time>2013-04-07T06:47:34Z</time>
      </trkpt>
      <trkpt lat="45.8817329" lon="4.6459956">
        <ele>222.6800000</ele>
        <time>2013-04-07T06:47:35Z</time>
      </trkpt>
      <trkpt lat="45.8817641" lon="4.6460287">
        <ele>222.6800000</ele>
        <time>2013-04-07T06:47:36Z</time>
      </trkpt>
      <trkpt lat="45.8817890" lon="4.6460526">
        <ele>222.2000000</ele>
        <time>2013-04-07T06:47:37Z</time>
      </trkpt>
      <trkpt lat="45.8818059" lon="4.6460728">
        <ele>221.7200000</ele>
        <time>2013-04-07T06:47:38Z</time>
      </trkpt>
      <trkpt lat="45.8818298" lon="4.6460968">
        <ele>221.7200000</ele>
        <time>2013-04-07T06:47:39Z</time>
      </trkpt>
      <trkpt lat="45.8818458" lon="4.6461410">
        <ele>221.2400000</ele>
        <time>2013-04-07T06:47:41Z</time>
      </trkpt>
      <trkpt lat="45.8818522" lon="4.6461708">
        <ele>221.7200000</ele>
        <time>2013-04-07T06:47:42Z</time>
      </trkpt>
      <trkpt lat="45.8818484" lon="4.6462046">
        <ele>221.7200000</ele>
        <time>2013-04-07T06:47:43Z</time>
      </trkpt>
      <trkpt lat="45.8818245" lon="4.6462450">
        <ele>221.2400000</ele>
        <time>2013-04-07T06:47:44Z</time>
      </trkpt>
      <trkpt lat="45.8817927" lon="4.6462915">
        <ele>220.2800000</ele>
        <time>2013-04-07T06:47:45Z</time>
      </trkpt>
      <trkpt lat="45.8817582" lon="4.6463410">
        <ele>219.8000000</ele>
        <time>2013-04-07T06:47:46Z</time>
      </trkpt>
      <trkpt lat="45.8817202" lon="4.6463875">
        <ele>219.8000000</ele>
        <time>2013-04-07T06:47:47Z</time>
      </trkpt>
      <trkpt lat="45.8816418" lon="4.6464742">
        <ele>219.3200000</ele>
        <time>2013-04-07T06:47:49Z</time>
      </trkpt>
      <trkpt lat="45.8815514" lon="4.6465545">
        <ele>218.8400000</ele>
        <time>2013-04-07T06:47:51Z</time>
      </trkpt>
      <trkpt lat="45.8815005" lon="4.6465918">
        <ele>219.3200000</ele>
        <time>2013-04-07T06:47:52Z</time>
      </trkpt>
      <trkpt lat="45.8813341" lon="4.6466842">
        <ele>218.3600000</ele>
        <time>2013-04-07T06:47:55Z</time>
      </trkpt>
      <trkpt lat="45.8809483" lon="4.6468177">
        <ele>218.3600000</ele>
        <time>2013-04-07T06:48:02Z</time>
      </trkpt>
      <trkpt lat="45.8809145" lon="4.6468669">
        <ele>218.8400000</ele>
        <time>2013-04-07T06:48:03Z</time>
      </trkpt>
      <trkpt lat="45.8809467" lon="4.6471038">
        <ele>218.3600000</ele>
        <time>2013-04-07T06:48:07Z</time>
      </trkpt>
      <trkpt lat="45.8809734" lon="4.6471911">
        <ele>218.8400000</ele>
        <time>2013-04-07T06:48:09Z</time>
      </trkpt>
      <trkpt lat="45.8809870" lon="4.6472176">
        <ele>218.8400000</ele>
        <time>2013-04-07T06:48:11Z</time>
      </trkpt>
      <trkpt lat="45.8810902" lon="4.6471856">
        <ele>219.3200000</ele>
        <time>2013-04-07T06:48:17Z</time>
      </trkpt>
      <trkpt lat="45.8810052" lon="4.6470977">
        <ele>219.3200000</ele>
        <time>2013-04-07T06:48:22Z</time>
      </trkpt>
      <trkpt lat="45.8810347" lon="4.6470676">
        <ele>218.8400000</ele>
        <time>2013-04-07T06:48:26Z</time>
      </trkpt>
      <trkpt lat="45.8812233" lon="4.6472684">
        <ele>220.2800000</ele>
        <time>2013-04-07T06:48:35Z</time>
      </trkpt>
      <trkpt lat="45.8813330" lon="4.6474264">
        <ele>222.6800000</ele>
        <time>2013-04-07T06:48:46Z</time>
      </trkpt>
      <trkpt lat="45.8814076" lon="4.6474914">
        <ele>224.1200000</ele>
        <time>2013-04-07T06:48:51Z</time>
      </trkpt>
      <trkpt lat="45.8814796" lon="4.6475528">
        <ele>225.5700000</ele>
        <time>2013-04-07T06:48:55Z</time>
      </trkpt>
      <trkpt lat="45.8816227" lon="4.6476061">
        <ele>227.9700000</ele>
        <time>2013-04-07T06:49:02Z</time>
      </trkpt>
      <trkpt lat="45.8817200" lon="4.6477003">
        <ele>230.8500000</ele>
        <time>2013-04-07T06:49:10Z</time>
      </trkpt>
      <trkpt lat="45.8817592" lon="4.6477422">
        <ele>232.7800000</ele>
        <time>2013-04-07T06:49:14Z</time>
      </trkpt>
      <trkpt lat="45.8818100" lon="4.6477956">
        <ele>233.7400000</ele>
        <time>2013-04-07T06:49:18Z</time>
      </trkpt>
      <trkpt lat="45.8818280" lon="4.6478205">
        <ele>233.7400000</ele>
        <time>2013-04-07T06:49:20Z</time>
      </trkpt>
      <trkpt lat="45.8818998" lon="4.6478511">
        <ele>236.6200000</ele>
        <time>2013-04-07T06:49:26Z</time>
      </trkpt>
      <trkpt lat="45.8819398" lon="4.6478893">
        <ele>238.0600000</ele>
        <time>2013-04-07T06:49:30Z</time>
      </trkpt>
      <trkpt lat="45.8820450" lon="4.6479381">
        <ele>241.4300000</ele>
        <time>2013-04-07T06:49:40Z</time>
      </trkpt>
      <trkpt lat="45.8821643" lon="4.6479258">
        <ele>244.7900000</ele>
        <time>2013-04-07T06:49:50Z</time>
      </trkpt>
      <trkpt lat="45.8821936" lon="4.6479167">
        <ele>245.7500000</ele>
        <time>2013-04-07T06:49:53Z</time>
      </trkpt>
      <trkpt lat="45.8822747" lon="4.6479053">
        <ele>247.6800000</ele>
        <time>2013-04-07T06:50:05Z</time>
      </trkpt>
      <trkpt lat="45.8822854" lon="4.6479071">
        <ele>247.6800000</ele>
        <time>2013-04-07T06:50:17Z</time>
      </trkpt>
      <trkpt lat="45.8823754" lon="4.6478929">
        <ele>249.1200000</ele>
        <time>2013-04-07T06:50:30Z</time>
      </trkpt>
      <trkpt lat="45.8824433" lon="4.6478724">
        <ele>251.0400000</ele>
        <time>2013-04-07T06:50:35Z</time>
      </trkpt>
      <trkpt lat="45.8824985" lon="4.6478619">
        <ele>252.0000000</ele>
        <time>2013-04-07T06:50:39Z</time>
      </trkpt>
      <trkpt lat="45.8826711" lon="4.6478400">
        <ele>254.8900000</ele>
        <time>2013-04-07T06:50:53Z</time>
      </trkpt>
      <trkpt lat="45.8827059" lon="4.6478511">
        <ele>255.3700000</ele>
        <time>2013-04-07T06:50:56Z</time>
      </trkpt>
      <trkpt lat="45.8827592" lon="4.6478707">
        <ele>256.8100000</ele>
        <time>2013-04-07T06:51:01Z</time>
      </trkpt>
      <trkpt lat="45.8827810" lon="4.6479185">
        <ele>258.2500000</ele>
        <time>2013-04-07T06:51:06Z</time>
      </trkpt>
      <trkpt lat="45.8827667" lon="4.6479662">
        <ele>259.2100000</ele>
        <time>2013-04-07T06:51:10Z</time>
      </trkpt>
      <trkpt lat="45.8827712" lon="4.6480236">
        <ele>260.6500000</ele>
        <time>2013-04-07T06:51:14Z</time>
      </trkpt>
      <trkpt lat="45.8827116" lon="4.6482243">
        <ele>262.1000000</ele>
        <time>2013-04-07T06:51:27Z</time>
      </trkpt>
      <trkpt lat="45.8826675" lon="4.6483862">
        <ele>264.9800000</ele>
        <time>2013-04-07T06:51:37Z</time>
      </trkpt>
      <trkpt lat="45.8826985" lon="4.6485681">
        <ele>267.8600000</ele>
        <time>2013-04-07T06:51:49Z</time>
      </trkpt>
      <trkpt lat="45.8827240" lon="4.6486638">
        <ele>268.8300000</ele>
        <time>2013-04-07T06:51:55Z</time>
      </trkpt>
      <trkpt lat="45.8827719" lon="4.6488386">
        <ele>272.1900000</ele>
        <time>2013-04-07T06:52:06Z</time>
      </trkpt>
      <trkpt lat="45.8828255" lon="4.6490209">
        <ele>274.5900000</ele>
        <time>2013-04-07T06:52:18Z</time>
      </trkpt>
      <trkpt lat="45.8828983" lon="4.6491797">
        <ele>277.0000000</ele>
        <time>2013-04-07T06:52:32Z</time>
      </trkpt>
      <trkpt lat="45.8830467" lon="4.6492180">
        <ele>279.8800000</ele>
        <time>2013-04-07T06:52:46Z</time>
      </trkpt>
      <trkpt lat="45.8830669" lon="4.6492226">
        <ele>280.3600000</ele>
        <time>2013-04-07T06:52:48Z</time>
      </trkpt>
      <trkpt lat="45.8830908" lon="4.6492265">
        <ele>280.8400000</ele>
        <time>2013-04-07T06:52:50Z</time>
      </trkpt>
      <trkpt lat="45.8831120" lon="4.6492352">
        <ele>281.3200000</ele>
        <time>2013-04-07T06:52:52Z</time>
      </trkpt>
      <trkpt lat="45.8831494" lon="4.6492601">
        <ele>281.8000000</ele>
        <time>2013-04-07T06:52:55Z</time>
      </trkpt>
      <trkpt lat="45.8832468" lon="4.6492344">
        <ele>282.7700000</ele>
        <time>2013-04-07T06:53:02Z</time>
      </trkpt>
      <trkpt lat="45.8833079" lon="4.6491932">
        <ele>282.7700000</ele>
        <time>2013-04-07T06:53:06Z</time>
      </trkpt>
      <trkpt lat="45.8835051" lon="4.6491601">
        <ele>285.6500000</ele>
        <time>2013-04-07T06:53:19Z</time>
      </trkpt>
      <trkpt lat="45.8835554" lon="4.6491544">
        <ele>286.6100000</ele>
        <time>2013-04-07T06:53:23Z</time>
      </trkpt>
      <trkpt lat="45.8837004" lon="4.6491341">
        <ele>288.0500000</ele>
        <time>2013-04-07T06:53:34Z</time>
      </trkpt>
      <trkpt lat="45.8839396" lon="4.6489332">
        <ele>288.5300000</ele>
        <time>2013-04-07T06:53:48Z</time>
      </trkpt>
      <trkpt lat="45.8841172" lon="4.6488081">
        <ele>289.0100000</ele>
        <time>2013-04-07T06:53:59Z</time>
      </trkpt>
      <trkpt lat="45.8841556" lon="4.6488137">
        <ele>289.0100000</ele>
        <time>2013-04-07T06:54:11Z</time>
      </trkpt>
      <trkpt lat="45.8841511" lon="4.6488240">
        <ele>289.0100000</ele>
        <time>2013-04-07T06:54:42Z</time>
      </trkpt>
      <trkpt lat="45.8841399" lon="4.6488494">
        <ele>289.0100000</ele>
        <time>2013-04-07T06:55:17Z</time>
      </trkpt>
      <trkpt lat="45.8841483" lon="4.6488343">
        <ele>289.0100000</ele>
        <time>2013-04-07T06:55:52Z</time>
      </trkpt>
      <trkpt lat="45.8841630" lon="4.6488137">
        <ele>289.0100000</ele>
        <time>2013-04-07T06:56:26Z</time>
      </trkpt>
      <trkpt lat="45.8841590" lon="4.6488203">
        <ele>289.4900000</ele>
        <time>2013-04-07T06:57:04Z</time>
      </trkpt>
      <trkpt lat="45.8841537" lon="4.6488263">
        <ele>289.4900000</ele>
        <time>2013-04-07T06:57:38Z</time>
      </trkpt>
      <trkpt lat="45.8841560" lon="4.6488250">
        <ele>288.5300000</ele>
        <time>2013-04-07T06:58:11Z</time>
      </trkpt>
      <trkpt lat="45.8841545" lon="4.6488258">
        <ele>289.0100000</ele>
        <time>2013-04-07T06:58:45Z</time>
      </trkpt>
      <trkpt lat="45.8841580" lon="4.6488223">
        <ele>288.5300000</ele>
        <time>2013-04-07T06:59:24Z</time>
      </trkpt>
      <trkpt lat="45.8841616" lon="4.6488168">
        <ele>289.0100000</ele>
        <time>2013-04-07T06:59:57Z</time>
      </trkpt>
      <trkpt lat="45.8841762" lon="4.6488009">
        <ele>288.5300000</ele>
        <time>2013-04-07T07:00:31Z</time>
      </trkpt>
      <trkpt lat="45.8841780" lon="4.6488123">
        <ele>288.5300000</ele>
        <time>2013-04-07T07:01:02Z</time>
      </trkpt>
      <trkpt lat="45.8841625" lon="4.6487946">
        <ele>288.5300000</ele>
        <time>2013-04-07T07:01:22Z</time>
      </trkpt>
      <trkpt lat="45.8842002" lon="4.6487835">
        <ele>289.0100000</ele>
        <time>2013-04-07T07:01:28Z</time>
      </trkpt>
      <trkpt lat="45.8841997" lon="4.6488078">
        <ele>289.0100000</ele>
        <time>2013-04-07T07:01:30Z</time>
      </trkpt>
      <trkpt lat="45.8841698" lon="4.6488264">
        <ele>288.0500000</ele>
        <time>2013-04-07T07:01:41Z</time>
      </trkpt>
      <trkpt lat="45.8841626" lon="4.6488251">
        <ele>288.5300000</ele>
        <time>2013-04-07T07:02:14Z</time>
      </trkpt>
      <trkpt lat="45.8841610" lon="4.6488341">
        <ele>288.0500000</ele>
        <time>2013-04-07T07:02:42Z</time>
      </trkpt>
      <trkpt lat="45.8841589" lon="4.6488369">
        <ele>288.0500000</ele>
        <time>2013-04-07T07:03:15Z</time>
      </trkpt>
      <trkpt lat="45.8841713" lon="4.6488439">
        <ele>289.0100000</ele>
        <time>2013-04-07T07:03:49Z</time>
      </trkpt>
      <trkpt lat="45.8841587" lon="4.6488351">
        <ele>288.0500000</ele>
        <time>2013-04-07T07:04:18Z</time>
      </trkpt>
      <trkpt lat="45.8841680" lon="4.6488354">
        <ele>289.4900000</ele>
        <time>2013-04-07T07:04:50Z</time>
      </trkpt>
      <trkpt lat="45.8841698" lon="4.6488352">
        <ele>289.0100000</ele>
        <time>2013-04-07T07:04:53Z</time>
      </trkpt>
      <trkpt lat="45.8841920" lon="4.6488324">
        <ele>289.0100000</ele>
        <time>2013-04-07T07:04:55Z</time>
      </trkpt>
      <trkpt lat="45.8844819" lon="4.6490433">
        <ele>292.3800000</ele>
        <time>2013-04-07T07:05:10Z</time>
      </trkpt>
      <trkpt lat="45.8846524" lon="4.6492018">
        <ele>293.8200000</ele>
        <time>2013-04-07T07:05:18Z</time>
      </trkpt>
      <trkpt lat="45.8846673" lon="4.6493400">
        <ele>294.7800000</ele>
        <time>2013-04-07T07:05:22Z</time>
      </trkpt>
      <trkpt lat="45.8845285" lon="4.6499409">
        <ele>296.7000000</ele>
        <time>2013-04-07T07:05:36Z</time>
      </trkpt>
      <trkpt lat="45.8844926" lon="4.6507363">
        <ele>299.5900000</ele>
        <time>2013-04-07T07:05:52Z</time>
      </trkpt>
      <trkpt lat="45.8844542" lon="4.6513052">
        <ele>301.5100000</ele>
        <time>2013-04-07T07:06:05Z</time>
      </trkpt>
      <trkpt lat="45.8844429" lon="4.6514537">
        <ele>301.0300000</ele>
        <time>2013-04-07T07:06:08Z</time>
      </trkpt>
      <trkpt lat="45.8844345" lon="4.6515160">
        <ele>300.0700000</ele>
        <time>2013-04-07T07:06:09Z</time>
      </trkpt>
      <trkpt lat="45.8844138" lon="4.6515796">
        <ele>299.5900000</ele>
        <time>2013-04-07T07:06:10Z</time>
      </trkpt>
      <trkpt lat="45.8843789" lon="4.6516301">
        <ele>299.5900000</ele>
        <time>2013-04-07T07:06:11Z</time>
      </trkpt>
      <trkpt lat="45.8843428" lon="4.6516669">
        <ele>300.0700000</ele>
        <time>2013-04-07T07:06:12Z</time>
      </trkpt>
      <trkpt lat="45.8840184" lon="4.6520188">
        <ele>302.9500000</ele>
        <time>2013-04-07T07:06:22Z</time>
      </trkpt>
      <trkpt lat="45.8836001" lon="4.6524579">
        <ele>306.3200000</ele>
        <time>2013-04-07T07:06:36Z</time>
      </trkpt>
      <trkpt lat="45.8832344" lon="4.6528690">
        <ele>309.2000000</ele>
        <time>2013-04-07T07:06:49Z</time>
      </trkpt>
      <trkpt lat="45.8829725" lon="4.6533456">
        <ele>311.1200000</ele>
        <time>2013-04-07T07:07:02Z</time>
      </trkpt>
      <trkpt lat="45.8827858" lon="4.6538832">
        <ele>314.4900000</ele>
        <time>2013-04-07T07:07:16Z</time>
      </trkpt>
      <trkpt lat="45.8827165" lon="4.6540815">
        <ele>314.9700000</ele>
        <time>2013-04-07T07:07:22Z</time>
      </trkpt>
      <trkpt lat="45.8826923" lon="4.6540952">
        <ele>314.9700000</ele>
        <time>2013-04-07T07:07:23Z</time>
      </trkpt>
      <trkpt lat="45.8826623" lon="4.6540978">
        <ele>315.4500000</ele>
        <time>2013-04-07T07:07:24Z</time>
      </trkpt>
      <trkpt lat="45.8826331" lon="4.6540923">
        <ele>315.9300000</ele>
        <time>2013-04-07T07:07:25Z</time>
      </trkpt>
      <trkpt lat="45.8826048" lon="4.6540766">
        <ele>315.9300000</ele>
        <time>2013-04-07T07:07:26Z</time>
      </trkpt>
      <trkpt lat="45.8825795" lon="4.6540583">
        <ele>316.4100000</ele>
        <time>2013-04-07T07:07:27Z</time>
      </trkpt>
      <trkpt lat="45.8822655" lon="4.6537418">
        <ele>316.4100000</ele>
        <time>2013-04-07T07:07:39Z</time>
      </trkpt>
      <trkpt lat="45.8819437" lon="4.6533759">
        <ele>313.5300000</ele>
        <time>2013-04-07T07:07:47Z</time>
      </trkpt>
      <trkpt lat="45.8818963" lon="4.6533627">
        <ele>313.0500000</ele>
        <time>2013-04-07T07:07:48Z</time>
      </trkpt>
      <trkpt lat="45.8818579" lon="4.6533688">
        <ele>313.5300000</ele>
        <time>2013-04-07T07:07:49Z</time>
      </trkpt>
      <trkpt lat="45.8818309" lon="4.6533860">
        <ele>314.0100000</ele>
        <time>2013-04-07T07:07:50Z</time>
      </trkpt>
      <trkpt lat="45.8818113" lon="4.6533953">
        <ele>314.0100000</ele>
        <time>2013-04-07T07:07:51Z</time>
      </trkpt>
      <trkpt lat="45.8818041" lon="4.6533911">
        <ele>314.0100000</ele>
        <time>2013-04-07T07:07:52Z</time>
      </trkpt>
      <trkpt lat="45.8818067" lon="4.6533714">
        <ele>313.5300000</ele>
        <time>2013-04-07T07:07:53Z</time>
      </trkpt>
      <trkpt lat="45.8818203" lon="4.6533613">
        <ele>313.5300000</ele>
        <time>2013-04-07T07:07:54Z</time>
      </trkpt>
      <trkpt lat="45.8818362" lon="4.6533546">
        <ele>314.0100000</ele>
        <time>2013-04-07T07:07:55Z</time>
      </trkpt>
      <trkpt lat="45.8818367" lon="4.6531794">
        <ele>313.0500000</ele>
        <time>2013-04-07T07:08:00Z</time>
      </trkpt>
      <trkpt lat="45.8816652" lon="4.6528056">
        <ele>310.6400000</ele>
        <time>2013-04-07T07:08:11Z</time>
      </trkpt>
      <trkpt lat="45.8816392" lon="4.6527769">
        <ele>310.6400000</ele>
        <time>2013-04-07T07:08:16Z</time>
      </trkpt>
      <trkpt lat="45.8817093" lon="4.6528914">
        <ele>311.6000000</ele>
        <time>2013-04-07T07:08:28Z</time>
      </trkpt>
      <trkpt lat="45.8817354" lon="4.6529226">
        <ele>312.0900000</ele>
        <time>2013-04-07T07:08:32Z</time>
      </trkpt>
      <trkpt lat="45.8818916" lon="4.6532622">
        <ele>313.0500000</ele>
        <time>2013-04-07T07:08:43Z</time>
      </trkpt>
      <trkpt lat="45.8819920" lon="4.6534896">
        <ele>314.0100000</ele>
        <time>2013-04-07T07:08:49Z</time>
      </trkpt>
      <trkpt lat="45.8819788" lon="4.6538696">
        <ele>318.8100000</ele>
        <time>2013-04-07T07:09:01Z</time>
      </trkpt>
      <trkpt lat="45.8819423" lon="4.6541490">
        <ele>320.7400000</ele>
        <time>2013-04-07T07:09:10Z</time>
      </trkpt>
      <trkpt lat="45.8819124" lon="4.6542883">
        <ele>322.6600000</ele>
        <time>2013-04-07T07:09:17Z</time>
      </trkpt>
      <trkpt lat="45.8819015" lon="4.6543548">
        <ele>323.1400000</ele>
        <time>2013-04-07T07:09:20Z</time>
      </trkpt>
      <trkpt lat="45.8818401" lon="4.6545204">
        <ele>325.5400000</ele>
        <time>2013-04-07T07:09:29Z</time>
      </trkpt>
      <trkpt lat="45.8817483" lon="4.6546987">
        <ele>327.4700000</ele>
        <time>2013-04-07T07:09:40Z</time>
      </trkpt>
      <trkpt lat="45.8817314" lon="4.6548269">
        <ele>327.9500000</ele>
        <time>2013-04-07T07:09:46Z</time>
      </trkpt>
      <trkpt lat="45.8816935" lon="4.6549317">
        <ele>329.8700000</ele>
        <time>2013-04-07T07:09:52Z</time>
      </trkpt>
      <trkpt lat="45.8816129" lon="4.6551877">
        <ele>331.3100000</ele>
        <time>2013-04-07T07:10:03Z</time>
      </trkpt>
      <trkpt lat="45.8816039" lon="4.6552133">
        <ele>331.3100000</ele>
        <time>2013-04-07T07:10:04Z</time>
      </trkpt>
      <trkpt lat="45.8815909" lon="4.6552919">
        <ele>331.3100000</ele>
        <time>2013-04-07T07:10:07Z</time>
      </trkpt>
      <trkpt lat="45.8815565" lon="4.6553910">
        <ele>331.7900000</ele>
        <time>2013-04-07T07:10:13Z</time>
      </trkpt>
      <trkpt lat="45.8814300" lon="4.6556811">
        <ele>333.7100000</ele>
        <time>2013-04-07T07:10:24Z</time>
      </trkpt>
      <trkpt lat="45.8813088" lon="4.6559074">
        <ele>335.6400000</ele>
        <time>2013-04-07T07:10:35Z</time>
      </trkpt>
      <trkpt lat="45.8811627" lon="4.6561967">
        <ele>337.5600000</ele>
        <time>2013-04-07T07:10:46Z</time>
      </trkpt>
      <trkpt lat="45.8811323" lon="4.6562610">
        <ele>338.5200000</ele>
        <time>2013-04-07T07:10:49Z</time>
      </trkpt>
      <trkpt lat="45.8811083" lon="4.6563966">
        <ele>339.0000000</ele>
        <time>2013-04-07T07:10:55Z</time>
      </trkpt>
      <trkpt lat="45.8811077" lon="4.6565086">
        <ele>339.4800000</ele>
        <time>2013-04-07T07:11:00Z</time>
      </trkpt>
      <trkpt lat="45.8811119" lon="4.6566936">
        <ele>340.4400000</ele>
        <time>2013-04-07T07:11:06Z</time>
      </trkpt>
      <trkpt lat="45.8811043" lon="4.6568899">
        <ele>340.4400000</ele>
        <time>2013-04-07T07:11:14Z</time>
      </trkpt>
      <trkpt lat="45.8810924" lon="4.6570995">
        <ele>340.4400000</ele>
        <time>2013-04-07T07:11:19Z</time>
      </trkpt>
      <trkpt lat="45.8809639" lon="4.6575446">
        <ele>340.9200000</ele>
        <time>2013-04-07T07:11:30Z</time>
      </trkpt>
      <trkpt lat="45.8806904" lon="4.6579731">
        <ele>342.3700000</ele>
        <time>2013-04-07T07:11:40Z</time>
      </trkpt>
      <trkpt lat="45.8806196" lon="4.6579923">
        <ele>342.8500000</ele>
        <time>2013-04-07T07:11:50Z</time>
      </trkpt>
      <trkpt lat="45.8806082" lon="4.6579916">
        <ele>343.3300000</ele>
        <time>2013-04-07T07:11:54Z</time>
      </trkpt>
      <trkpt lat="45.8805933" lon="4.6579891">
        <ele>343.3300000</ele>
        <time>2013-04-07T07:11:56Z</time>
      </trkpt>
      <trkpt lat="45.8805426" lon="4.6579653">
        <ele>343.8100000</ele>
        <time>2013-04-07T07:12:00Z</time>
      </trkpt>
      <trkpt lat="45.8805002" lon="4.6579400">
        <ele>345.2500000</ele>
        <time>2013-04-07T07:12:03Z</time>
      </trkpt>
      <trkpt lat="45.8804235" lon="4.6578319">
        <ele>347.6500000</ele>
        <time>2013-04-07T07:12:10Z</time>
      </trkpt>
      <trkpt lat="45.8803332" lon="4.6577970">
        <ele>349.1000000</ele>
        <time>2013-04-07T07:12:16Z</time>
      </trkpt>
      <trkpt lat="45.8802595" lon="4.6578288">
        <ele>349.5800000</ele>
        <time>2013-04-07T07:12:21Z</time>
      </trkpt>
      <trkpt lat="45.8800376" lon="4.6577631">
        <ele>352.4600000</ele>
        <time>2013-04-07T07:12:34Z</time>
      </trkpt>
      <trkpt lat="45.8799978" lon="4.6577176">
        <ele>352.4600000</ele>
        <time>2013-04-07T07:12:38Z</time>
      </trkpt>
      <trkpt lat="45.8802301" lon="4.6575001">
        <ele>350.0600000</ele>
        <time>2013-04-07T07:12:49Z</time>
      </trkpt>
      <trkpt lat="45.8802934" lon="4.6574321">
        <ele>348.6200000</ele>
        <time>2013-04-07T07:12:51Z</time>
      </trkpt>
      <trkpt lat="45.8805255" lon="4.6572070">
        <ele>345.2500000</ele>
        <time>2013-04-07T07:12:56Z</time>
      </trkpt>
      <trkpt lat="45.8805771" lon="4.6571549">
        <ele>344.2900000</ele>
        <time>2013-04-07T07:12:57Z</time>
      </trkpt>
      <trkpt lat="45.8807714" lon="4.6568457">
        <ele>341.8900000</ele>
        <time>2013-04-07T07:13:01Z</time>
      </trkpt>
      <trkpt lat="45.8807988" lon="4.6565034">
        <ele>341.4100000</ele>
        <time>2013-04-07T07:13:07Z</time>
      </trkpt>
      <trkpt lat="45.8805947" lon="4.6564541">
        <ele>342.8500000</ele>
        <time>2013-04-07T07:13:15Z</time>
      </trkpt>
      <trkpt lat="45.8804736" lon="4.6564455">
        <ele>343.3300000</ele>
        <time>2013-04-07T07:13:19Z</time>
      </trkpt>
      <trkpt lat="45.8801233" lon="4.6564313">
        <ele>345.2500000</ele>
        <time>2013-04-07T07:13:31Z</time>
      </trkpt>
      <trkpt lat="45.8800159" lon="4.6564089">
        <ele>345.7300000</ele>
        <time>2013-04-07T07:13:35Z</time>
      </trkpt>
      <trkpt lat="45.8799651" lon="4.6563969">
        <ele>346.2100000</ele>
        <time>2013-04-07T07:13:37Z</time>
      </trkpt>
      <trkpt lat="45.8797123" lon="4.6563751">
        <ele>347.1700000</ele>
        <time>2013-04-07T07:13:45Z</time>
      </trkpt>
      <trkpt lat="45.8792358" lon="4.6563511">
        <ele>349.1000000</ele>
        <time>2013-04-07T07:13:58Z</time>
      </trkpt>
      <trkpt lat="45.8788165" lon="4.6563513">
        <ele>350.0600000</ele>
        <time>2013-04-07T07:14:09Z</time>
      </trkpt>
      <trkpt lat="45.8785690" lon="4.6563433">
        <ele>351.0200000</ele>
        <time>2013-04-07T07:14:15Z</time>
      </trkpt>
      <trkpt lat="45.8783515" lon="4.6563273">
        <ele>351.0200000</ele>
        <time>2013-04-07T07:14:20Z</time>
      </trkpt>
      <trkpt lat="45.8777562" lon="4.6563327">
        <ele>351.5000000</ele>
        <time>2013-04-07T07:14:34Z</time>
      </trkpt>
      <trkpt lat="45.8774447" lon="4.6564708">
        <ele>351.9800000</ele>
        <time>2013-04-07T07:14:45Z</time>
      </trkpt>
      <trkpt lat="45.8772011" lon="4.6569520">
        <ele>352.9400000</ele>
        <time>2013-04-07T07:14:57Z</time>
      </trkpt>
      <trkpt lat="45.8771542" lon="4.6570788">
        <ele>353.9000000</ele>
        <time>2013-04-07T07:15:00Z</time>
      </trkpt>
      <trkpt lat="45.8771648" lon="4.6571775">
        <ele>354.8600000</ele>
        <time>2013-04-07T07:15:04Z</time>
      </trkpt>
      <trkpt lat="45.8772771" lon="4.6575225">
        <ele>353.4200000</ele>
        <time>2013-04-07T07:15:13Z</time>
      </trkpt>
      <trkpt lat="45.8774501" lon="4.6578316">
        <ele>349.1000000</ele>
        <time>2013-04-07T07:15:18Z</time>
      </trkpt>
      <trkpt lat="45.8775024" lon="4.6578972">
        <ele>347.1700000</ele>
        <time>2013-04-07T07:15:19Z</time>
      </trkpt>
      <trkpt lat="45.8775656" lon="4.6579491">
        <ele>345.7300000</ele>
        <time>2013-04-07T07:15:20Z</time>
      </trkpt>
      <trkpt lat="45.8776276" lon="4.6579859">
        <ele>344.7700000</ele>
        <time>2013-04-07T07:15:21Z</time>
      </trkpt>
      <trkpt lat="45.8776827" lon="4.6580107">
        <ele>344.7700000</ele>
        <time>2013-04-07T07:15:22Z</time>
      </trkpt>
      <trkpt lat="45.8777257" lon="4.6580344">
        <ele>344.7700000</ele>
        <time>2013-04-07T07:15:23Z</time>
      </trkpt>
      <trkpt lat="45.8777112" lon="4.6580605">
        <ele>343.8100000</ele>
        <time>2013-04-07T07:15:26Z</time>
      </trkpt>
      <trkpt lat="45.8776734" lon="4.6580592">
        <ele>343.3300000</ele>
        <time>2013-04-07T07:15:27Z</time>
      </trkpt>
      <trkpt lat="45.8776263" lon="4.6580662">
        <ele>342.8500000</ele>
        <time>2013-04-07T07:15:28Z</time>
      </trkpt>
      <trkpt lat="45.8775724" lon="4.6580774">
        <ele>341.8900000</ele>
        <time>2013-04-07T07:15:29Z</time>
      </trkpt>
      <trkpt lat="45.8775136" lon="4.6580871">
        <ele>341.4100000</ele>
        <time>2013-04-07T07:15:30Z</time>
      </trkpt>
      <trkpt lat="45.8774542" lon="4.6581025">
        <ele>340.4400000</ele>
        <time>2013-04-07T07:15:31Z</time>
      </trkpt>
      <trkpt lat="45.8774050" lon="4.6581310">
        <ele>339.9600000</ele>
        <time>2013-04-07T07:15:32Z</time>
      </trkpt>
      <trkpt lat="45.8773807" lon="4.6581750">
        <ele>339.4800000</ele>
        <time>2013-04-07T07:15:33Z</time>
      </trkpt>
      <trkpt lat="45.8773780" lon="4.6582346">
        <ele>339.0000000</ele>
        <time>2013-04-07T07:15:34Z</time>
      </trkpt>
      <trkpt lat="45.8773854" lon="4.6583079">
        <ele>338.0400000</ele>
        <time>2013-04-07T07:15:35Z</time>
      </trkpt>
      <trkpt lat="45.8774010" lon="4.6583869">
        <ele>337.5600000</ele>
        <time>2013-04-07T07:15:36Z</time>
      </trkpt>
      <trkpt lat="45.8774139" lon="4.6584744">
        <ele>336.6000000</ele>
        <time>2013-04-07T07:15:37Z</time>
      </trkpt>
      <trkpt lat="45.8774262" lon="4.6586837">
        <ele>335.6400000</ele>
        <time>2013-04-07T07:15:39Z</time>
      </trkpt>
      <trkpt lat="45.8774268" lon="4.6590370">
        <ele>333.7100000</ele>
        <time>2013-04-07T07:15:42Z</time>
      </trkpt>
      <trkpt lat="45.8774274" lon="4.6591518">
        <ele>333.7100000</ele>
        <time>2013-04-07T07:15:43Z</time>
      </trkpt>
      <trkpt lat="45.8774246" lon="4.6596576">
        <ele>335.1600000</ele>
        <time>2013-04-07T07:15:48Z</time>
      </trkpt>
      <trkpt lat="45.8773922" lon="4.6600529">
        <ele>337.0800000</ele>
        <time>2013-04-07T07:15:56Z</time>
      </trkpt>
      <trkpt lat="45.8773313" lon="4.6601402">
        <ele>337.0800000</ele>
        <time>2013-04-07T07:16:08Z</time>
      </trkpt>
      <trkpt lat="45.8773404" lon="4.6601418">
        <ele>336.6000000</ele>
        <time>2013-04-07T07:16:36Z</time>
      </trkpt>
      <trkpt lat="45.8773366" lon="4.6601385">
        <ele>336.6000000</ele>
        <time>2013-04-07T07:17:06Z</time>
      </trkpt>
      <trkpt lat="45.8773336" lon="4.6601384">
        <ele>337.0800000</ele>
        <time>2013-04-07T07:17:35Z</time>
      </trkpt>
      <trkpt lat="45.8773347" lon="4.6601326">
        <ele>336.6000000</ele>
        <time>2013-04-07T07:18:13Z</time>
      </trkpt>
      <trkpt lat="45.8773538" lon="4.6601285">
        <ele>337.0800000</ele>
        <time>2013-04-07T07:18:47Z</time>
      </trkpt>
      <trkpt lat="45.8773471" lon="4.6601523">
        <ele>336.6000000</ele>
        <time>2013-04-07T07:19:16Z</time>
      </trkpt>
      <trkpt lat="45.8773527" lon="4.6601402">
        <ele>336.6000000</ele>
        <time>2013-04-07T07:19:48Z</time>
      </trkpt>
      <trkpt lat="45.8773526" lon="4.6601434">
        <ele>337.0800000</ele>
        <time>2013-04-07T07:20:10Z</time>
      </trkpt>
      <trkpt lat="45.8773424" lon="4.6601367">
        <ele>337.5600000</ele>
        <time>2013-04-07T07:20:31Z</time>
      </trkpt>
      <trkpt lat="45.8773382" lon="4.6601336">
        <ele>337.0800000</ele>
        <time>2013-04-07T07:20:56Z</time>
      </trkpt>
      <trkpt lat="45.8773266" lon="4.6601357">
        <ele>337.5600000</ele>
        <time>2013-04-07T07:20:57Z</time>
      </trkpt>
      <trkpt lat="45.8772984" lon="4.6601336">
        <ele>337.0800000</ele>
        <time>2013-04-07T07:20:59Z</time>
      </trkpt>
      <trkpt lat="45.8772807" lon="4.6601296">
        <ele>337.0800000</ele>
        <time>2013-04-07T07:21:00Z</time>
      </trkpt>
      <trkpt lat="45.8772606" lon="4.6601310">
        <ele>337.0800000</ele>
        <time>2013-04-07T07:21:01Z</time>
      </trkpt>
      <trkpt lat="45.8771124" lon="4.6601573">
        <ele>336.6000000</ele>
        <time>2013-04-07T07:21:10Z</time>
      </trkpt>
      <trkpt lat="45.8769420" lon="4.6600751">
        <ele>335.6400000</ele>
        <time>2013-04-07T07:21:25Z</time>
      </trkpt>
      <trkpt lat="45.8768952" lon="4.6600512">
        <ele>335.1600000</ele>
        <time>2013-04-07T07:21:26Z</time>
      </trkpt>
      <trkpt lat="45.8768484" lon="4.6600394">
        <ele>335.1600000</ele>
        <time>2013-04-07T07:21:27Z</time>
      </trkpt>
      <trkpt lat="45.8762739" lon="4.6600215">
        <ele>333.7100000</ele>
        <time>2013-04-07T07:21:37Z</time>
      </trkpt>
      <trkpt lat="45.8756392" lon="4.6600145">
        <ele>330.8300000</ele>
        <time>2013-04-07T07:21:46Z</time>
      </trkpt>
      <trkpt lat="45.8751741" lon="4.6600202">
        <ele>330.3500000</ele>
        <time>2013-04-07T07:21:54Z</time>
      </trkpt>
      <trkpt lat="45.8751618" lon="4.6600403">
        <ele>330.8300000</ele>
        <time>2013-04-07T07:21:55Z</time>
      </trkpt>
      <trkpt lat="45.8751512" lon="4.6600570">
        <ele>330.8300000</ele>
        <time>2013-04-07T07:21:56Z</time>
      </trkpt>
      <trkpt lat="45.8751404" lon="4.6600695">
        <ele>330.8300000</ele>
        <time>2013-04-07T07:21:57Z</time>
      </trkpt>
      <trkpt lat="45.8751291" lon="4.6600811">
        <ele>330.8300000</ele>
        <time>2013-04-07T07:21:58Z</time>
      </trkpt>
      <trkpt lat="45.8751204" lon="4.6600957">
        <ele>330.8300000</ele>
        <time>2013-04-07T07:21:59Z</time>
      </trkpt>
      <trkpt lat="45.8750399" lon="4.6602788">
        <ele>331.7900000</ele>
        <time>2013-04-07T07:22:09Z</time>
      </trkpt>
      <trkpt lat="45.8748842" lon="4.6606967">
        <ele>337.5600000</ele>
        <time>2013-04-07T07:22:20Z</time>
      </trkpt>
      <trkpt lat="45.8748751" lon="4.6607335">
        <ele>334.2000000</ele>
        <time>2013-04-07T07:22:21Z</time>
      </trkpt>
      <trkpt lat="45.8747710" lon="4.6612468">
        <ele>337.5600000</ele>
        <time>2013-04-07T07:22:34Z</time>
      </trkpt>
      <trkpt lat="45.8745938" lon="4.6614502">
        <ele>337.0800000</ele>
        <time>2013-04-07T07:22:43Z</time>
      </trkpt>
      <trkpt lat="45.8745486" lon="4.6614033">
        <ele>335.6400000</ele>
        <time>2013-04-07T07:22:44Z</time>
      </trkpt>
      <trkpt lat="45.8745028" lon="4.6613370">
        <ele>334.2000000</ele>
        <time>2013-04-07T07:22:45Z</time>
      </trkpt>
      <trkpt lat="45.8743441" lon="4.6610847">
        <ele>331.3100000</ele>
        <time>2013-04-07T07:22:48Z</time>
      </trkpt>
      <trkpt lat="45.8741516" lon="4.6608060">
        <ele>327.4700000</ele>
        <time>2013-04-07T07:22:51Z</time>
      </trkpt>
      <trkpt lat="45.8740842" lon="4.6607047">
        <ele>327.4700000</ele>
        <time>2013-04-07T07:22:52Z</time>
      </trkpt>
      <trkpt lat="45.8739613" lon="4.6604966">
        <ele>325.5400000</ele>
        <time>2013-04-07T07:22:54Z</time>
      </trkpt>
      <trkpt lat="45.8738773" lon="4.6603253">
        <ele>325.0600000</ele>
        <time>2013-04-07T07:22:56Z</time>
      </trkpt>
      <trkpt lat="45.8738323" lon="4.6602914">
        <ele>325.5400000</ele>
        <time>2013-04-07T07:22:57Z</time>
      </trkpt>
      <trkpt lat="45.8737804" lon="4.6602979">
        <ele>325.5400000</ele>
        <time>2013-04-07T07:22:58Z</time>
      </trkpt>
      <trkpt lat="45.8737237" lon="4.6603340">
        <ele>325.0600000</ele>
        <time>2013-04-07T07:22:59Z</time>
      </trkpt>
      <trkpt lat="45.8736626" lon="4.6603768">
        <ele>324.1000000</ele>
        <time>2013-04-07T07:23:00Z</time>
      </trkpt>
      <trkpt lat="45.8735959" lon="4.6604216">
        <ele>324.1000000</ele>
        <time>2013-04-07T07:23:01Z</time>
      </trkpt>
      <trkpt lat="45.8735277" lon="4.6604614">
        <ele>323.6200000</ele>
        <time>2013-04-07T07:23:02Z</time>
      </trkpt>
      <trkpt lat="45.8734544" lon="4.6604878">
        <ele>323.1400000</ele>
        <time>2013-04-07T07:23:03Z</time>
      </trkpt>
      <trkpt lat="45.8733776" lon="4.6604991">
        <ele>322.1800000</ele>
        <time>2013-04-07T07:23:04Z</time>
      </trkpt>
      <trkpt lat="45.8731681" lon="4.6604947">
        <ele>321.2200000</ele>
        <time>2013-04-07T07:23:07Z</time>
      </trkpt>
      <trkpt lat="45.8729932" lon="4.6604651">
        <ele>319.7800000</ele>
        <time>2013-04-07T07:23:10Z</time>
      </trkpt>
      <trkpt lat="45.8729508" lon="4.6604922">
        <ele>319.3000000</ele>
        <time>2013-04-07T07:23:11Z</time>
      </trkpt>
      <trkpt lat="45.8729186" lon="4.6605315">
        <ele>318.8100000</ele>
        <time>2013-04-07T07:23:12Z</time>
      </trkpt>
      <trkpt lat="45.8728073" lon="4.6608055">
        <ele>318.8100000</ele>
        <time>2013-04-07T07:23:17Z</time>
      </trkpt>
      <trkpt lat="45.8723935" lon="4.6614188">
        <ele>318.3300000</ele>
        <time>2013-04-07T07:23:26Z</time>
      </trkpt>
      <trkpt lat="45.8722591" lon="4.6616057">
        <ele>319.7800000</ele>
        <time>2013-04-07T07:23:30Z</time>
      </trkpt>
      <trkpt lat="45.8720599" lon="4.6618893">
        <ele>322.1800000</ele>
        <time>2013-04-07T07:23:40Z</time>
      </trkpt>
      <trkpt lat="45.8719914" lon="4.6619893">
        <ele>323.1400000</ele>
        <time>2013-04-07T07:23:44Z</time>
      </trkpt>
      <trkpt lat="45.8718249" lon="4.6621855">
        <ele>325.5400000</ele>
        <time>2013-04-07T07:23:54Z</time>
      </trkpt>
      <trkpt lat="45.8715265" lon="4.6625346">
        <ele>327.4700000</ele>
        <time>2013-04-07T07:24:09Z</time>
      </trkpt>
      <trkpt lat="45.8714723" lon="4.6626408">
        <ele>327.9500000</ele>
        <time>2013-04-07T07:24:14Z</time>
      </trkpt>
      <trkpt lat="45.8714544" lon="4.6628340">
        <ele>328.4300000</ele>
        <time>2013-04-07T07:24:20Z</time>
      </trkpt>
      <trkpt lat="45.8714190" lon="4.6630391">
        <ele>328.4300000</ele>
        <time>2013-04-07T07:24:25Z</time>
      </trkpt>
      <trkpt lat="45.8714847" lon="4.6631661">
        <ele>328.4300000</ele>
        <time>2013-04-07T07:24:29Z</time>
      </trkpt>
      <trkpt lat="45.8719449" lon="4.6634373">
        <ele>331.7900000</ele>
        <time>2013-04-07T07:24:46Z</time>
      </trkpt>
      <trkpt lat="45.8723605" lon="4.6636581">
        <ele>331.7900000</ele>
        <time>2013-04-07T07:24:57Z</time>
      </trkpt>
      <trkpt lat="45.8726526" lon="4.6637283">
        <ele>334.6800000</ele>
        <time>2013-04-07T07:25:08Z</time>
      </trkpt>
      <trkpt lat="45.8729708" lon="4.6636821">
        <ele>337.5600000</ele>
        <time>2013-04-07T07:25:22Z</time>
      </trkpt>
      <trkpt lat="45.8731818" lon="4.6637928">
        <ele>339.4800000</ele>
        <time>2013-04-07T07:25:34Z</time>
      </trkpt>
      <trkpt lat="45.8733951" lon="4.6639321">
        <ele>342.8500000</ele>
        <time>2013-04-07T07:25:48Z</time>
      </trkpt>
      <trkpt lat="45.8734273" lon="4.6639546">
        <ele>343.3300000</ele>
        <time>2013-04-07T07:25:50Z</time>
      </trkpt>
      <trkpt lat="45.8734403" lon="4.6639673">
        <ele>343.8100000</ele>
        <time>2013-04-07T07:25:51Z</time>
      </trkpt>
      <trkpt lat="45.8734541" lon="4.6639807">
        <ele>343.8100000</ele>
        <time>2013-04-07T07:25:52Z</time>
      </trkpt>
      <trkpt lat="45.8734651" lon="4.6639987">
        <ele>344.2900000</ele>
        <time>2013-04-07T07:25:53Z</time>
      </trkpt>
      <trkpt lat="45.8734720" lon="4.6640185">
        <ele>344.2900000</ele>
        <time>2013-04-07T07:25:54Z</time>
      </trkpt>
      <trkpt lat="45.8734749" lon="4.6640349">
        <ele>344.2900000</ele>
        <time>2013-04-07T07:25:55Z</time>
      </trkpt>
      <trkpt lat="45.8734720" lon="4.6640560">
        <ele>344.2900000</ele>
        <time>2013-04-07T07:25:56Z</time>
      </trkpt>
      <trkpt lat="45.8734632" lon="4.6640843">
        <ele>344.2900000</ele>
        <time>2013-04-07T07:25:57Z</time>
      </trkpt>
      <trkpt lat="45.8734533" lon="4.6641191">
        <ele>343.8100000</ele>
        <time>2013-04-07T07:25:58Z</time>
      </trkpt>
      <trkpt lat="45.8732542" lon="4.6646096">
        <ele>340.4400000</ele>
        <time>2013-04-07T07:26:07Z</time>
      </trkpt>
      <trkpt lat="45.8730921" lon="4.6649427">
        <ele>338.0400000</ele>
        <time>2013-04-07T07:26:11Z</time>
      </trkpt>
      <trkpt lat="45.8729510" lon="4.6652251">
        <ele>334.6800000</ele>
        <time>2013-04-07T07:26:14Z</time>
      </trkpt>
      <trkpt lat="45.8729063" lon="4.6653116">
        <ele>334.6800000</ele>
        <time>2013-04-07T07:26:15Z</time>
      </trkpt>
      <trkpt lat="45.8727083" lon="4.6656558">
        <ele>332.2700000</ele>
        <time>2013-04-07T07:26:19Z</time>
      </trkpt>
      <trkpt lat="45.8725273" lon="4.6659590">
        <ele>328.9100000</ele>
        <time>2013-04-07T07:26:22Z</time>
      </trkpt>
      <trkpt lat="45.8723265" lon="4.6662793">
        <ele>325.5400000</ele>
        <time>2013-04-07T07:26:25Z</time>
      </trkpt>
      <trkpt lat="45.8722598" lon="4.6663852">
        <ele>325.5400000</ele>
        <time>2013-04-07T07:26:26Z</time>
      </trkpt>
      <trkpt lat="45.8719193" lon="4.6668680">
        <ele>324.5800000</ele>
        <time>2013-04-07T07:26:31Z</time>
      </trkpt>
      <trkpt lat="45.8718481" lon="4.6669465">
        <ele>324.5800000</ele>
        <time>2013-04-07T07:26:32Z</time>
      </trkpt>
      <trkpt lat="45.8717875" lon="4.6670286">
        <ele>325.0600000</ele>
        <time>2013-04-07T07:26:33Z</time>
      </trkpt>
      <trkpt lat="45.8717449" lon="4.6671231">
        <ele>325.5400000</ele>
        <time>2013-04-07T07:26:34Z</time>
      </trkpt>
      <trkpt lat="45.8717125" lon="4.6672181">
        <ele>326.0200000</ele>
        <time>2013-04-07T07:26:35Z</time>
      </trkpt>
      <trkpt lat="45.8716766" lon="4.6673043">
        <ele>326.0200000</ele>
        <time>2013-04-07T07:26:36Z</time>
      </trkpt>
      <trkpt lat="45.8716376" lon="4.6673789">
        <ele>326.0200000</ele>
        <time>2013-04-07T07:26:37Z</time>
      </trkpt>
      <trkpt lat="45.8714433" lon="4.6677389">
        <ele>326.5000000</ele>
        <time>2013-04-07T07:26:42Z</time>
      </trkpt>
      <trkpt lat="45.8714150" lon="4.6678212">
        <ele>326.9900000</ele>
        <time>2013-04-07T07:26:43Z</time>
      </trkpt>
      <trkpt lat="45.8711485" lon="4.6689723">
        <ele>329.3900000</ele>
        <time>2013-04-07T07:26:58Z</time>
      </trkpt>
      <trkpt lat="45.8711568" lon="4.6690320">
        <ele>329.3900000</ele>
        <time>2013-04-07T07:26:59Z</time>
      </trkpt>
      <trkpt lat="45.8711658" lon="4.6690849">
        <ele>329.8700000</ele>
        <time>2013-04-07T07:27:00Z</time>
      </trkpt>
      <trkpt lat="45.8711704" lon="4.6691366">
        <ele>329.8700000</ele>
        <time>2013-04-07T07:27:01Z</time>
      </trkpt>
      <trkpt lat="45.8711716" lon="4.6691906">
        <ele>330.3500000</ele>
        <time>2013-04-07T07:27:02Z</time>
      </trkpt>
      <trkpt lat="45.8710942" lon="4.6697468">
        <ele>331.7900000</ele>
        <time>2013-04-07T07:27:13Z</time>
      </trkpt>
      <trkpt lat="45.8710263" lon="4.6702299">
        <ele>333.2300000</ele>
        <time>2013-04-07T07:27:23Z</time>
      </trkpt>
      <trkpt lat="45.8710414" lon="4.6702527">
        <ele>333.2300000</ele>
        <time>2013-04-07T07:27:24Z</time>
      </trkpt>
      <trkpt lat="45.8710584" lon="4.6702646">
        <ele>333.7100000</ele>
        <time>2013-04-07T07:27:25Z</time>
      </trkpt>
      <trkpt lat="45.8710765" lon="4.6702743">
        <ele>333.7100000</ele>
        <time>2013-04-07T07:27:26Z</time>
      </trkpt>
      <trkpt lat="45.8710952" lon="4.6702850">
        <ele>333.7100000</ele>
        <time>2013-04-07T07:27:27Z</time>
      </trkpt>
      <trkpt lat="45.8713435" lon="4.6703472">
        <ele>336.6000000</ele>
        <time>2013-04-07T07:27:39Z</time>
      </trkpt>
      <trkpt lat="45.8714490" lon="4.6703664">
        <ele>338.0400000</ele>
        <time>2013-04-07T07:27:44Z</time>
      </trkpt>
      <trkpt lat="45.8714608" lon="4.6703876">
        <ele>338.5200000</ele>
        <time>2013-04-07T07:27:45Z</time>
      </trkpt>
      <trkpt lat="45.8714629" lon="4.6704159">
        <ele>337.5600000</ele>
        <time>2013-04-07T07:27:46Z</time>
      </trkpt>
      <trkpt lat="45.8714565" lon="4.6704434">
        <ele>338.0400000</ele>
        <time>2013-04-07T07:27:47Z</time>
      </trkpt>
      <trkpt lat="45.8714480" lon="4.6704727">
        <ele>338.5200000</ele>
        <time>2013-04-07T07:27:48Z</time>
      </trkpt>
      <trkpt lat="45.8712899" lon="4.6711489">
        <ele>337.0800000</ele>
        <time>2013-04-07T07:28:00Z</time>
      </trkpt>
      <trkpt lat="45.8710720" lon="4.6720674">
        <ele>338.5200000</ele>
        <time>2013-04-07T07:28:15Z</time>
      </trkpt>
      <trkpt lat="45.8709847" lon="4.6724499">
        <ele>340.9200000</ele>
        <time>2013-04-07T07:28:27Z</time>
      </trkpt>
      <trkpt lat="45.8708526" lon="4.6729268">
        <ele>342.8500000</ele>
        <time>2013-04-07T07:28:42Z</time>
      </trkpt>
      <trkpt lat="45.8708017" lon="4.6730655">
        <ele>343.8100000</ele>
        <time>2013-04-07T07:28:47Z</time>
      </trkpt>
      <trkpt lat="45.8708273" lon="4.6731628">
        <ele>344.7700000</ele>
        <time>2013-04-07T07:28:53Z</time>
      </trkpt>
      <trkpt lat="45.8709394" lon="4.6732325">
        <ele>347.1700000</ele>
        <time>2013-04-07T07:28:59Z</time>
      </trkpt>
      <trkpt lat="45.8711914" lon="4.6733802">
        <ele>350.0600000</ele>
        <time>2013-04-07T07:29:12Z</time>
      </trkpt>
      <trkpt lat="45.8714421" lon="4.6734720">
        <ele>352.9400000</ele>
        <time>2013-04-07T07:29:25Z</time>
      </trkpt>
      <trkpt lat="45.8717096" lon="4.6735655">
        <ele>355.8300000</ele>
        <time>2013-04-07T07:29:39Z</time>
      </trkpt>
      <trkpt lat="45.8718983" lon="4.6737958">
        <ele>357.7500000</ele>
        <time>2013-04-07T07:29:53Z</time>
      </trkpt>
      <trkpt lat="45.8719443" lon="4.6739007">
        <ele>358.2300000</ele>
        <time>2013-04-07T07:29:58Z</time>
      </trkpt>
      <trkpt lat="45.8721009" lon="4.6743211">
        <ele>357.7500000</ele>
        <time>2013-04-07T07:30:10Z</time>
      </trkpt>
      <trkpt lat="45.8721946" lon="4.6745615">
        <ele>356.7900000</ele>
        <time>2013-04-07T07:30:14Z</time>
      </trkpt>
      <trkpt lat="45.8723087" lon="4.6746970">
        <ele>356.7900000</ele>
        <time>2013-04-07T07:30:17Z</time>
      </trkpt>
      <trkpt lat="45.8723539" lon="4.6747286">
        <ele>356.7900000</ele>
        <time>2013-04-07T07:30:18Z</time>
      </trkpt>
      <trkpt lat="45.8724006" lon="4.6747410">
        <ele>356.7900000</ele>
        <time>2013-04-07T07:30:19Z</time>
      </trkpt>
      <trkpt lat="45.8724449" lon="4.6747369">
        <ele>357.2700000</ele>
        <time>2013-04-07T07:30:20Z</time>
      </trkpt>
      <trkpt lat="45.8724834" lon="4.6747296">
        <ele>357.7500000</ele>
        <time>2013-04-07T07:30:21Z</time>
      </trkpt>
      <trkpt lat="45.8727329" lon="4.6746368">
        <ele>360.6300000</ele>
        <time>2013-04-07T07:30:32Z</time>
      </trkpt>
      <trkpt lat="45.8729029" lon="4.6745694">
        <ele>363.0400000</ele>
        <time>2013-04-07T07:30:40Z</time>
      </trkpt>
      <trkpt lat="45.8731368" lon="4.6745302">
        <ele>365.9200000</ele>
        <time>2013-04-07T07:30:51Z</time>
      </trkpt>
      <trkpt lat="45.8734827" lon="4.6745208">
        <ele>368.8000000</ele>
        <time>2013-04-07T07:31:05Z</time>
      </trkpt>
      <trkpt lat="45.8737366" lon="4.6745128">
        <ele>372.1700000</ele>
        <time>2013-04-07T07:31:16Z</time>
      </trkpt>
      <trkpt lat="45.8740975" lon="4.6744591">
        <ele>373.6100000</ele>
        <time>2013-04-07T07:31:31Z</time>
      </trkpt>
      <trkpt lat="45.8744477" lon="4.6743341">
        <ele>376.4900000</ele>
        <time>2013-04-07T07:31:47Z</time>
      </trkpt>
      <trkpt lat="45.8747793" lon="4.6742264">
        <ele>378.9000000</ele>
        <time>2013-04-07T07:32:01Z</time>
      </trkpt>
      <trkpt lat="45.8749809" lon="4.6741565">
        <ele>380.3400000</ele>
        <time>2013-04-07T07:32:09Z</time>
      </trkpt>
      <trkpt lat="45.8753585" lon="4.6739938">
        <ele>383.7000000</ele>
        <time>2013-04-07T07:32:25Z</time>
      </trkpt>
      <trkpt lat="45.8757081" lon="4.6737454">
        <ele>385.1500000</ele>
        <time>2013-04-07T07:32:40Z</time>
      </trkpt>
      <trkpt lat="45.8761421" lon="4.6736631">
        <ele>385.6300000</ele>
        <time>2013-04-07T07:32:54Z</time>
      </trkpt>
      <trkpt lat="45.8764637" lon="4.6736067">
        <ele>384.6600000</ele>
        <time>2013-04-07T07:33:05Z</time>
      </trkpt>
      <trkpt lat="45.8766424" lon="4.6736335">
        <ele>383.7000000</ele>
        <time>2013-04-07T07:33:09Z</time>
      </trkpt>
      <trkpt lat="45.8766926" lon="4.6736582">
        <ele>383.7000000</ele>
        <time>2013-04-07T07:33:10Z</time>
      </trkpt>
      <trkpt lat="45.8767959" lon="4.6737232">
        <ele>383.2200000</ele>
        <time>2013-04-07T07:33:12Z</time>
      </trkpt>
      <trkpt lat="45.8768432" lon="4.6737701">
        <ele>382.7400000</ele>
        <time>2013-04-07T07:33:13Z</time>
      </trkpt>
      <trkpt lat="45.8768903" lon="4.6738188">
        <ele>382.7400000</ele>
        <time>2013-04-07T07:33:14Z</time>
      </trkpt>
      <trkpt lat="45.8775237" lon="4.6744711">
        <ele>380.8200000</ele>
        <time>2013-04-07T07:33:27Z</time>
      </trkpt>
      <trkpt lat="45.8781266" lon="4.6752807">
        <ele>380.8200000</ele>
        <time>2013-04-07T07:33:41Z</time>
      </trkpt>
      <trkpt lat="45.8782593" lon="4.6755866">
        <ele>381.3000000</ele>
        <time>2013-04-07T07:33:46Z</time>
      </trkpt>
      <trkpt lat="45.8783116" lon="4.6756830">
        <ele>382.2600000</ele>
        <time>2013-04-07T07:33:48Z</time>
      </trkpt>
      <trkpt lat="45.8786608" lon="4.6761166">
        <ele>380.3400000</ele>
        <time>2013-04-07T07:33:59Z</time>
      </trkpt>
      <trkpt lat="45.8788590" lon="4.6763435">
        <ele>376.4900000</ele>
        <time>2013-04-07T07:34:03Z</time>
      </trkpt>
      <trkpt lat="45.8789768" lon="4.6764722">
        <ele>374.5700000</ele>
        <time>2013-04-07T07:34:06Z</time>
      </trkpt>
      <trkpt lat="45.8790238" lon="4.6764826">
        <ele>374.0900000</ele>
        <time>2013-04-07T07:34:07Z</time>
      </trkpt>
      <trkpt lat="45.8790733" lon="4.6764701">
        <ele>373.1300000</ele>
        <time>2013-04-07T07:34:08Z</time>
      </trkpt>
      <trkpt lat="45.8791164" lon="4.6764393">
        <ele>373.1300000</ele>
        <time>2013-04-07T07:34:09Z</time>
      </trkpt>
      <trkpt lat="45.8791545" lon="4.6763971">
        <ele>372.6500000</ele>
        <time>2013-04-07T07:34:10Z</time>
      </trkpt>
      <trkpt lat="45.8791932" lon="4.6763446">
        <ele>372.1700000</ele>
        <time>2013-04-07T07:34:11Z</time>
      </trkpt>
      <trkpt lat="45.8792293" lon="4.6762772">
        <ele>371.6900000</ele>
        <time>2013-04-07T07:34:12Z</time>
      </trkpt>
      <trkpt lat="45.8792550" lon="4.6762042">
        <ele>371.6900000</ele>
        <time>2013-04-07T07:34:13Z</time>
      </trkpt>
      <trkpt lat="45.8792689" lon="4.6761248">
        <ele>371.6900000</ele>
        <time>2013-04-07T07:34:14Z</time>
      </trkpt>
      <trkpt lat="45.8792771" lon="4.6760454">
        <ele>371.2100000</ele>
        <time>2013-04-07T07:34:15Z</time>
      </trkpt>
      <trkpt lat="45.8794466" lon="4.6754803">
        <ele>373.1300000</ele>
        <time>2013-04-07T07:34:25Z</time>
      </trkpt>
      <trkpt lat="45.8794993" lon="4.6753699">
        <ele>373.1300000</ele>
        <time>2013-04-07T07:34:27Z</time>
      </trkpt>
      <trkpt lat="45.8796781" lon="4.6750322">
        <ele>370.2400000</ele>
        <time>2013-04-07T07:34:32Z</time>
      </trkpt>
      <trkpt lat="45.8798618" lon="4.6746612">
        <ele>364.9600000</ele>
        <time>2013-04-07T07:34:36Z</time>
      </trkpt>
      <trkpt lat="45.8799717" lon="4.6744248">
        <ele>361.1100000</ele>
        <time>2013-04-07T07:34:38Z</time>
      </trkpt>
      <trkpt lat="45.8800930" lon="4.6741608">
        <ele>356.7900000</ele>
        <time>2013-04-07T07:34:40Z</time>
      </trkpt>
      <trkpt lat="45.8802204" lon="4.6738652">
        <ele>351.9800000</ele>
        <time>2013-04-07T07:34:42Z</time>
      </trkpt>
      <trkpt lat="45.8805351" lon="4.6731279">
        <ele>353.9000000</ele>
        <time>2013-04-07T07:34:48Z</time>
      </trkpt>
      <trkpt lat="45.8805818" lon="4.6730647">
        <ele>354.3800000</ele>
        <time>2013-04-07T07:34:49Z</time>
      </trkpt>
      <trkpt lat="45.8806368" lon="4.6730321">
        <ele>354.3800000</ele>
        <time>2013-04-07T07:34:50Z</time>
      </trkpt>
      <trkpt lat="45.8806965" lon="4.6730357">
        <ele>353.9000000</ele>
        <time>2013-04-07T07:34:51Z</time>
      </trkpt>
      <trkpt lat="45.8807540" lon="4.6730690">
        <ele>353.4200000</ele>
        <time>2013-04-07T07:34:52Z</time>
      </trkpt>
      <trkpt lat="45.8808076" lon="4.6731153">
        <ele>353.4200000</ele>
        <time>2013-04-07T07:34:53Z</time>
      </trkpt>
      <trkpt lat="45.8811914" lon="4.6733760">
        <ele>350.0600000</ele>
        <time>2013-04-07T07:34:59Z</time>
      </trkpt>
      <trkpt lat="45.8812610" lon="4.6734206">
        <ele>349.5800000</ele>
        <time>2013-04-07T07:35:00Z</time>
      </trkpt>
      <trkpt lat="45.8816672" lon="4.6736735">
        <ele>347.1700000</ele>
        <time>2013-04-07T07:35:06Z</time>
      </trkpt>
      <trkpt lat="45.8817385" lon="4.6736899">
        <ele>346.6900000</ele>
        <time>2013-04-07T07:35:07Z</time>
      </trkpt>
      <trkpt lat="45.8818087" lon="4.6736874">
        <ele>347.1700000</ele>
        <time>2013-04-07T07:35:08Z</time>
      </trkpt>
      <trkpt lat="45.8818729" lon="4.6736796">
        <ele>347.6500000</ele>
        <time>2013-04-07T07:35:09Z</time>
      </trkpt>
      <trkpt lat="45.8819337" lon="4.6736766">
        <ele>348.1300000</ele>
        <time>2013-04-07T07:35:10Z</time>
      </trkpt>
      <trkpt lat="45.8821453" lon="4.6736749">
        <ele>348.1300000</ele>
        <time>2013-04-07T07:35:14Z</time>
      </trkpt>
      <trkpt lat="45.8824857" lon="4.6737464">
        <ele>345.2500000</ele>
        <time>2013-04-07T07:35:20Z</time>
      </trkpt>
      <trkpt lat="45.8826218" lon="4.6737516">
        <ele>344.7700000</ele>
        <time>2013-04-07T07:35:22Z</time>
      </trkpt>
      <trkpt lat="45.8827586" lon="4.6737733">
        <ele>343.8100000</ele>
        <time>2013-04-07T07:35:24Z</time>
      </trkpt>
      <trkpt lat="45.8830975" lon="4.6739002">
        <ele>342.8500000</ele>
        <time>2013-04-07T07:35:29Z</time>
      </trkpt>
      <trkpt lat="45.8832382" lon="4.6739548">
        <ele>342.3700000</ele>
        <time>2013-04-07T07:35:31Z</time>
      </trkpt>
      <trkpt lat="45.8838571" lon="4.6742634">
        <ele>339.0000000</ele>
        <time>2013-04-07T07:35:40Z</time>
      </trkpt>
      <trkpt lat="45.8840640" lon="4.6743457">
        <ele>338.0400000</ele>
        <time>2013-04-07T07:35:43Z</time>
      </trkpt>
      <trkpt lat="45.8841336" lon="4.6743652">
        <ele>338.0400000</ele>
        <time>2013-04-07T07:35:44Z</time>
      </trkpt>
      <trkpt lat="45.8847742" lon="4.6744781">
        <ele>336.6000000</ele>
        <time>2013-04-07T07:35:55Z</time>
      </trkpt>
      <trkpt lat="45.8848028" lon="4.6744501">
        <ele>337.5600000</ele>
        <time>2013-04-07T07:35:56Z</time>
      </trkpt>
      <trkpt lat="45.8848178" lon="4.6744129">
        <ele>338.0400000</ele>
        <time>2013-04-07T07:35:57Z</time>
      </trkpt>
      <trkpt lat="45.8848292" lon="4.6743777">
        <ele>338.0400000</ele>
        <time>2013-04-07T07:35:58Z</time>
      </trkpt>
      <trkpt lat="45.8848416" lon="4.6743468">
        <ele>338.0400000</ele>
        <time>2013-04-07T07:35:59Z</time>
      </trkpt>
      <trkpt lat="45.8848606" lon="4.6743231">
        <ele>338.5200000</ele>
        <time>2013-04-07T07:36:00Z</time>
      </trkpt>
      <trkpt lat="45.8848835" lon="4.6743109">
        <ele>339.0000000</ele>
        <time>2013-04-07T07:36:01Z</time>
      </trkpt>
      <trkpt lat="45.8849155" lon="4.6743084">
        <ele>338.0400000</ele>
        <time>2013-04-07T07:36:02Z</time>
      </trkpt>
      <trkpt lat="45.8849585" lon="4.6743152">
        <ele>337.0800000</ele>
        <time>2013-04-07T07:36:03Z</time>
      </trkpt>
      <trkpt lat="45.8850114" lon="4.6743339">
        <ele>336.1200000</ele>
        <time>2013-04-07T07:36:04Z</time>
      </trkpt>
      <trkpt lat="45.8850701" lon="4.6743630">
        <ele>335.1600000</ele>
        <time>2013-04-07T07:36:05Z</time>
      </trkpt>
      <trkpt lat="45.8853937" lon="4.6745334">
        <ele>333.2300000</ele>
        <time>2013-04-07T07:36:10Z</time>
      </trkpt>
      <trkpt lat="45.8854560" lon="4.6745716">
        <ele>333.7100000</ele>
        <time>2013-04-07T07:36:11Z</time>
      </trkpt>
      <trkpt lat="45.8856811" lon="4.6746861">
        <ele>335.1600000</ele>
        <time>2013-04-07T07:36:15Z</time>
      </trkpt>
      <trkpt lat="45.8858053" lon="4.6747396">
        <ele>337.0800000</ele>
        <time>2013-04-07T07:36:18Z</time>
      </trkpt>
      <trkpt lat="45.8859870" lon="4.6748186">
        <ele>339.9600000</ele>
        <time>2013-04-07T07:36:24Z</time>
      </trkpt>
      <trkpt lat="45.8862432" lon="4.6750277">
        <ele>340.9200000</ele>
        <time>2013-04-07T07:36:34Z</time>
      </trkpt>
      <trkpt lat="45.8862610" lon="4.6750923">
        <ele>340.4400000</ele>
        <time>2013-04-07T07:36:36Z</time>
      </trkpt>
      <trkpt lat="45.8864387" lon="4.6753879">
        <ele>339.0000000</ele>
        <time>2013-04-07T07:36:46Z</time>
      </trkpt>
      <trkpt lat="45.8864965" lon="4.6754621">
        <ele>338.0400000</ele>
        <time>2013-04-07T07:36:48Z</time>
      </trkpt>
      <trkpt lat="45.8866507" lon="4.6756150">
        <ele>337.5600000</ele>
        <time>2013-04-07T07:36:52Z</time>
      </trkpt>
      <trkpt lat="45.8866960" lon="4.6756512">
        <ele>337.5600000</ele>
        <time>2013-04-07T07:36:53Z</time>
      </trkpt>
      <trkpt lat="45.8867400" lon="4.6756883">
        <ele>337.0800000</ele>
        <time>2013-04-07T07:36:54Z</time>
      </trkpt>
      <trkpt lat="45.8870352" lon="4.6758354">
        <ele>337.5600000</ele>
        <time>2013-04-07T07:37:02Z</time>
      </trkpt>
      <trkpt lat="45.8873054" lon="4.6759588">
        <ele>338.0400000</ele>
        <time>2013-04-07T07:37:12Z</time>
      </trkpt>
      <trkpt lat="45.8875918" lon="4.6759978">
        <ele>339.0000000</ele>
        <time>2013-04-07T07:37:21Z</time>
      </trkpt>
      <trkpt lat="45.8876123" lon="4.6760057">
        <ele>338.5200000</ele>
        <time>2013-04-07T07:37:22Z</time>
      </trkpt>
      <trkpt lat="45.8880502" lon="4.6760863">
        <ele>338.0400000</ele>
        <time>2013-04-07T07:37:33Z</time>
      </trkpt>
      <trkpt lat="45.8885748" lon="4.6760682">
        <ele>339.9600000</ele>
        <time>2013-04-07T07:37:47Z</time>
      </trkpt>
      <trkpt lat="45.8887734" lon="4.6760533">
        <ele>339.4800000</ele>
        <time>2013-04-07T07:37:52Z</time>
      </trkpt>
      <trkpt lat="45.8889066" lon="4.6760431">
        <ele>339.0000000</ele>
        <time>2013-04-07T07:37:55Z</time>
      </trkpt>
      <trkpt lat="45.8894534" lon="4.6757629">
        <ele>338.0400000</ele>
        <time>2013-04-07T07:38:07Z</time>
      </trkpt>
      <trkpt lat="45.8895620" lon="4.6756568">
        <ele>339.4800000</ele>
        <time>2013-04-07T07:38:11Z</time>
      </trkpt>
      <trkpt lat="45.8895702" lon="4.6756308">
        <ele>339.4800000</ele>
        <time>2013-04-07T07:38:12Z</time>
      </trkpt>
      <trkpt lat="45.8895839" lon="4.6755741">
        <ele>340.9200000</ele>
        <time>2013-04-07T07:38:15Z</time>
      </trkpt>
      <trkpt lat="45.8896156" lon="4.6754244">
        <ele>341.8900000</ele>
        <time>2013-04-07T07:38:23Z</time>
      </trkpt>
      <trkpt lat="45.8896248" lon="4.6754089">
        <ele>341.8900000</ele>
        <time>2013-04-07T07:38:24Z</time>
      </trkpt>
      <trkpt lat="45.8896301" lon="4.6753857">
        <ele>342.3700000</ele>
        <time>2013-04-07T07:38:25Z</time>
      </trkpt>
      <trkpt lat="45.8896342" lon="4.6753588">
        <ele>341.8900000</ele>
        <time>2013-04-07T07:38:26Z</time>
      </trkpt>
      <trkpt lat="45.8896380" lon="4.6753318">
        <ele>342.8500000</ele>
        <time>2013-04-07T07:38:27Z</time>
      </trkpt>
      <trkpt lat="45.8896438" lon="4.6753045">
        <ele>342.8500000</ele>
        <time>2013-04-07T07:38:28Z</time>
      </trkpt>
      <trkpt lat="45.8896509" lon="4.6752758">
        <ele>342.8500000</ele>
        <time>2013-04-07T07:38:29Z</time>
      </trkpt>
      <trkpt lat="45.8896587" lon="4.6752473">
        <ele>343.3300000</ele>
        <time>2013-04-07T07:38:30Z</time>
      </trkpt>
      <trkpt lat="45.8896692" lon="4.6752195">
        <ele>342.8500000</ele>
        <time>2013-04-07T07:38:31Z</time>
      </trkpt>
      <trkpt lat="45.8896787" lon="4.6751910">
        <ele>342.8500000</ele>
        <time>2013-04-07T07:38:32Z</time>
      </trkpt>
      <trkpt lat="45.8896863" lon="4.6751611">
        <ele>343.3300000</ele>
        <time>2013-04-07T07:38:33Z</time>
      </trkpt>
      <trkpt lat="45.8896932" lon="4.6751305">
        <ele>344.2900000</ele>
        <time>2013-04-07T07:38:34Z</time>
      </trkpt>
      <trkpt lat="45.8897023" lon="4.6750998">
        <ele>344.7700000</ele>
        <time>2013-04-07T07:38:35Z</time>
      </trkpt>
      <trkpt lat="45.8897105" lon="4.6750705">
        <ele>344.7700000</ele>
        <time>2013-04-07T07:38:36Z</time>
      </trkpt>
      <trkpt lat="45.8897191" lon="4.6750402">
        <ele>344.2900000</ele>
        <time>2013-04-07T07:38:37Z</time>
      </trkpt>
      <trkpt lat="45.8897299" lon="4.6750130">
        <ele>345.2500000</ele>
        <time>2013-04-07T07:38:38Z</time>
      </trkpt>
      <trkpt lat="45.8897426" lon="4.6749918">
        <ele>345.2500000</ele>
        <time>2013-04-07T07:38:39Z</time>
      </trkpt>
      <trkpt lat="45.8897530" lon="4.6749706">
        <ele>345.7300000</ele>
        <time>2013-04-07T07:38:40Z</time>
      </trkpt>
      <trkpt lat="45.8897613" lon="4.6749458">
        <ele>345.7300000</ele>
        <time>2013-04-07T07:38:41Z</time>
      </trkpt>
      <trkpt lat="45.8897799" lon="4.6748798">
        <ele>346.6900000</ele>
        <time>2013-04-07T07:38:44Z</time>
      </trkpt>
      <trkpt lat="45.8897912" lon="4.6748450">
        <ele>343.8100000</ele>
        <time>2013-04-07T07:38:46Z</time>
      </trkpt>
      <trkpt lat="45.8897982" lon="4.6748264">
        <ele>345.2500000</ele>
        <time>2013-04-07T07:38:47Z</time>
      </trkpt>
      <trkpt lat="45.8898093" lon="4.6747828">
        <ele>346.6900000</ele>
        <time>2013-04-07T07:38:49Z</time>
      </trkpt>
      <trkpt lat="45.8898212" lon="4.6747409">
        <ele>351.5000000</ele>
        <time>2013-04-07T07:38:51Z</time>
      </trkpt>
      <trkpt lat="45.8898252" lon="4.6747210">
        <ele>340.9200000</ele>
        <time>2013-04-07T07:38:52Z</time>
      </trkpt>
      <trkpt lat="45.8898301" lon="4.6747008">
        <ele>349.1000000</ele>
        <time>2013-04-07T07:38:53Z</time>
      </trkpt>
      <trkpt lat="45.8898554" lon="4.6745567">
        <ele>350.5400000</ele>
        <time>2013-04-07T07:38:59Z</time>
      </trkpt>
      <trkpt lat="45.8898639" lon="4.6745374">
        <ele>350.5400000</ele>
        <time>2013-04-07T07:39:00Z</time>
      </trkpt>
      <trkpt lat="45.8898718" lon="4.6745200">
        <ele>351.5000000</ele>
        <time>2013-04-07T07:39:01Z</time>
      </trkpt>
      <trkpt lat="45.8898815" lon="4.6745048">
        <ele>351.5000000</ele>
        <time>2013-04-07T07:39:02Z</time>
      </trkpt>
      <trkpt lat="45.8898890" lon="4.6744873">
        <ele>351.9800000</ele>
        <time>2013-04-07T07:39:03Z</time>
      </trkpt>
      <trkpt lat="45.8898963" lon="4.6744686">
        <ele>351.5000000</ele>
        <time>2013-04-07T07:39:04Z</time>
      </trkpt>
      <trkpt lat="45.8899036" lon="4.6744479">
        <ele>352.4600000</ele>
        <time>2013-04-07T07:39:05Z</time>
      </trkpt>
      <trkpt lat="45.8899110" lon="4.6744265">
        <ele>351.9800000</ele>
        <time>2013-04-07T07:39:06Z</time>
      </trkpt>
      <trkpt lat="45.8899185" lon="4.6744054">
        <ele>352.9400000</ele>
        <time>2013-04-07T07:39:07Z</time>
      </trkpt>
      <trkpt lat="45.8899271" lon="4.6743845">
        <ele>352.9400000</ele>
        <time>2013-04-07T07:39:08Z</time>
      </trkpt>
      <trkpt lat="45.8900298" lon="4.6741843">
        <ele>355.8300000</ele>
        <time>2013-04-07T07:39:22Z</time>
      </trkpt>
      <trkpt lat="45.8900321" lon="4.6741639">
        <ele>355.8300000</ele>
        <time>2013-04-07T07:39:23Z</time>
      </trkpt>
      <trkpt lat="45.8900364" lon="4.6741475">
        <ele>356.3100000</ele>
        <time>2013-04-07T07:39:24Z</time>
      </trkpt>
      <trkpt lat="45.8900415" lon="4.6741343">
        <ele>356.7900000</ele>
        <time>2013-04-07T07:39:25Z</time>
      </trkpt>
      <trkpt lat="45.8900705" lon="4.6741241">
        <ele>357.2700000</ele>
        <time>2013-04-07T07:39:28Z</time>
      </trkpt>
      <trkpt lat="45.8900851" lon="4.6741278">
        <ele>356.7900000</ele>
        <time>2013-04-07T07:39:29Z</time>
      </trkpt>
      <trkpt lat="45.8900989" lon="4.6741379">
        <ele>357.2700000</ele>
        <time>2013-04-07T07:39:30Z</time>
      </trkpt>
      <trkpt lat="45.8901128" lon="4.6741529">
        <ele>357.2700000</ele>
        <time>2013-04-07T07:39:31Z</time>
      </trkpt>
      <trkpt lat="45.8901258" lon="4.6741749">
        <ele>357.2700000</ele>
        <time>2013-04-07T07:39:32Z</time>
      </trkpt>
      <trkpt lat="45.8901395" lon="4.6742007">
        <ele>356.7900000</ele>
        <time>2013-04-07T07:39:33Z</time>
      </trkpt>
      <trkpt lat="45.8903919" lon="4.6747669">
        <ele>355.8300000</ele>
        <time>2013-04-07T07:39:48Z</time>
      </trkpt>
      <trkpt lat="45.8904216" lon="4.6748118">
        <ele>355.8300000</ele>
        <time>2013-04-07T07:39:49Z</time>
      </trkpt>
      <trkpt lat="45.8904528" lon="4.6748578">
        <ele>355.8300000</ele>
        <time>2013-04-07T07:39:50Z</time>
      </trkpt>
      <trkpt lat="45.8906973" lon="4.6752275">
        <ele>352.9400000</ele>
        <time>2013-04-07T07:39:57Z</time>
      </trkpt>
      <trkpt lat="45.8908319" lon="4.6754272">
        <ele>351.5000000</ele>
        <time>2013-04-07T07:40:00Z</time>
      </trkpt>
      <trkpt lat="45.8909881" lon="4.6756573">
        <ele>347.6500000</ele>
        <time>2013-04-07T07:40:03Z</time>
      </trkpt>
      <trkpt lat="45.8910387" lon="4.6757345">
        <ele>347.6500000</ele>
        <time>2013-04-07T07:40:04Z</time>
      </trkpt>
      <trkpt lat="45.8911588" lon="4.6759079">
        <ele>346.2100000</ele>
        <time>2013-04-07T07:40:10Z</time>
      </trkpt>
      <trkpt lat="45.8912353" lon="4.6759811">
        <ele>344.7700000</ele>
        <time>2013-04-07T07:40:14Z</time>
      </trkpt>
      <trkpt lat="45.8912727" lon="4.6760025">
        <ele>343.8100000</ele>
        <time>2013-04-07T07:40:15Z</time>
      </trkpt>
      <trkpt lat="45.8913085" lon="4.6760132">
        <ele>344.2900000</ele>
        <time>2013-04-07T07:40:16Z</time>
      </trkpt>
      <trkpt lat="45.8915272" lon="4.6759964">
        <ele>346.2100000</ele>
        <time>2013-04-07T07:40:26Z</time>
      </trkpt>
      <trkpt lat="45.8917596" lon="4.6760536">
        <ele>346.6900000</ele>
        <time>2013-04-07T07:40:35Z</time>
      </trkpt>
      <trkpt lat="45.8918037" lon="4.6760651">
        <ele>347.1700000</ele>
        <time>2013-04-07T07:40:36Z</time>
      </trkpt>
      <trkpt lat="45.8918536" lon="4.6760824">
        <ele>347.1700000</ele>
        <time>2013-04-07T07:40:37Z</time>
      </trkpt>
      <trkpt lat="45.8925214" lon="4.6765044">
        <ele>344.2900000</ele>
        <time>2013-04-07T07:40:49Z</time>
      </trkpt>
      <trkpt lat="45.8926421" lon="4.6765778">
        <ele>343.8100000</ele>
        <time>2013-04-07T07:40:51Z</time>
      </trkpt>
      <trkpt lat="45.8927039" lon="4.6765880">
        <ele>343.8100000</ele>
        <time>2013-04-07T07:40:52Z</time>
      </trkpt>
      <trkpt lat="45.8927629" lon="4.6765756">
        <ele>344.7700000</ele>
        <time>2013-04-07T07:40:53Z</time>
      </trkpt>
      <trkpt lat="45.8928170" lon="4.6765551">
        <ele>344.7700000</ele>
        <time>2013-04-07T07:40:54Z</time>
      </trkpt>
      <trkpt lat="45.8928618" lon="4.6765422">
        <ele>345.2500000</ele>
        <time>2013-04-07T07:40:55Z</time>
      </trkpt>
      <trkpt lat="45.8929026" lon="4.6765396">
        <ele>346.2100000</ele>
        <time>2013-04-07T07:40:56Z</time>
      </trkpt>
      <trkpt lat="45.8929413" lon="4.6765456">
        <ele>346.2100000</ele>
        <time>2013-04-07T07:40:57Z</time>
      </trkpt>
      <trkpt lat="45.8929799" lon="4.6765596">
        <ele>346.6900000</ele>
        <time>2013-04-07T07:40:58Z</time>
      </trkpt>
      <trkpt lat="45.8930185" lon="4.6765774">
        <ele>346.2100000</ele>
        <time>2013-04-07T07:40:59Z</time>
      </trkpt>
      <trkpt lat="45.8932034" lon="4.6766956">
        <ele>347.1700000</ele>
        <time>2013-04-07T07:41:04Z</time>
      </trkpt>
      <trkpt lat="45.8935670" lon="4.6767978">
        <ele>349.5800000</ele>
        <time>2013-04-07T07:41:16Z</time>
      </trkpt>
      <trkpt lat="45.8936881" lon="4.6768403">
        <ele>351.0200000</ele>
        <time>2013-04-07T07:41:21Z</time>
      </trkpt>
      <trkpt lat="45.8939761" lon="4.6768689">
        <ele>352.4600000</ele>
        <time>2013-04-07T07:41:34Z</time>
      </trkpt>
      <trkpt lat="45.8942404" lon="4.6768700">
        <ele>353.9000000</ele>
        <time>2013-04-07T07:41:44Z</time>
      </trkpt>
      <trkpt lat="45.8945573" lon="4.6768319">
        <ele>355.8300000</ele>
        <time>2013-04-07T07:41:56Z</time>
      </trkpt>
      <trkpt lat="45.8948657" lon="4.6767757">
        <ele>357.7500000</ele>
        <time>2013-04-07T07:42:08Z</time>
      </trkpt>
      <trkpt lat="45.8951412" lon="4.6767050">
        <ele>359.1900000</ele>
        <time>2013-04-07T07:42:19Z</time>
      </trkpt>
      <trkpt lat="45.8954976" lon="4.6766933">
        <ele>361.1100000</ele>
        <time>2013-04-07T07:42:33Z</time>
      </trkpt>
      <trkpt lat="45.8956589" lon="4.6766577">
        <ele>362.0700000</ele>
        <time>2013-04-07T07:42:40Z</time>
      </trkpt>
      <trkpt lat="45.8956774" lon="4.6766598">
        <ele>362.0700000</ele>
        <time>2013-04-07T07:42:41Z</time>
      </trkpt>
      <trkpt lat="45.8956934" lon="4.6766628">
        <ele>362.0700000</ele>
        <time>2013-04-07T07:42:42Z</time>
      </trkpt>
      <trkpt lat="45.8957103" lon="4.6766601">
        <ele>362.0700000</ele>
        <time>2013-04-07T07:42:43Z</time>
      </trkpt>
      <trkpt lat="45.8957279" lon="4.6766530">
        <ele>362.5500000</ele>
        <time>2013-04-07T07:42:44Z</time>
      </trkpt>
      <trkpt lat="45.8958190" lon="4.6766019">
        <ele>364.0000000</ele>
        <time>2013-04-07T07:42:51Z</time>
      </trkpt>
      <trkpt lat="45.8958294" lon="4.6765839">
        <ele>364.4800000</ele>
        <time>2013-04-07T07:42:52Z</time>
      </trkpt>
      <trkpt lat="45.8958403" lon="4.6765767">
        <ele>364.4800000</ele>
        <time>2013-04-07T07:42:53Z</time>
      </trkpt>
      <trkpt lat="45.8959541" lon="4.6764873">
        <ele>367.3600000</ele>
        <time>2013-04-07T07:43:05Z</time>
      </trkpt>
      <trkpt lat="45.8959998" lon="4.6764153">
        <ele>369.7600000</ele>
        <time>2013-04-07T07:43:15Z</time>
      </trkpt>
      <trkpt lat="45.8960488" lon="4.6763590">
        <ele>370.7300000</ele>
        <time>2013-04-07T07:43:18Z</time>
      </trkpt>
      <trkpt lat="45.8960872" lon="4.6763108">
        <ele>371.6900000</ele>
        <time>2013-04-07T07:43:21Z</time>
      </trkpt>
      <trkpt lat="45.8961686" lon="4.6761800">
        <ele>374.0900000</ele>
        <time>2013-04-07T07:43:31Z</time>
      </trkpt>
      <trkpt lat="45.8961788" lon="4.6761672">
        <ele>374.0900000</ele>
        <time>2013-04-07T07:43:32Z</time>
      </trkpt>
      <trkpt lat="45.8961887" lon="4.6761525">
        <ele>374.0900000</ele>
        <time>2013-04-07T07:43:33Z</time>
      </trkpt>
      <trkpt lat="45.8962011" lon="4.6761401">
        <ele>374.5700000</ele>
        <time>2013-04-07T07:43:34Z</time>
      </trkpt>
      <trkpt lat="45.8962748" lon="4.6760685">
        <ele>376.4900000</ele>
        <time>2013-04-07T07:43:43Z</time>
      </trkpt>
      <trkpt lat="45.8963372" lon="4.6760050">
        <ele>378.4200000</ele>
        <time>2013-04-07T07:43:51Z</time>
      </trkpt>
      <trkpt lat="45.8963523" lon="4.6759943">
        <ele>378.9000000</ele>
        <time>2013-04-07T07:43:52Z</time>
      </trkpt>
      <trkpt lat="45.8963915" lon="4.6759718">
        <ele>379.3800000</ele>
        <time>2013-04-07T07:43:55Z</time>
      </trkpt>
      <trkpt lat="45.8965210" lon="4.6758236">
        <ele>383.2200000</ele>
        <time>2013-04-07T07:44:08Z</time>
      </trkpt>
      <trkpt lat="45.8965429" lon="4.6758007">
        <ele>383.2200000</ele>
        <time>2013-04-07T07:44:10Z</time>
      </trkpt>
      <trkpt lat="45.8966210" lon="4.6757467">
        <ele>384.6600000</ele>
        <time>2013-04-07T07:44:16Z</time>
      </trkpt>
      <trkpt lat="45.8966494" lon="4.6757131">
        <ele>385.1500000</ele>
        <time>2013-04-07T07:44:19Z</time>
      </trkpt>
      <trkpt lat="45.8967814" lon="4.6756281">
        <ele>388.5100000</ele>
        <time>2013-04-07T07:44:32Z</time>
      </trkpt>
      <trkpt lat="45.8968579" lon="4.6755633">
        <ele>390.4300000</ele>
        <time>2013-04-07T07:44:39Z</time>
      </trkpt>
      <trkpt lat="45.8969004" lon="4.6755256">
        <ele>391.3900000</ele>
        <time>2013-04-07T07:44:44Z</time>
      </trkpt>
      <trkpt lat="45.8969977" lon="4.6754244">
        <ele>394.2800000</ele>
        <time>2013-04-07T07:44:56Z</time>
      </trkpt>
      <trkpt lat="45.8971178" lon="4.6752880">
        <ele>397.6400000</ele>
        <time>2013-04-07T07:45:07Z</time>
      </trkpt>
      <trkpt lat="45.8971343" lon="4.6752704">
        <ele>397.6400000</ele>
        <time>2013-04-07T07:45:08Z</time>
      </trkpt>
      <trkpt lat="45.8971630" lon="4.6752524">
        <ele>398.1200000</ele>
        <time>2013-04-07T07:45:10Z</time>
      </trkpt>
      <trkpt lat="45.8972848" lon="4.6751632">
        <ele>400.5300000</ele>
        <time>2013-04-07T07:45:24Z</time>
      </trkpt>
      <trkpt lat="45.8973902" lon="4.6750672">
        <ele>401.4900000</ele>
        <time>2013-04-07T07:45:35Z</time>
      </trkpt>
      <trkpt lat="45.8974199" lon="4.6750403">
        <ele>401.4900000</ele>
        <time>2013-04-07T07:45:38Z</time>
      </trkpt>
      <trkpt lat="45.8975008" lon="4.6749617">
        <ele>401.9700000</ele>
        <time>2013-04-07T07:45:49Z</time>
      </trkpt>
      <trkpt lat="45.8978222" lon="4.6749094">
        <ele>400.0500000</ele>
        <time>2013-04-07T07:46:01Z</time>
      </trkpt>
      <trkpt lat="45.8979415" lon="4.6748632">
        <ele>399.5700000</ele>
        <time>2013-04-07T07:46:04Z</time>
      </trkpt>
      <trkpt lat="45.8979836" lon="4.6748320">
        <ele>399.0800000</ele>
        <time>2013-04-07T07:46:05Z</time>
      </trkpt>
      <trkpt lat="45.8980250" lon="4.6747871">
        <ele>398.6000000</ele>
        <time>2013-04-07T07:46:06Z</time>
      </trkpt>
      <trkpt lat="45.8980606" lon="4.6747301">
        <ele>399.0800000</ele>
        <time>2013-04-07T07:46:07Z</time>
      </trkpt>
      <trkpt lat="45.8980918" lon="4.6746674">
        <ele>398.6000000</ele>
        <time>2013-04-07T07:46:08Z</time>
      </trkpt>
      <trkpt lat="45.8981185" lon="4.6746001">
        <ele>398.1200000</ele>
        <time>2013-04-07T07:46:09Z</time>
      </trkpt>
      <trkpt lat="45.8981392" lon="4.6745299">
        <ele>397.6400000</ele>
        <time>2013-04-07T07:46:10Z</time>
      </trkpt>
      <trkpt lat="45.8981569" lon="4.6744576">
        <ele>398.1200000</ele>
        <time>2013-04-07T07:46:11Z</time>
      </trkpt>
      <trkpt lat="45.8982329" lon="4.6740814">
        <ele>397.1600000</ele>
        <time>2013-04-07T07:46:16Z</time>
      </trkpt>
      <trkpt lat="45.8982528" lon="4.6740037">
        <ele>396.6800000</ele>
        <time>2013-04-07T07:46:17Z</time>
      </trkpt>
      <trkpt lat="45.8982764" lon="4.6739273">
        <ele>396.6800000</ele>
        <time>2013-04-07T07:46:18Z</time>
      </trkpt>
      <trkpt lat="45.8983049" lon="4.6738544">
        <ele>395.2400000</ele>
        <time>2013-04-07T07:46:19Z</time>
      </trkpt>
      <trkpt lat="45.8983368" lon="4.6737862">
        <ele>395.7200000</ele>
        <time>2013-04-07T07:46:20Z</time>
      </trkpt>
      <trkpt lat="45.8983739" lon="4.6737258">
        <ele>396.2000000</ele>
        <time>2013-04-07T07:46:21Z</time>
      </trkpt>
      <trkpt lat="45.8984117" lon="4.6736814">
        <ele>396.2000000</ele>
        <time>2013-04-07T07:46:22Z</time>
      </trkpt>
      <trkpt lat="45.8984461" lon="4.6736504">
        <ele>396.2000000</ele>
        <time>2013-04-07T07:46:23Z</time>
      </trkpt>
      <trkpt lat="45.8984730" lon="4.6736226">
        <ele>396.2000000</ele>
        <time>2013-04-07T07:46:24Z</time>
      </trkpt>
      <trkpt lat="45.8984827" lon="4.6735854">
        <ele>396.2000000</ele>
        <time>2013-04-07T07:46:25Z</time>
      </trkpt>
      <trkpt lat="45.8984738" lon="4.6735520">
        <ele>397.1600000</ele>
        <time>2013-04-07T07:46:26Z</time>
      </trkpt>
      <trkpt lat="45.8984610" lon="4.6735312">
        <ele>397.1600000</ele>
        <time>2013-04-07T07:46:27Z</time>
      </trkpt>
      <trkpt lat="45.8984489" lon="4.6735215">
        <ele>397.6400000</ele>
        <time>2013-04-07T07:46:28Z</time>
      </trkpt>
      <trkpt lat="45.8984384" lon="4.6735164">
        <ele>398.1200000</ele>
        <time>2013-04-07T07:46:29Z</time>
      </trkpt>
      <trkpt lat="45.8984243" lon="4.6735126">
        <ele>397.6400000</ele>
        <time>2013-04-07T07:46:30Z</time>
      </trkpt>
      <trkpt lat="45.8984074" lon="4.6735145">
        <ele>398.1200000</ele>
        <time>2013-04-07T07:46:31Z</time>
      </trkpt>
      <trkpt lat="45.8983917" lon="4.6735201">
        <ele>398.6000000</ele>
        <time>2013-04-07T07:46:32Z</time>
      </trkpt>
      <trkpt lat="45.8983513" lon="4.6735401">
        <ele>399.0800000</ele>
        <time>2013-04-07T07:46:35Z</time>
      </trkpt>
      <trkpt lat="45.8983016" lon="4.6735358">
        <ele>399.5700000</ele>
        <time>2013-04-07T07:46:39Z</time>
      </trkpt>
      <trkpt lat="45.8982803" lon="4.6735441">
        <ele>400.0500000</ele>
        <time>2013-04-07T07:46:40Z</time>
      </trkpt>
      <trkpt lat="45.8982621" lon="4.6735496">
        <ele>400.5300000</ele>
        <time>2013-04-07T07:46:41Z</time>
      </trkpt>
      <trkpt lat="45.8982477" lon="4.6735511">
        <ele>400.5300000</ele>
        <time>2013-04-07T07:46:42Z</time>
      </trkpt>
      <trkpt lat="45.8982332" lon="4.6735538">
        <ele>401.0100000</ele>
        <time>2013-04-07T07:46:43Z</time>
      </trkpt>
      <trkpt lat="45.8980926" lon="4.6735843">
        <ele>403.4100000</ele>
        <time>2013-04-07T07:46:54Z</time>
      </trkpt>
      <trkpt lat="45.8979238" lon="4.6736330">
        <ele>406.7700000</ele>
        <time>2013-04-07T07:47:07Z</time>
      </trkpt>
      <trkpt lat="45.8979032" lon="4.6736384">
        <ele>407.2600000</ele>
        <time>2013-04-07T07:47:09Z</time>
      </trkpt>
      <trkpt lat="45.8978872" lon="4.6736456">
        <ele>407.7400000</ele>
        <time>2013-04-07T07:47:10Z</time>
      </trkpt>
      <trkpt lat="45.8977582" lon="4.6736657">
        <ele>410.6200000</ele>
        <time>2013-04-07T07:47:20Z</time>
      </trkpt>
      <trkpt lat="45.8977546" lon="4.6736672">
        <ele>410.6200000</ele>
        <time>2013-04-07T07:47:21Z</time>
      </trkpt>
      <trkpt lat="45.8977423" lon="4.6736602">
        <ele>410.6200000</ele>
        <time>2013-04-07T07:47:22Z</time>
      </trkpt>
      <trkpt lat="45.8976404" lon="4.6736122">
        <ele>413.5000000</ele>
        <time>2013-04-07T07:47:33Z</time>
      </trkpt>
      <trkpt lat="45.8976291" lon="4.6736000">
        <ele>413.9800000</ele>
        <time>2013-04-07T07:47:34Z</time>
      </trkpt>
      <trkpt lat="45.8976074" lon="4.6735764">
        <ele>414.4700000</ele>
        <time>2013-04-07T07:47:36Z</time>
      </trkpt>
      <trkpt lat="45.8974564" lon="4.6734321">
        <ele>417.8300000</ele>
        <time>2013-04-07T07:47:50Z</time>
      </trkpt>
      <trkpt lat="45.8973304" lon="4.6733080">
        <ele>419.7500000</ele>
        <time>2013-04-07T07:48:02Z</time>
      </trkpt>
      <trkpt lat="45.8972195" lon="4.6731562">
        <ele>422.1600000</ele>
        <time>2013-04-07T07:48:15Z</time>
      </trkpt>
      <trkpt lat="45.8971330" lon="4.6730150">
        <ele>424.0800000</ele>
        <time>2013-04-07T07:48:26Z</time>
      </trkpt>
      <trkpt lat="45.8970288" lon="4.6728901">
        <ele>426.4800000</ele>
        <time>2013-04-07T07:48:36Z</time>
      </trkpt>
      <trkpt lat="45.8969560" lon="4.6727938">
        <ele>427.9200000</ele>
        <time>2013-04-07T07:48:43Z</time>
      </trkpt>
      <trkpt lat="45.8969487" lon="4.6727803">
        <ele>427.9200000</ele>
        <time>2013-04-07T07:48:44Z</time>
      </trkpt>
      <trkpt lat="45.8969380" lon="4.6727648">
        <ele>428.4000000</ele>
        <time>2013-04-07T07:48:45Z</time>
      </trkpt>
      <trkpt lat="45.8968648" lon="4.6726548">
        <ele>429.3700000</ele>
        <time>2013-04-07T07:48:53Z</time>
      </trkpt>
      <trkpt lat="45.8968584" lon="4.6726384">
        <ele>429.8500000</ele>
        <time>2013-04-07T07:48:54Z</time>
      </trkpt>
      <trkpt lat="45.8968250" lon="4.6726316">
        <ele>430.3300000</ele>
        <time>2013-04-07T07:49:03Z</time>
      </trkpt>
      <trkpt lat="45.8968146" lon="4.6726283">
        <ele>428.8900000</ele>
        <time>2013-04-07T07:49:21Z</time>
      </trkpt>
      <trkpt lat="45.8967980" lon="4.6726129">
        <ele>428.8900000</ele>
        <time>2013-04-07T07:49:55Z</time>
      </trkpt>
      <trkpt lat="45.8967973" lon="4.6726274">
        <ele>428.8900000</ele>
        <time>2013-04-07T07:50:31Z</time>
      </trkpt>
      <trkpt lat="45.8967958" lon="4.6726244">
        <ele>429.3700000</ele>
        <time>2013-04-07T07:51:05Z</time>
      </trkpt>
      <trkpt lat="45.8967877" lon="4.6726220">
        <ele>429.3700000</ele>
        <time>2013-04-07T07:51:36Z</time>
      </trkpt>
      <trkpt lat="45.8967750" lon="4.6726332">
        <ele>429.3700000</ele>
        <time>2013-04-07T07:52:08Z</time>
      </trkpt>
      <trkpt lat="45.8967871" lon="4.6726307">
        <ele>428.4000000</ele>
        <time>2013-04-07T07:52:37Z</time>
      </trkpt>
      <trkpt lat="45.8967809" lon="4.6726270">
        <ele>429.3700000</ele>
        <time>2013-04-07T07:53:03Z</time>
      </trkpt>
      <trkpt lat="45.8967231" lon="4.6726509">
        <ele>429.3700000</ele>
        <time>2013-04-07T07:53:10Z</time>
      </trkpt>
      <trkpt lat="45.8967007" lon="4.6726488">
        <ele>429.3700000</ele>
        <time>2013-04-07T07:53:12Z</time>
      </trkpt>
      <trkpt lat="45.8966895" lon="4.6726412">
        <ele>429.3700000</ele>
        <time>2013-04-07T07:53:13Z</time>
      </trkpt>
      <trkpt lat="45.8966637" lon="4.6726367">
        <ele>429.8500000</ele>
        <time>2013-04-07T07:53:15Z</time>
      </trkpt>
      <trkpt lat="45.8963654" lon="4.6726695">
        <ele>431.2900000</ele>
        <time>2013-04-07T07:53:27Z</time>
      </trkpt>
      <trkpt lat="45.8959339" lon="4.6726296">
        <ele>433.2100000</ele>
        <time>2013-04-07T07:53:40Z</time>
      </trkpt>
      <trkpt lat="45.8955539" lon="4.6724680">
        <ele>434.6500000</ele>
        <time>2013-04-07T07:53:53Z</time>
      </trkpt>
      <trkpt lat="45.8952762" lon="4.6721537">
        <ele>436.1000000</ele>
        <time>2013-04-07T07:54:04Z</time>
      </trkpt>
      <trkpt lat="45.8951023" lon="4.6715692">
        <ele>437.0600000</ele>
        <time>2013-04-07T07:54:17Z</time>
      </trkpt>
      <trkpt lat="45.8949895" lon="4.6711721">
        <ele>438.5000000</ele>
        <time>2013-04-07T07:54:27Z</time>
      </trkpt>
      <trkpt lat="45.8949545" lon="4.6710460">
        <ele>438.9800000</ele>
        <time>2013-04-07T07:54:31Z</time>
      </trkpt>
      <trkpt lat="45.8949621" lon="4.6710113">
        <ele>439.4600000</ele>
        <time>2013-04-07T07:54:33Z</time>
      </trkpt>
      <trkpt lat="45.8951083" lon="4.6708719">
        <ele>440.9000000</ele>
        <time>2013-04-07T07:54:42Z</time>
      </trkpt>
      <trkpt lat="45.8952930" lon="4.6707181">
        <ele>441.8600000</ele>
        <time>2013-04-07T07:54:51Z</time>
      </trkpt>
      <trkpt lat="45.8953214" lon="4.6706953">
        <ele>442.3400000</ele>
        <time>2013-04-07T07:54:53Z</time>
      </trkpt>
      <trkpt lat="45.8954632" lon="4.6706078">
        <ele>443.7900000</ele>
        <time>2013-04-07T07:55:00Z</time>
      </trkpt>
      <trkpt lat="45.8955181" lon="4.6705705">
        <ele>444.2700000</ele>
        <time>2013-04-07T07:55:03Z</time>
      </trkpt>
      <trkpt lat="45.8957200" lon="4.6704183">
        <ele>444.7500000</ele>
        <time>2013-04-07T07:55:13Z</time>
      </trkpt>
      <trkpt lat="45.8959340" lon="4.6705042">
        <ele>444.7500000</ele>
        <time>2013-04-07T07:55:23Z</time>
      </trkpt>
      <trkpt lat="45.8961321" lon="4.6706342">
        <ele>443.7900000</ele>
        <time>2013-04-07T07:55:29Z</time>
      </trkpt>
      <trkpt lat="45.8963187" lon="4.6707787">
        <ele>442.3400000</ele>
        <time>2013-04-07T07:55:34Z</time>
      </trkpt>
      <trkpt lat="45.8964842" lon="4.6709156">
        <ele>441.8600000</ele>
        <time>2013-04-07T07:55:38Z</time>
      </trkpt>
      <trkpt lat="45.8965624" lon="4.6710007">
        <ele>440.9000000</ele>
        <time>2013-04-07T07:55:40Z</time>
      </trkpt>
      <trkpt lat="45.8966609" lon="4.6710776">
        <ele>439.9400000</ele>
        <time>2013-04-07T07:55:42Z</time>
      </trkpt>
      <trkpt lat="45.8968373" lon="4.6711121">
        <ele>438.9800000</ele>
        <time>2013-04-07T07:55:45Z</time>
      </trkpt>
      <trkpt lat="45.8974850" lon="4.6711498">
        <ele>436.5800000</ele>
        <time>2013-04-07T07:55:55Z</time>
      </trkpt>
      <trkpt lat="45.8977221" lon="4.6711584">
        <ele>435.1300000</ele>
        <time>2013-04-07T07:55:58Z</time>
      </trkpt>
      <trkpt lat="45.8983365" lon="4.6711971">
        <ele>431.7700000</ele>
        <time>2013-04-07T07:56:05Z</time>
      </trkpt>
      <trkpt lat="45.8987680" lon="4.6712118">
        <ele>430.8100000</ele>
        <time>2013-04-07T07:56:10Z</time>
      </trkpt>
      <trkpt lat="45.8990082" lon="4.6712521">
        <ele>430.3300000</ele>
        <time>2013-04-07T07:56:13Z</time>
      </trkpt>
      <trkpt lat="45.8996707" lon="4.6712495">
        <ele>427.9200000</ele>
        <time>2013-04-07T07:56:21Z</time>
      </trkpt>
      <trkpt lat="45.8998235" lon="4.6712159">
        <ele>427.4400000</ele>
        <time>2013-04-07T07:56:23Z</time>
      </trkpt>
      <trkpt lat="45.9000728" lon="4.6713738">
        <ele>426.9600000</ele>
        <time>2013-04-07T07:56:28Z</time>
      </trkpt>
      <trkpt lat="45.9001473" lon="4.6715614">
        <ele>422.1600000</ele>
        <time>2013-04-07T07:56:31Z</time>
      </trkpt>
      <trkpt lat="45.9002255" lon="4.6716930">
        <ele>421.6800000</ele>
        <time>2013-04-07T07:56:33Z</time>
      </trkpt>
      <trkpt lat="45.9004318" lon="4.6719318">
        <ele>418.7900000</ele>
        <time>2013-04-07T07:56:39Z</time>
      </trkpt>
      <trkpt lat="45.9005207" lon="4.6720595">
        <ele>417.8300000</ele>
        <time>2013-04-07T07:56:43Z</time>
      </trkpt>
      <trkpt lat="45.9005534" lon="4.6721059">
        <ele>416.8700000</ele>
        <time>2013-04-07T07:56:44Z</time>
      </trkpt>
      <trkpt lat="45.9006046" lon="4.6721288">
        <ele>416.8700000</ele>
        <time>2013-04-07T07:56:45Z</time>
      </trkpt>
      <trkpt lat="45.9006710" lon="4.6721365">
        <ele>416.3900000</ele>
        <time>2013-04-07T07:56:46Z</time>
      </trkpt>
      <trkpt lat="45.9007338" lon="4.6721390">
        <ele>416.3900000</ele>
        <time>2013-04-07T07:56:47Z</time>
      </trkpt>
      <trkpt lat="45.9008433" lon="4.6721329">
        <ele>416.8700000</ele>
        <time>2013-04-07T07:56:49Z</time>
      </trkpt>
      <trkpt lat="45.9008949" lon="4.6721205">
        <ele>417.3500000</ele>
        <time>2013-04-07T07:56:50Z</time>
      </trkpt>
      <trkpt lat="45.9009413" lon="4.6720972">
        <ele>417.8300000</ele>
        <time>2013-04-07T07:56:51Z</time>
      </trkpt>
      <trkpt lat="45.9009837" lon="4.6720679">
        <ele>416.8700000</ele>
        <time>2013-04-07T07:56:52Z</time>
      </trkpt>
      <trkpt lat="45.9010227" lon="4.6720361">
        <ele>417.8300000</ele>
        <time>2013-04-07T07:56:53Z</time>
      </trkpt>
      <trkpt lat="45.9010575" lon="4.6720017">
        <ele>417.3500000</ele>
        <time>2013-04-07T07:56:54Z</time>
      </trkpt>
      <trkpt lat="45.9011284" lon="4.6719383">
        <ele>417.8300000</ele>
        <time>2013-04-07T07:56:56Z</time>
      </trkpt>
      <trkpt lat="45.9012983" lon="4.6718562">
        <ele>418.3100000</ele>
        <time>2013-04-07T07:57:00Z</time>
      </trkpt>
      <trkpt lat="45.9021240" lon="4.6717987">
        <ele>417.8300000</ele>
        <time>2013-04-07T07:57:17Z</time>
      </trkpt>
      <trkpt lat="45.9023646" lon="4.6718220">
        <ele>417.3500000</ele>
        <time>2013-04-07T07:57:22Z</time>
      </trkpt>
      <trkpt lat="45.9026117" lon="4.6717840">
        <ele>416.3900000</ele>
        <time>2013-04-07T07:57:27Z</time>
      </trkpt>
      <trkpt lat="45.9028231" lon="4.6717774">
        <ele>416.3900000</ele>
        <time>2013-04-07T07:57:31Z</time>
      </trkpt>
      <trkpt lat="45.9030473" lon="4.6715543">
        <ele>416.3900000</ele>
        <time>2013-04-07T07:57:37Z</time>
      </trkpt>
      <trkpt lat="45.9031068" lon="4.6713309">
        <ele>417.3500000</ele>
        <time>2013-04-07T07:57:41Z</time>
      </trkpt>
      <trkpt lat="45.9032808" lon="4.6704156">
        <ele>419.2700000</ele>
        <time>2013-04-07T07:57:57Z</time>
      </trkpt>
      <trkpt lat="45.9033436" lon="4.6701778">
        <ele>419.2700000</ele>
        <time>2013-04-07T07:58:01Z</time>
      </trkpt>
      <trkpt lat="45.9033615" lon="4.6701182">
        <ele>419.7500000</ele>
        <time>2013-04-07T07:58:02Z</time>
      </trkpt>
      <trkpt lat="45.9033807" lon="4.6700587">
        <ele>419.2700000</ele>
        <time>2013-04-07T07:58:03Z</time>
      </trkpt>
      <trkpt lat="45.9034107" lon="4.6700044">
        <ele>418.3100000</ele>
        <time>2013-04-07T07:58:04Z</time>
      </trkpt>
      <trkpt lat="45.9034529" lon="4.6699628">
        <ele>418.3100000</ele>
        <time>2013-04-07T07:58:05Z</time>
      </trkpt>
      <trkpt lat="45.9035010" lon="4.6699362">
        <ele>418.3100000</ele>
        <time>2013-04-07T07:58:06Z</time>
      </trkpt>
      <trkpt lat="45.9035532" lon="4.6699301">
        <ele>417.8300000</ele>
        <time>2013-04-07T07:58:07Z</time>
      </trkpt>
      <trkpt lat="45.9036056" lon="4.6699363">
        <ele>417.3500000</ele>
        <time>2013-04-07T07:58:08Z</time>
      </trkpt>
      <trkpt lat="45.9036601" lon="4.6699411">
        <ele>416.8700000</ele>
        <time>2013-04-07T07:58:09Z</time>
      </trkpt>
      <trkpt lat="45.9037167" lon="4.6699427">
        <ele>416.3900000</ele>
        <time>2013-04-07T07:58:10Z</time>
      </trkpt>
      <trkpt lat="45.9038257" lon="4.6699346">
        <ele>416.3900000</ele>
        <time>2013-04-07T07:58:12Z</time>
      </trkpt>
      <trkpt lat="45.9038788" lon="4.6699166">
        <ele>415.9100000</ele>
        <time>2013-04-07T07:58:13Z</time>
      </trkpt>
      <trkpt lat="45.9039917" lon="4.6699012">
        <ele>414.9500000</ele>
        <time>2013-04-07T07:58:15Z</time>
      </trkpt>
      <trkpt lat="45.9040495" lon="4.6699147">
        <ele>414.9500000</ele>
        <time>2013-04-07T07:58:16Z</time>
      </trkpt>
      <trkpt lat="45.9041089" lon="4.6699384">
        <ele>414.9500000</ele>
        <time>2013-04-07T07:58:17Z</time>
      </trkpt>
      <trkpt lat="45.9041664" lon="4.6699691">
        <ele>414.9500000</ele>
        <time>2013-04-07T07:58:18Z</time>
      </trkpt>
      <trkpt lat="45.9042241" lon="4.6700036">
        <ele>413.9800000</ele>
        <time>2013-04-07T07:58:19Z</time>
      </trkpt>
      <trkpt lat="45.9042832" lon="4.6700428">
        <ele>413.9800000</ele>
        <time>2013-04-07T07:58:20Z</time>
      </trkpt>
      <trkpt lat="45.9043440" lon="4.6700848">
        <ele>413.9800000</ele>
        <time>2013-04-07T07:58:21Z</time>
      </trkpt>
      <trkpt lat="45.9044110" lon="4.6701226">
        <ele>413.5000000</ele>
        <time>2013-04-07T07:58:22Z</time>
      </trkpt>
      <trkpt lat="45.9046937" lon="4.6702282">
        <ele>411.5800000</ele>
        <time>2013-04-07T07:58:26Z</time>
      </trkpt>
      <trkpt lat="45.9050853" lon="4.6702775">
        <ele>409.6600000</ele>
        <time>2013-04-07T07:58:31Z</time>
      </trkpt>
      <trkpt lat="45.9053477" lon="4.6702871">
        <ele>409.6600000</ele>
        <time>2013-04-07T07:58:35Z</time>
      </trkpt>
      <trkpt lat="45.9053970" lon="4.6702825">
        <ele>410.1400000</ele>
        <time>2013-04-07T07:58:36Z</time>
      </trkpt>
      <trkpt lat="45.9054341" lon="4.6702604">
        <ele>410.6200000</ele>
        <time>2013-04-07T07:58:37Z</time>
      </trkpt>
      <trkpt lat="45.9054642" lon="4.6702200">
        <ele>410.1400000</ele>
        <time>2013-04-07T07:58:38Z</time>
      </trkpt>
      <trkpt lat="45.9054898" lon="4.6701676">
        <ele>410.1400000</ele>
        <time>2013-04-07T07:58:39Z</time>
      </trkpt>
      <trkpt lat="45.9055049" lon="4.6701053">
        <ele>409.6600000</ele>
        <time>2013-04-07T07:58:40Z</time>
      </trkpt>
      <trkpt lat="45.9055153" lon="4.6700323">
        <ele>409.1800000</ele>
        <time>2013-04-07T07:58:41Z</time>
      </trkpt>
      <trkpt lat="45.9055216" lon="4.6699576">
        <ele>408.7000000</ele>
        <time>2013-04-07T07:58:42Z</time>
      </trkpt>
      <trkpt lat="45.9055330" lon="4.6698818">
        <ele>409.1800000</ele>
        <time>2013-04-07T07:58:43Z</time>
      </trkpt>
      <trkpt lat="45.9055480" lon="4.6698037">
        <ele>409.6600000</ele>
        <time>2013-04-07T07:58:44Z</time>
      </trkpt>
      <trkpt lat="45.9056027" lon="4.6695396">
        <ele>408.2200000</ele>
        <time>2013-04-07T07:58:48Z</time>
      </trkpt>
      <trkpt lat="45.9056343" lon="4.6694968">
        <ele>408.2200000</ele>
        <time>2013-04-07T07:58:49Z</time>
      </trkpt>
      <trkpt lat="45.9056750" lon="4.6694689">
        <ele>407.7400000</ele>
        <time>2013-04-07T07:58:50Z</time>
      </trkpt>
      <trkpt lat="45.9057178" lon="4.6694412">
        <ele>407.2600000</ele>
        <time>2013-04-07T07:58:51Z</time>
      </trkpt>
      <trkpt lat="45.9057585" lon="4.6694052">
        <ele>407.2600000</ele>
        <time>2013-04-07T07:58:52Z</time>
      </trkpt>
      <trkpt lat="45.9057948" lon="4.6693644">
        <ele>406.7700000</ele>
        <time>2013-04-07T07:58:53Z</time>
      </trkpt>
      <trkpt lat="45.9058271" lon="4.6693123">
        <ele>406.2900000</ele>
        <time>2013-04-07T07:58:54Z</time>
      </trkpt>
      <trkpt lat="45.9058500" lon="4.6692446">
        <ele>405.8100000</ele>
        <time>2013-04-07T07:58:55Z</time>
      </trkpt>
      <trkpt lat="45.9058661" lon="4.6691578">
        <ele>404.8500000</ele>
        <time>2013-04-07T07:58:56Z</time>
      </trkpt>
      <trkpt lat="45.9058828" lon="4.6690514">
        <ele>403.4100000</ele>
        <time>2013-04-07T07:58:57Z</time>
      </trkpt>
      <trkpt lat="45.9059210" lon="4.6688124">
        <ele>402.4500000</ele>
        <time>2013-04-07T07:58:59Z</time>
      </trkpt>
      <trkpt lat="45.9059748" lon="4.6684611">
        <ele>399.0800000</ele>
        <time>2013-04-07T07:59:02Z</time>
      </trkpt>
      <trkpt lat="45.9060043" lon="4.6682252">
        <ele>396.2000000</ele>
        <time>2013-04-07T07:59:04Z</time>
      </trkpt>
      <trkpt lat="45.9060393" lon="4.6681018">
        <ele>394.7600000</ele>
        <time>2013-04-07T07:59:05Z</time>
      </trkpt>
      <trkpt lat="45.9060829" lon="4.6679708">
        <ele>393.3200000</ele>
        <time>2013-04-07T07:59:06Z</time>
      </trkpt>
      <trkpt lat="45.9061920" lon="4.6676040">
        <ele>389.4700000</ele>
        <time>2013-04-07T07:59:09Z</time>
      </trkpt>
      <trkpt lat="45.9062908" lon="4.6673174">
        <ele>386.1100000</ele>
        <time>2013-04-07T07:59:12Z</time>
      </trkpt>
      <trkpt lat="45.9063105" lon="4.6672253">
        <ele>385.1500000</ele>
        <time>2013-04-07T07:59:13Z</time>
      </trkpt>
      <trkpt lat="45.9063188" lon="4.6671321">
        <ele>384.1800000</ele>
        <time>2013-04-07T07:59:14Z</time>
      </trkpt>
      <trkpt lat="45.9063115" lon="4.6670403">
        <ele>381.7800000</ele>
        <time>2013-04-07T07:59:15Z</time>
      </trkpt>
      <trkpt lat="45.9062837" lon="4.6669625">
        <ele>381.3000000</ele>
        <time>2013-04-07T07:59:16Z</time>
      </trkpt>
      <trkpt lat="45.9062448" lon="4.6669009">
        <ele>380.3400000</ele>
        <time>2013-04-07T07:59:17Z</time>
      </trkpt>
      <trkpt lat="45.9061484" lon="4.6667600">
        <ele>378.4200000</ele>
        <time>2013-04-07T07:59:20Z</time>
      </trkpt>
      <trkpt lat="45.9060982" lon="4.6667057">
        <ele>376.9700000</ele>
        <time>2013-04-07T07:59:23Z</time>
      </trkpt>
      <trkpt lat="45.9061070" lon="4.6666698">
        <ele>376.4900000</ele>
        <time>2013-04-07T07:59:27Z</time>
      </trkpt>
      <trkpt lat="45.9061178" lon="4.6666726">
        <ele>376.4900000</ele>
        <time>2013-04-07T07:59:28Z</time>
      </trkpt>
      <trkpt lat="45.9061365" lon="4.6666766">
        <ele>376.9700000</ele>
        <time>2013-04-07T07:59:29Z</time>
      </trkpt>
      <trkpt lat="45.9061572" lon="4.6666863">
        <ele>376.9700000</ele>
        <time>2013-04-07T07:59:30Z</time>
      </trkpt>
      <trkpt lat="45.9061818" lon="4.6666956">
        <ele>376.4900000</ele>
        <time>2013-04-07T07:59:31Z</time>
      </trkpt>
      <trkpt lat="45.9062057" lon="4.6667063">
        <ele>377.4500000</ele>
        <time>2013-04-07T07:59:32Z</time>
      </trkpt>
      <trkpt lat="45.9062297" lon="4.6667183">
        <ele>377.4500000</ele>
        <time>2013-04-07T07:59:33Z</time>
      </trkpt>
      <trkpt lat="45.9062541" lon="4.6667300">
        <ele>377.9400000</ele>
        <time>2013-04-07T07:59:34Z</time>
      </trkpt>
      <trkpt lat="45.9062773" lon="4.6667429">
        <ele>377.4500000</ele>
        <time>2013-04-07T07:59:35Z</time>
      </trkpt>
      <trkpt lat="45.9063398" lon="4.6667620">
        <ele>378.9000000</ele>
        <time>2013-04-07T07:59:38Z</time>
      </trkpt>
      <trkpt lat="45.9065913" lon="4.6668717">
        <ele>380.8200000</ele>
        <time>2013-04-07T07:59:49Z</time>
      </trkpt>
      <trkpt lat="45.9069317" lon="4.6669475">
        <ele>383.7000000</ele>
        <time>2013-04-07T08:00:02Z</time>
      </trkpt>
      <trkpt lat="45.9073612" lon="4.6670857">
        <ele>386.1100000</ele>
        <time>2013-04-07T08:00:16Z</time>
      </trkpt>
      <trkpt lat="45.9075834" lon="4.6671521">
        <ele>386.5900000</ele>
        <time>2013-04-07T08:00:24Z</time>
      </trkpt>
      <trkpt lat="45.9076069" lon="4.6671343">
        <ele>386.5900000</ele>
        <time>2013-04-07T08:00:25Z</time>
      </trkpt>
      <trkpt lat="45.9076270" lon="4.6671024">
        <ele>386.5900000</ele>
        <time>2013-04-07T08:00:26Z</time>
      </trkpt>
      <trkpt lat="45.9079246" lon="4.6663730">
        <ele>383.2200000</ele>
        <time>2013-04-07T08:00:39Z</time>
      </trkpt>
      <trkpt lat="45.9079454" lon="4.6663060">
        <ele>383.7000000</ele>
        <time>2013-04-07T08:00:40Z</time>
      </trkpt>
      <trkpt lat="45.9080150" lon="4.6660782">
        <ele>382.2600000</ele>
        <time>2013-04-07T08:00:43Z</time>
      </trkpt>
      <trkpt lat="45.9081095" lon="4.6658606">
        <ele>381.3000000</ele>
        <time>2013-04-07T08:00:46Z</time>
      </trkpt>
      <trkpt lat="45.9081466" lon="4.6658149">
        <ele>381.3000000</ele>
        <time>2013-04-07T08:00:47Z</time>
      </trkpt>
      <trkpt lat="45.9081871" lon="4.6657799">
        <ele>381.3000000</ele>
        <time>2013-04-07T08:00:48Z</time>
      </trkpt>
      <trkpt lat="45.9082236" lon="4.6657504">
        <ele>381.3000000</ele>
        <time>2013-04-07T08:00:49Z</time>
      </trkpt>
      <trkpt lat="45.9082584" lon="4.6657255">
        <ele>381.3000000</ele>
        <time>2013-04-07T08:00:50Z</time>
      </trkpt>
      <trkpt lat="45.9082924" lon="4.6656986">
        <ele>381.3000000</ele>
        <time>2013-04-07T08:00:51Z</time>
      </trkpt>
      <trkpt lat="45.9083879" lon="4.6656361">
        <ele>380.3400000</ele>
        <time>2013-04-07T08:00:53Z</time>
      </trkpt>
      <trkpt lat="45.9084983" lon="4.6655743">
        <ele>379.8600000</ele>
        <time>2013-04-07T08:00:55Z</time>
      </trkpt>
      <trkpt lat="45.9086806" lon="4.6655147">
        <ele>377.9400000</ele>
        <time>2013-04-07T08:00:58Z</time>
      </trkpt>
      <trkpt lat="45.9087445" lon="4.6655075">
        <ele>376.4900000</ele>
        <time>2013-04-07T08:00:59Z</time>
      </trkpt>
      <trkpt lat="45.9088103" lon="4.6655192">
        <ele>376.4900000</ele>
        <time>2013-04-07T08:01:00Z</time>
      </trkpt>
      <trkpt lat="45.9090936" lon="4.6656082">
        <ele>375.0500000</ele>
        <time>2013-04-07T08:01:04Z</time>
      </trkpt>
      <trkpt lat="45.9095002" lon="4.6657276">
        <ele>375.0500000</ele>
        <time>2013-04-07T08:01:10Z</time>
      </trkpt>
      <trkpt lat="45.9095735" lon="4.6657220">
        <ele>374.5700000</ele>
        <time>2013-04-07T08:01:11Z</time>
      </trkpt>
      <trkpt lat="45.9096463" lon="4.6657064">
        <ele>374.0900000</ele>
        <time>2013-04-07T08:01:12Z</time>
      </trkpt>
      <trkpt lat="45.9099115" lon="4.6656121">
        <ele>374.0900000</ele>
        <time>2013-04-07T08:01:16Z</time>
      </trkpt>
      <trkpt lat="45.9099711" lon="4.6655660">
        <ele>373.6100000</ele>
        <time>2013-04-07T08:01:17Z</time>
      </trkpt>
      <trkpt lat="45.9100360" lon="4.6655136">
        <ele>373.1300000</ele>
        <time>2013-04-07T08:01:18Z</time>
      </trkpt>
      <trkpt lat="45.9103565" lon="4.6652739">
        <ele>371.2100000</ele>
        <time>2013-04-07T08:01:23Z</time>
      </trkpt>
      <trkpt lat="45.9104264" lon="4.6652391">
        <ele>370.7300000</ele>
        <time>2013-04-07T08:01:24Z</time>
      </trkpt>
      <trkpt lat="45.9107901" lon="4.6650023">
        <ele>368.8000000</ele>
        <time>2013-04-07T08:01:30Z</time>
      </trkpt>
      <trkpt lat="45.9108462" lon="4.6649521">
        <ele>368.8000000</ele>
        <time>2013-04-07T08:01:31Z</time>
      </trkpt>
      <trkpt lat="45.9108958" lon="4.6648940">
        <ele>368.8000000</ele>
        <time>2013-04-07T08:01:32Z</time>
      </trkpt>
      <trkpt lat="45.9109396" lon="4.6648270">
        <ele>367.8400000</ele>
        <time>2013-04-07T08:01:33Z</time>
      </trkpt>
      <trkpt lat="45.9110314" lon="4.6646880">
        <ele>366.8800000</ele>
        <time>2013-04-07T08:01:35Z</time>
      </trkpt>
      <trkpt lat="45.9112236" lon="4.6643858">
        <ele>364.0000000</ele>
        <time>2013-04-07T08:01:39Z</time>
      </trkpt>
      <trkpt lat="45.9112579" lon="4.6643184">
        <ele>364.4800000</ele>
        <time>2013-04-07T08:01:40Z</time>
      </trkpt>
      <trkpt lat="45.9112824" lon="4.6642507">
        <ele>364.0000000</ele>
        <time>2013-04-07T08:01:41Z</time>
      </trkpt>
      <trkpt lat="45.9112938" lon="4.6641895">
        <ele>364.0000000</ele>
        <time>2013-04-07T08:01:42Z</time>
      </trkpt>
      <trkpt lat="45.9113050" lon="4.6641471">
        <ele>364.4800000</ele>
        <time>2013-04-07T08:01:43Z</time>
      </trkpt>
      <trkpt lat="45.9113269" lon="4.6641063">
        <ele>364.4800000</ele>
        <time>2013-04-07T08:01:44Z</time>
      </trkpt>
      <trkpt lat="45.9113489" lon="4.6640601">
        <ele>363.0400000</ele>
        <time>2013-04-07T08:01:45Z</time>
      </trkpt>
      <trkpt lat="45.9113708" lon="4.6640035">
        <ele>363.0400000</ele>
        <time>2013-04-07T08:01:46Z</time>
      </trkpt>
      <trkpt lat="45.9114004" lon="4.6639415">
        <ele>362.0700000</ele>
        <time>2013-04-07T08:01:47Z</time>
      </trkpt>
      <trkpt lat="45.9114368" lon="4.6638876">
        <ele>361.5900000</ele>
        <time>2013-04-07T08:01:48Z</time>
      </trkpt>
      <trkpt lat="45.9114715" lon="4.6638467">
        <ele>361.5900000</ele>
        <time>2013-04-07T08:01:49Z</time>
      </trkpt>
      <trkpt lat="45.9116383" lon="4.6635846">
        <ele>360.6300000</ele>
        <time>2013-04-07T08:01:55Z</time>
      </trkpt>
      <trkpt lat="45.9116777" lon="4.6635417">
        <ele>360.1500000</ele>
        <time>2013-04-07T08:01:56Z</time>
      </trkpt>
      <trkpt lat="45.9117201" lon="4.6635073">
        <ele>359.1900000</ele>
        <time>2013-04-07T08:01:57Z</time>
      </trkpt>
      <trkpt lat="45.9117608" lon="4.6634814">
        <ele>358.7100000</ele>
        <time>2013-04-07T08:01:58Z</time>
      </trkpt>
      <trkpt lat="45.9117941" lon="4.6634708">
        <ele>359.1900000</ele>
        <time>2013-04-07T08:01:59Z</time>
      </trkpt>
      <trkpt lat="45.9118198" lon="4.6634862">
        <ele>359.6700000</ele>
        <time>2013-04-07T08:02:00Z</time>
      </trkpt>
      <trkpt lat="45.9118400" lon="4.6635109">
        <ele>360.1500000</ele>
        <time>2013-04-07T08:02:01Z</time>
      </trkpt>
      <trkpt lat="45.9118554" lon="4.6635363">
        <ele>360.1500000</ele>
        <time>2013-04-07T08:02:02Z</time>
      </trkpt>
      <trkpt lat="45.9118706" lon="4.6635618">
        <ele>360.6300000</ele>
        <time>2013-04-07T08:02:03Z</time>
      </trkpt>
      <trkpt lat="45.9118845" lon="4.6635840">
        <ele>360.6300000</ele>
        <time>2013-04-07T08:02:04Z</time>
      </trkpt>
      <trkpt lat="45.9118968" lon="4.6636069">
        <ele>360.6300000</ele>
        <time>2013-04-07T08:02:05Z</time>
      </trkpt>
      <trkpt lat="45.9119129" lon="4.6636281">
        <ele>360.6300000</ele>
        <time>2013-04-07T08:02:06Z</time>
      </trkpt>
      <trkpt lat="45.9119356" lon="4.6636568">
        <ele>360.6300000</ele>
        <time>2013-04-07T08:02:07Z</time>
      </trkpt>
      <trkpt lat="45.9119513" lon="4.6636854">
        <ele>360.6300000</ele>
        <time>2013-04-07T08:02:08Z</time>
      </trkpt>
      <trkpt lat="45.9121666" lon="4.6640160">
        <ele>362.5500000</ele>
        <time>2013-04-07T08:02:19Z</time>
      </trkpt>
      <trkpt lat="45.9125177" lon="4.6643349">
        <ele>364.0000000</ele>
        <time>2013-04-07T08:02:31Z</time>
      </trkpt>
      <trkpt lat="45.9129002" lon="4.6645563">
        <ele>363.0400000</ele>
        <time>2013-04-07T08:02:41Z</time>
      </trkpt>
      <trkpt lat="45.9130829" lon="4.6646678">
        <ele>362.5500000</ele>
        <time>2013-04-07T08:02:45Z</time>
      </trkpt>
      <trkpt lat="45.9131243" lon="4.6646790">
        <ele>362.5500000</ele>
        <time>2013-04-07T08:02:46Z</time>
      </trkpt>
      <trkpt lat="45.9131656" lon="4.6646717">
        <ele>362.0700000</ele>
        <time>2013-04-07T08:02:47Z</time>
      </trkpt>
      <trkpt lat="45.9132022" lon="4.6646442">
        <ele>362.5500000</ele>
        <time>2013-04-07T08:02:48Z</time>
      </trkpt>
      <trkpt lat="45.9132310" lon="4.6646025">
        <ele>362.5500000</ele>
        <time>2013-04-07T08:02:49Z</time>
      </trkpt>
      <trkpt lat="45.9132541" lon="4.6645579">
        <ele>362.5500000</ele>
        <time>2013-04-07T08:02:50Z</time>
      </trkpt>
      <trkpt lat="45.9132708" lon="4.6645084">
        <ele>362.5500000</ele>
        <time>2013-04-07T08:02:51Z</time>
      </trkpt>
      <trkpt lat="45.9132879" lon="4.6644564">
        <ele>362.0700000</ele>
        <time>2013-04-07T08:02:52Z</time>
      </trkpt>
      <trkpt lat="45.9134625" lon="4.6638917">
        <ele>359.6700000</ele>
        <time>2013-04-07T08:03:03Z</time>
      </trkpt>
      <trkpt lat="45.9135159" lon="4.6636983">
        <ele>357.7500000</ele>
        <time>2013-04-07T08:03:06Z</time>
      </trkpt>
      <trkpt lat="45.9135290" lon="4.6636281">
        <ele>357.7500000</ele>
        <time>2013-04-07T08:03:07Z</time>
      </trkpt>
      <trkpt lat="45.9135615" lon="4.6634909">
        <ele>356.7900000</ele>
        <time>2013-04-07T08:03:09Z</time>
      </trkpt>
      <trkpt lat="45.9135917" lon="4.6634396">
        <ele>356.7900000</ele>
        <time>2013-04-07T08:03:10Z</time>
      </trkpt>
      <trkpt lat="45.9136313" lon="4.6634142">
        <ele>356.3100000</ele>
        <time>2013-04-07T08:03:11Z</time>
      </trkpt>
      <trkpt lat="45.9138892" lon="4.6634577">
        <ele>354.8600000</ele>
        <time>2013-04-07T08:03:16Z</time>
      </trkpt>
      <trkpt lat="45.9143165" lon="4.6635525">
        <ele>352.4600000</ele>
        <time>2013-04-07T08:03:23Z</time>
      </trkpt>
      <trkpt lat="45.9146389" lon="4.6636737">
        <ele>351.5000000</ele>
        <time>2013-04-07T08:03:28Z</time>
      </trkpt>
      <trkpt lat="45.9151947" lon="4.6638033">
        <ele>349.1000000</ele>
        <time>2013-04-07T08:03:36Z</time>
      </trkpt>
      <trkpt lat="45.9153529" lon="4.6638829">
        <ele>348.1300000</ele>
        <time>2013-04-07T08:03:39Z</time>
      </trkpt>
      <trkpt lat="45.9153762" lon="4.6639300">
        <ele>348.1300000</ele>
        <time>2013-04-07T08:03:40Z</time>
      </trkpt>
      <trkpt lat="45.9153802" lon="4.6639819">
        <ele>348.6200000</ele>
        <time>2013-04-07T08:03:41Z</time>
      </trkpt>
      <trkpt lat="45.9153740" lon="4.6640280">
        <ele>349.1000000</ele>
        <time>2013-04-07T08:03:42Z</time>
      </trkpt>
      <trkpt lat="45.9153680" lon="4.6640681">
        <ele>349.1000000</ele>
        <time>2013-04-07T08:03:43Z</time>
      </trkpt>
      <trkpt lat="45.9153602" lon="4.6641057">
        <ele>349.5800000</ele>
        <time>2013-04-07T08:03:44Z</time>
      </trkpt>
      <trkpt lat="45.9153505" lon="4.6641436">
        <ele>349.5800000</ele>
        <time>2013-04-07T08:03:45Z</time>
      </trkpt>
      <trkpt lat="45.9152581" lon="4.6646281">
        <ele>351.5000000</ele>
        <time>2013-04-07T08:03:57Z</time>
      </trkpt>
      <trkpt lat="45.9151211" lon="4.6650746">
        <ele>353.9000000</ele>
        <time>2013-04-07T08:04:09Z</time>
      </trkpt>
      <trkpt lat="45.9151306" lon="4.6651075">
        <ele>353.9000000</ele>
        <time>2013-04-07T08:04:10Z</time>
      </trkpt>
      <trkpt lat="45.9151469" lon="4.6651337">
        <ele>353.9000000</ele>
        <time>2013-04-07T08:04:11Z</time>
      </trkpt>
      <trkpt lat="45.9152406" lon="4.6652344">
        <ele>352.9400000</ele>
        <time>2013-04-07T08:04:14Z</time>
      </trkpt>
      <trkpt lat="45.9153701" lon="4.6653776">
        <ele>350.5400000</ele>
        <time>2013-04-07T08:04:17Z</time>
      </trkpt>
      <trkpt lat="45.9155031" lon="4.6655396">
        <ele>349.5800000</ele>
        <time>2013-04-07T08:04:20Z</time>
      </trkpt>
      <trkpt lat="45.9155358" lon="4.6655993">
        <ele>350.0600000</ele>
        <time>2013-04-07T08:04:21Z</time>
      </trkpt>
      <trkpt lat="45.9155529" lon="4.6656587">
        <ele>351.0200000</ele>
        <time>2013-04-07T08:04:22Z</time>
      </trkpt>
      <trkpt lat="45.9155539" lon="4.6657070">
        <ele>351.5000000</ele>
        <time>2013-04-07T08:04:23Z</time>
      </trkpt>
      <trkpt lat="45.9155420" lon="4.6657430">
        <ele>351.9800000</ele>
        <time>2013-04-07T08:04:24Z</time>
      </trkpt>
      <trkpt lat="45.9155255" lon="4.6657740">
        <ele>351.9800000</ele>
        <time>2013-04-07T08:04:25Z</time>
      </trkpt>
      <trkpt lat="45.9154756" lon="4.6658903">
        <ele>353.4200000</ele>
        <time>2013-04-07T08:04:29Z</time>
      </trkpt>
      <trkpt lat="45.9154810" lon="4.6659710">
        <ele>354.3800000</ele>
        <time>2013-04-07T08:04:32Z</time>
      </trkpt>
      <trkpt lat="45.9156780" lon="4.6662950">
        <ele>355.3400000</ele>
        <time>2013-04-07T08:04:45Z</time>
      </trkpt>
      <trkpt lat="45.9158383" lon="4.6664849">
        <ele>356.7900000</ele>
        <time>2013-04-07T08:04:53Z</time>
      </trkpt>
      <trkpt lat="45.9159647" lon="4.6661949">
        <ele>354.8600000</ele>
        <time>2013-04-07T08:05:00Z</time>
      </trkpt>
      <trkpt lat="45.9160517" lon="4.6659787">
        <ele>353.4200000</ele>
        <time>2013-04-07T08:05:03Z</time>
      </trkpt>
      <trkpt lat="45.9160922" lon="4.6659114">
        <ele>353.4200000</ele>
        <time>2013-04-07T08:05:04Z</time>
      </trkpt>
      <trkpt lat="45.9161377" lon="4.6658481">
        <ele>352.9400000</ele>
        <time>2013-04-07T08:05:05Z</time>
      </trkpt>
      <trkpt lat="45.9162984" lon="4.6656711">
        <ele>351.9800000</ele>
        <time>2013-04-07T08:05:08Z</time>
      </trkpt>
      <trkpt lat="45.9163531" lon="4.6656148">
        <ele>351.9800000</ele>
        <time>2013-04-07T08:05:09Z</time>
      </trkpt>
      <trkpt lat="45.9165629" lon="4.6654209">
        <ele>351.9800000</ele>
        <time>2013-04-07T08:05:13Z</time>
      </trkpt>
      <trkpt lat="45.9166208" lon="4.6653904">
        <ele>351.9800000</ele>
        <time>2013-04-07T08:05:14Z</time>
      </trkpt>
      <trkpt lat="45.9166802" lon="4.6653737">
        <ele>351.5000000</ele>
        <time>2013-04-07T08:05:15Z</time>
      </trkpt>
      <trkpt lat="45.9170887" lon="4.6653097">
        <ele>352.4600000</ele>
        <time>2013-04-07T08:05:23Z</time>
      </trkpt>
      <trkpt lat="45.9171310" lon="4.6653094">
        <ele>352.4600000</ele>
        <time>2013-04-07T08:05:24Z</time>
      </trkpt>
      <trkpt lat="45.9171746" lon="4.6653095">
        <ele>352.9400000</ele>
        <time>2013-04-07T08:05:25Z</time>
      </trkpt>
      <trkpt lat="45.9175065" lon="4.6653501">
        <ele>352.4600000</ele>
        <time>2013-04-07T08:05:32Z</time>
      </trkpt>
      <trkpt lat="45.9175550" lon="4.6653869">
        <ele>352.4600000</ele>
        <time>2013-04-07T08:05:33Z</time>
      </trkpt>
      <trkpt lat="45.9175993" lon="4.6654293">
        <ele>352.4600000</ele>
        <time>2013-04-07T08:05:34Z</time>
      </trkpt>
      <trkpt lat="45.9179232" lon="4.6657941">
        <ele>353.9000000</ele>
        <time>2013-04-07T08:05:42Z</time>
      </trkpt>
      <trkpt lat="45.9179653" lon="4.6658301">
        <ele>353.9000000</ele>
        <time>2013-04-07T08:05:43Z</time>
      </trkpt>
      <trkpt lat="45.9181921" lon="4.6661099">
        <ele>353.9000000</ele>
        <time>2013-04-07T08:05:49Z</time>
      </trkpt>
      <trkpt lat="45.9182854" lon="4.6662518">
        <ele>353.9000000</ele>
        <time>2013-04-07T08:05:52Z</time>
      </trkpt>
      <trkpt lat="45.9183197" lon="4.6662882">
        <ele>354.3800000</ele>
        <time>2013-04-07T08:05:53Z</time>
      </trkpt>
      <trkpt lat="45.9183630" lon="4.6663178">
        <ele>353.9000000</ele>
        <time>2013-04-07T08:05:54Z</time>
      </trkpt>
      <trkpt lat="45.9185460" lon="4.6664135">
        <ele>354.3800000</ele>
        <time>2013-04-07T08:05:58Z</time>
      </trkpt>
      <trkpt lat="45.9189432" lon="4.6666903">
        <ele>354.3800000</ele>
        <time>2013-04-07T08:06:07Z</time>
      </trkpt>
      <trkpt lat="45.9189872" lon="4.6667146">
        <ele>353.9000000</ele>
        <time>2013-04-07T08:06:08Z</time>
      </trkpt>
      <trkpt lat="45.9192373" lon="4.6669138">
        <ele>353.4200000</ele>
        <time>2013-04-07T08:06:14Z</time>
      </trkpt>
      <trkpt lat="45.9192826" lon="4.6669511">
        <ele>353.4200000</ele>
        <time>2013-04-07T08:06:15Z</time>
      </trkpt>
      <trkpt lat="45.9193286" lon="4.6669812">
        <ele>353.4200000</ele>
        <time>2013-04-07T08:06:16Z</time>
      </trkpt>
      <trkpt lat="45.9193785" lon="4.6670117">
        <ele>353.4200000</ele>
        <time>2013-04-07T08:06:17Z</time>
      </trkpt>
      <trkpt lat="45.9194259" lon="4.6670460">
        <ele>353.4200000</ele>
        <time>2013-04-07T08:06:18Z</time>
      </trkpt>
      <trkpt lat="45.9196600" lon="4.6672368">
        <ele>352.4600000</ele>
        <time>2013-04-07T08:06:23Z</time>
      </trkpt>
      <trkpt lat="45.9198199" lon="4.6673353">
        <ele>351.0200000</ele>
        <time>2013-04-07T08:06:26Z</time>
      </trkpt>
      <trkpt lat="45.9201820" lon="4.6674708">
        <ele>350.0600000</ele>
        <time>2013-04-07T08:06:32Z</time>
      </trkpt>
      <trkpt lat="45.9202358" lon="4.6675067">
        <ele>349.5800000</ele>
        <time>2013-04-07T08:06:33Z</time>
      </trkpt>
      <trkpt lat="45.9202873" lon="4.6675500">
        <ele>349.1000000</ele>
        <time>2013-04-07T08:06:34Z</time>
      </trkpt>
      <trkpt lat="45.9203834" lon="4.6676468">
        <ele>349.5800000</ele>
        <time>2013-04-07T08:06:36Z</time>
      </trkpt>
      <trkpt lat="45.9204269" lon="4.6677038">
        <ele>349.1000000</ele>
        <time>2013-04-07T08:06:37Z</time>
      </trkpt>
      <trkpt lat="45.9205608" lon="4.6678665">
        <ele>348.6200000</ele>
        <time>2013-04-07T08:06:40Z</time>
      </trkpt>
      <trkpt lat="45.9206094" lon="4.6679043">
        <ele>348.1300000</ele>
        <time>2013-04-07T08:06:41Z</time>
      </trkpt>
      <trkpt lat="45.9206578" lon="4.6679251">
        <ele>347.6500000</ele>
        <time>2013-04-07T08:06:42Z</time>
      </trkpt>
      <trkpt lat="45.9207019" lon="4.6679110">
        <ele>347.1700000</ele>
        <time>2013-04-07T08:06:43Z</time>
      </trkpt>
      <trkpt lat="45.9207389" lon="4.6678697">
        <ele>347.1700000</ele>
        <time>2013-04-07T08:06:44Z</time>
      </trkpt>
      <trkpt lat="45.9207743" lon="4.6678219">
        <ele>346.2100000</ele>
        <time>2013-04-07T08:06:45Z</time>
      </trkpt>
      <trkpt lat="45.9208093" lon="4.6677736">
        <ele>346.2100000</ele>
        <time>2013-04-07T08:06:46Z</time>
      </trkpt>
      <trkpt lat="45.9208454" lon="4.6677273">
        <ele>346.2100000</ele>
        <time>2013-04-07T08:06:47Z</time>
      </trkpt>
      <trkpt lat="45.9209128" lon="4.6676441">
        <ele>347.1700000</ele>
        <time>2013-04-07T08:06:49Z</time>
      </trkpt>
      <trkpt lat="45.9209495" lon="4.6676139">
        <ele>347.1700000</ele>
        <time>2013-04-07T08:06:50Z</time>
      </trkpt>
      <trkpt lat="45.9210243" lon="4.6675872">
        <ele>347.1700000</ele>
        <time>2013-04-07T08:06:52Z</time>
      </trkpt>
      <trkpt lat="45.9210523" lon="4.6676262">
        <ele>347.6500000</ele>
        <time>2013-04-07T08:06:53Z</time>
      </trkpt>
      <trkpt lat="45.9213337" lon="4.6684334">
        <ele>343.8100000</ele>
        <time>2013-04-07T08:07:05Z</time>
      </trkpt>
      <trkpt lat="45.9213958" lon="4.6686116">
        <ele>342.3700000</ele>
        <time>2013-04-07T08:07:07Z</time>
      </trkpt>
      <trkpt lat="45.9215686" lon="4.6690886">
        <ele>339.4800000</ele>
        <time>2013-04-07T08:07:12Z</time>
      </trkpt>
      <trkpt lat="45.9216424" lon="4.6692964">
        <ele>337.5600000</ele>
        <time>2013-04-07T08:07:14Z</time>
      </trkpt>
      <trkpt lat="45.9217485" lon="4.6696123">
        <ele>333.7100000</ele>
        <time>2013-04-07T08:07:17Z</time>
      </trkpt>
      <trkpt lat="45.9219039" lon="4.6700212">
        <ele>330.8300000</ele>
        <time>2013-04-07T08:07:21Z</time>
      </trkpt>
      <trkpt lat="45.9220565" lon="4.6704363">
        <ele>326.9900000</ele>
        <time>2013-04-07T08:07:25Z</time>
      </trkpt>
      <trkpt lat="45.9220911" lon="4.6705260">
        <ele>326.9900000</ele>
        <time>2013-04-07T08:07:26Z</time>
      </trkpt>
      <trkpt lat="45.9221429" lon="4.6706700">
        <ele>325.5400000</ele>
        <time>2013-04-07T08:07:28Z</time>
      </trkpt>
      <trkpt lat="45.9222186" lon="4.6708477">
        <ele>324.5800000</ele>
        <time>2013-04-07T08:07:32Z</time>
      </trkpt>
      <trkpt lat="45.9222423" lon="4.6708577">
        <ele>324.1000000</ele>
        <time>2013-04-07T08:07:33Z</time>
      </trkpt>
      <trkpt lat="45.9222731" lon="4.6708645">
        <ele>324.1000000</ele>
        <time>2013-04-07T08:07:34Z</time>
      </trkpt>
      <trkpt lat="45.9225509" lon="4.6709113">
        <ele>321.2200000</ele>
        <time>2013-04-07T08:07:40Z</time>
      </trkpt>
      <trkpt lat="45.9226099" lon="4.6709300">
        <ele>320.7400000</ele>
        <time>2013-04-07T08:07:41Z</time>
      </trkpt>
      <trkpt lat="45.9226677" lon="4.6709419">
        <ele>320.2600000</ele>
        <time>2013-04-07T08:07:42Z</time>
      </trkpt>
      <trkpt lat="45.9227254" lon="4.6709470">
        <ele>320.2600000</ele>
        <time>2013-04-07T08:07:43Z</time>
      </trkpt>
      <trkpt lat="45.9227811" lon="4.6709528">
        <ele>320.2600000</ele>
        <time>2013-04-07T08:07:44Z</time>
      </trkpt>
      <trkpt lat="45.9231848" lon="4.6709916">
        <ele>320.7400000</ele>
        <time>2013-04-07T08:07:54Z</time>
      </trkpt>
      <trkpt lat="45.9237563" lon="4.6712071">
        <ele>318.8100000</ele>
        <time>2013-04-07T08:08:06Z</time>
      </trkpt>
      <trkpt lat="45.9238071" lon="4.6712092">
        <ele>318.8100000</ele>
        <time>2013-04-07T08:08:07Z</time>
      </trkpt>
      <trkpt lat="45.9242694" lon="4.6713432">
        <ele>318.8100000</ele>
        <time>2013-04-07T08:08:18Z</time>
      </trkpt>
      <trkpt lat="45.9243460" lon="4.6713806">
        <ele>318.3300000</ele>
        <time>2013-04-07T08:08:20Z</time>
      </trkpt>
      <trkpt lat="45.9245385" lon="4.6714103">
        <ele>318.3300000</ele>
        <time>2013-04-07T08:08:25Z</time>
      </trkpt>
      <trkpt lat="45.9245603" lon="4.6713902">
        <ele>318.8100000</ele>
        <time>2013-04-07T08:08:26Z</time>
      </trkpt>
      <trkpt lat="45.9247164" lon="4.6711344">
        <ele>321.7000000</ele>
        <time>2013-04-07T08:08:39Z</time>
      </trkpt>
      <trkpt lat="45.9247288" lon="4.6711175">
        <ele>321.7000000</ele>
        <time>2013-04-07T08:08:40Z</time>
      </trkpt>
      <trkpt lat="45.9247435" lon="4.6711007">
        <ele>322.1800000</ele>
        <time>2013-04-07T08:08:41Z</time>
      </trkpt>
      <trkpt lat="45.9248553" lon="4.6708481">
        <ele>325.5400000</ele>
        <time>2013-04-07T08:08:53Z</time>
      </trkpt>
      <trkpt lat="45.9248791" lon="4.6707068">
        <ele>326.9900000</ele>
        <time>2013-04-07T08:08:59Z</time>
      </trkpt>
      <trkpt lat="45.9248750" lon="4.6706860">
        <ele>327.4700000</ele>
        <time>2013-04-07T08:09:00Z</time>
      </trkpt>
      <trkpt lat="45.9248718" lon="4.6706629">
        <ele>326.9900000</ele>
        <time>2013-04-07T08:09:01Z</time>
      </trkpt>
      <trkpt lat="45.9248651" lon="4.6706135">
        <ele>327.4700000</ele>
        <time>2013-04-07T08:09:03Z</time>
      </trkpt>
      <trkpt lat="45.9248555" lon="4.6705690">
        <ele>328.4300000</ele>
        <time>2013-04-07T08:09:05Z</time>
      </trkpt>
      <trkpt lat="45.9248493" lon="4.6705466">
        <ele>328.4300000</ele>
        <time>2013-04-07T08:09:06Z</time>
      </trkpt>
      <trkpt lat="45.9248419" lon="4.6705240">
        <ele>328.4300000</ele>
        <time>2013-04-07T08:09:07Z</time>
      </trkpt>
      <trkpt lat="45.9248061" lon="4.6702362">
        <ele>330.3500000</ele>
        <time>2013-04-07T08:09:19Z</time>
      </trkpt>
      <trkpt lat="45.9247900" lon="4.6701515">
        <ele>330.3500000</ele>
        <time>2013-04-07T08:09:22Z</time>
      </trkpt>
      <trkpt lat="45.9247876" lon="4.6701258">
        <ele>331.3100000</ele>
        <time>2013-04-07T08:09:23Z</time>
      </trkpt>
      <trkpt lat="45.9247801" lon="4.6701009">
        <ele>331.3100000</ele>
        <time>2013-04-07T08:09:24Z</time>
      </trkpt>
      <trkpt lat="45.9247740" lon="4.6700737">
        <ele>331.3100000</ele>
        <time>2013-04-07T08:09:25Z</time>
      </trkpt>
      <trkpt lat="45.9247736" lon="4.6700480">
        <ele>331.3100000</ele>
        <time>2013-04-07T08:09:26Z</time>
      </trkpt>
      <trkpt lat="45.9247620" lon="4.6699110">
        <ele>333.2300000</ele>
        <time>2013-04-07T08:09:32Z</time>
      </trkpt>
      <trkpt lat="45.9247604" lon="4.6698871">
        <ele>332.7500000</ele>
        <time>2013-04-07T08:09:33Z</time>
      </trkpt>
      <trkpt lat="45.9247395" lon="4.6697678">
        <ele>334.2000000</ele>
        <time>2013-04-07T08:09:38Z</time>
      </trkpt>
      <trkpt lat="45.9247368" lon="4.6697431">
        <ele>334.2000000</ele>
        <time>2013-04-07T08:09:39Z</time>
      </trkpt>
      <trkpt lat="45.9247317" lon="4.6697186">
        <ele>334.2000000</ele>
        <time>2013-04-07T08:09:40Z</time>
      </trkpt>
      <trkpt lat="45.9247297" lon="4.6696958">
        <ele>334.6800000</ele>
        <time>2013-04-07T08:09:41Z</time>
      </trkpt>
      <trkpt lat="45.9247266" lon="4.6696741">
        <ele>334.6800000</ele>
        <time>2013-04-07T08:09:42Z</time>
      </trkpt>
      <trkpt lat="45.9247177" lon="4.6696486">
        <ele>334.6800000</ele>
        <time>2013-04-07T08:09:43Z</time>
      </trkpt>
      <trkpt lat="45.9246511" lon="4.6693233">
        <ele>336.6000000</ele>
        <time>2013-04-07T08:09:55Z</time>
      </trkpt>
      <trkpt lat="45.9246184" lon="4.6690178">
        <ele>339.0000000</ele>
        <time>2013-04-07T08:10:05Z</time>
      </trkpt>
      <trkpt lat="45.9246002" lon="4.6685833">
        <ele>340.4400000</ele>
        <time>2013-04-07T08:10:19Z</time>
      </trkpt>
      <trkpt lat="45.9246054" lon="4.6681230">
        <ele>341.8900000</ele>
        <time>2013-04-07T08:10:31Z</time>
      </trkpt>
      <trkpt lat="45.9245813" lon="4.6675745">
        <ele>342.3700000</ele>
        <time>2013-04-07T08:10:43Z</time>
      </trkpt>
      <trkpt lat="45.9245736" lon="4.6669075">
        <ele>344.2900000</ele>
        <time>2013-04-07T08:10:58Z</time>
      </trkpt>
      <trkpt lat="45.9245899" lon="4.6662223">
        <ele>344.7700000</ele>
        <time>2013-04-07T08:11:14Z</time>
      </trkpt>
      <trkpt lat="45.9246136" lon="4.6661993">
        <ele>344.7700000</ele>
        <time>2013-04-07T08:11:15Z</time>
      </trkpt>
      <trkpt lat="45.9246465" lon="4.6661905">
        <ele>344.7700000</ele>
        <time>2013-04-07T08:11:16Z</time>
      </trkpt>
      <trkpt lat="45.9246787" lon="4.6661940">
        <ele>345.2500000</ele>
        <time>2013-04-07T08:11:17Z</time>
      </trkpt>
      <trkpt lat="45.9247117" lon="4.6662036">
        <ele>344.7700000</ele>
        <time>2013-04-07T08:11:18Z</time>
      </trkpt>
      <trkpt lat="45.9251458" lon="4.6665908">
        <ele>343.8100000</ele>
        <time>2013-04-07T08:11:30Z</time>
      </trkpt>
      <trkpt lat="45.9257396" lon="4.6670424">
        <ele>340.4400000</ele>
        <time>2013-04-07T08:11:42Z</time>
      </trkpt>
      <trkpt lat="45.9258499" lon="4.6671225">
        <ele>339.9600000</ele>
        <time>2013-04-07T08:11:44Z</time>
      </trkpt>
      <trkpt lat="45.9261996" lon="4.6673527">
        <ele>337.0800000</ele>
        <time>2013-04-07T08:11:50Z</time>
      </trkpt>
      <trkpt lat="45.9262609" lon="4.6673702">
        <ele>337.0800000</ele>
        <time>2013-04-07T08:11:51Z</time>
      </trkpt>
      <trkpt lat="45.9263135" lon="4.6673778">
        <ele>337.5600000</ele>
        <time>2013-04-07T08:11:52Z</time>
      </trkpt>
      <trkpt lat="45.9263973" lon="4.6673865">
        <ele>338.5200000</ele>
        <time>2013-04-07T08:11:58Z</time>
      </trkpt>
      <trkpt lat="45.9266684" lon="4.6672638">
        <ele>337.0800000</ele>
        <time>2013-04-07T08:12:08Z</time>
      </trkpt>
      <trkpt lat="45.9267087" lon="4.6672472">
        <ele>337.0800000</ele>
        <time>2013-04-07T08:12:09Z</time>
      </trkpt>
      <trkpt lat="45.9267512" lon="4.6672249">
        <ele>337.0800000</ele>
        <time>2013-04-07T08:12:10Z</time>
      </trkpt>
      <trkpt lat="45.9269082" lon="4.6671657">
        <ele>335.6400000</ele>
        <time>2013-04-07T08:12:13Z</time>
      </trkpt>
      <trkpt lat="45.9269704" lon="4.6671537">
        <ele>335.6400000</ele>
        <time>2013-04-07T08:12:14Z</time>
      </trkpt>
      <trkpt lat="45.9270335" lon="4.6671475">
        <ele>335.6400000</ele>
        <time>2013-04-07T08:12:15Z</time>
      </trkpt>
      <trkpt lat="45.9276897" lon="4.6672402">
        <ele>333.7100000</ele>
        <time>2013-04-07T08:12:26Z</time>
      </trkpt>
      <trkpt lat="45.9277436" lon="4.6672717">
        <ele>333.7100000</ele>
        <time>2013-04-07T08:12:27Z</time>
      </trkpt>
      <trkpt lat="45.9278512" lon="4.6673537">
        <ele>333.2300000</ele>
        <time>2013-04-07T08:12:29Z</time>
      </trkpt>
      <trkpt lat="45.9279494" lon="4.6674669">
        <ele>332.7500000</ele>
        <time>2013-04-07T08:12:31Z</time>
      </trkpt>
      <trkpt lat="45.9279897" lon="4.6675354">
        <ele>332.7500000</ele>
        <time>2013-04-07T08:12:32Z</time>
      </trkpt>
      <trkpt lat="45.9280237" lon="4.6676084">
        <ele>332.7500000</ele>
        <time>2013-04-07T08:12:33Z</time>
      </trkpt>
      <trkpt lat="45.9280607" lon="4.6676774">
        <ele>332.7500000</ele>
        <time>2013-04-07T08:12:34Z</time>
      </trkpt>
      <trkpt lat="45.9281080" lon="4.6677387">
        <ele>331.7900000</ele>
        <time>2013-04-07T08:12:35Z</time>
      </trkpt>
      <trkpt lat="45.9281630" lon="4.6677901">
        <ele>332.2700000</ele>
        <time>2013-04-07T08:12:36Z</time>
      </trkpt>
      <trkpt lat="45.9282213" lon="4.6678328">
        <ele>331.7900000</ele>
        <time>2013-04-07T08:12:37Z</time>
      </trkpt>
      <trkpt lat="45.9282819" lon="4.6678723">
        <ele>330.8300000</ele>
        <time>2013-04-07T08:12:38Z</time>
      </trkpt>
      <trkpt lat="45.9284152" lon="4.6679549">
        <ele>330.8300000</ele>
        <time>2013-04-07T08:12:40Z</time>
      </trkpt>
      <trkpt lat="45.9284852" lon="4.6680031">
        <ele>330.3500000</ele>
        <time>2013-04-07T08:12:41Z</time>
      </trkpt>
      <trkpt lat="45.9288867" lon="4.6683265">
        <ele>329.8700000</ele>
        <time>2013-04-07T08:12:47Z</time>
      </trkpt>
      <trkpt lat="45.9289388" lon="4.6683955">
        <ele>329.8700000</ele>
        <time>2013-04-07T08:12:48Z</time>
      </trkpt>
      <trkpt lat="45.9290369" lon="4.6685528">
        <ele>328.9100000</ele>
        <time>2013-04-07T08:12:50Z</time>
      </trkpt>
      <trkpt lat="45.9290744" lon="4.6686442">
        <ele>328.9100000</ele>
        <time>2013-04-07T08:12:51Z</time>
      </trkpt>
      <trkpt lat="45.9291537" lon="4.6688353">
        <ele>328.9100000</ele>
        <time>2013-04-07T08:12:53Z</time>
      </trkpt>
      <trkpt lat="45.9291989" lon="4.6689248">
        <ele>327.9500000</ele>
        <time>2013-04-07T08:12:54Z</time>
      </trkpt>
      <trkpt lat="45.9292439" lon="4.6690123">
        <ele>327.4700000</ele>
        <time>2013-04-07T08:12:55Z</time>
      </trkpt>
      <trkpt lat="45.9292884" lon="4.6690996">
        <ele>327.9500000</ele>
        <time>2013-04-07T08:12:56Z</time>
      </trkpt>
      <trkpt lat="45.9293349" lon="4.6691881">
        <ele>327.9500000</ele>
        <time>2013-04-07T08:12:57Z</time>
      </trkpt>
      <trkpt lat="45.9295356" lon="4.6696251">
        <ele>326.0200000</ele>
        <time>2013-04-07T08:13:02Z</time>
      </trkpt>
      <trkpt lat="45.9295612" lon="4.6697120">
        <ele>326.5000000</ele>
        <time>2013-04-07T08:13:03Z</time>
      </trkpt>
      <trkpt lat="45.9295916" lon="4.6697886">
        <ele>326.0200000</ele>
        <time>2013-04-07T08:13:04Z</time>
      </trkpt>
      <trkpt lat="45.9296373" lon="4.6698485">
        <ele>326.0200000</ele>
        <time>2013-04-07T08:13:05Z</time>
      </trkpt>
      <trkpt lat="45.9296932" lon="4.6698872">
        <ele>326.0200000</ele>
        <time>2013-04-07T08:13:06Z</time>
      </trkpt>
      <trkpt lat="45.9297540" lon="4.6699064">
        <ele>324.5800000</ele>
        <time>2013-04-07T08:13:07Z</time>
      </trkpt>
      <trkpt lat="45.9298173" lon="4.6699059">
        <ele>325.5400000</ele>
        <time>2013-04-07T08:13:08Z</time>
      </trkpt>
      <trkpt lat="45.9298832" lon="4.6698920">
        <ele>325.0600000</ele>
        <time>2013-04-07T08:13:09Z</time>
      </trkpt>
      <trkpt lat="45.9299461" lon="4.6698789">
        <ele>324.5800000</ele>
        <time>2013-04-07T08:13:10Z</time>
      </trkpt>
      <trkpt lat="45.9300113" lon="4.6698732">
        <ele>324.5800000</ele>
        <time>2013-04-07T08:13:11Z</time>
      </trkpt>
      <trkpt lat="45.9300740" lon="4.6698720">
        <ele>324.1000000</ele>
        <time>2013-04-07T08:13:12Z</time>
      </trkpt>
      <trkpt lat="45.9301309" lon="4.6698681">
        <ele>324.1000000</ele>
        <time>2013-04-07T08:13:13Z</time>
      </trkpt>
      <trkpt lat="45.9301854" lon="4.6698661">
        <ele>324.1000000</ele>
        <time>2013-04-07T08:13:14Z</time>
      </trkpt>
      <trkpt lat="45.9302374" lon="4.6698729">
        <ele>324.1000000</ele>
        <time>2013-04-07T08:13:15Z</time>
      </trkpt>
      <trkpt lat="45.9304150" lon="4.6698784">
        <ele>322.1800000</ele>
        <time>2013-04-07T08:13:18Z</time>
      </trkpt>
      <trkpt lat="45.9304765" lon="4.6698660">
        <ele>322.1800000</ele>
        <time>2013-04-07T08:13:19Z</time>
      </trkpt>
      <trkpt lat="45.9305388" lon="4.6698520">
        <ele>321.7000000</ele>
        <time>2013-04-07T08:13:20Z</time>
      </trkpt>
      <trkpt lat="45.9307260" lon="4.6698245">
        <ele>321.7000000</ele>
        <time>2013-04-07T08:13:23Z</time>
      </trkpt>
      <trkpt lat="45.9308570" lon="4.6698422">
        <ele>320.7400000</ele>
        <time>2013-04-07T08:13:25Z</time>
      </trkpt>
      <trkpt lat="45.9316210" lon="4.6701511">
        <ele>319.3000000</ele>
        <time>2013-04-07T08:13:37Z</time>
      </trkpt>
      <trkpt lat="45.9316570" lon="4.6701344">
        <ele>319.3000000</ele>
        <time>2013-04-07T08:13:38Z</time>
      </trkpt>
      <trkpt lat="45.9316786" lon="4.6700960">
        <ele>319.3000000</ele>
        <time>2013-04-07T08:13:39Z</time>
      </trkpt>
      <trkpt lat="45.9316780" lon="4.6700418">
        <ele>318.8100000</ele>
        <time>2013-04-07T08:13:40Z</time>
      </trkpt>
      <trkpt lat="45.9316666" lon="4.6699801">
        <ele>318.8100000</ele>
        <time>2013-04-07T08:13:41Z</time>
      </trkpt>
      <trkpt lat="45.9316539" lon="4.6699146">
        <ele>319.3000000</ele>
        <time>2013-04-07T08:13:42Z</time>
      </trkpt>
      <trkpt lat="45.9316397" lon="4.6698458">
        <ele>318.8100000</ele>
        <time>2013-04-07T08:13:43Z</time>
      </trkpt>
      <trkpt lat="45.9316050" lon="4.6696316">
        <ele>320.2600000</ele>
        <time>2013-04-07T08:13:46Z</time>
      </trkpt>
      <trkpt lat="45.9315920" lon="4.6695599">
        <ele>320.7400000</ele>
        <time>2013-04-07T08:13:47Z</time>
      </trkpt>
      <trkpt lat="45.9315066" lon="4.6686001">
        <ele>323.6200000</ele>
        <time>2013-04-07T08:14:01Z</time>
      </trkpt>
      <trkpt lat="45.9315021" lon="4.6685375">
        <ele>324.1000000</ele>
        <time>2013-04-07T08:14:02Z</time>
      </trkpt>
      <trkpt lat="45.9314216" lon="4.6676175">
        <ele>325.0600000</ele>
        <time>2013-04-07T08:14:17Z</time>
      </trkpt>
      <trkpt lat="45.9313358" lon="4.6670616">
        <ele>324.1000000</ele>
        <time>2013-04-07T08:14:26Z</time>
      </trkpt>
      <trkpt lat="45.9312708" lon="4.6666558">
        <ele>322.1800000</ele>
        <time>2013-04-07T08:14:34Z</time>
      </trkpt>
      <trkpt lat="45.9312605" lon="4.6665934">
        <ele>322.1800000</ele>
        <time>2013-04-07T08:14:35Z</time>
      </trkpt>
      <trkpt lat="45.9312269" lon="4.6662792">
        <ele>320.7400000</ele>
        <time>2013-04-07T08:14:39Z</time>
      </trkpt>
      <trkpt lat="45.9312554" lon="4.6657286">
        <ele>317.8500000</ele>
        <time>2013-04-07T08:14:44Z</time>
      </trkpt>
      <trkpt lat="45.9312741" lon="4.6652266">
        <ele>314.4900000</ele>
        <time>2013-04-07T08:14:48Z</time>
      </trkpt>
      <trkpt lat="45.9312780" lon="4.6651024">
        <ele>314.4900000</ele>
        <time>2013-04-07T08:14:49Z</time>
      </trkpt>
      <trkpt lat="45.9312619" lon="4.6646287">
        <ele>313.5300000</ele>
        <time>2013-04-07T08:14:53Z</time>
      </trkpt>
      <trkpt lat="45.9310647" lon="4.6635717">
        <ele>312.5700000</ele>
        <time>2013-04-07T08:15:04Z</time>
      </trkpt>
      <trkpt lat="45.9310491" lon="4.6634802">
        <ele>311.6000000</ele>
        <time>2013-04-07T08:15:05Z</time>
      </trkpt>
      <trkpt lat="45.9308678" lon="4.6626327">
        <ele>310.1600000</ele>
        <time>2013-04-07T08:15:14Z</time>
      </trkpt>
      <trkpt lat="45.9308342" lon="4.6623462">
        <ele>310.1600000</ele>
        <time>2013-04-07T08:15:17Z</time>
      </trkpt>
      <trkpt lat="45.9308213" lon="4.6620690">
        <ele>309.2000000</ele>
        <time>2013-04-07T08:15:20Z</time>
      </trkpt>
      <trkpt lat="45.9308132" lon="4.6619656">
        <ele>309.2000000</ele>
        <time>2013-04-07T08:15:21Z</time>
      </trkpt>
      <trkpt lat="45.9308049" lon="4.6618597">
        <ele>308.7200000</ele>
        <time>2013-04-07T08:15:22Z</time>
      </trkpt>
      <trkpt lat="45.9307563" lon="4.6613900">
        <ele>308.7200000</ele>
        <time>2013-04-07T08:15:27Z</time>
      </trkpt>
      <trkpt lat="45.9307677" lon="4.6613423">
        <ele>309.2000000</ele>
        <time>2013-04-07T08:15:28Z</time>
      </trkpt>
      <trkpt lat="45.9307906" lon="4.6613177">
        <ele>308.7200000</ele>
        <time>2013-04-07T08:15:29Z</time>
      </trkpt>
      <trkpt lat="45.9308219" lon="4.6613041">
        <ele>308.7200000</ele>
        <time>2013-04-07T08:15:30Z</time>
      </trkpt>
      <trkpt lat="45.9308595" lon="4.6612982">
        <ele>308.2400000</ele>
        <time>2013-04-07T08:15:31Z</time>
      </trkpt>
      <trkpt lat="45.9308994" lon="4.6612960">
        <ele>308.2400000</ele>
        <time>2013-04-07T08:15:32Z</time>
      </trkpt>
      <trkpt lat="45.9310579" lon="4.6612785">
        <ele>307.2800000</ele>
        <time>2013-04-07T08:15:35Z</time>
      </trkpt>
      <trkpt lat="45.9311193" lon="4.6612759">
        <ele>307.2800000</ele>
        <time>2013-04-07T08:15:36Z</time>
      </trkpt>
      <trkpt lat="45.9311799" lon="4.6612754">
        <ele>306.8000000</ele>
        <time>2013-04-07T08:15:37Z</time>
      </trkpt>
      <trkpt lat="45.9318062" lon="4.6612838">
        <ele>305.3600000</ele>
        <time>2013-04-07T08:15:48Z</time>
      </trkpt>
      <trkpt lat="45.9319142" lon="4.6612653">
        <ele>305.3600000</ele>
        <time>2013-04-07T08:15:50Z</time>
      </trkpt>
      <trkpt lat="45.9319614" lon="4.6612422">
        <ele>304.8800000</ele>
        <time>2013-04-07T08:15:51Z</time>
      </trkpt>
      <trkpt lat="45.9320020" lon="4.6612020">
        <ele>304.8800000</ele>
        <time>2013-04-07T08:15:52Z</time>
      </trkpt>
      <trkpt lat="45.9320370" lon="4.6611435">
        <ele>304.3900000</ele>
        <time>2013-04-07T08:15:53Z</time>
      </trkpt>
      <trkpt lat="45.9320732" lon="4.6610873">
        <ele>303.9100000</ele>
        <time>2013-04-07T08:15:54Z</time>
      </trkpt>
      <trkpt lat="45.9321148" lon="4.6610588">
        <ele>303.4300000</ele>
        <time>2013-04-07T08:15:55Z</time>
      </trkpt>
      <trkpt lat="45.9321580" lon="4.6610560">
        <ele>303.4300000</ele>
        <time>2013-04-07T08:15:56Z</time>
      </trkpt>
      <trkpt lat="45.9322046" lon="4.6610605">
        <ele>303.4300000</ele>
        <time>2013-04-07T08:15:57Z</time>
      </trkpt>
      <trkpt lat="45.9322594" lon="4.6610581">
        <ele>302.9500000</ele>
        <time>2013-04-07T08:15:58Z</time>
      </trkpt>
      <trkpt lat="45.9323245" lon="4.6610531">
        <ele>302.9500000</ele>
        <time>2013-04-07T08:15:59Z</time>
      </trkpt>
      <trkpt lat="45.9323997" lon="4.6610443">
        <ele>301.9900000</ele>
        <time>2013-04-07T08:16:00Z</time>
      </trkpt>
      <trkpt lat="45.9324707" lon="4.6610370">
        <ele>301.9900000</ele>
        <time>2013-04-07T08:16:01Z</time>
      </trkpt>
      <trkpt lat="45.9325322" lon="4.6610378">
        <ele>302.4700000</ele>
        <time>2013-04-07T08:16:02Z</time>
      </trkpt>
      <trkpt lat="45.9325900" lon="4.6610443">
        <ele>302.4700000</ele>
        <time>2013-04-07T08:16:03Z</time>
      </trkpt>
      <trkpt lat="45.9326512" lon="4.6610527">
        <ele>301.9900000</ele>
        <time>2013-04-07T08:16:04Z</time>
      </trkpt>
      <trkpt lat="45.9327133" lon="4.6610523">
        <ele>302.4700000</ele>
        <time>2013-04-07T08:16:05Z</time>
      </trkpt>
      <trkpt lat="45.9327716" lon="4.6610362">
        <ele>301.9900000</ele>
        <time>2013-04-07T08:16:06Z</time>
      </trkpt>
      <trkpt lat="45.9328200" lon="4.6610092">
        <ele>301.5100000</ele>
        <time>2013-04-07T08:16:07Z</time>
      </trkpt>
      <trkpt lat="45.9330973" lon="4.6608542">
        <ele>300.5500000</ele>
        <time>2013-04-07T08:16:15Z</time>
      </trkpt>
      <trkpt lat="45.9331434" lon="4.6608503">
        <ele>301.0300000</ele>
        <time>2013-04-07T08:16:16Z</time>
      </trkpt>
      <trkpt lat="45.9331889" lon="4.6608280">
        <ele>300.0700000</ele>
        <time>2013-04-07T08:16:17Z</time>
      </trkpt>
      <trkpt lat="45.9332768" lon="4.6607634">
        <ele>299.5900000</ele>
        <time>2013-04-07T08:16:19Z</time>
      </trkpt>
      <trkpt lat="45.9333195" lon="4.6607346">
        <ele>299.5900000</ele>
        <time>2013-04-07T08:16:20Z</time>
      </trkpt>
      <trkpt lat="45.9333692" lon="4.6607066">
        <ele>299.1100000</ele>
        <time>2013-04-07T08:16:21Z</time>
      </trkpt>
      <trkpt lat="45.9334187" lon="4.6606819">
        <ele>299.1100000</ele>
        <time>2013-04-07T08:16:22Z</time>
      </trkpt>
      <trkpt lat="45.9334637" lon="4.6606492">
        <ele>298.6300000</ele>
        <time>2013-04-07T08:16:23Z</time>
      </trkpt>
      <trkpt lat="45.9336195" lon="4.6605397">
        <ele>297.6700000</ele>
        <time>2013-04-07T08:16:26Z</time>
      </trkpt>
      <trkpt lat="45.9337886" lon="4.6603934">
        <ele>296.7000000</ele>
        <time>2013-04-07T08:16:29Z</time>
      </trkpt>
      <trkpt lat="45.9338529" lon="4.6603477">
        <ele>296.7000000</ele>
        <time>2013-04-07T08:16:30Z</time>
      </trkpt>
      <trkpt lat="45.9339142" lon="4.6603060">
        <ele>296.2200000</ele>
        <time>2013-04-07T08:16:31Z</time>
      </trkpt>
      <trkpt lat="45.9340260" lon="4.6602206">
        <ele>295.7400000</ele>
        <time>2013-04-07T08:16:33Z</time>
      </trkpt>
      <trkpt lat="45.9340842" lon="4.6601834">
        <ele>294.7800000</ele>
        <time>2013-04-07T08:16:34Z</time>
      </trkpt>
      <trkpt lat="45.9341919" lon="4.6601104">
        <ele>294.7800000</ele>
        <time>2013-04-07T08:16:36Z</time>
      </trkpt>
      <trkpt lat="45.9342327" lon="4.6600777">
        <ele>293.8200000</ele>
        <time>2013-04-07T08:16:37Z</time>
      </trkpt>
      <trkpt lat="45.9342767" lon="4.6600522">
        <ele>293.8200000</ele>
        <time>2013-04-07T08:16:38Z</time>
      </trkpt>
      <trkpt lat="45.9343279" lon="4.6600223">
        <ele>293.3400000</ele>
        <time>2013-04-07T08:16:39Z</time>
      </trkpt>
      <trkpt lat="45.9343798" lon="4.6599881">
        <ele>292.8600000</ele>
        <time>2013-04-07T08:16:40Z</time>
      </trkpt>
      <trkpt lat="45.9344255" lon="4.6599441">
        <ele>293.8200000</ele>
        <time>2013-04-07T08:16:41Z</time>
      </trkpt>
      <trkpt lat="45.9344693" lon="4.6599084">
        <ele>293.8200000</ele>
        <time>2013-04-07T08:16:42Z</time>
      </trkpt>
      <trkpt lat="45.9345001" lon="4.6598870">
        <ele>293.3400000</ele>
        <time>2013-04-07T08:16:43Z</time>
      </trkpt>
      <trkpt lat="45.9345126" lon="4.6598574">
        <ele>293.8200000</ele>
        <time>2013-04-07T08:16:44Z</time>
      </trkpt>
      <trkpt lat="45.9345357" lon="4.6598191">
        <ele>293.3400000</ele>
        <time>2013-04-07T08:16:45Z</time>
      </trkpt>
      <trkpt lat="45.9345507" lon="4.6597655">
        <ele>293.3400000</ele>
        <time>2013-04-07T08:16:46Z</time>
      </trkpt>
      <trkpt lat="45.9345509" lon="4.6597125">
        <ele>293.3400000</ele>
        <time>2013-04-07T08:16:47Z</time>
      </trkpt>
      <trkpt lat="45.9345509" lon="4.6596547">
        <ele>293.3400000</ele>
        <time>2013-04-07T08:16:48Z</time>
      </trkpt>
      <trkpt lat="45.9345594" lon="4.6595850">
        <ele>293.8200000</ele>
        <time>2013-04-07T08:16:49Z</time>
      </trkpt>
      <trkpt lat="45.9345774" lon="4.6592903">
        <ele>294.3000000</ele>
        <time>2013-04-07T08:16:53Z</time>
      </trkpt>
      <trkpt lat="45.9346379" lon="4.6585683">
        <ele>296.7000000</ele>
        <time>2013-04-07T08:17:04Z</time>
      </trkpt>
      <trkpt lat="45.9346424" lon="4.6581854">
        <ele>299.5900000</ele>
        <time>2013-04-07T08:17:15Z</time>
      </trkpt>
      <trkpt lat="45.9346467" lon="4.6577878">
        <ele>301.5100000</ele>
        <time>2013-04-07T08:17:27Z</time>
      </trkpt>
      <trkpt lat="45.9346765" lon="4.6572538">
        <ele>302.4700000</ele>
        <time>2013-04-07T08:17:40Z</time>
      </trkpt>
      <trkpt lat="45.9347731" lon="4.6565920">
        <ele>303.4300000</ele>
        <time>2013-04-07T08:17:54Z</time>
      </trkpt>
      <trkpt lat="45.9348534" lon="4.6560781">
        <ele>304.3900000</ele>
        <time>2013-04-07T08:18:06Z</time>
      </trkpt>
      <trkpt lat="45.9348256" lon="4.6556993">
        <ele>302.9500000</ele>
        <time>2013-04-07T08:18:13Z</time>
      </trkpt>
      <trkpt lat="45.9348197" lon="4.6556311">
        <ele>303.4300000</ele>
        <time>2013-04-07T08:18:14Z</time>
      </trkpt>
      <trkpt lat="45.9348151" lon="4.6555663">
        <ele>303.9100000</ele>
        <time>2013-04-07T08:18:15Z</time>
      </trkpt>
      <trkpt lat="45.9348205" lon="4.6555022">
        <ele>303.9100000</ele>
        <time>2013-04-07T08:18:16Z</time>
      </trkpt>
      <trkpt lat="45.9348219" lon="4.6554380">
        <ele>303.9100000</ele>
        <time>2013-04-07T08:18:17Z</time>
      </trkpt>
      <trkpt lat="45.9348201" lon="4.6553752">
        <ele>303.4300000</ele>
        <time>2013-04-07T08:18:18Z</time>
      </trkpt>
      <trkpt lat="45.9348185" lon="4.6553131">
        <ele>303.4300000</ele>
        <time>2013-04-07T08:18:19Z</time>
      </trkpt>
      <trkpt lat="45.9348145" lon="4.6551219">
        <ele>303.9100000</ele>
        <time>2013-04-07T08:18:22Z</time>
      </trkpt>
      <trkpt lat="45.9348052" lon="4.6550017">
        <ele>304.3900000</ele>
        <time>2013-04-07T08:18:24Z</time>
      </trkpt>
      <trkpt lat="45.9348119" lon="4.6544108">
        <ele>302.9500000</ele>
        <time>2013-04-07T08:18:35Z</time>
      </trkpt>
      <trkpt lat="45.9348123" lon="4.6542676">
        <ele>304.3900000</ele>
        <time>2013-04-07T08:18:38Z</time>
      </trkpt>
      <trkpt lat="45.9348190" lon="4.6539414">
        <ele>304.3900000</ele>
        <time>2013-04-07T08:18:43Z</time>
      </trkpt>
      <trkpt lat="45.9347649" lon="4.6530210">
        <ele>305.3600000</ele>
        <time>2013-04-07T08:18:58Z</time>
      </trkpt>
      <trkpt lat="45.9347280" lon="4.6520954">
        <ele>304.3900000</ele>
        <time>2013-04-07T08:19:14Z</time>
      </trkpt>
      <trkpt lat="45.9347192" lon="4.6518911">
        <ele>304.3900000</ele>
        <time>2013-04-07T08:19:17Z</time>
      </trkpt>
      <trkpt lat="45.9347012" lon="4.6517691">
        <ele>304.3900000</ele>
        <time>2013-04-07T08:19:19Z</time>
      </trkpt>
      <trkpt lat="45.9346879" lon="4.6517112">
        <ele>304.3900000</ele>
        <time>2013-04-07T08:19:20Z</time>
      </trkpt>
      <trkpt lat="45.9346736" lon="4.6516507">
        <ele>304.3900000</ele>
        <time>2013-04-07T08:19:21Z</time>
      </trkpt>
      <trkpt lat="45.9346352" lon="4.6514632">
        <ele>303.9100000</ele>
        <time>2013-04-07T08:19:24Z</time>
      </trkpt>
      <trkpt lat="45.9346187" lon="4.6514044">
        <ele>304.3900000</ele>
        <time>2013-04-07T08:19:25Z</time>
      </trkpt>
      <trkpt lat="45.9346075" lon="4.6513502">
        <ele>303.9100000</ele>
        <time>2013-04-07T08:19:26Z</time>
      </trkpt>
      <trkpt lat="45.9345968" lon="4.6513028">
        <ele>303.9100000</ele>
        <time>2013-04-07T08:19:27Z</time>
      </trkpt>
      <trkpt lat="45.9345888" lon="4.6512767">
        <ele>303.9100000</ele>
        <time>2013-04-07T08:19:28Z</time>
      </trkpt>
      <trkpt lat="45.9345676" lon="4.6511736">
        <ele>304.3900000</ele>
        <time>2013-04-07T08:19:39Z</time>
      </trkpt>
      <trkpt lat="45.9345579" lon="4.6511201">
        <ele>304.3900000</ele>
        <time>2013-04-07T08:19:42Z</time>
      </trkpt>
      <trkpt lat="45.9345572" lon="4.6511008">
        <ele>303.9100000</ele>
        <time>2013-04-07T08:19:43Z</time>
      </trkpt>
      <trkpt lat="45.9345528" lon="4.6510800">
        <ele>303.9100000</ele>
        <time>2013-04-07T08:19:44Z</time>
      </trkpt>
      <trkpt lat="45.9345452" lon="4.6510127">
        <ele>303.4300000</ele>
        <time>2013-04-07T08:19:48Z</time>
      </trkpt>
      <trkpt lat="45.9345331" lon="4.6509825">
        <ele>303.4300000</ele>
        <time>2013-04-07T08:19:49Z</time>
      </trkpt>
      <trkpt lat="45.9345225" lon="4.6509544">
        <ele>303.4300000</ele>
        <time>2013-04-07T08:19:50Z</time>
      </trkpt>
      <trkpt lat="45.9344743" lon="4.6506156">
        <ele>302.4700000</ele>
        <time>2013-04-07T08:19:59Z</time>
      </trkpt>
      <trkpt lat="45.9344621" lon="4.6505728">
        <ele>302.4700000</ele>
        <time>2013-04-07T08:20:00Z</time>
      </trkpt>
      <trkpt lat="45.9344511" lon="4.6505230">
        <ele>302.4700000</ele>
        <time>2013-04-07T08:20:01Z</time>
      </trkpt>
      <trkpt lat="45.9344359" lon="4.6504672">
        <ele>302.4700000</ele>
        <time>2013-04-07T08:20:02Z</time>
      </trkpt>
      <trkpt lat="45.9344223" lon="4.6504178">
        <ele>301.9900000</ele>
        <time>2013-04-07T08:20:03Z</time>
      </trkpt>
      <trkpt lat="45.9344025" lon="4.6503715">
        <ele>301.9900000</ele>
        <time>2013-04-07T08:20:04Z</time>
      </trkpt>
      <trkpt lat="45.9343847" lon="4.6503193">
        <ele>301.9900000</ele>
        <time>2013-04-07T08:20:05Z</time>
      </trkpt>
      <trkpt lat="45.9343795" lon="4.6502690">
        <ele>301.9900000</ele>
        <time>2013-04-07T08:20:06Z</time>
      </trkpt>
      <trkpt lat="45.9343250" lon="4.6501293">
        <ele>301.9900000</ele>
        <time>2013-04-07T08:20:12Z</time>
      </trkpt>
      <trkpt lat="45.9343084" lon="4.6500868">
        <ele>301.9900000</ele>
        <time>2013-04-07T08:20:13Z</time>
      </trkpt>
      <trkpt lat="45.9342220" lon="4.6498154">
        <ele>301.9900000</ele>
        <time>2013-04-07T08:20:21Z</time>
      </trkpt>
      <trkpt lat="45.9341385" lon="4.6494974">
        <ele>301.9900000</ele>
        <time>2013-04-07T08:20:31Z</time>
      </trkpt>
      <trkpt lat="45.9339982" lon="4.6490503">
        <ele>301.5100000</ele>
        <time>2013-04-07T08:20:42Z</time>
      </trkpt>
      <trkpt lat="45.9339819" lon="4.6489453">
        <ele>301.0300000</ele>
        <time>2013-04-07T08:20:44Z</time>
      </trkpt>
      <trkpt lat="45.9339700" lon="4.6489011">
        <ele>301.0300000</ele>
        <time>2013-04-07T08:20:45Z</time>
      </trkpt>
      <trkpt lat="45.9339657" lon="4.6488622">
        <ele>301.0300000</ele>
        <time>2013-04-07T08:20:46Z</time>
      </trkpt>
      <trkpt lat="45.9339572" lon="4.6488102">
        <ele>300.5500000</ele>
        <time>2013-04-07T08:20:47Z</time>
      </trkpt>
      <trkpt lat="45.9339457" lon="4.6487517">
        <ele>300.0700000</ele>
        <time>2013-04-07T08:20:48Z</time>
      </trkpt>
      <trkpt lat="45.9339381" lon="4.6486986">
        <ele>299.5900000</ele>
        <time>2013-04-07T08:20:49Z</time>
      </trkpt>
      <trkpt lat="45.9338928" lon="4.6483612">
        <ele>296.2200000</ele>
        <time>2013-04-07T08:20:56Z</time>
      </trkpt>
      <trkpt lat="45.9338987" lon="4.6483111">
        <ele>296.2200000</ele>
        <time>2013-04-07T08:20:57Z</time>
      </trkpt>
      <trkpt lat="45.9339208" lon="4.6480787">
        <ele>293.8200000</ele>
        <time>2013-04-07T08:21:01Z</time>
      </trkpt>
      <trkpt lat="45.9339214" lon="4.6479966">
        <ele>292.8600000</ele>
        <time>2013-04-07T08:21:02Z</time>
      </trkpt>
      <trkpt lat="45.9339182" lon="4.6477521">
        <ele>291.9000000</ele>
        <time>2013-04-07T08:21:05Z</time>
      </trkpt>
      <trkpt lat="45.9338682" lon="4.6474685">
        <ele>289.9700000</ele>
        <time>2013-04-07T08:21:08Z</time>
      </trkpt>
      <trkpt lat="45.9338339" lon="4.6472876">
        <ele>288.5300000</ele>
        <time>2013-04-07T08:21:10Z</time>
      </trkpt>
      <trkpt lat="45.9338059" lon="4.6472306">
        <ele>288.5300000</ele>
        <time>2013-04-07T08:21:11Z</time>
      </trkpt>
      <trkpt lat="45.9337868" lon="4.6471595">
        <ele>288.0500000</ele>
        <time>2013-04-07T08:21:12Z</time>
      </trkpt>
      <trkpt lat="45.9337778" lon="4.6470679">
        <ele>287.5700000</ele>
        <time>2013-04-07T08:21:13Z</time>
      </trkpt>
      <trkpt lat="45.9337708" lon="4.6469767">
        <ele>286.6100000</ele>
        <time>2013-04-07T08:21:14Z</time>
      </trkpt>
      <trkpt lat="45.9337611" lon="4.6468826">
        <ele>286.6100000</ele>
        <time>2013-04-07T08:21:15Z</time>
      </trkpt>
      <trkpt lat="45.9337400" lon="4.6467037">
        <ele>285.1700000</ele>
        <time>2013-04-07T08:21:17Z</time>
      </trkpt>
      <trkpt lat="45.9337218" lon="4.6466121">
        <ele>284.6900000</ele>
        <time>2013-04-07T08:21:18Z</time>
      </trkpt>
      <trkpt lat="45.9336986" lon="4.6465199">
        <ele>284.6900000</ele>
        <time>2013-04-07T08:21:19Z</time>
      </trkpt>
      <trkpt lat="45.9335388" lon="4.6459721">
        <ele>282.7700000</ele>
        <time>2013-04-07T08:21:28Z</time>
      </trkpt>
      <trkpt lat="45.9335031" lon="4.6458881">
        <ele>282.2800000</ele>
        <time>2013-04-07T08:21:30Z</time>
      </trkpt>
      <trkpt lat="45.9334887" lon="4.6458508">
        <ele>282.2800000</ele>
        <time>2013-04-07T08:21:31Z</time>
      </trkpt>
      <trkpt lat="45.9334227" lon="4.6457281">
        <ele>281.8000000</ele>
        <time>2013-04-07T08:21:33Z</time>
      </trkpt>
      <trkpt lat="45.9332875" lon="4.6455242">
        <ele>280.8400000</ele>
        <time>2013-04-07T08:21:37Z</time>
      </trkpt>
      <trkpt lat="45.9331434" lon="4.6453491">
        <ele>281.3200000</ele>
        <time>2013-04-07T08:21:41Z</time>
      </trkpt>
      <trkpt lat="45.9331056" lon="4.6453135">
        <ele>280.8400000</ele>
        <time>2013-04-07T08:21:42Z</time>
      </trkpt>
      <trkpt lat="45.9329019" lon="4.6451383">
        <ele>281.3200000</ele>
        <time>2013-04-07T08:21:51Z</time>
      </trkpt>
      <trkpt lat="45.9326387" lon="4.6449510">
        <ele>282.7700000</ele>
        <time>2013-04-07T08:22:03Z</time>
      </trkpt>
      <trkpt lat="45.9324694" lon="4.6447420">
        <ele>280.8400000</ele>
        <time>2013-04-07T08:22:10Z</time>
      </trkpt>
      <trkpt lat="45.9324455" lon="4.6446942">
        <ele>280.8400000</ele>
        <time>2013-04-07T08:22:11Z</time>
      </trkpt>
      <trkpt lat="45.9324166" lon="4.6446474">
        <ele>279.8800000</ele>
        <time>2013-04-07T08:22:12Z</time>
      </trkpt>
      <trkpt lat="45.9323954" lon="4.6446003">
        <ele>279.8800000</ele>
        <time>2013-04-07T08:22:13Z</time>
      </trkpt>
      <trkpt lat="45.9323785" lon="4.6445599">
        <ele>280.3600000</ele>
        <time>2013-04-07T08:22:14Z</time>
      </trkpt>
      <trkpt lat="45.9323599" lon="4.6445337">
        <ele>280.3600000</ele>
        <time>2013-04-07T08:22:15Z</time>
      </trkpt>
      <trkpt lat="45.9323346" lon="4.6444767">
        <ele>280.3600000</ele>
        <time>2013-04-07T08:22:17Z</time>
      </trkpt>
      <trkpt lat="45.9323278" lon="4.6444519">
        <ele>280.3600000</ele>
        <time>2013-04-07T08:22:18Z</time>
      </trkpt>
      <trkpt lat="45.9323157" lon="4.6444234">
        <ele>280.3600000</ele>
        <time>2013-04-07T08:22:19Z</time>
      </trkpt>
      <trkpt lat="45.9323048" lon="4.6443910">
        <ele>279.8800000</ele>
        <time>2013-04-07T08:22:20Z</time>
      </trkpt>
      <trkpt lat="45.9322901" lon="4.6443481">
        <ele>280.3600000</ele>
        <time>2013-04-07T08:22:21Z</time>
      </trkpt>
      <trkpt lat="45.9321499" lon="4.6439549">
        <ele>280.8400000</ele>
        <time>2013-04-07T08:22:30Z</time>
      </trkpt>
      <trkpt lat="45.9320395" lon="4.6434750">
        <ele>281.8000000</ele>
        <time>2013-04-07T08:22:42Z</time>
      </trkpt>
      <trkpt lat="45.9319132" lon="4.6430366">
        <ele>282.2800000</ele>
        <time>2013-04-07T08:22:53Z</time>
      </trkpt>
      <trkpt lat="45.9318995" lon="4.6430040">
        <ele>282.7700000</ele>
        <time>2013-04-07T08:22:54Z</time>
      </trkpt>
      <trkpt lat="45.9318904" lon="4.6429716">
        <ele>282.7700000</ele>
        <time>2013-04-07T08:22:55Z</time>
      </trkpt>
      <trkpt lat="45.9318858" lon="4.6429438">
        <ele>282.7700000</ele>
        <time>2013-04-07T08:22:56Z</time>
      </trkpt>
      <trkpt lat="45.9318758" lon="4.6429090">
        <ele>282.7700000</ele>
        <time>2013-04-07T08:22:57Z</time>
      </trkpt>
      <trkpt lat="45.9318700" lon="4.6428708">
        <ele>282.7700000</ele>
        <time>2013-04-07T08:22:58Z</time>
      </trkpt>
      <trkpt lat="45.9318644" lon="4.6428432">
        <ele>282.7700000</ele>
        <time>2013-04-07T08:22:59Z</time>
      </trkpt>
      <trkpt lat="45.9318598" lon="4.6428098">
        <ele>282.7700000</ele>
        <time>2013-04-07T08:23:00Z</time>
      </trkpt>
      <trkpt lat="45.9318598" lon="4.6427691">
        <ele>282.7700000</ele>
        <time>2013-04-07T08:23:01Z</time>
      </trkpt>
      <trkpt lat="45.9318621" lon="4.6427275">
        <ele>282.7700000</ele>
        <time>2013-04-07T08:23:02Z</time>
      </trkpt>
      <trkpt lat="45.9318545" lon="4.6426823">
        <ele>282.7700000</ele>
        <time>2013-04-07T08:23:03Z</time>
      </trkpt>
      <trkpt lat="45.9318392" lon="4.6426301">
        <ele>282.7700000</ele>
        <time>2013-04-07T08:23:04Z</time>
      </trkpt>
      <trkpt lat="45.9318269" lon="4.6425799">
        <ele>283.2500000</ele>
        <time>2013-04-07T08:23:05Z</time>
      </trkpt>
      <trkpt lat="45.9318203" lon="4.6425350">
        <ele>283.2500000</ele>
        <time>2013-04-07T08:23:06Z</time>
      </trkpt>
      <trkpt lat="45.9318142" lon="4.6424895">
        <ele>283.2500000</ele>
        <time>2013-04-07T08:23:07Z</time>
      </trkpt>
      <trkpt lat="45.9318193" lon="4.6424485">
        <ele>283.2500000</ele>
        <time>2013-04-07T08:23:08Z</time>
      </trkpt>
      <trkpt lat="45.9318186" lon="4.6423493">
        <ele>283.2500000</ele>
        <time>2013-04-07T08:23:10Z</time>
      </trkpt>
      <trkpt lat="45.9318275" lon="4.6423216">
        <ele>283.2500000</ele>
        <time>2013-04-07T08:23:11Z</time>
      </trkpt>
      <trkpt lat="45.9318333" lon="4.6422904">
        <ele>283.2500000</ele>
        <time>2013-04-07T08:23:12Z</time>
      </trkpt>
      <trkpt lat="45.9318413" lon="4.6422239">
        <ele>283.2500000</ele>
        <time>2013-04-07T08:23:14Z</time>
      </trkpt>
      <trkpt lat="45.9318327" lon="4.6421778">
        <ele>283.7300000</ele>
        <time>2013-04-07T08:23:15Z</time>
      </trkpt>
      <trkpt lat="45.9317834" lon="4.6419560">
        <ele>282.7700000</ele>
        <time>2013-04-07T08:23:19Z</time>
      </trkpt>
      <trkpt lat="45.9317866" lon="4.6419147">
        <ele>282.2800000</ele>
        <time>2013-04-07T08:23:20Z</time>
      </trkpt>
      <trkpt lat="45.9317987" lon="4.6418850">
        <ele>282.7700000</ele>
        <time>2013-04-07T08:23:21Z</time>
      </trkpt>
      <trkpt lat="45.9318104" lon="4.6418639">
        <ele>282.7700000</ele>
        <time>2013-04-07T08:23:22Z</time>
      </trkpt>
      <trkpt lat="45.9318310" lon="4.6418619">
        <ele>282.2800000</ele>
        <time>2013-04-07T08:23:23Z</time>
      </trkpt>
      <trkpt lat="45.9321182" lon="4.6419244">
        <ele>278.9200000</ele>
        <time>2013-04-07T08:23:30Z</time>
      </trkpt>
      <trkpt lat="45.9321654" lon="4.6419398">
        <ele>278.9200000</ele>
        <time>2013-04-07T08:23:31Z</time>
      </trkpt>
      <trkpt lat="45.9322028" lon="4.6419600">
        <ele>278.9200000</ele>
        <time>2013-04-07T08:23:32Z</time>
      </trkpt>
      <trkpt lat="45.9324603" lon="4.6421792">
        <ele>278.9200000</ele>
        <time>2013-04-07T08:23:42Z</time>
      </trkpt>
      <trkpt lat="45.9325440" lon="4.6423569">
        <ele>279.8800000</ele>
        <time>2013-04-07T08:23:47Z</time>
      </trkpt>
      <trkpt lat="45.9325602" lon="4.6423804">
        <ele>279.8800000</ele>
        <time>2013-04-07T08:23:48Z</time>
      </trkpt>
      <trkpt lat="45.9325766" lon="4.6424067">
        <ele>280.3600000</ele>
        <time>2013-04-07T08:23:49Z</time>
      </trkpt>
      <trkpt lat="45.9326015" lon="4.6424280">
        <ele>280.8400000</ele>
        <time>2013-04-07T08:23:50Z</time>
      </trkpt>
      <trkpt lat="45.9326275" lon="4.6424439">
        <ele>280.3600000</ele>
        <time>2013-04-07T08:23:51Z</time>
      </trkpt>
      <trkpt lat="45.9326519" lon="4.6424585">
        <ele>280.8400000</ele>
        <time>2013-04-07T08:23:52Z</time>
      </trkpt>
      <trkpt lat="45.9326690" lon="4.6424721">
        <ele>281.3200000</ele>
        <time>2013-04-07T08:23:53Z</time>
      </trkpt>
      <trkpt lat="45.9326976" lon="4.6424892">
        <ele>282.2800000</ele>
        <time>2013-04-07T08:23:56Z</time>
      </trkpt>
      <trkpt lat="45.9327156" lon="4.6425140">
        <ele>282.2800000</ele>
        <time>2013-04-07T08:23:57Z</time>
      </trkpt>
      <trkpt lat="45.9327338" lon="4.6425386">
        <ele>282.7700000</ele>
        <time>2013-04-07T08:23:58Z</time>
      </trkpt>
      <trkpt lat="45.9327506" lon="4.6425635">
        <ele>282.7700000</ele>
        <time>2013-04-07T08:23:59Z</time>
      </trkpt>
      <trkpt lat="45.9327626" lon="4.6425813">
        <ele>283.7300000</ele>
        <time>2013-04-07T08:24:00Z</time>
      </trkpt>
      <trkpt lat="45.9327728" lon="4.6425948">
        <ele>283.7300000</ele>
        <time>2013-04-07T08:24:01Z</time>
      </trkpt>
      <trkpt lat="45.9328062" lon="4.6426668">
        <ele>284.2100000</ele>
        <time>2013-04-07T08:24:04Z</time>
      </trkpt>
      <trkpt lat="45.9328876" lon="4.6427201">
        <ele>285.1700000</ele>
        <time>2013-04-07T08:24:09Z</time>
      </trkpt>
      <trkpt lat="45.9329694" lon="4.6426686">
        <ele>286.6100000</ele>
        <time>2013-04-07T08:24:16Z</time>
      </trkpt>
      <trkpt lat="45.9330698" lon="4.6425754">
        <ele>289.0100000</ele>
        <time>2013-04-07T08:24:26Z</time>
      </trkpt>
      <trkpt lat="45.9331659" lon="4.6424944">
        <ele>290.4600000</ele>
        <time>2013-04-07T08:24:35Z</time>
      </trkpt>
      <trkpt lat="45.9333095" lon="4.6424229">
        <ele>293.3400000</ele>
        <time>2013-04-07T08:24:46Z</time>
      </trkpt>
      <trkpt lat="45.9333881" lon="4.6423566">
        <ele>294.7800000</ele>
        <time>2013-04-07T08:24:56Z</time>
      </trkpt>
      <trkpt lat="45.9334223" lon="4.6423232">
        <ele>295.7400000</ele>
        <time>2013-04-07T08:24:59Z</time>
      </trkpt>
      <trkpt lat="45.9335967" lon="4.6422329">
        <ele>298.6300000</ele>
        <time>2013-04-07T08:25:11Z</time>
      </trkpt>
      <trkpt lat="45.9336106" lon="4.6422276">
        <ele>299.1100000</ele>
        <time>2013-04-07T08:25:12Z</time>
      </trkpt>
      <trkpt lat="45.9336961" lon="4.6421395">
        <ele>300.5500000</ele>
        <time>2013-04-07T08:25:19Z</time>
      </trkpt>
      <trkpt lat="45.9337594" lon="4.6420859">
        <ele>301.9900000</ele>
        <time>2013-04-07T08:25:26Z</time>
      </trkpt>
      <trkpt lat="45.9338011" lon="4.6420440">
        <ele>302.9500000</ele>
        <time>2013-04-07T08:25:30Z</time>
      </trkpt>
      <trkpt lat="45.9339399" lon="4.6419022">
        <ele>305.8400000</ele>
        <time>2013-04-07T08:25:44Z</time>
      </trkpt>
      <trkpt lat="45.9339750" lon="4.6418506">
        <ele>306.3200000</ele>
        <time>2013-04-07T08:25:48Z</time>
      </trkpt>
      <trkpt lat="45.9340950" lon="4.6417444">
        <ele>307.7600000</ele>
        <time>2013-04-07T08:25:58Z</time>
      </trkpt>
      <trkpt lat="45.9341635" lon="4.6416235">
        <ele>308.7200000</ele>
        <time>2013-04-07T08:26:05Z</time>
      </trkpt>
      <trkpt lat="45.9341118" lon="4.6412732">
        <ele>310.6400000</ele>
        <time>2013-04-07T08:26:18Z</time>
      </trkpt>
      <trkpt lat="45.9341043" lon="4.6412450">
        <ele>306.3200000</ele>
        <time>2013-04-07T08:26:19Z</time>
      </trkpt>
      <trkpt lat="45.9340966" lon="4.6412188">
        <ele>310.1600000</ele>
        <time>2013-04-07T08:26:20Z</time>
      </trkpt>
      <trkpt lat="45.9340790" lon="4.6411712">
        <ele>311.1200000</ele>
        <time>2013-04-07T08:26:22Z</time>
      </trkpt>
      <trkpt lat="45.9340540" lon="4.6410742">
        <ele>315.4500000</ele>
        <time>2013-04-07T08:26:26Z</time>
      </trkpt>
      <trkpt lat="45.9340469" lon="4.6410506">
        <ele>308.7200000</ele>
        <time>2013-04-07T08:26:27Z</time>
      </trkpt>
      <trkpt lat="45.9340422" lon="4.6410237">
        <ele>312.0900000</ele>
        <time>2013-04-07T08:26:28Z</time>
      </trkpt>
      <trkpt lat="45.9340393" lon="4.6409994">
        <ele>312.5700000</ele>
        <time>2013-04-07T08:26:29Z</time>
      </trkpt>
      <trkpt lat="45.9339881" lon="4.6408256">
        <ele>315.4500000</ele>
        <time>2013-04-07T08:26:35Z</time>
      </trkpt>
      <trkpt lat="45.9338942" lon="4.6404373">
        <ele>316.4100000</ele>
        <time>2013-04-07T08:26:48Z</time>
      </trkpt>
      <trkpt lat="45.9338796" lon="4.6403782">
        <ele>310.6400000</ele>
        <time>2013-04-07T08:26:50Z</time>
      </trkpt>
      <trkpt lat="45.9338709" lon="4.6403534">
        <ele>317.8500000</ele>
        <time>2013-04-07T08:26:51Z</time>
      </trkpt>
      <trkpt lat="45.9337707" lon="4.6399779">
        <ele>317.3700000</ele>
        <time>2013-04-07T08:27:03Z</time>
      </trkpt>
      <trkpt lat="45.9335906" lon="4.6394334">
        <ele>317.8500000</ele>
        <time>2013-04-07T08:27:16Z</time>
      </trkpt>
      <trkpt lat="45.9335268" lon="4.6391000">
        <ele>319.3000000</ele>
        <time>2013-04-07T08:27:24Z</time>
      </trkpt>
      <trkpt lat="45.9335201" lon="4.6390636">
        <ele>319.7800000</ele>
        <time>2013-04-07T08:27:25Z</time>
      </trkpt>
      <trkpt lat="45.9335547" lon="4.6387927">
        <ele>321.2200000</ele>
        <time>2013-04-07T08:27:35Z</time>
      </trkpt>
      <trkpt lat="45.9335663" lon="4.6386466">
        <ele>322.1800000</ele>
        <time>2013-04-07T08:27:47Z</time>
      </trkpt>
      <trkpt lat="45.9335703" lon="4.6386233">
        <ele>322.1800000</ele>
        <time>2013-04-07T08:28:04Z</time>
      </trkpt>
      <trkpt lat="45.9335722" lon="4.6386351">
        <ele>322.1800000</ele>
        <time>2013-04-07T08:28:06Z</time>
      </trkpt>
      <trkpt lat="45.9336010" lon="4.6386409">
        <ele>321.7000000</ele>
        <time>2013-04-07T08:28:17Z</time>
      </trkpt>
      <trkpt lat="45.9336135" lon="4.6386578">
        <ele>321.7000000</ele>
        <time>2013-04-07T08:28:44Z</time>
      </trkpt>
      <trkpt lat="45.9336276" lon="4.6386425">
        <ele>322.1800000</ele>
        <time>2013-04-07T08:29:22Z</time>
      </trkpt>
      <trkpt lat="45.9336447" lon="4.6386348">
        <ele>322.1800000</ele>
        <time>2013-04-07T08:29:57Z</time>
      </trkpt>
      <trkpt lat="45.9336400" lon="4.6386398">
        <ele>321.7000000</ele>
        <time>2013-04-07T08:30:27Z</time>
      </trkpt>
      <trkpt lat="45.9336422" lon="4.6386258">
        <ele>322.1800000</ele>
        <time>2013-04-07T08:31:05Z</time>
      </trkpt>
      <trkpt lat="45.9336299" lon="4.6386492">
        <ele>322.1800000</ele>
        <time>2013-04-07T08:31:41Z</time>
      </trkpt>
      <trkpt lat="45.9336167" lon="4.6386542">
        <ele>322.1800000</ele>
        <time>2013-04-07T08:32:18Z</time>
      </trkpt>
      <trkpt lat="45.9336113" lon="4.6386515">
        <ele>322.1800000</ele>
        <time>2013-04-07T08:32:54Z</time>
      </trkpt>
      <trkpt lat="45.9336103" lon="4.6386497">
        <ele>322.6600000</ele>
        <time>2013-04-07T08:33:23Z</time>
      </trkpt>
      <trkpt lat="45.9335990" lon="4.6386404">
        <ele>323.1400000</ele>
        <time>2013-04-07T08:33:57Z</time>
      </trkpt>
      <trkpt lat="45.9336027" lon="4.6386408">
        <ele>323.1400000</ele>
        <time>2013-04-07T08:34:14Z</time>
      </trkpt>
      <trkpt lat="45.9335743" lon="4.6386087">
        <ele>323.6200000</ele>
        <time>2013-04-07T08:34:26Z</time>
      </trkpt>
      <trkpt lat="45.9335570" lon="4.6386201">
        <ele>323.1400000</ele>
        <time>2013-04-07T08:34:52Z</time>
      </trkpt>
      <trkpt lat="45.9335536" lon="4.6386278">
        <ele>323.1400000</ele>
        <time>2013-04-07T08:35:23Z</time>
      </trkpt>
      <trkpt lat="45.9335485" lon="4.6385898">
        <ele>323.6200000</ele>
        <time>2013-04-07T08:35:32Z</time>
      </trkpt>
      <trkpt lat="45.9335595" lon="4.6385639">
        <ele>327.9500000</ele>
        <time>2013-04-07T08:35:34Z</time>
      </trkpt>
      <trkpt lat="45.9335645" lon="4.6385523">
        <ele>327.4700000</ele>
        <time>2013-04-07T08:35:35Z</time>
      </trkpt>
      <trkpt lat="45.9335640" lon="4.6385407">
        <ele>336.6000000</ele>
        <time>2013-04-07T08:35:36Z</time>
      </trkpt>
      <trkpt lat="45.9335618" lon="4.6385035">
        <ele>324.1000000</ele>
        <time>2013-04-07T08:35:38Z</time>
      </trkpt>
      <trkpt lat="45.9335969" lon="4.6383763">
        <ele>324.5800000</ele>
        <time>2013-04-07T08:35:44Z</time>
      </trkpt>
      <trkpt lat="45.9336001" lon="4.6381589">
        <ele>325.5400000</ele>
        <time>2013-04-07T08:35:51Z</time>
      </trkpt>
      <trkpt lat="45.9335692" lon="4.6376120">
        <ele>326.9900000</ele>
        <time>2013-04-07T08:36:02Z</time>
      </trkpt>
      <trkpt lat="45.9335591" lon="4.6374273">
        <ele>327.4700000</ele>
        <time>2013-04-07T08:36:06Z</time>
      </trkpt>
      <trkpt lat="45.9336511" lon="4.6373183">
        <ele>326.9900000</ele>
        <time>2013-04-07T08:36:10Z</time>
      </trkpt>
      <trkpt lat="45.9342468" lon="4.6370960">
        <ele>326.5000000</ele>
        <time>2013-04-07T08:36:24Z</time>
      </trkpt>
      <trkpt lat="45.9344387" lon="4.6370345">
        <ele>325.0600000</ele>
        <time>2013-04-07T08:36:28Z</time>
      </trkpt>
      <trkpt lat="45.9345981" lon="4.6369912">
        <ele>323.6200000</ele>
        <time>2013-04-07T08:36:31Z</time>
      </trkpt>
      <trkpt lat="45.9347068" lon="4.6369865">
        <ele>323.1400000</ele>
        <time>2013-04-07T08:36:33Z</time>
      </trkpt>
      <trkpt lat="45.9349492" lon="4.6370352">
        <ele>325.0600000</ele>
        <time>2013-04-07T08:36:42Z</time>
      </trkpt>
      <trkpt lat="45.9350620" lon="4.6370534">
        <ele>326.5000000</ele>
        <time>2013-04-07T08:36:47Z</time>
      </trkpt>
      <trkpt lat="45.9351632" lon="4.6370715">
        <ele>326.0200000</ele>
        <time>2013-04-07T08:36:51Z</time>
      </trkpt>
      <trkpt lat="45.9352908" lon="4.6371180">
        <ele>326.9900000</ele>
        <time>2013-04-07T08:36:57Z</time>
      </trkpt>
      <trkpt lat="45.9353336" lon="4.6370172">
        <ele>327.9500000</ele>
        <time>2013-04-07T08:37:01Z</time>
      </trkpt>
      <trkpt lat="45.9353372" lon="4.6369818">
        <ele>327.9500000</ele>
        <time>2013-04-07T08:37:02Z</time>
      </trkpt>
      <trkpt lat="45.9354226" lon="4.6366377">
        <ele>330.3500000</ele>
        <time>2013-04-07T08:37:15Z</time>
      </trkpt>
      <trkpt lat="45.9354271" lon="4.6365863">
        <ele>330.8300000</ele>
        <time>2013-04-07T08:37:17Z</time>
      </trkpt>
      <trkpt lat="45.9355646" lon="4.6366068">
        <ele>331.3100000</ele>
        <time>2013-04-07T08:37:24Z</time>
      </trkpt>
      <trkpt lat="45.9359386" lon="4.6367069">
        <ele>331.7900000</ele>
        <time>2013-04-07T08:37:38Z</time>
      </trkpt>
      <trkpt lat="45.9360294" lon="4.6367119">
        <ele>332.2700000</ele>
        <time>2013-04-07T08:37:41Z</time>
      </trkpt>
      <trkpt lat="45.9362695" lon="4.6361549">
        <ele>335.1600000</ele>
        <time>2013-04-07T08:37:57Z</time>
      </trkpt>
      <trkpt lat="45.9363656" lon="4.6357965">
        <ele>336.1200000</ele>
        <time>2013-04-07T08:38:06Z</time>
      </trkpt>
      <trkpt lat="45.9367030" lon="4.6358166">
        <ele>335.6400000</ele>
        <time>2013-04-07T08:38:16Z</time>
      </trkpt>
      <trkpt lat="45.9372095" lon="4.6359153">
        <ele>334.6800000</ele>
        <time>2013-04-07T08:38:29Z</time>
      </trkpt>
      <trkpt lat="45.9372215" lon="4.6362138">
        <ele>335.1600000</ele>
        <time>2013-04-07T08:38:35Z</time>
      </trkpt>
      <trkpt lat="45.9372120" lon="4.6362730">
        <ele>335.6400000</ele>
        <time>2013-04-07T08:38:36Z</time>
      </trkpt>
      <trkpt lat="45.9371837" lon="4.6365328">
        <ele>334.6800000</ele>
        <time>2013-04-07T08:38:40Z</time>
      </trkpt>
      <trkpt lat="45.9371528" lon="4.6367565">
        <ele>333.2300000</ele>
        <time>2013-04-07T08:38:43Z</time>
      </trkpt>
      <trkpt lat="45.9370705" lon="4.6374453">
        <ele>329.8700000</ele>
        <time>2013-04-07T08:38:51Z</time>
      </trkpt>
      <trkpt lat="45.9370127" lon="4.6380502">
        <ele>327.9500000</ele>
        <time>2013-04-07T08:38:57Z</time>
      </trkpt>
      <trkpt lat="45.9369374" lon="4.6385859">
        <ele>325.0600000</ele>
        <time>2013-04-07T08:39:02Z</time>
      </trkpt>
      <trkpt lat="45.9369299" lon="4.6386835">
        <ele>325.0600000</ele>
        <time>2013-04-07T08:39:03Z</time>
      </trkpt>
      <trkpt lat="45.9369414" lon="4.6387808">
        <ele>325.0600000</ele>
        <time>2013-04-07T08:39:04Z</time>
      </trkpt>
      <trkpt lat="45.9369669" lon="4.6388755">
        <ele>323.6200000</ele>
        <time>2013-04-07T08:39:05Z</time>
      </trkpt>
      <trkpt lat="45.9370111" lon="4.6389607">
        <ele>322.6600000</ele>
        <time>2013-04-07T08:39:06Z</time>
      </trkpt>
      <trkpt lat="45.9370745" lon="4.6390221">
        <ele>321.7000000</ele>
        <time>2013-04-07T08:39:07Z</time>
      </trkpt>
      <trkpt lat="45.9371483" lon="4.6390399">
        <ele>321.7000000</ele>
        <time>2013-04-07T08:39:08Z</time>
      </trkpt>
      <trkpt lat="45.9372190" lon="4.6390172">
        <ele>320.7400000</ele>
        <time>2013-04-07T08:39:09Z</time>
      </trkpt>
      <trkpt lat="45.9372812" lon="4.6389774">
        <ele>321.2200000</ele>
        <time>2013-04-07T08:39:10Z</time>
      </trkpt>
      <trkpt lat="45.9375771" lon="4.6388357">
        <ele>320.7400000</ele>
        <time>2013-04-07T08:39:15Z</time>
      </trkpt>
      <trkpt lat="45.9378858" lon="4.6386567">
        <ele>321.2200000</ele>
        <time>2013-04-07T08:39:21Z</time>
      </trkpt>
      <trkpt lat="45.9379346" lon="4.6386635">
        <ele>320.7400000</ele>
        <time>2013-04-07T08:39:22Z</time>
      </trkpt>
      <trkpt lat="45.9379873" lon="4.6386876">
        <ele>319.7800000</ele>
        <time>2013-04-07T08:39:23Z</time>
      </trkpt>
      <trkpt lat="45.9380448" lon="4.6387168">
        <ele>318.8100000</ele>
        <time>2013-04-07T08:39:24Z</time>
      </trkpt>
      <trkpt lat="45.9381077" lon="4.6387377">
        <ele>318.3300000</ele>
        <time>2013-04-07T08:39:25Z</time>
      </trkpt>
      <trkpt lat="45.9381738" lon="4.6387514">
        <ele>317.3700000</ele>
        <time>2013-04-07T08:39:26Z</time>
      </trkpt>
      <trkpt lat="45.9384510" lon="4.6388182">
        <ele>314.9700000</ele>
        <time>2013-04-07T08:39:30Z</time>
      </trkpt>
      <trkpt lat="45.9386521" lon="4.6388408">
        <ele>315.4500000</ele>
        <time>2013-04-07T08:39:33Z</time>
      </trkpt>
      <trkpt lat="45.9387002" lon="4.6388175">
        <ele>315.4500000</ele>
        <time>2013-04-07T08:39:34Z</time>
      </trkpt>
      <trkpt lat="45.9387217" lon="4.6387906">
        <ele>315.4500000</ele>
        <time>2013-04-07T08:39:35Z</time>
      </trkpt>
      <trkpt lat="45.9387208" lon="4.6387797">
        <ele>315.4500000</ele>
        <time>2013-04-07T08:39:36Z</time>
      </trkpt>
      <trkpt lat="45.9387035" lon="4.6387970">
        <ele>315.9300000</ele>
        <time>2013-04-07T08:39:38Z</time>
      </trkpt>
      <trkpt lat="45.9386982" lon="4.6388249">
        <ele>315.9300000</ele>
        <time>2013-04-07T08:39:39Z</time>
      </trkpt>
      <trkpt lat="45.9386991" lon="4.6388566">
        <ele>315.9300000</ele>
        <time>2013-04-07T08:39:40Z</time>
      </trkpt>
      <trkpt lat="45.9387458" lon="4.6389823">
        <ele>314.4900000</ele>
        <time>2013-04-07T08:39:43Z</time>
      </trkpt>
      <trkpt lat="45.9387762" lon="4.6390419">
        <ele>313.5300000</ele>
        <time>2013-04-07T08:39:44Z</time>
      </trkpt>
      <trkpt lat="45.9389232" lon="4.6393346">
        <ele>310.1600000</ele>
        <time>2013-04-07T08:39:48Z</time>
      </trkpt>
      <trkpt lat="45.9390997" lon="4.6396784">
        <ele>306.3200000</ele>
        <time>2013-04-07T08:39:52Z</time>
      </trkpt>
      <trkpt lat="45.9391946" lon="4.6398498">
        <ele>304.8800000</ele>
        <time>2013-04-07T08:39:54Z</time>
      </trkpt>
      <trkpt lat="45.9393268" lon="4.6400833">
        <ele>303.4300000</ele>
        <time>2013-04-07T08:39:57Z</time>
      </trkpt>
      <trkpt lat="45.9394509" lon="4.6402689">
        <ele>301.0300000</ele>
        <time>2013-04-07T08:40:00Z</time>
      </trkpt>
      <trkpt lat="45.9395751" lon="4.6404335">
        <ele>299.1100000</ele>
        <time>2013-04-07T08:40:03Z</time>
      </trkpt>
      <trkpt lat="45.9397049" lon="4.6406292">
        <ele>296.7000000</ele>
        <time>2013-04-07T08:40:07Z</time>
      </trkpt>
      <trkpt lat="45.9398859" lon="4.6408513">
        <ele>292.8600000</ele>
        <time>2013-04-07T08:40:11Z</time>
      </trkpt>
      <trkpt lat="45.9400341" lon="4.6411280">
        <ele>290.9400000</ele>
        <time>2013-04-07T08:40:15Z</time>
      </trkpt>
      <trkpt lat="45.9401052" lon="4.6412880">
        <ele>290.9400000</ele>
        <time>2013-04-07T08:40:19Z</time>
      </trkpt>
      <trkpt lat="45.9401719" lon="4.6414559">
        <ele>291.4200000</ele>
        <time>2013-04-07T08:40:29Z</time>
      </trkpt>
      <trkpt lat="45.9403075" lon="4.6416648">
        <ele>292.8600000</ele>
        <time>2013-04-07T08:40:38Z</time>
      </trkpt>
      <trkpt lat="45.9403489" lon="4.6416829">
        <ele>295.7400000</ele>
        <time>2013-04-07T08:40:45Z</time>
      </trkpt>
      <trkpt lat="45.9403680" lon="4.6416778">
        <ele>296.2200000</ele>
        <time>2013-04-07T08:40:48Z</time>
      </trkpt>
      <trkpt lat="45.9405374" lon="4.6416336">
        <ele>299.1100000</ele>
        <time>2013-04-07T08:41:00Z</time>
      </trkpt>
      <trkpt lat="45.9405880" lon="4.6416172">
        <ele>300.0700000</ele>
        <time>2013-04-07T08:41:05Z</time>
      </trkpt>
      <trkpt lat="45.9406357" lon="4.6415974">
        <ele>300.5500000</ele>
        <time>2013-04-07T08:41:10Z</time>
      </trkpt>
      <trkpt lat="45.9408742" lon="4.6416818">
        <ele>301.0300000</ele>
        <time>2013-04-07T08:41:22Z</time>
      </trkpt>
      <trkpt lat="45.9411023" lon="4.6417985">
        <ele>301.5100000</ele>
        <time>2013-04-07T08:41:32Z</time>
      </trkpt>
      <trkpt lat="45.9414810" lon="4.6420223">
        <ele>301.5100000</ele>
        <time>2013-04-07T08:41:46Z</time>
      </trkpt>
      <trkpt lat="45.9418835" lon="4.6421326">
        <ele>302.4700000</ele>
        <time>2013-04-07T08:41:59Z</time>
      </trkpt>
      <trkpt lat="45.9423069" lon="4.6421426">
        <ele>303.4300000</ele>
        <time>2013-04-07T08:42:11Z</time>
      </trkpt>
      <trkpt lat="45.9427485" lon="4.6423142">
        <ele>303.9100000</ele>
        <time>2013-04-07T08:42:26Z</time>
      </trkpt>
      <trkpt lat="45.9430235" lon="4.6422508">
        <ele>305.3600000</ele>
        <time>2013-04-07T08:42:37Z</time>
      </trkpt>
      <trkpt lat="45.9430902" lon="4.6418507">
        <ele>307.2800000</ele>
        <time>2013-04-07T08:42:48Z</time>
      </trkpt>
      <trkpt lat="45.9431737" lon="4.6413776">
        <ele>309.6800000</ele>
        <time>2013-04-07T08:43:03Z</time>
      </trkpt>
      <trkpt lat="45.9432586" lon="4.6409233">
        <ele>311.1200000</ele>
        <time>2013-04-07T08:43:17Z</time>
      </trkpt>
      <trkpt lat="45.9433452" lon="4.6403754">
        <ele>312.0900000</ele>
        <time>2013-04-07T08:43:31Z</time>
      </trkpt>
      <trkpt lat="45.9433544" lon="4.6401334">
        <ele>312.5700000</ele>
        <time>2013-04-07T08:43:37Z</time>
      </trkpt>
      <trkpt lat="45.9431087" lon="4.6396080">
        <ele>314.9700000</ele>
        <time>2013-04-07T08:43:53Z</time>
      </trkpt>
      <trkpt lat="45.9428368" lon="4.6390530">
        <ele>317.3700000</ele>
        <time>2013-04-07T08:44:08Z</time>
      </trkpt>
      <trkpt lat="45.9426625" lon="4.6387267">
        <ele>319.7800000</ele>
        <time>2013-04-07T08:44:18Z</time>
      </trkpt>
      <trkpt lat="45.9425538" lon="4.6387367">
        <ele>319.7800000</ele>
        <time>2013-04-07T08:44:22Z</time>
      </trkpt>
      <trkpt lat="45.9420640" lon="4.6387917">
        <ele>320.2600000</ele>
        <time>2013-04-07T08:44:37Z</time>
      </trkpt>
      <trkpt lat="45.9416076" lon="4.6388498">
        <ele>319.7800000</ele>
        <time>2013-04-07T08:44:50Z</time>
      </trkpt>
      <trkpt lat="45.9414881" lon="4.6390812">
        <ele>318.8100000</ele>
        <time>2013-04-07T08:44:57Z</time>
      </trkpt>
      <trkpt lat="45.9414174" lon="4.6390791">
        <ele>318.8100000</ele>
        <time>2013-04-07T08:44:59Z</time>
      </trkpt>
      <trkpt lat="45.9412837" lon="4.6390956">
        <ele>319.3000000</ele>
        <time>2013-04-07T08:45:03Z</time>
      </trkpt>
      <trkpt lat="45.9411736" lon="4.6389289">
        <ele>318.8100000</ele>
        <time>2013-04-07T08:45:08Z</time>
      </trkpt>
      <trkpt lat="45.9411743" lon="4.6384991">
        <ele>321.7000000</ele>
        <time>2013-04-07T08:45:20Z</time>
      </trkpt>
      <trkpt lat="45.9411845" lon="4.6381202">
        <ele>325.0600000</ele>
        <time>2013-04-07T08:45:32Z</time>
      </trkpt>
      <trkpt lat="45.9411895" lon="4.6377768">
        <ele>327.4700000</ele>
        <time>2013-04-07T08:45:45Z</time>
      </trkpt>
      <trkpt lat="45.9412057" lon="4.6373903">
        <ele>329.3900000</ele>
        <time>2013-04-07T08:45:58Z</time>
      </trkpt>
      <trkpt lat="45.9412280" lon="4.6369059">
        <ele>330.3500000</ele>
        <time>2013-04-07T08:46:12Z</time>
      </trkpt>
      <trkpt lat="45.9412695" lon="4.6363366">
        <ele>331.3100000</ele>
        <time>2013-04-07T08:46:25Z</time>
      </trkpt>
      <trkpt lat="45.9413006" lon="4.6358883">
        <ele>333.2300000</ele>
        <time>2013-04-07T08:46:37Z</time>
      </trkpt>
      <trkpt lat="45.9413763" lon="4.6358074">
        <ele>333.2300000</ele>
        <time>2013-04-07T08:46:42Z</time>
      </trkpt>
      <trkpt lat="45.9414201" lon="4.6353799">
        <ele>336.1200000</ele>
        <time>2013-04-07T08:46:56Z</time>
      </trkpt>
      <trkpt lat="45.9414124" lon="4.6349842">
        <ele>339.0000000</ele>
        <time>2013-04-07T08:47:08Z</time>
      </trkpt>
      <trkpt lat="45.9414285" lon="4.6345817">
        <ele>342.3700000</ele>
        <time>2013-04-07T08:47:20Z</time>
      </trkpt>
      <trkpt lat="45.9414411" lon="4.6342587">
        <ele>345.2500000</ele>
        <time>2013-04-07T08:47:30Z</time>
      </trkpt>
      <trkpt lat="45.9414435" lon="4.6339331">
        <ele>348.6200000</ele>
        <time>2013-04-07T08:47:43Z</time>
      </trkpt>
      <trkpt lat="45.9413746" lon="4.6335882">
        <ele>350.0600000</ele>
        <time>2013-04-07T08:47:56Z</time>
      </trkpt>
      <trkpt lat="45.9412516" lon="4.6331067">
        <ele>351.5000000</ele>
        <time>2013-04-07T08:48:10Z</time>
      </trkpt>
      <trkpt lat="45.9411679" lon="4.6324670">
        <ele>352.4600000</ele>
        <time>2013-04-07T08:48:25Z</time>
      </trkpt>
      <trkpt lat="45.9411270" lon="4.6321902">
        <ele>354.3800000</ele>
        <time>2013-04-07T08:48:36Z</time>
      </trkpt>
      <trkpt lat="45.9410885" lon="4.6319898">
        <ele>356.3100000</ele>
        <time>2013-04-07T08:48:44Z</time>
      </trkpt>
      <trkpt lat="45.9411291" lon="4.6316430">
        <ele>358.7100000</ele>
        <time>2013-04-07T08:48:58Z</time>
      </trkpt>
      <trkpt lat="45.9412499" lon="4.6314336">
        <ele>361.5900000</ele>
        <time>2013-04-07T08:49:07Z</time>
      </trkpt>
      <trkpt lat="45.9412623" lon="4.6314058">
        <ele>361.5900000</ele>
        <time>2013-04-07T08:49:08Z</time>
      </trkpt>
      <trkpt lat="45.9413991" lon="4.6311432">
        <ele>364.4800000</ele>
        <time>2013-04-07T08:49:19Z</time>
      </trkpt>
      <trkpt lat="45.9414311" lon="4.6310821">
        <ele>365.4400000</ele>
        <time>2013-04-07T08:49:22Z</time>
      </trkpt>
      <trkpt lat="45.9414454" lon="4.6310256">
        <ele>366.4000000</ele>
        <time>2013-04-07T08:49:25Z</time>
      </trkpt>
      <trkpt lat="45.9414995" lon="4.6309809">
        <ele>367.3600000</ele>
        <time>2013-04-07T08:49:30Z</time>
      </trkpt>
      <trkpt lat="45.9416859" lon="4.6312498">
        <ele>365.4400000</ele>
        <time>2013-04-07T08:49:38Z</time>
      </trkpt>
      <trkpt lat="45.9417235" lon="4.6312818">
        <ele>364.9600000</ele>
        <time>2013-04-07T08:49:39Z</time>
      </trkpt>
      <trkpt lat="45.9417626" lon="4.6313053">
        <ele>364.9600000</ele>
        <time>2013-04-07T08:49:40Z</time>
      </trkpt>
      <trkpt lat="45.9422489" lon="4.6314447">
        <ele>368.3200000</ele>
        <time>2013-04-07T08:49:54Z</time>
      </trkpt>
      <trkpt lat="45.9424958" lon="4.6315135">
        <ele>369.2800000</ele>
        <time>2013-04-07T08:50:05Z</time>
      </trkpt>
      <trkpt lat="45.9428160" lon="4.6315951">
        <ele>370.7300000</ele>
        <time>2013-04-07T08:50:17Z</time>
      </trkpt>
      <trkpt lat="45.9431713" lon="4.6317016">
        <ele>372.1700000</ele>
        <time>2013-04-07T08:50:31Z</time>
      </trkpt>
      <trkpt lat="45.9435931" lon="4.6318439">
        <ele>371.6900000</ele>
        <time>2013-04-07T08:50:45Z</time>
      </trkpt>
      <trkpt lat="45.9439584" lon="4.6318150">
        <ele>371.2100000</ele>
        <time>2013-04-07T08:50:56Z</time>
      </trkpt>
      <trkpt lat="45.9443715" lon="4.6317005">
        <ele>370.2400000</ele>
        <time>2013-04-07T08:51:09Z</time>
      </trkpt>
      <trkpt lat="45.9443874" lon="4.6315021">
        <ele>373.1300000</ele>
        <time>2013-04-07T08:51:18Z</time>
      </trkpt>
      <trkpt lat="45.9443788" lon="4.6314282">
        <ele>374.0900000</ele>
        <time>2013-04-07T08:51:22Z</time>
      </trkpt>
      <trkpt lat="45.9443681" lon="4.6313846">
        <ele>374.5700000</ele>
        <time>2013-04-07T08:51:24Z</time>
      </trkpt>
      <trkpt lat="45.9443510" lon="4.6312565">
        <ele>376.4900000</ele>
        <time>2013-04-07T08:51:30Z</time>
      </trkpt>
      <trkpt lat="45.9443166" lon="4.6310303">
        <ele>379.3800000</ele>
        <time>2013-04-07T08:51:41Z</time>
      </trkpt>
      <trkpt lat="45.9443129" lon="4.6310108">
        <ele>379.8600000</ele>
        <time>2013-04-07T08:51:42Z</time>
      </trkpt>
      <trkpt lat="45.9443117" lon="4.6309789">
        <ele>379.8600000</ele>
        <time>2013-04-07T08:51:44Z</time>
      </trkpt>
      <trkpt lat="45.9442957" lon="4.6308595">
        <ele>381.3000000</ele>
        <time>2013-04-07T08:51:51Z</time>
      </trkpt>
      <trkpt lat="45.9442449" lon="4.6306838">
        <ele>384.6600000</ele>
        <time>2013-04-07T08:52:04Z</time>
      </trkpt>
      <trkpt lat="45.9442053" lon="4.6304839">
        <ele>387.5500000</ele>
        <time>2013-04-07T08:52:17Z</time>
      </trkpt>
      <trkpt lat="45.9441540" lon="4.6302425">
        <ele>389.9500000</ele>
        <time>2013-04-07T08:52:32Z</time>
      </trkpt>
      <trkpt lat="45.9441260" lon="4.6301263">
        <ele>391.3900000</ele>
        <time>2013-04-07T08:52:39Z</time>
      </trkpt>
      <trkpt lat="45.9441339" lon="4.6299417">
        <ele>392.8400000</ele>
        <time>2013-04-07T08:52:49Z</time>
      </trkpt>
      <trkpt lat="45.9442780" lon="4.6296593">
        <ele>395.7200000</ele>
        <time>2013-04-07T08:53:05Z</time>
      </trkpt>
      <trkpt lat="45.9445450" lon="4.6293619">
        <ele>397.6400000</ele>
        <time>2013-04-07T08:53:22Z</time>
      </trkpt>
      <trkpt lat="45.9447134" lon="4.6290212">
        <ele>400.0500000</ele>
        <time>2013-04-07T08:53:37Z</time>
      </trkpt>
      <trkpt lat="45.9448675" lon="4.6286353">
        <ele>401.4900000</ele>
        <time>2013-04-07T08:53:52Z</time>
      </trkpt>
      <trkpt lat="45.9450366" lon="4.6282588">
        <ele>403.4100000</ele>
        <time>2013-04-07T08:54:06Z</time>
      </trkpt>
      <trkpt lat="45.9451404" lon="4.6280283">
        <ele>406.2900000</ele>
        <time>2013-04-07T08:54:17Z</time>
      </trkpt>
      <trkpt lat="45.9451844" lon="4.6279833">
        <ele>407.2600000</ele>
        <time>2013-04-07T08:54:21Z</time>
      </trkpt>
      <trkpt lat="45.9453162" lon="4.6277659">
        <ele>410.1400000</ele>
        <time>2013-04-07T08:54:34Z</time>
      </trkpt>
      <trkpt lat="45.9454502" lon="4.6275841">
        <ele>411.1000000</ele>
        <time>2013-04-07T08:54:45Z</time>
      </trkpt>
      <trkpt lat="45.9454624" lon="4.6275539">
        <ele>411.1000000</ele>
        <time>2013-04-07T08:54:47Z</time>
      </trkpt>
      <trkpt lat="45.9455907" lon="4.6274032">
        <ele>412.0600000</ele>
        <time>2013-04-07T08:54:58Z</time>
      </trkpt>
      <trkpt lat="45.9456798" lon="4.6272414">
        <ele>413.9800000</ele>
        <time>2013-04-07T08:55:04Z</time>
      </trkpt>
      <trkpt lat="45.9457187" lon="4.6271564">
        <ele>415.4300000</ele>
        <time>2013-04-07T08:55:07Z</time>
      </trkpt>
      <trkpt lat="45.9457624" lon="4.6271053">
        <ele>415.9100000</ele>
        <time>2013-04-07T08:55:09Z</time>
      </trkpt>
      <trkpt lat="45.9458426" lon="4.6269736">
        <ele>416.3900000</ele>
        <time>2013-04-07T08:55:14Z</time>
      </trkpt>
      <trkpt lat="45.9458677" lon="4.6269451">
        <ele>416.3900000</ele>
        <time>2013-04-07T08:55:25Z</time>
      </trkpt>
      <trkpt lat="45.9458800" lon="4.6269530">
        <ele>416.8700000</ele>
        <time>2013-04-07T08:55:32Z</time>
      </trkpt>
      <trkpt lat="45.9459724" lon="4.6269920">
        <ele>414.9500000</ele>
        <time>2013-04-07T08:55:37Z</time>
      </trkpt>
      <trkpt lat="45.9463225" lon="4.6271303">
        <ele>411.5800000</ele>
        <time>2013-04-07T08:55:46Z</time>
      </trkpt>
      <trkpt lat="45.9467325" lon="4.6272461">
        <ele>408.2200000</ele>
        <time>2013-04-07T08:55:52Z</time>
      </trkpt>
      <trkpt lat="45.9468096" lon="4.6272592">
        <ele>407.7400000</ele>
        <time>2013-04-07T08:55:53Z</time>
      </trkpt>
      <trkpt lat="45.9471069" lon="4.6272862">
        <ele>407.7400000</ele>
        <time>2013-04-07T08:55:57Z</time>
      </trkpt>
      <trkpt lat="45.9471772" lon="4.6272553">
        <ele>406.2900000</ele>
        <time>2013-04-07T08:55:58Z</time>
      </trkpt>
      <trkpt lat="45.9472429" lon="4.6272059">
        <ele>405.8100000</ele>
        <time>2013-04-07T08:55:59Z</time>
      </trkpt>
      <trkpt lat="45.9473115" lon="4.6271571">
        <ele>404.8500000</ele>
        <time>2013-04-07T08:56:00Z</time>
      </trkpt>
      <trkpt lat="45.9473837" lon="4.6271294">
        <ele>403.8900000</ele>
        <time>2013-04-07T08:56:01Z</time>
      </trkpt>
      <trkpt lat="45.9474587" lon="4.6271208">
        <ele>403.4100000</ele>
        <time>2013-04-07T08:56:02Z</time>
      </trkpt>
      <trkpt lat="45.9475366" lon="4.6271280">
        <ele>402.4500000</ele>
        <time>2013-04-07T08:56:03Z</time>
      </trkpt>
      <trkpt lat="45.9476165" lon="4.6271486">
        <ele>401.9700000</ele>
        <time>2013-04-07T08:56:04Z</time>
      </trkpt>
      <trkpt lat="45.9476957" lon="4.6271809">
        <ele>401.0100000</ele>
        <time>2013-04-07T08:56:05Z</time>
      </trkpt>
      <trkpt lat="45.9477730" lon="4.6272252">
        <ele>400.0500000</ele>
        <time>2013-04-07T08:56:06Z</time>
      </trkpt>
      <trkpt lat="45.9478484" lon="4.6272847">
        <ele>400.5300000</ele>
        <time>2013-04-07T08:56:07Z</time>
      </trkpt>
      <trkpt lat="45.9479231" lon="4.6273514">
        <ele>400.5300000</ele>
        <time>2013-04-07T08:56:08Z</time>
      </trkpt>
      <trkpt lat="45.9480657" lon="4.6274978">
        <ele>398.6000000</ele>
        <time>2013-04-07T08:56:10Z</time>
      </trkpt>
      <trkpt lat="45.9481271" lon="4.6275638">
        <ele>399.0800000</ele>
        <time>2013-04-07T08:56:11Z</time>
      </trkpt>
      <trkpt lat="45.9481797" lon="4.6275893">
        <ele>398.6000000</ele>
        <time>2013-04-07T08:56:12Z</time>
      </trkpt>
      <trkpt lat="45.9482198" lon="4.6275730">
        <ele>399.5700000</ele>
        <time>2013-04-07T08:56:13Z</time>
      </trkpt>
      <trkpt lat="45.9482424" lon="4.6275373">
        <ele>399.0800000</ele>
        <time>2013-04-07T08:56:14Z</time>
      </trkpt>
      <trkpt lat="45.9482521" lon="4.6274943">
        <ele>398.6000000</ele>
        <time>2013-04-07T08:56:15Z</time>
      </trkpt>
      <trkpt lat="45.9482558" lon="4.6274577">
        <ele>398.1200000</ele>
        <time>2013-04-07T08:56:16Z</time>
      </trkpt>
      <trkpt lat="45.9482619" lon="4.6274350">
        <ele>398.1200000</ele>
        <time>2013-04-07T08:56:17Z</time>
      </trkpt>
      <trkpt lat="45.9482634" lon="4.6274406">
        <ele>398.6000000</ele>
        <time>2013-04-07T08:56:20Z</time>
      </trkpt>
      <trkpt lat="45.9482564" lon="4.6274692">
        <ele>398.6000000</ele>
        <time>2013-04-07T08:56:21Z</time>
      </trkpt>
      <trkpt lat="45.9482558" lon="4.6275176">
        <ele>399.0800000</ele>
        <time>2013-04-07T08:56:23Z</time>
      </trkpt>
      <trkpt lat="45.9482599" lon="4.6275355">
        <ele>399.0800000</ele>
        <time>2013-04-07T08:56:24Z</time>
      </trkpt>
      <trkpt lat="45.9482714" lon="4.6276528">
        <ele>399.5700000</ele>
        <time>2013-04-07T08:56:31Z</time>
      </trkpt>
      <trkpt lat="45.9482691" lon="4.6276784">
        <ele>399.5700000</ele>
        <time>2013-04-07T08:56:32Z</time>
      </trkpt>
      <trkpt lat="45.9482192" lon="4.6281244">
        <ele>396.2000000</ele>
        <time>2013-04-07T08:56:41Z</time>
      </trkpt>
      <trkpt lat="45.9481785" lon="4.6285779">
        <ele>392.8400000</ele>
        <time>2013-04-07T08:56:45Z</time>
      </trkpt>
      <trkpt lat="45.9481765" lon="4.6291486">
        <ele>389.4700000</ele>
        <time>2013-04-07T08:56:50Z</time>
      </trkpt>
      <trkpt lat="45.9481583" lon="4.6296150">
        <ele>386.1100000</ele>
        <time>2013-04-07T08:56:54Z</time>
      </trkpt>
      <trkpt lat="45.9481437" lon="4.6298824">
        <ele>384.6600000</ele>
        <time>2013-04-07T08:56:57Z</time>
      </trkpt>
      <trkpt lat="45.9481483" lon="4.6299405">
        <ele>383.7000000</ele>
        <time>2013-04-07T08:56:58Z</time>
      </trkpt>
      <trkpt lat="45.9481645" lon="4.6299797">
        <ele>382.7400000</ele>
        <time>2013-04-07T08:56:59Z</time>
      </trkpt>
      <trkpt lat="45.9481922" lon="4.6299924">
        <ele>382.7400000</ele>
        <time>2013-04-07T08:57:00Z</time>
      </trkpt>
      <trkpt lat="45.9482141" lon="4.6299878">
        <ele>382.7400000</ele>
        <time>2013-04-07T08:57:01Z</time>
      </trkpt>
      <trkpt lat="45.9482280" lon="4.6299822">
        <ele>383.2200000</ele>
        <time>2013-04-07T08:57:02Z</time>
      </trkpt>
      <trkpt lat="45.9484004" lon="4.6299362">
        <ele>384.1800000</ele>
        <time>2013-04-07T08:57:13Z</time>
      </trkpt>
      <trkpt lat="45.9485757" lon="4.6298987">
        <ele>384.6600000</ele>
        <time>2013-04-07T08:57:19Z</time>
      </trkpt>
      <trkpt lat="45.9486024" lon="4.6299203">
        <ele>384.6600000</ele>
        <time>2013-04-07T08:57:20Z</time>
      </trkpt>
      <trkpt lat="45.9486178" lon="4.6299652">
        <ele>384.1800000</ele>
        <time>2013-04-07T08:57:21Z</time>
      </trkpt>
      <trkpt lat="45.9486164" lon="4.6300323">
        <ele>382.7400000</ele>
        <time>2013-04-07T08:57:22Z</time>
      </trkpt>
      <trkpt lat="45.9486018" lon="4.6301103">
        <ele>381.3000000</ele>
        <time>2013-04-07T08:57:23Z</time>
      </trkpt>
      <trkpt lat="45.9485807" lon="4.6301909">
        <ele>380.8200000</ele>
        <time>2013-04-07T08:57:24Z</time>
      </trkpt>
      <trkpt lat="45.9485667" lon="4.6302710">
        <ele>379.3800000</ele>
        <time>2013-04-07T08:57:25Z</time>
      </trkpt>
      <trkpt lat="45.9485763" lon="4.6304039">
        <ele>378.9000000</ele>
        <time>2013-04-07T08:57:27Z</time>
      </trkpt>
      <trkpt lat="45.9486052" lon="4.6304507">
        <ele>378.4200000</ele>
        <time>2013-04-07T08:57:28Z</time>
      </trkpt>
      <trkpt lat="45.9486415" lon="4.6304758">
        <ele>377.9400000</ele>
        <time>2013-04-07T08:57:29Z</time>
      </trkpt>
      <trkpt lat="45.9486812" lon="4.6304878">
        <ele>377.4500000</ele>
        <time>2013-04-07T08:57:30Z</time>
      </trkpt>
      <trkpt lat="45.9487263" lon="4.6304983">
        <ele>376.9700000</ele>
        <time>2013-04-07T08:57:31Z</time>
      </trkpt>
      <trkpt lat="45.9487749" lon="4.6305048">
        <ele>376.4900000</ele>
        <time>2013-04-07T08:57:32Z</time>
      </trkpt>
      <trkpt lat="45.9488171" lon="4.6305184">
        <ele>375.5300000</ele>
        <time>2013-04-07T08:57:33Z</time>
      </trkpt>
      <trkpt lat="45.9488416" lon="4.6307761">
        <ele>372.1700000</ele>
        <time>2013-04-07T08:57:37Z</time>
      </trkpt>
      <trkpt lat="45.9488445" lon="4.6308829">
        <ele>370.7300000</ele>
        <time>2013-04-07T08:57:38Z</time>
      </trkpt>
      <trkpt lat="45.9488458" lon="4.6312302">
        <ele>365.9200000</ele>
        <time>2013-04-07T08:57:41Z</time>
      </trkpt>
      <trkpt lat="45.9488335" lon="4.6314990">
        <ele>361.5900000</ele>
        <time>2013-04-07T08:57:43Z</time>
      </trkpt>
      <trkpt lat="45.9488272" lon="4.6318058">
        <ele>356.7900000</ele>
        <time>2013-04-07T08:57:45Z</time>
      </trkpt>
      <trkpt lat="45.9488215" lon="4.6321009">
        <ele>352.4600000</ele>
        <time>2013-04-07T08:57:47Z</time>
      </trkpt>
      <trkpt lat="45.9488171" lon="4.6322279">
        <ele>351.9800000</ele>
        <time>2013-04-07T08:57:48Z</time>
      </trkpt>
      <trkpt lat="45.9488315" lon="4.6324054">
        <ele>350.5400000</ele>
        <time>2013-04-07T08:57:50Z</time>
      </trkpt>
      <trkpt lat="45.9488670" lon="4.6324513">
        <ele>350.0600000</ele>
        <time>2013-04-07T08:57:51Z</time>
      </trkpt>
      <trkpt lat="45.9489092" lon="4.6324603">
        <ele>349.5800000</ele>
        <time>2013-04-07T08:57:52Z</time>
      </trkpt>
      <trkpt lat="45.9489464" lon="4.6324529">
        <ele>349.5800000</ele>
        <time>2013-04-07T08:57:53Z</time>
      </trkpt>
      <trkpt lat="45.9489830" lon="4.6324494">
        <ele>349.5800000</ele>
        <time>2013-04-07T08:57:54Z</time>
      </trkpt>
      <trkpt lat="45.9490237" lon="4.6324481">
        <ele>349.1000000</ele>
        <time>2013-04-07T08:57:55Z</time>
      </trkpt>
      <trkpt lat="45.9492285" lon="4.6324828">
        <ele>349.1000000</ele>
        <time>2013-04-07T08:58:00Z</time>
      </trkpt>
      <trkpt lat="45.9497440" lon="4.6325133">
        <ele>350.0600000</ele>
        <time>2013-04-07T08:58:13Z</time>
      </trkpt>
      <trkpt lat="45.9497825" lon="4.6325113">
        <ele>349.5800000</ele>
        <time>2013-04-07T08:58:14Z</time>
      </trkpt>
      <trkpt lat="45.9498221" lon="4.6325102">
        <ele>350.0600000</ele>
        <time>2013-04-07T08:58:15Z</time>
      </trkpt>
      <trkpt lat="45.9498631" lon="4.6325141">
        <ele>349.5800000</ele>
        <time>2013-04-07T08:58:16Z</time>
      </trkpt>
      <trkpt lat="45.9499083" lon="4.6325162">
        <ele>349.1000000</ele>
        <time>2013-04-07T08:58:17Z</time>
      </trkpt>
      <trkpt lat="45.9499538" lon="4.6325119">
        <ele>348.6200000</ele>
        <time>2013-04-07T08:58:18Z</time>
      </trkpt>
      <trkpt lat="45.9499967" lon="4.6325097">
        <ele>349.1000000</ele>
        <time>2013-04-07T08:58:19Z</time>
      </trkpt>
      <trkpt lat="45.9500418" lon="4.6325156">
        <ele>349.1000000</ele>
        <time>2013-04-07T08:58:20Z</time>
      </trkpt>
      <trkpt lat="45.9502397" lon="4.6325289">
        <ele>349.1000000</ele>
        <time>2013-04-07T08:58:25Z</time>
      </trkpt>
      <trkpt lat="45.9502737" lon="4.6325036">
        <ele>349.5800000</ele>
        <time>2013-04-07T08:58:26Z</time>
      </trkpt>
      <trkpt lat="45.9502955" lon="4.6324751">
        <ele>350.0600000</ele>
        <time>2013-04-07T08:58:27Z</time>
      </trkpt>
      <trkpt lat="45.9503144" lon="4.6324255">
        <ele>351.5000000</ele>
        <time>2013-04-07T08:58:29Z</time>
      </trkpt>
      <trkpt lat="45.9504145" lon="4.6321948">
        <ele>354.8600000</ele>
        <time>2013-04-07T08:58:40Z</time>
      </trkpt>
      <trkpt lat="45.9505303" lon="4.6319802">
        <ele>357.7500000</ele>
        <time>2013-04-07T08:58:51Z</time>
      </trkpt>
      <trkpt lat="45.9506354" lon="4.6318147">
        <ele>359.6700000</ele>
        <time>2013-04-07T08:59:01Z</time>
      </trkpt>
      <trkpt lat="45.9506330" lon="4.6317933">
        <ele>360.6300000</ele>
        <time>2013-04-07T08:59:02Z</time>
      </trkpt>
      <trkpt lat="45.9506287" lon="4.6317733">
        <ele>360.1500000</ele>
        <time>2013-04-07T08:59:03Z</time>
      </trkpt>
      <trkpt lat="45.9506246" lon="4.6317492">
        <ele>360.1500000</ele>
        <time>2013-04-07T08:59:04Z</time>
      </trkpt>
      <trkpt lat="45.9506231" lon="4.6317254">
        <ele>361.1100000</ele>
        <time>2013-04-07T08:59:05Z</time>
      </trkpt>
      <trkpt lat="45.9506227" lon="4.6317068">
        <ele>361.1100000</ele>
        <time>2013-04-07T08:59:06Z</time>
      </trkpt>
      <trkpt lat="45.9506182" lon="4.6315664">
        <ele>362.5500000</ele>
        <time>2013-04-07T08:59:13Z</time>
      </trkpt>
      <trkpt lat="45.9506189" lon="4.6315472">
        <ele>363.0400000</ele>
        <time>2013-04-07T08:59:14Z</time>
      </trkpt>
      <trkpt lat="45.9506132" lon="4.6313957">
        <ele>364.0000000</ele>
        <time>2013-04-07T08:59:21Z</time>
      </trkpt>
      <trkpt lat="45.9506099" lon="4.6313751">
        <ele>364.0000000</ele>
        <time>2013-04-07T08:59:22Z</time>
      </trkpt>
      <trkpt lat="45.9506084" lon="4.6313549">
        <ele>364.0000000</ele>
        <time>2013-04-07T08:59:23Z</time>
      </trkpt>
      <trkpt lat="45.9506104" lon="4.6313330">
        <ele>364.0000000</ele>
        <time>2013-04-07T08:59:24Z</time>
      </trkpt>
      <trkpt lat="45.9506102" lon="4.6313130">
        <ele>364.0000000</ele>
        <time>2013-04-07T08:59:25Z</time>
      </trkpt>
      <trkpt lat="45.9506080" lon="4.6312942">
        <ele>364.4800000</ele>
        <time>2013-04-07T08:59:26Z</time>
      </trkpt>
      <trkpt lat="45.9505992" lon="4.6310841">
        <ele>367.8400000</ele>
        <time>2013-04-07T08:59:38Z</time>
      </trkpt>
      <trkpt lat="45.9505870" lon="4.6310152">
        <ele>369.2800000</ele>
        <time>2013-04-07T08:59:42Z</time>
      </trkpt>
      <trkpt lat="45.9505348" lon="4.6308499">
        <ele>373.1300000</ele>
        <time>2013-04-07T08:59:53Z</time>
      </trkpt>
      <trkpt lat="45.9503574" lon="4.6307247">
        <ele>374.5700000</ele>
        <time>2013-04-07T09:00:08Z</time>
      </trkpt>
      <trkpt lat="45.9501641" lon="4.6305594">
        <ele>376.9700000</ele>
        <time>2013-04-07T09:00:22Z</time>
      </trkpt>
      <trkpt lat="45.9501714" lon="4.6302877">
        <ele>378.9000000</ele>
        <time>2013-04-07T09:00:33Z</time>
      </trkpt>
      <trkpt lat="45.9502188" lon="4.6300942">
        <ele>379.3800000</ele>
        <time>2013-04-07T09:00:40Z</time>
      </trkpt>
      <trkpt lat="45.9503304" lon="4.6301059">
        <ele>378.4200000</ele>
        <time>2013-04-07T09:00:44Z</time>
      </trkpt>
      <trkpt lat="45.9503731" lon="4.6301294">
        <ele>377.4500000</ele>
        <time>2013-04-07T09:00:45Z</time>
      </trkpt>
      <trkpt lat="45.9504175" lon="4.6301572">
        <ele>377.9400000</ele>
        <time>2013-04-07T09:00:46Z</time>
      </trkpt>
      <trkpt lat="45.9504638" lon="4.6301891">
        <ele>376.4900000</ele>
        <time>2013-04-07T09:00:47Z</time>
      </trkpt>
      <trkpt lat="45.9505123" lon="4.6302249">
        <ele>376.0100000</ele>
        <time>2013-04-07T09:00:48Z</time>
      </trkpt>
      <trkpt lat="45.9505645" lon="4.6302648">
        <ele>375.5300000</ele>
        <time>2013-04-07T09:00:49Z</time>
      </trkpt>
      <trkpt lat="45.9506184" lon="4.6303041">
        <ele>375.0500000</ele>
        <time>2013-04-07T09:00:50Z</time>
      </trkpt>
      <trkpt lat="45.9509507" lon="4.6305040">
        <ele>372.1700000</ele>
        <time>2013-04-07T09:00:55Z</time>
      </trkpt>
      <trkpt lat="45.9512525" lon="4.6306779">
        <ele>368.8000000</ele>
        <time>2013-04-07T09:00:59Z</time>
      </trkpt>
      <trkpt lat="45.9514005" lon="4.6307453">
        <ele>367.3600000</ele>
        <time>2013-04-07T09:01:01Z</time>
      </trkpt>
      <trkpt lat="45.9514774" lon="4.6307505">
        <ele>366.8800000</ele>
        <time>2013-04-07T09:01:02Z</time>
      </trkpt>
      <trkpt lat="45.9515518" lon="4.6307361">
        <ele>366.8800000</ele>
        <time>2013-04-07T09:01:03Z</time>
      </trkpt>
      <trkpt lat="45.9520770" lon="4.6306398">
        <ele>364.9600000</ele>
        <time>2013-04-07T09:01:10Z</time>
      </trkpt>
      <trkpt lat="45.9522239" lon="4.6306192">
        <ele>364.4800000</ele>
        <time>2013-04-07T09:01:12Z</time>
      </trkpt>
      <trkpt lat="45.9522883" lon="4.6305795">
        <ele>364.4800000</ele>
        <time>2013-04-07T09:01:13Z</time>
      </trkpt>
      <trkpt lat="45.9523292" lon="4.6305069">
        <ele>364.9600000</ele>
        <time>2013-04-07T09:01:14Z</time>
      </trkpt>
      <trkpt lat="45.9523387" lon="4.6304221">
        <ele>365.4400000</ele>
        <time>2013-04-07T09:01:15Z</time>
      </trkpt>
      <trkpt lat="45.9523182" lon="4.6303481">
        <ele>364.9600000</ele>
        <time>2013-04-07T09:01:16Z</time>
      </trkpt>
      <trkpt lat="45.9522777" lon="4.6302895">
        <ele>364.9600000</ele>
        <time>2013-04-07T09:01:17Z</time>
      </trkpt>
      <trkpt lat="45.9522294" lon="4.6302424">
        <ele>365.4400000</ele>
        <time>2013-04-07T09:01:18Z</time>
      </trkpt>
      <trkpt lat="45.9521756" lon="4.6301988">
        <ele>364.4800000</ele>
        <time>2013-04-07T09:01:19Z</time>
      </trkpt>
      <trkpt lat="45.9518115" lon="4.6299140">
        <ele>362.0700000</ele>
        <time>2013-04-07T09:01:25Z</time>
      </trkpt>
      <trkpt lat="45.9516110" lon="4.6297638">
        <ele>360.1500000</ele>
        <time>2013-04-07T09:01:28Z</time>
      </trkpt>
      <trkpt lat="45.9514233" lon="4.6295931">
        <ele>359.6700000</ele>
        <time>2013-04-07T09:01:35Z</time>
      </trkpt>
      <trkpt lat="45.9512950" lon="4.6293913">
        <ele>357.2700000</ele>
        <time>2013-04-07T09:01:42Z</time>
      </trkpt>
      <trkpt lat="45.9512776" lon="4.6293216">
        <ele>355.3400000</ele>
        <time>2013-04-07T09:01:43Z</time>
      </trkpt>
      <trkpt lat="45.9512624" lon="4.6292246">
        <ele>353.4200000</ele>
        <time>2013-04-07T09:01:44Z</time>
      </trkpt>
      <trkpt lat="45.9512541" lon="4.6291072">
        <ele>351.5000000</ele>
        <time>2013-04-07T09:01:45Z</time>
      </trkpt>
      <trkpt lat="45.9512484" lon="4.6289758">
        <ele>349.5800000</ele>
        <time>2013-04-07T09:01:46Z</time>
      </trkpt>
      <trkpt lat="45.9512246" lon="4.6287134">
        <ele>345.7300000</ele>
        <time>2013-04-07T09:01:48Z</time>
      </trkpt>
      <trkpt lat="45.9511994" lon="4.6285855">
        <ele>344.7700000</ele>
        <time>2013-04-07T09:01:49Z</time>
      </trkpt>
      <trkpt lat="45.9511703" lon="4.6284699">
        <ele>343.3300000</ele>
        <time>2013-04-07T09:01:50Z</time>
      </trkpt>
      <trkpt lat="45.9511248" lon="4.6282429">
        <ele>340.4400000</ele>
        <time>2013-04-07T09:01:52Z</time>
      </trkpt>
      <trkpt lat="45.9511179" lon="4.6281132">
        <ele>338.5200000</ele>
        <time>2013-04-07T09:01:53Z</time>
      </trkpt>
      <trkpt lat="45.9511009" lon="4.6278252">
        <ele>335.6400000</ele>
        <time>2013-04-07T09:01:55Z</time>
      </trkpt>
      <trkpt lat="45.9510782" lon="4.6276744">
        <ele>334.6800000</ele>
        <time>2013-04-07T09:01:56Z</time>
      </trkpt>
      <trkpt lat="45.9510262" lon="4.6272224">
        <ele>332.2700000</ele>
        <time>2013-04-07T09:01:59Z</time>
      </trkpt>
      <trkpt lat="45.9510313" lon="4.6270789">
        <ele>332.2700000</ele>
        <time>2013-04-07T09:02:00Z</time>
      </trkpt>
      <trkpt lat="45.9510505" lon="4.6269402">
        <ele>331.7900000</ele>
        <time>2013-04-07T09:02:01Z</time>
      </trkpt>
      <trkpt lat="45.9510719" lon="4.6268065">
        <ele>331.3100000</ele>
        <time>2013-04-07T09:02:02Z</time>
      </trkpt>
      <trkpt lat="45.9510943" lon="4.6266790">
        <ele>331.3100000</ele>
        <time>2013-04-07T09:02:03Z</time>
      </trkpt>
      <trkpt lat="45.9511217" lon="4.6265704">
        <ele>331.7900000</ele>
        <time>2013-04-07T09:02:04Z</time>
      </trkpt>
      <trkpt lat="45.9511490" lon="4.6264906">
        <ele>331.7900000</ele>
        <time>2013-04-07T09:02:05Z</time>
      </trkpt>
      <trkpt lat="45.9511796" lon="4.6264414">
        <ele>332.2700000</ele>
        <time>2013-04-07T09:02:06Z</time>
      </trkpt>
      <trkpt lat="45.9512127" lon="4.6264160">
        <ele>332.7500000</ele>
        <time>2013-04-07T09:02:07Z</time>
      </trkpt>
      <trkpt lat="45.9512541" lon="4.6264123">
        <ele>332.2700000</ele>
        <time>2013-04-07T09:02:08Z</time>
      </trkpt>
      <trkpt lat="45.9513019" lon="4.6264155">
        <ele>331.3100000</ele>
        <time>2013-04-07T09:02:09Z</time>
      </trkpt>
      <trkpt lat="45.9514188" lon="4.6264002">
        <ele>334.2000000</ele>
        <time>2013-04-07T09:02:13Z</time>
      </trkpt>
      <trkpt lat="45.9515063" lon="4.6263532">
        <ele>335.1600000</ele>
        <time>2013-04-07T09:02:17Z</time>
      </trkpt>
      <trkpt lat="45.9515180" lon="4.6263319">
        <ele>335.6400000</ele>
        <time>2013-04-07T09:02:18Z</time>
      </trkpt>
      <trkpt lat="45.9515333" lon="4.6263122">
        <ele>336.1200000</ele>
        <time>2013-04-07T09:02:19Z</time>
      </trkpt>
      <trkpt lat="45.9515492" lon="4.6262925">
        <ele>336.1200000</ele>
        <time>2013-04-07T09:02:20Z</time>
      </trkpt>
      <trkpt lat="45.9515619" lon="4.6262702">
        <ele>336.1200000</ele>
        <time>2013-04-07T09:02:21Z</time>
      </trkpt>
      <trkpt lat="45.9515734" lon="4.6262485">
        <ele>337.0800000</ele>
        <time>2013-04-07T09:02:22Z</time>
      </trkpt>
      <trkpt lat="45.9517468" lon="4.6259675">
        <ele>339.4800000</ele>
        <time>2013-04-07T09:02:35Z</time>
      </trkpt>
      <trkpt lat="45.9518639" lon="4.6256519">
        <ele>335.6400000</ele>
        <time>2013-04-07T09:02:47Z</time>
      </trkpt>
      <trkpt lat="45.9518690" lon="4.6256274">
        <ele>342.3700000</ele>
        <time>2013-04-07T09:02:48Z</time>
      </trkpt>
      <trkpt lat="45.9518716" lon="4.6256005">
        <ele>341.4100000</ele>
        <time>2013-04-07T09:02:49Z</time>
      </trkpt>
      <trkpt lat="45.9518740" lon="4.6255744">
        <ele>337.5600000</ele>
        <time>2013-04-07T09:02:50Z</time>
      </trkpt>
      <trkpt lat="45.9518798" lon="4.6255499">
        <ele>340.9200000</ele>
        <time>2013-04-07T09:02:51Z</time>
      </trkpt>
      <trkpt lat="45.9518975" lon="4.6254849">
        <ele>343.3300000</ele>
        <time>2013-04-07T09:02:54Z</time>
      </trkpt>
      <trkpt lat="45.9518952" lon="4.6254639">
        <ele>343.3300000</ele>
        <time>2013-04-07T09:02:55Z</time>
      </trkpt>
      <trkpt lat="45.9518913" lon="4.6254440">
        <ele>343.8100000</ele>
        <time>2013-04-07T09:02:56Z</time>
      </trkpt>
      <trkpt lat="45.9518936" lon="4.6254209">
        <ele>343.3300000</ele>
        <time>2013-04-07T09:02:57Z</time>
      </trkpt>
      <trkpt lat="45.9518972" lon="4.6253990">
        <ele>343.8100000</ele>
        <time>2013-04-07T09:02:58Z</time>
      </trkpt>
      <trkpt lat="45.9519022" lon="4.6253787">
        <ele>344.2900000</ele>
        <time>2013-04-07T09:02:59Z</time>
      </trkpt>
      <trkpt lat="45.9519072" lon="4.6253546">
        <ele>344.2900000</ele>
        <time>2013-04-07T09:03:00Z</time>
      </trkpt>
      <trkpt lat="45.9519094" lon="4.6253312">
        <ele>344.2900000</ele>
        <time>2013-04-07T09:03:01Z</time>
      </trkpt>
      <trkpt lat="45.9519113" lon="4.6253102">
        <ele>344.7700000</ele>
        <time>2013-04-07T09:03:02Z</time>
      </trkpt>
      <trkpt lat="45.9519147" lon="4.6252897">
        <ele>345.7300000</ele>
        <time>2013-04-07T09:03:03Z</time>
      </trkpt>
      <trkpt lat="45.9519160" lon="4.6252682">
        <ele>345.7300000</ele>
        <time>2013-04-07T09:03:04Z</time>
      </trkpt>
      <trkpt lat="45.9519177" lon="4.6252467">
        <ele>345.7300000</ele>
        <time>2013-04-07T09:03:05Z</time>
      </trkpt>
      <trkpt lat="45.9519218" lon="4.6252271">
        <ele>346.2100000</ele>
        <time>2013-04-07T09:03:06Z</time>
      </trkpt>
      <trkpt lat="45.9519234" lon="4.6252064">
        <ele>346.2100000</ele>
        <time>2013-04-07T09:03:07Z</time>
      </trkpt>
      <trkpt lat="45.9519237" lon="4.6251865">
        <ele>346.6900000</ele>
        <time>2013-04-07T09:03:08Z</time>
      </trkpt>
      <trkpt lat="45.9519441" lon="4.6250976">
        <ele>348.1300000</ele>
        <time>2013-04-07T09:03:13Z</time>
      </trkpt>
      <trkpt lat="45.9519442" lon="4.6250747">
        <ele>348.6200000</ele>
        <time>2013-04-07T09:03:14Z</time>
      </trkpt>
      <trkpt lat="45.9519589" lon="4.6249639">
        <ele>350.0600000</ele>
        <time>2013-04-07T09:03:20Z</time>
      </trkpt>
      <trkpt lat="45.9519645" lon="4.6249462">
        <ele>350.0600000</ele>
        <time>2013-04-07T09:03:21Z</time>
      </trkpt>
      <trkpt lat="45.9519679" lon="4.6249288">
        <ele>350.5400000</ele>
        <time>2013-04-07T09:03:22Z</time>
      </trkpt>
      <trkpt lat="45.9519718" lon="4.6249129">
        <ele>351.0200000</ele>
        <time>2013-04-07T09:03:23Z</time>
      </trkpt>
      <trkpt lat="45.9519742" lon="4.6248946">
        <ele>351.0200000</ele>
        <time>2013-04-07T09:03:24Z</time>
      </trkpt>
      <trkpt lat="45.9519773" lon="4.6248754">
        <ele>351.5000000</ele>
        <time>2013-04-07T09:03:25Z</time>
      </trkpt>
      <trkpt lat="45.9519796" lon="4.6248571">
        <ele>351.5000000</ele>
        <time>2013-04-07T09:03:26Z</time>
      </trkpt>
      <trkpt lat="45.9519800" lon="4.6248375">
        <ele>351.9800000</ele>
        <time>2013-04-07T09:03:27Z</time>
      </trkpt>
      <trkpt lat="45.9519824" lon="4.6248200">
        <ele>352.4600000</ele>
        <time>2013-04-07T09:03:28Z</time>
      </trkpt>
      <trkpt lat="45.9519855" lon="4.6248012">
        <ele>352.9400000</ele>
        <time>2013-04-07T09:03:29Z</time>
      </trkpt>
      <trkpt lat="45.9520197" lon="4.6246171">
        <ele>355.3400000</ele>
        <time>2013-04-07T09:03:40Z</time>
      </trkpt>
      <trkpt lat="45.9520233" lon="4.6245693">
        <ele>355.8300000</ele>
        <time>2013-04-07T09:03:43Z</time>
      </trkpt>
      <trkpt lat="45.9520268" lon="4.6245497">
        <ele>355.8300000</ele>
        <time>2013-04-07T09:03:44Z</time>
      </trkpt>
      <trkpt lat="45.9520513" lon="4.6244028">
        <ele>357.2700000</ele>
        <time>2013-04-07T09:03:53Z</time>
      </trkpt>
      <trkpt lat="45.9520537" lon="4.6243886">
        <ele>357.7500000</ele>
        <time>2013-04-07T09:03:54Z</time>
      </trkpt>
      <trkpt lat="45.9520590" lon="4.6243736">
        <ele>357.7500000</ele>
        <time>2013-04-07T09:03:55Z</time>
      </trkpt>
      <trkpt lat="45.9520904" lon="4.6242990">
        <ele>358.7100000</ele>
        <time>2013-04-07T09:04:02Z</time>
      </trkpt>
      <trkpt lat="45.9521088" lon="4.6242981">
        <ele>357.7500000</ele>
        <time>2013-04-07T09:04:03Z</time>
      </trkpt>
      <trkpt lat="45.9524711" lon="4.6241853">
        <ele>355.8300000</ele>
        <time>2013-04-07T09:04:14Z</time>
      </trkpt>
      <trkpt lat="45.9529549" lon="4.6237601">
        <ele>355.8300000</ele>
        <time>2013-04-07T09:04:28Z</time>
      </trkpt>
      <trkpt lat="45.9532379" lon="4.6234010">
        <ele>357.2700000</ele>
        <time>2013-04-07T09:04:39Z</time>
      </trkpt>
      <trkpt lat="45.9535234" lon="4.6230304">
        <ele>356.7900000</ele>
        <time>2013-04-07T09:04:51Z</time>
      </trkpt>
      <trkpt lat="45.9537927" lon="4.6226789">
        <ele>356.7900000</ele>
        <time>2013-04-07T09:05:01Z</time>
      </trkpt>
      <trkpt lat="45.9541680" lon="4.6222940">
        <ele>356.7900000</ele>
        <time>2013-04-07T09:05:13Z</time>
      </trkpt>
      <trkpt lat="45.9542376" lon="4.6222479">
        <ele>357.2700000</ele>
        <time>2013-04-07T09:05:19Z</time>
      </trkpt>
      <trkpt lat="45.9542686" lon="4.6221975">
        <ele>357.2700000</ele>
        <time>2013-04-07T09:05:27Z</time>
      </trkpt>
      <trkpt lat="45.9543026" lon="4.6222022">
        <ele>357.7500000</ele>
        <time>2013-04-07T09:05:33Z</time>
      </trkpt>
      <trkpt lat="45.9543231" lon="4.6222111">
        <ele>356.7900000</ele>
        <time>2013-04-07T09:05:34Z</time>
      </trkpt>
      <trkpt lat="45.9543562" lon="4.6222302">
        <ele>355.8300000</ele>
        <time>2013-04-07T09:05:35Z</time>
      </trkpt>
      <trkpt lat="45.9544673" lon="4.6222752">
        <ele>352.4600000</ele>
        <time>2013-04-07T09:05:37Z</time>
      </trkpt>
      <trkpt lat="45.9546021" lon="4.6223215">
        <ele>349.1000000</ele>
        <time>2013-04-07T09:05:39Z</time>
      </trkpt>
      <trkpt lat="45.9546512" lon="4.6223412">
        <ele>348.6200000</ele>
        <time>2013-04-07T09:05:40Z</time>
      </trkpt>
      <trkpt lat="45.9546835" lon="4.6223624">
        <ele>348.1300000</ele>
        <time>2013-04-07T09:05:46Z</time>
      </trkpt>
      <trkpt lat="45.9547478" lon="4.6223831">
        <ele>347.6500000</ele>
        <time>2013-04-07T09:05:57Z</time>
      </trkpt>
      <trkpt lat="45.9547647" lon="4.6223901">
        <ele>348.1300000</ele>
        <time>2013-04-07T09:05:59Z</time>
      </trkpt>
      <trkpt lat="45.9549200" lon="4.6224191">
        <ele>347.6500000</ele>
        <time>2013-04-07T09:06:09Z</time>
      </trkpt>
      <trkpt lat="45.9550383" lon="4.6224163">
        <ele>348.6200000</ele>
        <time>2013-04-07T09:06:14Z</time>
      </trkpt>
      <trkpt lat="45.9550589" lon="4.6224385">
        <ele>349.1000000</ele>
        <time>2013-04-07T09:06:15Z</time>
      </trkpt>
      <trkpt lat="45.9551628" lon="4.6226035">
        <ele>349.5800000</ele>
        <time>2013-04-07T09:06:21Z</time>
      </trkpt>
      <trkpt lat="45.9551727" lon="4.6226230">
        <ele>350.0600000</ele>
        <time>2013-04-07T09:06:22Z</time>
      </trkpt>
      <trkpt lat="45.9552363" lon="4.6227270">
        <ele>352.4600000</ele>
        <time>2013-04-07T09:06:28Z</time>
      </trkpt>
      <trkpt lat="45.9552868" lon="4.6227791">
        <ele>352.9400000</ele>
        <time>2013-04-07T09:06:32Z</time>
      </trkpt>
      <trkpt lat="45.9553029" lon="4.6227753">
        <ele>353.4200000</ele>
        <time>2013-04-07T09:06:33Z</time>
      </trkpt>
      <trkpt lat="45.9553164" lon="4.6227634">
        <ele>353.4200000</ele>
        <time>2013-04-07T09:06:34Z</time>
      </trkpt>
      <trkpt lat="45.9553259" lon="4.6227354">
        <ele>353.4200000</ele>
        <time>2013-04-07T09:06:36Z</time>
      </trkpt>
      <trkpt lat="45.9553335" lon="4.6227083">
        <ele>353.4200000</ele>
        <time>2013-04-07T09:06:38Z</time>
      </trkpt>
      <trkpt lat="45.9553390" lon="4.6226961">
        <ele>353.4200000</ele>
        <time>2013-04-07T09:06:39Z</time>
      </trkpt>
      <trkpt lat="45.9553415" lon="4.6226792">
        <ele>353.9000000</ele>
        <time>2013-04-07T09:06:40Z</time>
      </trkpt>
      <trkpt lat="45.9553427" lon="4.6226585">
        <ele>354.3800000</ele>
        <time>2013-04-07T09:06:41Z</time>
      </trkpt>
      <trkpt lat="45.9553411" lon="4.6226387">
        <ele>354.3800000</ele>
        <time>2013-04-07T09:06:42Z</time>
      </trkpt>
      <trkpt lat="45.9553391" lon="4.6226195">
        <ele>354.3800000</ele>
        <time>2013-04-07T09:06:43Z</time>
      </trkpt>
      <trkpt lat="45.9553373" lon="4.6226021">
        <ele>354.8600000</ele>
        <time>2013-04-07T09:06:44Z</time>
      </trkpt>
      <trkpt lat="45.9553327" lon="4.6225851">
        <ele>354.8600000</ele>
        <time>2013-04-07T09:06:45Z</time>
      </trkpt>
      <trkpt lat="45.9553268" lon="4.6225681">
        <ele>354.8600000</ele>
        <time>2013-04-07T09:06:46Z</time>
      </trkpt>
      <trkpt lat="45.9553257" lon="4.6225472">
        <ele>355.3400000</ele>
        <time>2013-04-07T09:06:47Z</time>
      </trkpt>
      <trkpt lat="45.9553293" lon="4.6225308">
        <ele>355.8300000</ele>
        <time>2013-04-07T09:06:48Z</time>
      </trkpt>
      <trkpt lat="45.9553382" lon="4.6224678">
        <ele>356.3100000</ele>
        <time>2013-04-07T09:06:52Z</time>
      </trkpt>
      <trkpt lat="45.9553352" lon="4.6223819">
        <ele>357.7500000</ele>
        <time>2013-04-07T09:06:57Z</time>
      </trkpt>
      <trkpt lat="45.9553341" lon="4.6223663">
        <ele>357.7500000</ele>
        <time>2013-04-07T09:06:58Z</time>
      </trkpt>
      <trkpt lat="45.9553301" lon="4.6223473">
        <ele>358.2300000</ele>
        <time>2013-04-07T09:06:59Z</time>
      </trkpt>
      <trkpt lat="45.9553300" lon="4.6223289">
        <ele>358.7100000</ele>
        <time>2013-04-07T09:07:00Z</time>
      </trkpt>
      <trkpt lat="45.9553337" lon="4.6223132">
        <ele>358.7100000</ele>
        <time>2013-04-07T09:07:01Z</time>
      </trkpt>
      <trkpt lat="45.9553380" lon="4.6222986">
        <ele>359.1900000</ele>
        <time>2013-04-07T09:07:02Z</time>
      </trkpt>
      <trkpt lat="45.9553411" lon="4.6222702">
        <ele>359.6700000</ele>
        <time>2013-04-07T09:07:04Z</time>
      </trkpt>
      <trkpt lat="45.9553308" lon="4.6220011">
        <ele>362.5500000</ele>
        <time>2013-04-07T09:07:19Z</time>
      </trkpt>
      <trkpt lat="45.9553385" lon="4.6219129">
        <ele>363.5200000</ele>
        <time>2013-04-07T09:07:24Z</time>
      </trkpt>
      <trkpt lat="45.9553411" lon="4.6218970">
        <ele>364.0000000</ele>
        <time>2013-04-07T09:07:25Z</time>
      </trkpt>
      <trkpt lat="45.9553443" lon="4.6218175">
        <ele>364.4800000</ele>
        <time>2013-04-07T09:07:29Z</time>
      </trkpt>
      <trkpt lat="45.9553466" lon="4.6217996">
        <ele>364.4800000</ele>
        <time>2013-04-07T09:07:30Z</time>
      </trkpt>
      <trkpt lat="45.9553474" lon="4.6217822">
        <ele>364.4800000</ele>
        <time>2013-04-07T09:07:31Z</time>
      </trkpt>
      <trkpt lat="45.9553535" lon="4.6217343">
        <ele>364.9600000</ele>
        <time>2013-04-07T09:07:34Z</time>
      </trkpt>
      <trkpt lat="45.9553511" lon="4.6217171">
        <ele>365.4400000</ele>
        <time>2013-04-07T09:07:35Z</time>
      </trkpt>
      <trkpt lat="45.9553515" lon="4.6217004">
        <ele>365.9200000</ele>
        <time>2013-04-07T09:07:36Z</time>
      </trkpt>
      <trkpt lat="45.9553666" lon="4.6215569">
        <ele>367.3600000</ele>
        <time>2013-04-07T09:07:44Z</time>
      </trkpt>
      <trkpt lat="45.9553716" lon="4.6215395">
        <ele>367.8400000</ele>
        <time>2013-04-07T09:07:45Z</time>
      </trkpt>
      <trkpt lat="45.9553719" lon="4.6215210">
        <ele>367.8400000</ele>
        <time>2013-04-07T09:07:46Z</time>
      </trkpt>
      <trkpt lat="45.9553723" lon="4.6215053">
        <ele>367.8400000</ele>
        <time>2013-04-07T09:07:47Z</time>
      </trkpt>
      <trkpt lat="45.9553749" lon="4.6214904">
        <ele>368.3200000</ele>
        <time>2013-04-07T09:07:48Z</time>
      </trkpt>
      <trkpt lat="45.9553869" lon="4.6214072">
        <ele>368.8000000</ele>
        <time>2013-04-07T09:07:53Z</time>
      </trkpt>
      <trkpt lat="45.9553894" lon="4.6213912">
        <ele>369.2800000</ele>
        <time>2013-04-07T09:07:54Z</time>
      </trkpt>
      <trkpt lat="45.9553904" lon="4.6213765">
        <ele>369.2800000</ele>
        <time>2013-04-07T09:07:55Z</time>
      </trkpt>
      <trkpt lat="45.9554228" lon="4.6211370">
        <ele>372.1700000</ele>
        <time>2013-04-07T09:08:09Z</time>
      </trkpt>
      <trkpt lat="45.9554376" lon="4.6209537">
        <ele>374.5700000</ele>
        <time>2013-04-07T09:08:20Z</time>
      </trkpt>
      <trkpt lat="45.9554358" lon="4.6209345">
        <ele>374.5700000</ele>
        <time>2013-04-07T09:08:21Z</time>
      </trkpt>
      <trkpt lat="45.9554355" lon="4.6209173">
        <ele>374.5700000</ele>
        <time>2013-04-07T09:08:22Z</time>
      </trkpt>
      <trkpt lat="45.9554362" lon="4.6209001">
        <ele>375.0500000</ele>
        <time>2013-04-07T09:08:23Z</time>
      </trkpt>
      <trkpt lat="45.9554401" lon="4.6208713">
        <ele>376.0100000</ele>
        <time>2013-04-07T09:08:25Z</time>
      </trkpt>
      <trkpt lat="45.9554456" lon="4.6208565">
        <ele>376.0100000</ele>
        <time>2013-04-07T09:08:26Z</time>
      </trkpt>
      <trkpt lat="45.9554767" lon="4.6206309">
        <ele>378.4200000</ele>
        <time>2013-04-07T09:08:39Z</time>
      </trkpt>
      <trkpt lat="45.9554810" lon="4.6206159">
        <ele>378.4200000</ele>
        <time>2013-04-07T09:08:40Z</time>
      </trkpt>
      <trkpt lat="45.9554824" lon="4.6206014">
        <ele>379.3800000</ele>
        <time>2013-04-07T09:08:41Z</time>
      </trkpt>
      <trkpt lat="45.9554799" lon="4.6205838">
        <ele>378.9000000</ele>
        <time>2013-04-07T09:08:42Z</time>
      </trkpt>
      <trkpt lat="45.9554837" lon="4.6205662">
        <ele>379.3800000</ele>
        <time>2013-04-07T09:08:43Z</time>
      </trkpt>
      <trkpt lat="45.9554900" lon="4.6205506">
        <ele>379.8600000</ele>
        <time>2013-04-07T09:08:44Z</time>
      </trkpt>
      <trkpt lat="45.9554944" lon="4.6205348">
        <ele>380.3400000</ele>
        <time>2013-04-07T09:08:45Z</time>
      </trkpt>
      <trkpt lat="45.9554977" lon="4.6205183">
        <ele>380.8200000</ele>
        <time>2013-04-07T09:08:46Z</time>
      </trkpt>
      <trkpt lat="45.9555070" lon="4.6205014">
        <ele>380.3400000</ele>
        <time>2013-04-07T09:08:47Z</time>
      </trkpt>
      <trkpt lat="45.9555149" lon="4.6204874">
        <ele>380.8200000</ele>
        <time>2013-04-07T09:08:48Z</time>
      </trkpt>
      <trkpt lat="45.9555424" lon="4.6204418">
        <ele>382.2600000</ele>
        <time>2013-04-07T09:08:52Z</time>
      </trkpt>
      <trkpt lat="45.9555488" lon="4.6204277">
        <ele>382.2600000</ele>
        <time>2013-04-07T09:08:53Z</time>
      </trkpt>
      <trkpt lat="45.9555588" lon="4.6204183">
        <ele>382.2600000</ele>
        <time>2013-04-07T09:08:54Z</time>
      </trkpt>
      <trkpt lat="45.9555665" lon="4.6204082">
        <ele>382.2600000</ele>
        <time>2013-04-07T09:08:55Z</time>
      </trkpt>
      <trkpt lat="45.9555722" lon="4.6203948">
        <ele>382.2600000</ele>
        <time>2013-04-07T09:08:56Z</time>
      </trkpt>
      <trkpt lat="45.9555766" lon="4.6203785">
        <ele>383.2200000</ele>
        <time>2013-04-07T09:08:57Z</time>
      </trkpt>
      <trkpt lat="45.9555798" lon="4.6203610">
        <ele>382.7400000</ele>
        <time>2013-04-07T09:08:58Z</time>
      </trkpt>
      <trkpt lat="45.9556387" lon="4.6202475">
        <ele>384.1800000</ele>
        <time>2013-04-07T09:09:07Z</time>
      </trkpt>
      <trkpt lat="45.9557230" lon="4.6201466">
        <ele>387.0700000</ele>
        <time>2013-04-07T09:09:17Z</time>
      </trkpt>
      <trkpt lat="45.9557314" lon="4.6201329">
        <ele>387.0700000</ele>
        <time>2013-04-07T09:09:18Z</time>
      </trkpt>
      <trkpt lat="45.9557405" lon="4.6201208">
        <ele>386.5900000</ele>
        <time>2013-04-07T09:09:19Z</time>
      </trkpt>
      <trkpt lat="45.9557463" lon="4.6201056">
        <ele>387.5500000</ele>
        <time>2013-04-07T09:09:20Z</time>
      </trkpt>
      <trkpt lat="45.9557983" lon="4.6199750">
        <ele>389.9500000</ele>
        <time>2013-04-07T09:09:30Z</time>
      </trkpt>
      <trkpt lat="45.9558017" lon="4.6199591">
        <ele>389.9500000</ele>
        <time>2013-04-07T09:09:31Z</time>
      </trkpt>
      <trkpt lat="45.9558017" lon="4.6199432">
        <ele>389.4700000</ele>
        <time>2013-04-07T09:09:32Z</time>
      </trkpt>
      <trkpt lat="45.9558028" lon="4.6199254">
        <ele>389.9500000</ele>
        <time>2013-04-07T09:09:33Z</time>
      </trkpt>
      <trkpt lat="45.9558069" lon="4.6199081">
        <ele>389.9500000</ele>
        <time>2013-04-07T09:09:34Z</time>
      </trkpt>
      <trkpt lat="45.9558094" lon="4.6198050">
        <ele>391.3900000</ele>
        <time>2013-04-07T09:09:40Z</time>
      </trkpt>
      <trkpt lat="45.9558113" lon="4.6196998">
        <ele>392.8400000</ele>
        <time>2013-04-07T09:09:47Z</time>
      </trkpt>
      <trkpt lat="45.9558103" lon="4.6196829">
        <ele>392.8400000</ele>
        <time>2013-04-07T09:09:48Z</time>
      </trkpt>
      <trkpt lat="45.9558103" lon="4.6196667">
        <ele>393.3200000</ele>
        <time>2013-04-07T09:09:49Z</time>
      </trkpt>
      <trkpt lat="45.9558100" lon="4.6196506">
        <ele>393.3200000</ele>
        <time>2013-04-07T09:09:50Z</time>
      </trkpt>
      <trkpt lat="45.9558097" lon="4.6196353">
        <ele>393.3200000</ele>
        <time>2013-04-07T09:09:51Z</time>
      </trkpt>
      <trkpt lat="45.9558104" lon="4.6196217">
        <ele>393.8000000</ele>
        <time>2013-04-07T09:09:52Z</time>
      </trkpt>
      <trkpt lat="45.9558338" lon="4.6193821">
        <ele>396.6800000</ele>
        <time>2013-04-07T09:10:07Z</time>
      </trkpt>
      <trkpt lat="45.9558360" lon="4.6193672">
        <ele>396.6800000</ele>
        <time>2013-04-07T09:10:08Z</time>
      </trkpt>
      <trkpt lat="45.9558382" lon="4.6193522">
        <ele>397.1600000</ele>
        <time>2013-04-07T09:10:09Z</time>
      </trkpt>
      <trkpt lat="45.9558424" lon="4.6193367">
        <ele>397.1600000</ele>
        <time>2013-04-07T09:10:10Z</time>
      </trkpt>
      <trkpt lat="45.9558816" lon="4.6192404">
        <ele>398.1200000</ele>
        <time>2013-04-07T09:10:17Z</time>
      </trkpt>
      <trkpt lat="45.9558846" lon="4.6192233">
        <ele>398.1200000</ele>
        <time>2013-04-07T09:10:18Z</time>
      </trkpt>
      <trkpt lat="45.9558853" lon="4.6192070">
        <ele>398.6000000</ele>
        <time>2013-04-07T09:10:19Z</time>
      </trkpt>
      <trkpt lat="45.9558873" lon="4.6191894">
        <ele>398.6000000</ele>
        <time>2013-04-07T09:10:20Z</time>
      </trkpt>
      <trkpt lat="45.9558919" lon="4.6191730">
        <ele>398.6000000</ele>
        <time>2013-04-07T09:10:21Z</time>
      </trkpt>
      <trkpt lat="45.9559111" lon="4.6190820">
        <ele>399.0800000</ele>
        <time>2013-04-07T09:10:26Z</time>
      </trkpt>
      <trkpt lat="45.9559137" lon="4.6190658">
        <ele>399.5700000</ele>
        <time>2013-04-07T09:10:27Z</time>
      </trkpt>
      <trkpt lat="45.9559166" lon="4.6190482">
        <ele>400.0500000</ele>
        <time>2013-04-07T09:10:28Z</time>
      </trkpt>
      <trkpt lat="45.9559171" lon="4.6190293">
        <ele>400.0500000</ele>
        <time>2013-04-07T09:10:29Z</time>
      </trkpt>
      <trkpt lat="45.9559172" lon="4.6190115">
        <ele>400.0500000</ele>
        <time>2013-04-07T09:10:30Z</time>
      </trkpt>
      <trkpt lat="45.9559201" lon="4.6189958">
        <ele>400.0500000</ele>
        <time>2013-04-07T09:10:31Z</time>
      </trkpt>
      <trkpt lat="45.9559209" lon="4.6189374">
        <ele>400.5300000</ele>
        <time>2013-04-07T09:10:35Z</time>
      </trkpt>
      <trkpt lat="45.9559207" lon="4.6189213">
        <ele>401.0100000</ele>
        <time>2013-04-07T09:10:36Z</time>
      </trkpt>
      <trkpt lat="45.9559255" lon="4.6187917">
        <ele>402.4500000</ele>
        <time>2013-04-07T09:10:44Z</time>
      </trkpt>
      <trkpt lat="45.9559266" lon="4.6187746">
        <ele>402.4500000</ele>
        <time>2013-04-07T09:10:45Z</time>
      </trkpt>
      <trkpt lat="45.9559110" lon="4.6186097">
        <ele>404.3700000</ele>
        <time>2013-04-07T09:10:55Z</time>
      </trkpt>
      <trkpt lat="45.9559114" lon="4.6185908">
        <ele>404.8500000</ele>
        <time>2013-04-07T09:10:56Z</time>
      </trkpt>
      <trkpt lat="45.9558929" lon="4.6185098">
        <ele>406.2900000</ele>
        <time>2013-04-07T09:11:02Z</time>
      </trkpt>
      <trkpt lat="45.9558885" lon="4.6184955">
        <ele>405.8100000</ele>
        <time>2013-04-07T09:11:03Z</time>
      </trkpt>
      <trkpt lat="45.9558867" lon="4.6184473">
        <ele>405.8100000</ele>
        <time>2013-04-07T09:11:06Z</time>
      </trkpt>
      <trkpt lat="45.9558872" lon="4.6184298">
        <ele>406.7700000</ele>
        <time>2013-04-07T09:11:07Z</time>
      </trkpt>
      <trkpt lat="45.9558880" lon="4.6184128">
        <ele>407.2600000</ele>
        <time>2013-04-07T09:11:08Z</time>
      </trkpt>
      <trkpt lat="45.9558893" lon="4.6183957">
        <ele>407.2600000</ele>
        <time>2013-04-07T09:11:09Z</time>
      </trkpt>
      <trkpt lat="45.9558896" lon="4.6183768">
        <ele>407.2600000</ele>
        <time>2013-04-07T09:11:10Z</time>
      </trkpt>
      <trkpt lat="45.9558882" lon="4.6183569">
        <ele>407.2600000</ele>
        <time>2013-04-07T09:11:11Z</time>
      </trkpt>
      <trkpt lat="45.9558766" lon="4.6181349">
        <ele>409.6600000</ele>
        <time>2013-04-07T09:11:23Z</time>
      </trkpt>
      <trkpt lat="45.9558789" lon="4.6181213">
        <ele>410.1400000</ele>
        <time>2013-04-07T09:11:24Z</time>
      </trkpt>
      <trkpt lat="45.9558939" lon="4.6179121">
        <ele>412.5400000</ele>
        <time>2013-04-07T09:11:37Z</time>
      </trkpt>
      <trkpt lat="45.9558923" lon="4.6178949">
        <ele>412.5400000</ele>
        <time>2013-04-07T09:11:38Z</time>
      </trkpt>
      <trkpt lat="45.9558927" lon="4.6178764">
        <ele>413.0200000</ele>
        <time>2013-04-07T09:11:39Z</time>
      </trkpt>
      <trkpt lat="45.9558948" lon="4.6178615">
        <ele>412.5400000</ele>
        <time>2013-04-07T09:11:40Z</time>
      </trkpt>
      <trkpt lat="45.9558960" lon="4.6178427">
        <ele>413.0200000</ele>
        <time>2013-04-07T09:11:41Z</time>
      </trkpt>
      <trkpt lat="45.9558950" lon="4.6178220">
        <ele>413.0200000</ele>
        <time>2013-04-07T09:11:42Z</time>
      </trkpt>
      <trkpt lat="45.9558880" lon="4.6176029">
        <ele>415.4300000</ele>
        <time>2013-04-07T09:11:55Z</time>
      </trkpt>
      <trkpt lat="45.9558871" lon="4.6175853">
        <ele>415.4300000</ele>
        <time>2013-04-07T09:11:56Z</time>
      </trkpt>
      <trkpt lat="45.9558844" lon="4.6175677">
        <ele>415.9100000</ele>
        <time>2013-04-07T09:11:57Z</time>
      </trkpt>
      <trkpt lat="45.9558821" lon="4.6175532">
        <ele>415.9100000</ele>
        <time>2013-04-07T09:11:58Z</time>
      </trkpt>
      <trkpt lat="45.9558794" lon="4.6175371">
        <ele>415.9100000</ele>
        <time>2013-04-07T09:11:59Z</time>
      </trkpt>
      <trkpt lat="45.9558762" lon="4.6175200">
        <ele>416.3900000</ele>
        <time>2013-04-07T09:12:00Z</time>
      </trkpt>
      <trkpt lat="45.9558753" lon="4.6175050">
        <ele>416.8700000</ele>
        <time>2013-04-07T09:12:01Z</time>
      </trkpt>
      <trkpt lat="45.9558722" lon="4.6174876">
        <ele>416.3900000</ele>
        <time>2013-04-07T09:12:02Z</time>
      </trkpt>
      <trkpt lat="45.9558710" lon="4.6174694">
        <ele>416.8700000</ele>
        <time>2013-04-07T09:12:03Z</time>
      </trkpt>
      <trkpt lat="45.9558711" lon="4.6174510">
        <ele>417.3500000</ele>
        <time>2013-04-07T09:12:04Z</time>
      </trkpt>
      <trkpt lat="45.9558704" lon="4.6174332">
        <ele>417.3500000</ele>
        <time>2013-04-07T09:12:05Z</time>
      </trkpt>
      <trkpt lat="45.9558696" lon="4.6174146">
        <ele>417.3500000</ele>
        <time>2013-04-07T09:12:06Z</time>
      </trkpt>
      <trkpt lat="45.9558711" lon="4.6174005">
        <ele>417.8300000</ele>
        <time>2013-04-07T09:12:07Z</time>
      </trkpt>
      <trkpt lat="45.9558712" lon="4.6173838">
        <ele>417.8300000</ele>
        <time>2013-04-07T09:12:08Z</time>
      </trkpt>
      <trkpt lat="45.9558723" lon="4.6173677">
        <ele>417.8300000</ele>
        <time>2013-04-07T09:12:09Z</time>
      </trkpt>
      <trkpt lat="45.9558705" lon="4.6173508">
        <ele>418.7900000</ele>
        <time>2013-04-07T09:12:10Z</time>
      </trkpt>
      <trkpt lat="45.9558674" lon="4.6173354">
        <ele>418.7900000</ele>
        <time>2013-04-07T09:12:11Z</time>
      </trkpt>
      <trkpt lat="45.9558623" lon="4.6173183">
        <ele>418.7900000</ele>
        <time>2013-04-07T09:12:12Z</time>
      </trkpt>
      <trkpt lat="45.9558525" lon="4.6172626">
        <ele>418.7900000</ele>
        <time>2013-04-07T09:12:15Z</time>
      </trkpt>
      <trkpt lat="45.9558511" lon="4.6172429">
        <ele>419.7500000</ele>
        <time>2013-04-07T09:12:16Z</time>
      </trkpt>
      <trkpt lat="45.9558494" lon="4.6172231">
        <ele>419.7500000</ele>
        <time>2013-04-07T09:12:17Z</time>
      </trkpt>
      <trkpt lat="45.9558043" lon="4.6169994">
        <ele>422.6400000</ele>
        <time>2013-04-07T09:12:32Z</time>
      </trkpt>
      <trkpt lat="45.9557634" lon="4.6167479">
        <ele>425.0400000</ele>
        <time>2013-04-07T09:12:48Z</time>
      </trkpt>
      <trkpt lat="45.9557247" lon="4.6165314">
        <ele>427.4400000</ele>
        <time>2013-04-07T09:13:03Z</time>
      </trkpt>
      <trkpt lat="45.9556565" lon="4.6162229">
        <ele>429.8500000</ele>
        <time>2013-04-07T09:13:20Z</time>
      </trkpt>
      <trkpt lat="45.9556143" lon="4.6158957">
        <ele>432.7300000</ele>
        <time>2013-04-07T09:13:37Z</time>
      </trkpt>
      <trkpt lat="45.9555636" lon="4.6158254">
        <ele>433.6900000</ele>
        <time>2013-04-07T09:13:46Z</time>
      </trkpt>
      <trkpt lat="45.9555039" lon="4.6157376">
        <ele>435.1300000</ele>
        <time>2013-04-07T09:13:58Z</time>
      </trkpt>
      <trkpt lat="45.9553948" lon="4.6156635">
        <ele>436.5800000</ele>
        <time>2013-04-07T09:14:11Z</time>
      </trkpt>
      <trkpt lat="45.9553834" lon="4.6156656">
        <ele>436.5800000</ele>
        <time>2013-04-07T09:14:24Z</time>
      </trkpt>
      <trkpt lat="45.9553823" lon="4.6156665">
        <ele>431.2900000</ele>
        <time>2013-04-07T09:14:30Z</time>
      </trkpt>
      <trkpt lat="45.9553821" lon="4.6156664">
        <ele>437.0600000</ele>
        <time>2013-04-07T09:14:31Z</time>
      </trkpt>
      <trkpt lat="45.9553819" lon="4.6156661">
        <ele>436.1000000</ele>
        <time>2013-04-07T09:14:32Z</time>
      </trkpt>
      <trkpt lat="45.9553814" lon="4.6156614">
        <ele>434.1700000</ele>
        <time>2013-04-07T09:14:43Z</time>
      </trkpt>
      <trkpt lat="45.9553756" lon="4.6156693">
        <ele>436.5800000</ele>
        <time>2013-04-07T09:14:46Z</time>
      </trkpt>
      <trkpt lat="45.9553686" lon="4.6156817">
        <ele>437.0600000</ele>
        <time>2013-04-07T09:14:47Z</time>
      </trkpt>
      <trkpt lat="45.9553573" lon="4.6156944">
        <ele>436.5800000</ele>
        <time>2013-04-07T09:14:48Z</time>
      </trkpt>
      <trkpt lat="45.9553465" lon="4.6157117">
        <ele>436.5800000</ele>
        <time>2013-04-07T09:14:49Z</time>
      </trkpt>
      <trkpt lat="45.9553346" lon="4.6157344">
        <ele>437.0600000</ele>
        <time>2013-04-07T09:14:50Z</time>
      </trkpt>
      <trkpt lat="45.9553223" lon="4.6157618">
        <ele>436.5800000</ele>
        <time>2013-04-07T09:14:51Z</time>
      </trkpt>
      <trkpt lat="45.9553096" lon="4.6157891">
        <ele>436.5800000</ele>
        <time>2013-04-07T09:14:52Z</time>
      </trkpt>
      <trkpt lat="45.9552955" lon="4.6158139">
        <ele>437.0600000</ele>
        <time>2013-04-07T09:14:53Z</time>
      </trkpt>
      <trkpt lat="45.9552834" lon="4.6158307">
        <ele>436.5800000</ele>
        <time>2013-04-07T09:14:54Z</time>
      </trkpt>
      <trkpt lat="45.9552800" lon="4.6158462">
        <ele>437.0600000</ele>
        <time>2013-04-07T09:15:00Z</time>
      </trkpt>
      <trkpt lat="45.9552694" lon="4.6158585">
        <ele>436.1000000</ele>
        <time>2013-04-07T09:15:01Z</time>
      </trkpt>
      <trkpt lat="45.9552578" lon="4.6158743">
        <ele>436.5800000</ele>
        <time>2013-04-07T09:15:02Z</time>
      </trkpt>
      <trkpt lat="45.9549353" lon="4.6162374">
        <ele>434.6500000</ele>
        <time>2013-04-07T09:15:13Z</time>
      </trkpt>
      <trkpt lat="45.9547161" lon="4.6164013">
        <ele>433.6900000</ele>
        <time>2013-04-07T09:15:18Z</time>
      </trkpt>
      <trkpt lat="45.9546693" lon="4.6164225">
        <ele>434.1700000</ele>
        <time>2013-04-07T09:15:19Z</time>
      </trkpt>
      <trkpt lat="45.9539905" lon="4.6164281">
        <ele>432.7300000</ele>
        <time>2013-04-07T09:15:31Z</time>
      </trkpt>
      <trkpt lat="45.9535258" lon="4.6163975">
        <ele>432.7300000</ele>
        <time>2013-04-07T09:15:40Z</time>
      </trkpt>
      <trkpt lat="45.9528416" lon="4.6164636">
        <ele>433.6900000</ele>
        <time>2013-04-07T09:15:54Z</time>
      </trkpt>
      <trkpt lat="45.9527999" lon="4.6164801">
        <ele>433.6900000</ele>
        <time>2013-04-07T09:15:55Z</time>
      </trkpt>
      <trkpt lat="45.9527585" lon="4.6164957">
        <ele>433.6900000</ele>
        <time>2013-04-07T09:15:56Z</time>
      </trkpt>
      <trkpt lat="45.9526364" lon="4.6165319">
        <ele>432.7300000</ele>
        <time>2013-04-07T09:15:59Z</time>
      </trkpt>
      <trkpt lat="45.9525929" lon="4.6165690">
        <ele>432.7300000</ele>
        <time>2013-04-07T09:16:00Z</time>
      </trkpt>
      <trkpt lat="45.9524989" lon="4.6166883">
        <ele>430.8100000</ele>
        <time>2013-04-07T09:16:02Z</time>
      </trkpt>
      <trkpt lat="45.9523544" lon="4.6168495">
        <ele>430.3300000</ele>
        <time>2013-04-07T09:16:05Z</time>
      </trkpt>
      <trkpt lat="45.9523201" lon="4.6169118">
        <ele>430.3300000</ele>
        <time>2013-04-07T09:16:06Z</time>
      </trkpt>
      <trkpt lat="45.9522534" lon="4.6170305">
        <ele>430.3300000</ele>
        <time>2013-04-07T09:16:08Z</time>
      </trkpt>
      <trkpt lat="45.9520189" lon="4.6174449">
        <ele>430.3300000</ele>
        <time>2013-04-07T09:16:15Z</time>
      </trkpt>
      <trkpt lat="45.9519930" lon="4.6175157">
        <ele>430.3300000</ele>
        <time>2013-04-07T09:16:16Z</time>
      </trkpt>
      <trkpt lat="45.9519754" lon="4.6175934">
        <ele>430.3300000</ele>
        <time>2013-04-07T09:16:17Z</time>
      </trkpt>
      <trkpt lat="45.9519674" lon="4.6176683">
        <ele>429.8500000</ele>
        <time>2013-04-07T09:16:18Z</time>
      </trkpt>
      <trkpt lat="45.9519571" lon="4.6177382">
        <ele>430.3300000</ele>
        <time>2013-04-07T09:16:19Z</time>
      </trkpt>
      <trkpt lat="45.9519381" lon="4.6177991">
        <ele>429.8500000</ele>
        <time>2013-04-07T09:16:20Z</time>
      </trkpt>
      <trkpt lat="45.9519116" lon="4.6178496">
        <ele>430.3300000</ele>
        <time>2013-04-07T09:16:21Z</time>
      </trkpt>
      <trkpt lat="45.9518865" lon="4.6178955">
        <ele>430.3300000</ele>
        <time>2013-04-07T09:16:22Z</time>
      </trkpt>
      <trkpt lat="45.9518450" lon="4.6179667">
        <ele>430.3300000</ele>
        <time>2013-04-07T09:16:24Z</time>
      </trkpt>
      <trkpt lat="45.9518326" lon="4.6180080">
        <ele>430.3300000</ele>
        <time>2013-04-07T09:16:25Z</time>
      </trkpt>
      <trkpt lat="45.9516926" lon="4.6184410">
        <ele>431.2900000</ele>
        <time>2013-04-07T09:16:35Z</time>
      </trkpt>
      <trkpt lat="45.9516458" lon="4.6185375">
        <ele>431.2900000</ele>
        <time>2013-04-07T09:16:37Z</time>
      </trkpt>
      <trkpt lat="45.9516186" lon="4.6185806">
        <ele>431.2900000</ele>
        <time>2013-04-07T09:16:38Z</time>
      </trkpt>
      <trkpt lat="45.9515873" lon="4.6186207">
        <ele>430.3300000</ele>
        <time>2013-04-07T09:16:39Z</time>
      </trkpt>
      <trkpt lat="45.9515523" lon="4.6186530">
        <ele>430.3300000</ele>
        <time>2013-04-07T09:16:40Z</time>
      </trkpt>
      <trkpt lat="45.9515225" lon="4.6186743">
        <ele>431.2900000</ele>
        <time>2013-04-07T09:16:41Z</time>
      </trkpt>
      <trkpt lat="45.9513282" lon="4.6187842">
        <ele>434.1700000</ele>
        <time>2013-04-07T09:16:53Z</time>
      </trkpt>
      <trkpt lat="45.9512500" lon="4.6188141">
        <ele>435.1300000</ele>
        <time>2013-04-07T09:16:58Z</time>
      </trkpt>
      <trkpt lat="45.9510288" lon="4.6188665">
        <ele>436.5800000</ele>
        <time>2013-04-07T09:17:11Z</time>
      </trkpt>
      <trkpt lat="45.9509811" lon="4.6188540">
        <ele>437.5400000</ele>
        <time>2013-04-07T09:17:15Z</time>
      </trkpt>
      <trkpt lat="45.9509697" lon="4.6188450">
        <ele>437.5400000</ele>
        <time>2013-04-07T09:17:16Z</time>
      </trkpt>
      <trkpt lat="45.9509580" lon="4.6188312">
        <ele>438.0200000</ele>
        <time>2013-04-07T09:17:17Z</time>
      </trkpt>
      <trkpt lat="45.9508968" lon="4.6187078">
        <ele>441.3800000</ele>
        <time>2013-04-07T09:17:26Z</time>
      </trkpt>
      <trkpt lat="45.9508872" lon="4.6186968">
        <ele>440.9000000</ele>
        <time>2013-04-07T09:17:27Z</time>
      </trkpt>
      <trkpt lat="45.9508797" lon="4.6186831">
        <ele>441.3800000</ele>
        <time>2013-04-07T09:17:28Z</time>
      </trkpt>
      <trkpt lat="45.9508501" lon="4.6186032">
        <ele>442.8200000</ele>
        <time>2013-04-07T09:17:33Z</time>
      </trkpt>
      <trkpt lat="45.9508457" lon="4.6185864">
        <ele>443.3100000</ele>
        <time>2013-04-07T09:17:34Z</time>
      </trkpt>
      <trkpt lat="45.9508423" lon="4.6185560">
        <ele>443.3100000</ele>
        <time>2013-04-07T09:17:36Z</time>
      </trkpt>
      <trkpt lat="45.9508421" lon="4.6185413">
        <ele>443.7900000</ele>
        <time>2013-04-07T09:17:37Z</time>
      </trkpt>
      <trkpt lat="45.9508667" lon="4.6183204">
        <ele>447.1500000</ele>
        <time>2013-04-07T09:17:51Z</time>
      </trkpt>
      <trkpt lat="45.9508876" lon="4.6181673">
        <ele>449.0700000</ele>
        <time>2013-04-07T09:18:02Z</time>
      </trkpt>
      <trkpt lat="45.9508742" lon="4.6180782">
        <ele>451.0000000</ele>
        <time>2013-04-07T09:18:09Z</time>
      </trkpt>
      <trkpt lat="45.9508273" lon="4.6179428">
        <ele>453.8800000</ele>
        <time>2013-04-07T09:18:19Z</time>
      </trkpt>
      <trkpt lat="45.9507473" lon="4.6177961">
        <ele>456.7600000</ele>
        <time>2013-04-07T09:18:32Z</time>
      </trkpt>
      <trkpt lat="45.9507565" lon="4.6177640">
        <ele>457.2400000</ele>
        <time>2013-04-07T09:18:36Z</time>
      </trkpt>
      <trkpt lat="45.9508154" lon="4.6177014">
        <ele>457.2400000</ele>
        <time>2013-04-07T09:18:42Z</time>
      </trkpt>
      <trkpt lat="45.9508472" lon="4.6176392">
        <ele>457.7200000</ele>
        <time>2013-04-07T09:18:46Z</time>
      </trkpt>
      <trkpt lat="45.9509418" lon="4.6173414">
        <ele>458.2100000</ele>
        <time>2013-04-07T09:18:57Z</time>
      </trkpt>
      <trkpt lat="45.9509259" lon="4.6172539">
        <ele>459.1700000</ele>
        <time>2013-04-07T09:19:02Z</time>
      </trkpt>
      <trkpt lat="45.9508294" lon="4.6170617">
        <ele>461.0900000</ele>
        <time>2013-04-07T09:19:15Z</time>
      </trkpt>
      <trkpt lat="45.9507036" lon="4.6168833">
        <ele>463.9700000</ele>
        <time>2013-04-07T09:19:31Z</time>
      </trkpt>
      <trkpt lat="45.9506739" lon="4.6168591">
        <ele>464.9300000</ele>
        <time>2013-04-07T09:19:34Z</time>
      </trkpt>
      <trkpt lat="45.9505481" lon="4.6167195">
        <ele>466.3800000</ele>
        <time>2013-04-07T09:19:48Z</time>
      </trkpt>
      <trkpt lat="45.9504853" lon="4.6166529">
        <ele>467.3400000</ele>
        <time>2013-04-07T09:19:54Z</time>
      </trkpt>
      <trkpt lat="45.9503973" lon="4.6165138">
        <ele>470.2200000</ele>
        <time>2013-04-07T09:20:06Z</time>
      </trkpt>
      <trkpt lat="45.9502650" lon="4.6163703">
        <ele>472.1400000</ele>
        <time>2013-04-07T09:20:20Z</time>
      </trkpt>
      <trkpt lat="45.9501539" lon="4.6162287">
        <ele>475.5100000</ele>
        <time>2013-04-07T09:20:33Z</time>
      </trkpt>
      <trkpt lat="45.9501090" lon="4.6161447">
        <ele>476.4700000</ele>
        <time>2013-04-07T09:20:39Z</time>
      </trkpt>
      <trkpt lat="45.9500852" lon="4.6160889">
        <ele>477.9100000</ele>
        <time>2013-04-07T09:20:44Z</time>
      </trkpt>
      <trkpt lat="45.9500272" lon="4.6159545">
        <ele>480.8000000</ele>
        <time>2013-04-07T09:20:54Z</time>
      </trkpt>
      <trkpt lat="45.9500192" lon="4.6159317">
        <ele>480.8000000</ele>
        <time>2013-04-07T09:20:56Z</time>
      </trkpt>
      <trkpt lat="45.9500047" lon="4.6158377">
        <ele>483.2000000</ele>
        <time>2013-04-07T09:21:02Z</time>
      </trkpt>
      <trkpt lat="45.9500035" lon="4.6158151">
        <ele>483.2000000</ele>
        <time>2013-04-07T09:21:04Z</time>
      </trkpt>
      <trkpt lat="45.9499687" lon="4.6157651">
        <ele>484.6400000</ele>
        <time>2013-04-07T09:21:08Z</time>
      </trkpt>
      <trkpt lat="45.9498922" lon="4.6155933">
        <ele>488.0100000</ele>
        <time>2013-04-07T09:21:22Z</time>
      </trkpt>
      <trkpt lat="45.9498736" lon="4.6155585">
        <ele>488.9700000</ele>
        <time>2013-04-07T09:21:26Z</time>
      </trkpt>
      <trkpt lat="45.9498324" lon="4.6153986">
        <ele>492.3300000</ele>
        <time>2013-04-07T09:21:39Z</time>
      </trkpt>
      <trkpt lat="45.9498231" lon="4.6153035">
        <ele>493.7700000</ele>
        <time>2013-04-07T09:21:47Z</time>
      </trkpt>
      <trkpt lat="45.9497686" lon="4.6151766">
        <ele>496.1800000</ele>
        <time>2013-04-07T09:21:59Z</time>
      </trkpt>
      <trkpt lat="45.9497073" lon="4.6150504">
        <ele>498.5800000</ele>
        <time>2013-04-07T09:22:11Z</time>
      </trkpt>
      <trkpt lat="45.9496459" lon="4.6149006">
        <ele>500.0200000</ele>
        <time>2013-04-07T09:22:23Z</time>
      </trkpt>
      <trkpt lat="45.9496053" lon="4.6147252">
        <ele>501.9500000</ele>
        <time>2013-04-07T09:22:35Z</time>
      </trkpt>
      <trkpt lat="45.9495960" lon="4.6145215">
        <ele>504.3500000</ele>
        <time>2013-04-07T09:22:48Z</time>
      </trkpt>
      <trkpt lat="45.9495705" lon="4.6143500">
        <ele>507.2300000</ele>
        <time>2013-04-07T09:22:59Z</time>
      </trkpt>
      <trkpt lat="45.9495732" lon="4.6143185">
        <ele>507.2300000</ele>
        <time>2013-04-07T09:23:01Z</time>
      </trkpt>
      <trkpt lat="45.9496071" lon="4.6142059">
        <ele>509.6400000</ele>
        <time>2013-04-07T09:23:14Z</time>
      </trkpt>
      <trkpt lat="45.9496363" lon="4.6141363">
        <ele>510.6000000</ele>
        <time>2013-04-07T09:23:24Z</time>
      </trkpt>
      <trkpt lat="45.9496587" lon="4.6140075">
        <ele>512.0400000</ele>
        <time>2013-04-07T09:23:33Z</time>
      </trkpt>
      <trkpt lat="45.9496739" lon="4.6138418">
        <ele>514.4400000</ele>
        <time>2013-04-07T09:23:44Z</time>
      </trkpt>
      <trkpt lat="45.9496637" lon="4.6136554">
        <ele>517.3300000</ele>
        <time>2013-04-07T09:23:56Z</time>
      </trkpt>
      <trkpt lat="45.9496876" lon="4.6134663">
        <ele>519.2500000</ele>
        <time>2013-04-07T09:24:10Z</time>
      </trkpt>
      <trkpt lat="45.9497746" lon="4.6133786">
        <ele>519.7300000</ele>
        <time>2013-04-07T09:24:21Z</time>
      </trkpt>
      <trkpt lat="45.9497861" lon="4.6133499">
        <ele>519.7300000</ele>
        <time>2013-04-07T09:24:23Z</time>
      </trkpt>
      <trkpt lat="45.9498333" lon="4.6133038">
        <ele>520.2100000</ele>
        <time>2013-04-07T09:24:28Z</time>
      </trkpt>
      <trkpt lat="45.9498790" lon="4.6132972">
        <ele>520.2100000</ele>
        <time>2013-04-07T09:24:35Z</time>
      </trkpt>
      <trkpt lat="45.9499331" lon="4.6131822">
        <ele>521.6500000</ele>
        <time>2013-04-07T09:24:46Z</time>
      </trkpt>
      <trkpt lat="45.9500197" lon="4.6130268">
        <ele>522.6100000</ele>
        <time>2013-04-07T09:24:58Z</time>
      </trkpt>
      <trkpt lat="45.9500903" lon="4.6129177">
        <ele>524.5400000</ele>
        <time>2013-04-07T09:25:08Z</time>
      </trkpt>
      <trkpt lat="45.9501707" lon="4.6127833">
        <ele>525.5000000</ele>
        <time>2013-04-07T09:25:18Z</time>
      </trkpt>
      <trkpt lat="45.9502605" lon="4.6127141">
        <ele>525.9800000</ele>
        <time>2013-04-07T09:25:25Z</time>
      </trkpt>
      <trkpt lat="45.9502791" lon="4.6126678">
        <ele>525.9800000</ele>
        <time>2013-04-07T09:25:28Z</time>
      </trkpt>
      <trkpt lat="45.9503018" lon="4.6125978">
        <ele>527.4200000</ele>
        <time>2013-04-07T09:25:32Z</time>
      </trkpt>
      <trkpt lat="45.9502675" lon="4.6124805">
        <ele>530.3000000</ele>
        <time>2013-04-07T09:25:44Z</time>
      </trkpt>
      <trkpt lat="45.9502460" lon="4.6124491">
        <ele>531.2700000</ele>
        <time>2013-04-07T09:25:57Z</time>
      </trkpt>
      <trkpt lat="45.9502185" lon="4.6123001">
        <ele>533.1900000</ele>
        <time>2013-04-07T09:26:11Z</time>
      </trkpt>
      <trkpt lat="45.9501984" lon="4.6121970">
        <ele>536.0700000</ele>
        <time>2013-04-07T09:26:25Z</time>
      </trkpt>
      <trkpt lat="45.9501468" lon="4.6120877">
        <ele>538.9600000</ele>
        <time>2013-04-07T09:26:40Z</time>
      </trkpt>
      <trkpt lat="45.9501067" lon="4.6119713">
        <ele>541.3600000</ele>
        <time>2013-04-07T09:26:54Z</time>
      </trkpt>
      <trkpt lat="45.9500790" lon="4.6119064">
        <ele>542.3200000</ele>
        <time>2013-04-07T09:27:07Z</time>
      </trkpt>
      <trkpt lat="45.9500736" lon="4.6118920">
        <ele>542.8000000</ele>
        <time>2013-04-07T09:27:24Z</time>
      </trkpt>
      <trkpt lat="45.9500668" lon="4.6118642">
        <ele>543.2800000</ele>
        <time>2013-04-07T09:27:31Z</time>
      </trkpt>
      <trkpt lat="45.9500082" lon="4.6116869">
        <ele>546.1700000</ele>
        <time>2013-04-07T09:27:43Z</time>
      </trkpt>
      <trkpt lat="45.9499382" lon="4.6115198">
        <ele>548.5700000</ele>
        <time>2013-04-07T09:27:55Z</time>
      </trkpt>
      <trkpt lat="45.9498695" lon="4.6113398">
        <ele>551.4500000</ele>
        <time>2013-04-07T09:28:09Z</time>
      </trkpt>
      <trkpt lat="45.9498544" lon="4.6112848">
        <ele>552.4100000</ele>
        <time>2013-04-07T09:28:13Z</time>
      </trkpt>
      <trkpt lat="45.9498482" lon="4.6112537">
        <ele>552.4100000</ele>
        <time>2013-04-07T09:28:15Z</time>
      </trkpt>
      <trkpt lat="45.9498348" lon="4.6111972">
        <ele>553.3800000</ele>
        <time>2013-04-07T09:28:19Z</time>
      </trkpt>
      <trkpt lat="45.9498031" lon="4.6111728">
        <ele>553.3800000</ele>
        <time>2013-04-07T09:28:22Z</time>
      </trkpt>
      <trkpt lat="45.9497312" lon="4.6110430">
        <ele>555.3000000</ele>
        <time>2013-04-07T09:28:35Z</time>
      </trkpt>
      <trkpt lat="45.9496649" lon="4.6108957">
        <ele>557.2200000</ele>
        <time>2013-04-07T09:28:48Z</time>
      </trkpt>
      <trkpt lat="45.9495957" lon="4.6107595">
        <ele>559.1400000</ele>
        <time>2013-04-07T09:29:00Z</time>
      </trkpt>
      <trkpt lat="45.9495019" lon="4.6105684">
        <ele>561.5500000</ele>
        <time>2013-04-07T09:29:14Z</time>
      </trkpt>
      <trkpt lat="45.9494963" lon="4.6105531">
        <ele>561.5500000</ele>
        <time>2013-04-07T09:29:15Z</time>
      </trkpt>
      <trkpt lat="45.9494205" lon="4.6104332">
        <ele>564.4300000</ele>
        <time>2013-04-07T09:29:30Z</time>
      </trkpt>
      <trkpt lat="45.9494161" lon="4.6103865">
        <ele>564.9100000</ele>
        <time>2013-04-07T09:29:38Z</time>
      </trkpt>
      <trkpt lat="45.9493820" lon="4.6102249">
        <ele>566.8300000</ele>
        <time>2013-04-07T09:29:52Z</time>
      </trkpt>
      <trkpt lat="45.9493745" lon="4.6102114">
        <ele>567.3200000</ele>
        <time>2013-04-07T09:29:59Z</time>
      </trkpt>
      <trkpt lat="45.9493363" lon="4.6101453">
        <ele>568.2800000</ele>
        <time>2013-04-07T09:30:04Z</time>
      </trkpt>
      <trkpt lat="45.9492970" lon="4.6100726">
        <ele>570.2000000</ele>
        <time>2013-04-07T09:30:10Z</time>
      </trkpt>
      <trkpt lat="45.9492546" lon="4.6100110">
        <ele>571.1600000</ele>
        <time>2013-04-07T09:30:23Z</time>
      </trkpt>
      <trkpt lat="45.9492366" lon="4.6100246">
        <ele>570.2000000</ele>
        <time>2013-04-07T09:30:36Z</time>
      </trkpt>
      <trkpt lat="45.9492258" lon="4.6100125">
        <ele>570.6800000</ele>
        <time>2013-04-07T09:31:08Z</time>
      </trkpt>
      <trkpt lat="45.9492277" lon="4.6100188">
        <ele>570.6800000</ele>
        <time>2013-04-07T09:31:48Z</time>
      </trkpt>
      <trkpt lat="45.9492318" lon="4.6100107">
        <ele>570.2000000</ele>
        <time>2013-04-07T09:32:24Z</time>
      </trkpt>
      <trkpt lat="45.9492355" lon="4.6100217">
        <ele>569.7200000</ele>
        <time>2013-04-07T09:33:00Z</time>
      </trkpt>
      <trkpt lat="45.9492292" lon="4.6100185">
        <ele>569.7200000</ele>
        <time>2013-04-07T09:33:39Z</time>
      </trkpt>
      <trkpt lat="45.9492401" lon="4.6100196">
        <ele>569.7200000</ele>
        <time>2013-04-07T09:34:16Z</time>
      </trkpt>
      <trkpt lat="45.9492456" lon="4.6100335">
        <ele>569.7200000</ele>
        <time>2013-04-07T09:34:49Z</time>
      </trkpt>
      <trkpt lat="45.9492310" lon="4.6100192">
        <ele>570.2000000</ele>
        <time>2013-04-07T09:35:22Z</time>
      </trkpt>
      <trkpt lat="45.9492458" lon="4.6100027">
        <ele>570.2000000</ele>
        <time>2013-04-07T09:35:58Z</time>
      </trkpt>
      <trkpt lat="45.9492525" lon="4.6099792">
        <ele>571.1600000</ele>
        <time>2013-04-07T09:36:15Z</time>
      </trkpt>
      <trkpt lat="45.9492525" lon="4.6099814">
        <ele>571.1600000</ele>
        <time>2013-04-07T09:36:19Z</time>
      </trkpt>
      <trkpt lat="45.9492473" lon="4.6099530">
        <ele>571.1600000</ele>
        <time>2013-04-07T09:36:22Z</time>
      </trkpt>
      <trkpt lat="45.9492118" lon="4.6099141">
        <ele>572.1200000</ele>
        <time>2013-04-07T09:36:26Z</time>
      </trkpt>
      <trkpt lat="45.9491971" lon="4.6098717">
        <ele>572.6000000</ele>
        <time>2013-04-07T09:36:29Z</time>
      </trkpt>
      <trkpt lat="45.9490864" lon="4.6096993">
        <ele>575.4900000</ele>
        <time>2013-04-07T09:36:45Z</time>
      </trkpt>
      <trkpt lat="45.9490386" lon="4.6096573">
        <ele>576.9300000</ele>
        <time>2013-04-07T09:36:55Z</time>
      </trkpt>
      <trkpt lat="45.9490267" lon="4.6096239">
        <ele>577.4100000</ele>
        <time>2013-04-07T09:37:08Z</time>
      </trkpt>
      <trkpt lat="45.9489681" lon="4.6095360">
        <ele>579.3300000</ele>
        <time>2013-04-07T09:37:18Z</time>
      </trkpt>
      <trkpt lat="45.9488743" lon="4.6093720">
        <ele>582.2200000</ele>
        <time>2013-04-07T09:37:32Z</time>
      </trkpt>
      <trkpt lat="45.9487999" lon="4.6092629">
        <ele>584.1400000</ele>
        <time>2013-04-07T09:37:41Z</time>
      </trkpt>
      <trkpt lat="45.9487665" lon="4.6092479">
        <ele>584.1400000</ele>
        <time>2013-04-07T09:37:44Z</time>
      </trkpt>
      <trkpt lat="45.9487352" lon="4.6092567">
        <ele>584.1400000</ele>
        <time>2013-04-07T09:37:56Z</time>
      </trkpt>
      <trkpt lat="45.9487355" lon="4.6092557">
        <ele>584.1400000</ele>
        <time>2013-04-07T09:38:17Z</time>
      </trkpt>
      <trkpt lat="45.9487369" lon="4.6092568">
        <ele>584.1400000</ele>
        <time>2013-04-07T09:38:19Z</time>
      </trkpt>
      <trkpt lat="45.9487140" lon="4.6093871">
        <ele>583.1800000</ele>
        <time>2013-04-07T09:38:23Z</time>
      </trkpt>
      <trkpt lat="45.9486820" lon="4.6094950">
        <ele>582.2200000</ele>
        <time>2013-04-07T09:38:25Z</time>
      </trkpt>
      <trkpt lat="45.9486598" lon="4.6095608">
        <ele>581.2500000</ele>
        <time>2013-04-07T09:38:26Z</time>
      </trkpt>
      <trkpt lat="45.9485316" lon="4.6098791">
        <ele>577.8900000</ele>
        <time>2013-04-07T09:38:30Z</time>
      </trkpt>
      <trkpt lat="45.9484630" lon="4.6100768">
        <ele>575.4900000</ele>
        <time>2013-04-07T09:38:32Z</time>
      </trkpt>
      <trkpt lat="45.9484147" lon="4.6101720">
        <ele>575.0100000</ele>
        <time>2013-04-07T09:38:33Z</time>
      </trkpt>
      <trkpt lat="45.9483657" lon="4.6102728">
        <ele>573.5600000</ele>
        <time>2013-04-07T09:38:34Z</time>
      </trkpt>
      <trkpt lat="45.9483217" lon="4.6103896">
        <ele>571.6400000</ele>
        <time>2013-04-07T09:38:35Z</time>
      </trkpt>
      <trkpt lat="45.9482793" lon="4.6105183">
        <ele>569.7200000</ele>
        <time>2013-04-07T09:38:36Z</time>
      </trkpt>
      <trkpt lat="45.9481870" lon="4.6107735">
        <ele>565.8700000</ele>
        <time>2013-04-07T09:38:38Z</time>
      </trkpt>
      <trkpt lat="45.9481035" lon="4.6110209">
        <ele>563.9500000</ele>
        <time>2013-04-07T09:38:40Z</time>
      </trkpt>
      <trkpt lat="45.9480738" lon="4.6111431">
        <ele>562.5100000</ele>
        <time>2013-04-07T09:38:41Z</time>
      </trkpt>
      <trkpt lat="45.9480119" lon="4.6113748">
        <ele>559.1400000</ele>
        <time>2013-04-07T09:38:43Z</time>
      </trkpt>
      <trkpt lat="45.9479692" lon="4.6114876">
        <ele>557.7000000</ele>
        <time>2013-04-07T09:38:44Z</time>
      </trkpt>
      <trkpt lat="45.9478662" lon="4.6117185">
        <ele>553.3800000</ele>
        <time>2013-04-07T09:38:46Z</time>
      </trkpt>
      <trkpt lat="45.9477394" lon="4.6119599">
        <ele>550.4900000</ele>
        <time>2013-04-07T09:38:48Z</time>
      </trkpt>
      <trkpt lat="45.9475599" lon="4.6123230">
        <ele>546.6500000</ele>
        <time>2013-04-07T09:38:51Z</time>
      </trkpt>
      <trkpt lat="45.9474340" lon="4.6125853">
        <ele>545.2000000</ele>
        <time>2013-04-07T09:38:54Z</time>
      </trkpt>
      <trkpt lat="45.9474118" lon="4.6126448">
        <ele>544.7200000</ele>
        <time>2013-04-07T09:38:55Z</time>
      </trkpt>
      <trkpt lat="45.9474020" lon="4.6126873">
        <ele>544.2400000</ele>
        <time>2013-04-07T09:38:56Z</time>
      </trkpt>
      <trkpt lat="45.9473691" lon="4.6127614">
        <ele>543.7600000</ele>
        <time>2013-04-07T09:39:05Z</time>
      </trkpt>
      <trkpt lat="45.9473741" lon="4.6126874">
        <ele>545.2000000</ele>
        <time>2013-04-07T09:39:16Z</time>
      </trkpt>
      <trkpt lat="45.9472693" lon="4.6126596">
        <ele>546.1700000</ele>
        <time>2013-04-07T09:39:29Z</time>
      </trkpt>
      <trkpt lat="45.9472507" lon="4.6126512">
        <ele>546.1700000</ele>
        <time>2013-04-07T09:39:41Z</time>
      </trkpt>
      <trkpt lat="45.9472414" lon="4.6126415">
        <ele>546.6500000</ele>
        <time>2013-04-07T09:39:52Z</time>
      </trkpt>
      <trkpt lat="45.9472369" lon="4.6126323">
        <ele>546.6500000</ele>
        <time>2013-04-07T09:39:54Z</time>
      </trkpt>
      <trkpt lat="45.9472218" lon="4.6126102">
        <ele>547.1300000</ele>
        <time>2013-04-07T09:39:56Z</time>
      </trkpt>
      <trkpt lat="45.9472120" lon="4.6126000">
        <ele>547.6100000</ele>
        <time>2013-04-07T09:39:57Z</time>
      </trkpt>
      <trkpt lat="45.9471510" lon="4.6124926">
        <ele>549.0500000</ele>
        <time>2013-04-07T09:40:05Z</time>
      </trkpt>
      <trkpt lat="45.9471413" lon="4.6124829">
        <ele>549.5300000</ele>
        <time>2013-04-07T09:40:06Z</time>
      </trkpt>
      <trkpt lat="45.9470489" lon="4.6123629">
        <ele>551.4500000</ele>
        <time>2013-04-07T09:40:18Z</time>
      </trkpt>
      <trkpt lat="45.9469747" lon="4.6122682">
        <ele>554.8200000</ele>
        <time>2013-04-07T09:40:30Z</time>
      </trkpt>
      <trkpt lat="45.9469002" lon="4.6121669">
        <ele>558.1800000</ele>
        <time>2013-04-07T09:40:41Z</time>
      </trkpt>
      <trkpt lat="45.9468019" lon="4.6120882">
        <ele>560.1100000</ele>
        <time>2013-04-07T09:40:53Z</time>
      </trkpt>
      <trkpt lat="45.9467024" lon="4.6120573">
        <ele>562.0300000</ele>
        <time>2013-04-07T09:41:04Z</time>
      </trkpt>
      <trkpt lat="45.9466344" lon="4.6120452">
        <ele>563.4700000</ele>
        <time>2013-04-07T09:41:10Z</time>
      </trkpt>
      <trkpt lat="45.9465575" lon="4.6119732">
        <ele>564.9100000</ele>
        <time>2013-04-07T09:41:18Z</time>
      </trkpt>
      <trkpt lat="45.9465148" lon="4.6118282">
        <ele>567.3200000</ele>
        <time>2013-04-07T09:41:29Z</time>
      </trkpt>
      <trkpt lat="45.9464638" lon="4.6117620">
        <ele>569.2400000</ele>
        <time>2013-04-07T09:41:37Z</time>
      </trkpt>
      <trkpt lat="45.9463977" lon="4.6117679">
        <ele>570.2000000</ele>
        <time>2013-04-07T09:41:51Z</time>
      </trkpt>
      <trkpt lat="45.9463805" lon="4.6117831">
        <ele>569.7200000</ele>
        <time>2013-04-07T09:41:55Z</time>
      </trkpt>
      <trkpt lat="45.9463670" lon="4.6117935">
        <ele>569.7200000</ele>
        <time>2013-04-07T09:41:56Z</time>
      </trkpt>
      <trkpt lat="45.9463505" lon="4.6118054">
        <ele>569.7200000</ele>
        <time>2013-04-07T09:41:57Z</time>
      </trkpt>
      <trkpt lat="45.9463319" lon="4.6118165">
        <ele>569.7200000</ele>
        <time>2013-04-07T09:41:58Z</time>
      </trkpt>
      <trkpt lat="45.9463124" lon="4.6118292">
        <ele>569.7200000</ele>
        <time>2013-04-07T09:41:59Z</time>
      </trkpt>
      <trkpt lat="45.9462931" lon="4.6118459">
        <ele>569.7200000</ele>
        <time>2013-04-07T09:42:00Z</time>
      </trkpt>
      <trkpt lat="45.9461022" lon="4.6119494">
        <ele>570.6800000</ele>
        <time>2013-04-07T09:42:09Z</time>
      </trkpt>
      <trkpt lat="45.9460878" lon="4.6119442">
        <ele>571.1600000</ele>
        <time>2013-04-07T09:42:10Z</time>
      </trkpt>
      <trkpt lat="45.9460708" lon="4.6119432">
        <ele>571.1600000</ele>
        <time>2013-04-07T09:42:11Z</time>
      </trkpt>
      <trkpt lat="45.9460562" lon="4.6119310">
        <ele>571.1600000</ele>
        <time>2013-04-07T09:42:12Z</time>
      </trkpt>
      <trkpt lat="45.9460425" lon="4.6119180">
        <ele>571.6400000</ele>
        <time>2013-04-07T09:42:13Z</time>
      </trkpt>
      <trkpt lat="45.9460318" lon="4.6119073">
        <ele>572.1200000</ele>
        <time>2013-04-07T09:42:14Z</time>
      </trkpt>
      <trkpt lat="45.9459837" lon="4.6117835">
        <ele>574.5300000</ele>
        <time>2013-04-07T09:42:22Z</time>
      </trkpt>
      <trkpt lat="45.9459082" lon="4.6116068">
        <ele>576.9300000</ele>
        <time>2013-04-07T09:42:34Z</time>
      </trkpt>
      <trkpt lat="45.9458834" lon="4.6115645">
        <ele>577.8900000</ele>
        <time>2013-04-07T09:42:38Z</time>
      </trkpt>
      <trkpt lat="45.9458479" lon="4.6114524">
        <ele>579.3300000</ele>
        <time>2013-04-07T09:42:46Z</time>
      </trkpt>
      <trkpt lat="45.9458471" lon="4.6114351">
        <ele>579.3300000</ele>
        <time>2013-04-07T09:42:47Z</time>
      </trkpt>
      <trkpt lat="45.9458364" lon="4.6113908">
        <ele>580.2900000</ele>
        <time>2013-04-07T09:42:50Z</time>
      </trkpt>
      <trkpt lat="45.9457916" lon="4.6113150">
        <ele>581.2500000</ele>
        <time>2013-04-07T09:42:56Z</time>
      </trkpt>
      <trkpt lat="45.9457900" lon="4.6113012">
        <ele>581.7300000</ele>
        <time>2013-04-07T09:42:57Z</time>
      </trkpt>
      <trkpt lat="45.9457846" lon="4.6112863">
        <ele>582.2200000</ele>
        <time>2013-04-07T09:42:58Z</time>
      </trkpt>
      <trkpt lat="45.9457138" lon="4.6111071">
        <ele>584.1400000</ele>
        <time>2013-04-07T09:43:10Z</time>
      </trkpt>
      <trkpt lat="45.9457099" lon="4.6110913">
        <ele>584.1400000</ele>
        <time>2013-04-07T09:43:11Z</time>
      </trkpt>
      <trkpt lat="45.9457026" lon="4.6110788">
        <ele>584.6200000</ele>
        <time>2013-04-07T09:43:12Z</time>
      </trkpt>
      <trkpt lat="45.9456955" lon="4.6110664">
        <ele>584.1400000</ele>
        <time>2013-04-07T09:43:13Z</time>
      </trkpt>
      <trkpt lat="45.9456897" lon="4.6110525">
        <ele>584.6200000</ele>
        <time>2013-04-07T09:43:14Z</time>
      </trkpt>
      <trkpt lat="45.9456811" lon="4.6110372">
        <ele>585.1000000</ele>
        <time>2013-04-07T09:43:15Z</time>
      </trkpt>
      <trkpt lat="45.9456727" lon="4.6110217">
        <ele>585.1000000</ele>
        <time>2013-04-07T09:43:16Z</time>
      </trkpt>
      <trkpt lat="45.9456674" lon="4.6110051">
        <ele>585.1000000</ele>
        <time>2013-04-07T09:43:17Z</time>
      </trkpt>
      <trkpt lat="45.9456629" lon="4.6109894">
        <ele>585.5800000</ele>
        <time>2013-04-07T09:43:18Z</time>
      </trkpt>
      <trkpt lat="45.9456546" lon="4.6109742">
        <ele>585.5800000</ele>
        <time>2013-04-07T09:43:19Z</time>
      </trkpt>
      <trkpt lat="45.9456475" lon="4.6109601">
        <ele>585.5800000</ele>
        <time>2013-04-07T09:43:20Z</time>
      </trkpt>
      <trkpt lat="45.9456433" lon="4.6109466">
        <ele>586.0600000</ele>
        <time>2013-04-07T09:43:21Z</time>
      </trkpt>
      <trkpt lat="45.9456056" lon="4.6108701">
        <ele>586.5400000</ele>
        <time>2013-04-07T09:43:26Z</time>
      </trkpt>
      <trkpt lat="45.9455969" lon="4.6108548">
        <ele>586.5400000</ele>
        <time>2013-04-07T09:43:27Z</time>
      </trkpt>
      <trkpt lat="45.9455857" lon="4.6108388">
        <ele>587.0200000</ele>
        <time>2013-04-07T09:43:28Z</time>
      </trkpt>
      <trkpt lat="45.9455758" lon="4.6108205">
        <ele>587.0200000</ele>
        <time>2013-04-07T09:43:29Z</time>
      </trkpt>
      <trkpt lat="45.9455676" lon="4.6108017">
        <ele>587.0200000</ele>
        <time>2013-04-07T09:43:30Z</time>
      </trkpt>
      <trkpt lat="45.9455587" lon="4.6107840">
        <ele>587.0200000</ele>
        <time>2013-04-07T09:43:31Z</time>
      </trkpt>
      <trkpt lat="45.9455497" lon="4.6107712">
        <ele>587.0200000</ele>
        <time>2013-04-07T09:43:32Z</time>
      </trkpt>
      <trkpt lat="45.9455073" lon="4.6107056">
        <ele>587.0200000</ele>
        <time>2013-04-07T09:43:37Z</time>
      </trkpt>
      <trkpt lat="45.9455010" lon="4.6106886">
        <ele>587.5000000</ele>
        <time>2013-04-07T09:43:38Z</time>
      </trkpt>
      <trkpt lat="45.9454840" lon="4.6106423">
        <ele>587.5000000</ele>
        <time>2013-04-07T09:43:50Z</time>
      </trkpt>
      <trkpt lat="45.9454808" lon="4.6106257">
        <ele>587.5000000</ele>
        <time>2013-04-07T09:43:51Z</time>
      </trkpt>
      <trkpt lat="45.9454792" lon="4.6106057">
        <ele>587.5000000</ele>
        <time>2013-04-07T09:43:52Z</time>
      </trkpt>
      <trkpt lat="45.9454780" lon="4.6105882">
        <ele>587.5000000</ele>
        <time>2013-04-07T09:43:53Z</time>
      </trkpt>
      <trkpt lat="45.9454762" lon="4.6105720">
        <ele>587.5000000</ele>
        <time>2013-04-07T09:43:54Z</time>
      </trkpt>
      <trkpt lat="45.9454721" lon="4.6105551">
        <ele>587.5000000</ele>
        <time>2013-04-07T09:43:55Z</time>
      </trkpt>
      <trkpt lat="45.9454588" lon="4.6104959">
        <ele>587.5000000</ele>
        <time>2013-04-07T09:43:58Z</time>
      </trkpt>
      <trkpt lat="45.9454610" lon="4.6104648">
        <ele>587.0200000</ele>
        <time>2013-04-07T09:43:59Z</time>
      </trkpt>
      <trkpt lat="45.9454659" lon="4.6104337">
        <ele>586.5400000</ele>
        <time>2013-04-07T09:44:00Z</time>
      </trkpt>
      <trkpt lat="45.9456581" lon="4.6100306">
        <ele>587.5000000</ele>
        <time>2013-04-07T09:44:12Z</time>
      </trkpt>
      <trkpt lat="45.9457720" lon="4.6097705">
        <ele>588.4600000</ele>
        <time>2013-04-07T09:44:22Z</time>
      </trkpt>
      <trkpt lat="45.9459026" lon="4.6094598">
        <ele>591.3500000</ele>
        <time>2013-04-07T09:44:34Z</time>
      </trkpt>
      <trkpt lat="45.9460481" lon="4.6092883">
        <ele>594.7100000</ele>
        <time>2013-04-07T09:44:48Z</time>
      </trkpt>
      <trkpt lat="45.9460892" lon="4.6092749">
        <ele>595.1900000</ele>
        <time>2013-04-07T09:44:51Z</time>
      </trkpt>
      <trkpt lat="45.9461015" lon="4.6092795">
        <ele>595.1900000</ele>
        <time>2013-04-07T09:44:52Z</time>
      </trkpt>
      <trkpt lat="45.9461156" lon="4.6092814">
        <ele>595.6700000</ele>
        <time>2013-04-07T09:44:53Z</time>
      </trkpt>
      <trkpt lat="45.9461772" lon="4.6092493">
        <ele>596.1500000</ele>
        <time>2013-04-07T09:44:58Z</time>
      </trkpt>
      <trkpt lat="45.9461861" lon="4.6092338">
        <ele>596.1500000</ele>
        <time>2013-04-07T09:44:59Z</time>
      </trkpt>
      <trkpt lat="45.9461930" lon="4.6092179">
        <ele>596.6400000</ele>
        <time>2013-04-07T09:45:00Z</time>
      </trkpt>
      <trkpt lat="45.9462004" lon="4.6092033">
        <ele>596.6400000</ele>
        <time>2013-04-07T09:45:01Z</time>
      </trkpt>
      <trkpt lat="45.9462097" lon="4.6091918">
        <ele>597.1200000</ele>
        <time>2013-04-07T09:45:02Z</time>
      </trkpt>
      <trkpt lat="45.9462217" lon="4.6091811">
        <ele>597.1200000</ele>
        <time>2013-04-07T09:45:03Z</time>
      </trkpt>
      <trkpt lat="45.9462324" lon="4.6091697">
        <ele>597.6000000</ele>
        <time>2013-04-07T09:45:04Z</time>
      </trkpt>
      <trkpt lat="45.9462414" lon="4.6091555">
        <ele>597.6000000</ele>
        <time>2013-04-07T09:45:05Z</time>
      </trkpt>
      <trkpt lat="45.9462507" lon="4.6091444">
        <ele>597.6000000</ele>
        <time>2013-04-07T09:45:06Z</time>
      </trkpt>
      <trkpt lat="45.9462626" lon="4.6091366">
        <ele>597.6000000</ele>
        <time>2013-04-07T09:45:07Z</time>
      </trkpt>
      <trkpt lat="45.9462734" lon="4.6091262">
        <ele>597.6000000</ele>
        <time>2013-04-07T09:45:08Z</time>
      </trkpt>
      <trkpt lat="45.9464557" lon="4.6089421">
        <ele>599.5200000</ele>
        <time>2013-04-07T09:45:22Z</time>
      </trkpt>
      <trkpt lat="45.9466304" lon="4.6088047">
        <ele>601.4400000</ele>
        <time>2013-04-07T09:45:35Z</time>
      </trkpt>
      <trkpt lat="45.9467987" lon="4.6086748">
        <ele>602.8800000</ele>
        <time>2013-04-07T09:45:46Z</time>
      </trkpt>
      <trkpt lat="45.9470083" lon="4.6085283">
        <ele>605.2900000</ele>
        <time>2013-04-07T09:45:59Z</time>
      </trkpt>
      <trkpt lat="45.9472487" lon="4.6083767">
        <ele>607.6900000</ele>
        <time>2013-04-07T09:46:15Z</time>
      </trkpt>
      <trkpt lat="45.9474183" lon="4.6082406">
        <ele>608.6500000</ele>
        <time>2013-04-07T09:46:28Z</time>
      </trkpt>
      <trkpt lat="45.9476532" lon="4.6080748">
        <ele>609.6100000</ele>
        <time>2013-04-07T09:46:42Z</time>
      </trkpt>
      <trkpt lat="45.9477331" lon="4.6080265">
        <ele>609.1300000</ele>
        <time>2013-04-07T09:46:52Z</time>
      </trkpt>
      <trkpt lat="45.9477543" lon="4.6080139">
        <ele>609.6100000</ele>
        <time>2013-04-07T09:46:53Z</time>
      </trkpt>
      <trkpt lat="45.9477746" lon="4.6079959">
        <ele>609.6100000</ele>
        <time>2013-04-07T09:46:54Z</time>
      </trkpt>
      <trkpt lat="45.9477987" lon="4.6079785">
        <ele>608.6500000</ele>
        <time>2013-04-07T09:46:55Z</time>
      </trkpt>
      <trkpt lat="45.9478270" lon="4.6079677">
        <ele>608.6500000</ele>
        <time>2013-04-07T09:46:56Z</time>
      </trkpt>
      <trkpt lat="45.9478602" lon="4.6079685">
        <ele>608.6500000</ele>
        <time>2013-04-07T09:46:57Z</time>
      </trkpt>
      <trkpt lat="45.9478973" lon="4.6079814">
        <ele>607.6900000</ele>
        <time>2013-04-07T09:46:58Z</time>
      </trkpt>
      <trkpt lat="45.9479322" lon="4.6080111">
        <ele>607.2100000</ele>
        <time>2013-04-07T09:46:59Z</time>
      </trkpt>
      <trkpt lat="45.9479610" lon="4.6080546">
        <ele>607.2100000</ele>
        <time>2013-04-07T09:47:00Z</time>
      </trkpt>
      <trkpt lat="45.9479912" lon="4.6081016">
        <ele>606.2500000</ele>
        <time>2013-04-07T09:47:01Z</time>
      </trkpt>
      <trkpt lat="45.9480265" lon="4.6081381">
        <ele>604.8100000</ele>
        <time>2013-04-07T09:47:02Z</time>
      </trkpt>
      <trkpt lat="45.9480613" lon="4.6081517">
        <ele>604.3300000</ele>
        <time>2013-04-07T09:47:03Z</time>
      </trkpt>
      <trkpt lat="45.9480955" lon="4.6081464">
        <ele>603.8500000</ele>
        <time>2013-04-07T09:47:04Z</time>
      </trkpt>
      <trkpt lat="45.9481310" lon="4.6081298">
        <ele>602.4000000</ele>
        <time>2013-04-07T09:47:05Z</time>
      </trkpt>
      <trkpt lat="45.9481671" lon="4.6080996">
        <ele>600.9600000</ele>
        <time>2013-04-07T09:47:06Z</time>
      </trkpt>
      <trkpt lat="45.9481999" lon="4.6080653">
        <ele>600.4800000</ele>
        <time>2013-04-07T09:47:07Z</time>
      </trkpt>
      <trkpt lat="45.9482625" lon="4.6079255">
        <ele>597.6000000</ele>
        <time>2013-04-07T09:47:10Z</time>
      </trkpt>
      <trkpt lat="45.9482673" lon="4.6078674">
        <ele>596.6400000</ele>
        <time>2013-04-07T09:47:11Z</time>
      </trkpt>
      <trkpt lat="45.9482651" lon="4.6078076">
        <ele>596.1500000</ele>
        <time>2013-04-07T09:47:12Z</time>
      </trkpt>
      <trkpt lat="45.9482469" lon="4.6076651">
        <ele>595.1900000</ele>
        <time>2013-04-07T09:47:14Z</time>
      </trkpt>
      <trkpt lat="45.9482302" lon="4.6075989">
        <ele>595.6700000</ele>
        <time>2013-04-07T09:47:15Z</time>
      </trkpt>
      <trkpt lat="45.9481668" lon="4.6074410">
        <ele>595.6700000</ele>
        <time>2013-04-07T09:47:18Z</time>
      </trkpt>
      <trkpt lat="45.9481492" lon="4.6073932">
        <ele>595.6700000</ele>
        <time>2013-04-07T09:47:19Z</time>
      </trkpt>
      <trkpt lat="45.9481421" lon="4.6073325">
        <ele>594.2300000</ele>
        <time>2013-04-07T09:47:20Z</time>
      </trkpt>
      <trkpt lat="45.9481255" lon="4.6071606">
        <ele>592.3100000</ele>
        <time>2013-04-07T09:47:22Z</time>
      </trkpt>
      <trkpt lat="45.9481171" lon="4.6070694">
        <ele>589.9100000</ele>
        <time>2013-04-07T09:47:23Z</time>
      </trkpt>
      <trkpt lat="45.9481159" lon="4.6069813">
        <ele>588.9500000</ele>
        <time>2013-04-07T09:47:24Z</time>
      </trkpt>
      <trkpt lat="45.9481227" lon="4.6069040">
        <ele>587.9800000</ele>
        <time>2013-04-07T09:47:25Z</time>
      </trkpt>
      <trkpt lat="45.9481427" lon="4.6068489">
        <ele>587.5000000</ele>
        <time>2013-04-07T09:47:26Z</time>
      </trkpt>
      <trkpt lat="45.9481689" lon="4.6068128">
        <ele>586.5400000</ele>
        <time>2013-04-07T09:47:27Z</time>
      </trkpt>
      <trkpt lat="45.9481854" lon="4.6067755">
        <ele>586.5400000</ele>
        <time>2013-04-07T09:47:28Z</time>
      </trkpt>
      <trkpt lat="45.9481844" lon="4.6067230">
        <ele>586.0600000</ele>
        <time>2013-04-07T09:47:29Z</time>
      </trkpt>
      <trkpt lat="45.9481704" lon="4.6066669">
        <ele>586.0600000</ele>
        <time>2013-04-07T09:47:30Z</time>
      </trkpt>
      <trkpt lat="45.9481512" lon="4.6066118">
        <ele>586.0600000</ele>
        <time>2013-04-07T09:47:31Z</time>
      </trkpt>
      <trkpt lat="45.9481331" lon="4.6065553">
        <ele>586.5400000</ele>
        <time>2013-04-07T09:47:32Z</time>
      </trkpt>
      <trkpt lat="45.9481187" lon="4.6065015">
        <ele>586.0600000</ele>
        <time>2013-04-07T09:47:33Z</time>
      </trkpt>
      <trkpt lat="45.9481023" lon="4.6064773">
        <ele>586.0600000</ele>
        <time>2013-04-07T09:47:34Z</time>
      </trkpt>
      <trkpt lat="45.9480854" lon="4.6064857">
        <ele>586.5400000</ele>
        <time>2013-04-07T09:47:35Z</time>
      </trkpt>
      <trkpt lat="45.9480703" lon="4.6065108">
        <ele>586.0600000</ele>
        <time>2013-04-07T09:47:36Z</time>
      </trkpt>
      <trkpt lat="45.9480495" lon="4.6065267">
        <ele>586.0600000</ele>
        <time>2013-04-07T09:47:37Z</time>
      </trkpt>
      <trkpt lat="45.9480238" lon="4.6065274">
        <ele>586.0600000</ele>
        <time>2013-04-07T09:47:38Z</time>
      </trkpt>
      <trkpt lat="45.9479976" lon="4.6065191">
        <ele>585.5800000</ele>
        <time>2013-04-07T09:47:39Z</time>
      </trkpt>
      <trkpt lat="45.9479702" lon="4.6065064">
        <ele>585.5800000</ele>
        <time>2013-04-07T09:47:40Z</time>
      </trkpt>
      <trkpt lat="45.9478219" lon="4.6063662">
        <ele>582.2200000</ele>
        <time>2013-04-07T09:47:45Z</time>
      </trkpt>
      <trkpt lat="45.9477510" lon="4.6062757">
        <ele>578.8500000</ele>
        <time>2013-04-07T09:47:48Z</time>
      </trkpt>
      <trkpt lat="45.9476660" lon="4.6061201">
        <ele>575.0100000</ele>
        <time>2013-04-07T09:47:52Z</time>
      </trkpt>
      <trkpt lat="45.9475971" lon="4.6059736">
        <ele>571.6400000</ele>
        <time>2013-04-07T09:47:55Z</time>
      </trkpt>
      <trkpt lat="45.9475567" lon="4.6058503">
        <ele>570.2000000</ele>
        <time>2013-04-07T09:47:57Z</time>
      </trkpt>
      <trkpt lat="45.9475357" lon="4.6057896">
        <ele>569.2400000</ele>
        <time>2013-04-07T09:47:58Z</time>
      </trkpt>
      <trkpt lat="45.9475243" lon="4.6057226">
        <ele>567.3200000</ele>
        <time>2013-04-07T09:47:59Z</time>
      </trkpt>
      <trkpt lat="45.9474991" lon="4.6055141">
        <ele>565.3900000</ele>
        <time>2013-04-07T09:48:02Z</time>
      </trkpt>
      <trkpt lat="45.9474807" lon="4.6054581">
        <ele>564.4300000</ele>
        <time>2013-04-07T09:48:03Z</time>
      </trkpt>
      <trkpt lat="45.9474711" lon="4.6053953">
        <ele>563.4700000</ele>
        <time>2013-04-07T09:48:04Z</time>
      </trkpt>
      <trkpt lat="45.9474771" lon="4.6050853">
        <ele>559.6200000</ele>
        <time>2013-04-07T09:48:08Z</time>
      </trkpt>
      <trkpt lat="45.9474861" lon="4.6050095">
        <ele>558.1800000</ele>
        <time>2013-04-07T09:48:09Z</time>
      </trkpt>
      <trkpt lat="45.9475166" lon="4.6048304">
        <ele>555.3000000</ele>
        <time>2013-04-07T09:48:11Z</time>
      </trkpt>
      <trkpt lat="45.9475217" lon="4.6047269">
        <ele>552.4100000</ele>
        <time>2013-04-07T09:48:12Z</time>
      </trkpt>
      <trkpt lat="45.9475200" lon="4.6045329">
        <ele>550.4900000</ele>
        <time>2013-04-07T09:48:14Z</time>
      </trkpt>
      <trkpt lat="45.9475281" lon="4.6044517">
        <ele>550.0100000</ele>
        <time>2013-04-07T09:48:15Z</time>
      </trkpt>
      <trkpt lat="45.9475437" lon="4.6043698">
        <ele>548.5700000</ele>
        <time>2013-04-07T09:48:16Z</time>
      </trkpt>
      <trkpt lat="45.9475786" lon="4.6042079">
        <ele>545.6900000</ele>
        <time>2013-04-07T09:48:19Z</time>
      </trkpt>
      <trkpt lat="45.9475603" lon="4.6041769">
        <ele>545.2000000</ele>
        <time>2013-04-07T09:48:20Z</time>
      </trkpt>
      <trkpt lat="45.9475228" lon="4.6041627">
        <ele>544.7200000</ele>
        <time>2013-04-07T09:48:21Z</time>
      </trkpt>
      <trkpt lat="45.9474740" lon="4.6041541">
        <ele>543.2800000</ele>
        <time>2013-04-07T09:48:22Z</time>
      </trkpt>
      <trkpt lat="45.9474291" lon="4.6041033">
        <ele>542.8000000</ele>
        <time>2013-04-07T09:48:23Z</time>
      </trkpt>
      <trkpt lat="45.9474182" lon="4.6040038">
        <ele>540.8800000</ele>
        <time>2013-04-07T09:48:24Z</time>
      </trkpt>
      <trkpt lat="45.9474505" lon="4.6038941">
        <ele>538.9600000</ele>
        <time>2013-04-07T09:48:25Z</time>
      </trkpt>
      <trkpt lat="45.9474901" lon="4.6038006">
        <ele>537.9900000</ele>
        <time>2013-04-07T09:48:26Z</time>
      </trkpt>
      <trkpt lat="45.9475211" lon="4.6037344">
        <ele>537.9900000</ele>
        <time>2013-04-07T09:48:27Z</time>
      </trkpt>
      <trkpt lat="45.9475565" lon="4.6036940">
        <ele>537.5100000</ele>
        <time>2013-04-07T09:48:28Z</time>
      </trkpt>
      <trkpt lat="45.9476088" lon="4.6036805">
        <ele>538.9600000</ele>
        <time>2013-04-07T09:48:30Z</time>
      </trkpt>
      <trkpt lat="45.9476398" lon="4.6036747">
        <ele>539.4400000</ele>
        <time>2013-04-07T09:48:32Z</time>
      </trkpt>
      <trkpt lat="45.9476784" lon="4.6036832">
        <ele>540.4000000</ele>
        <time>2013-04-07T09:48:35Z</time>
      </trkpt>
      <trkpt lat="45.9477908" lon="4.6036348">
        <ele>541.3600000</ele>
        <time>2013-04-07T09:48:42Z</time>
      </trkpt>
      <trkpt lat="45.9478468" lon="4.6035588">
        <ele>541.8400000</ele>
        <time>2013-04-07T09:48:46Z</time>
      </trkpt>
      <trkpt lat="45.9480665" lon="4.6031129">
        <ele>542.3200000</ele>
        <time>2013-04-07T09:48:59Z</time>
      </trkpt>
      <trkpt lat="45.9479905" lon="4.6029694">
        <ele>538.9600000</ele>
        <time>2013-04-07T09:49:03Z</time>
      </trkpt>
      <trkpt lat="45.9478244" lon="4.6027687">
        <ele>534.6300000</ele>
        <time>2013-04-07T09:49:06Z</time>
      </trkpt>
      <trkpt lat="45.9475597" lon="4.6024347">
        <ele>530.7900000</ele>
        <time>2013-04-07T09:49:10Z</time>
      </trkpt>
      <trkpt lat="45.9473312" lon="4.6021098">
        <ele>528.8600000</ele>
        <time>2013-04-07T09:49:16Z</time>
      </trkpt>
      <trkpt lat="45.9473033" lon="4.6020146">
        <ele>529.8200000</ele>
        <time>2013-04-07T09:49:18Z</time>
      </trkpt>
      <trkpt lat="45.9472726" lon="4.6019708">
        <ele>528.8600000</ele>
        <time>2013-04-07T09:49:19Z</time>
      </trkpt>
      <trkpt lat="45.9471392" lon="4.6018488">
        <ele>525.9800000</ele>
        <time>2013-04-07T09:49:22Z</time>
      </trkpt>
      <trkpt lat="45.9470557" lon="4.6017871">
        <ele>523.5800000</ele>
        <time>2013-04-07T09:49:24Z</time>
      </trkpt>
      <trkpt lat="45.9470329" lon="4.6017430">
        <ele>523.5800000</ele>
        <time>2013-04-07T09:49:25Z</time>
      </trkpt>
      <trkpt lat="45.9469920" lon="4.6014940">
        <ele>518.7700000</ele>
        <time>2013-04-07T09:49:28Z</time>
      </trkpt>
      <trkpt lat="45.9469748" lon="4.6013796">
        <ele>515.4000000</ele>
        <time>2013-04-07T09:49:29Z</time>
      </trkpt>
      <trkpt lat="45.9469357" lon="4.6011447">
        <ele>512.0400000</ele>
        <time>2013-04-07T09:49:31Z</time>
      </trkpt>
      <trkpt lat="45.9468913" lon="4.6008297">
        <ele>508.1900000</ele>
        <time>2013-04-07T09:49:34Z</time>
      </trkpt>
      <trkpt lat="45.9468790" lon="4.6007593">
        <ele>507.7100000</ele>
        <time>2013-04-07T09:49:35Z</time>
      </trkpt>
      <trkpt lat="45.9468486" lon="4.6007102">
        <ele>506.2700000</ele>
        <time>2013-04-07T09:49:36Z</time>
      </trkpt>
      <trkpt lat="45.9468020" lon="4.6006911">
        <ele>504.8300000</ele>
        <time>2013-04-07T09:49:37Z</time>
      </trkpt>
      <trkpt lat="45.9467560" lon="4.6006888">
        <ele>503.3900000</ele>
        <time>2013-04-07T09:49:38Z</time>
      </trkpt>
      <trkpt lat="45.9467096" lon="4.6006880">
        <ele>502.4300000</ele>
        <time>2013-04-07T09:49:39Z</time>
      </trkpt>
      <trkpt lat="45.9466557" lon="4.6006768">
        <ele>500.9800000</ele>
        <time>2013-04-07T09:49:40Z</time>
      </trkpt>
      <trkpt lat="45.9465974" lon="4.6006461">
        <ele>498.1000000</ele>
        <time>2013-04-07T09:49:41Z</time>
      </trkpt>
      <trkpt lat="45.9465423" lon="4.6006043">
        <ele>496.6600000</ele>
        <time>2013-04-07T09:49:42Z</time>
      </trkpt>
      <trkpt lat="45.9464967" lon="4.6005587">
        <ele>495.2200000</ele>
        <time>2013-04-07T09:49:43Z</time>
      </trkpt>
      <trkpt lat="45.9464649" lon="4.6005205">
        <ele>495.2200000</ele>
        <time>2013-04-07T09:49:44Z</time>
      </trkpt>
      <trkpt lat="45.9464492" lon="4.6004839">
        <ele>495.2200000</ele>
        <time>2013-04-07T09:49:45Z</time>
      </trkpt>
      <trkpt lat="45.9464481" lon="4.6004409">
        <ele>495.2200000</ele>
        <time>2013-04-07T09:49:46Z</time>
      </trkpt>
      <trkpt lat="45.9464594" lon="4.6004046">
        <ele>495.2200000</ele>
        <time>2013-04-07T09:49:47Z</time>
      </trkpt>
      <trkpt lat="45.9464685" lon="4.6003666">
        <ele>495.7000000</ele>
        <time>2013-04-07T09:49:48Z</time>
      </trkpt>
      <trkpt lat="45.9464711" lon="4.6003211">
        <ele>495.2200000</ele>
        <time>2013-04-07T09:49:49Z</time>
      </trkpt>
      <trkpt lat="45.9464101" lon="4.6000795">
        <ele>497.1400000</ele>
        <time>2013-04-07T09:49:56Z</time>
      </trkpt>
      <trkpt lat="45.9463375" lon="4.6000220">
        <ele>498.5800000</ele>
        <time>2013-04-07T09:50:01Z</time>
      </trkpt>
      <trkpt lat="45.9463249" lon="4.6000082">
        <ele>498.5800000</ele>
        <time>2013-04-07T09:50:02Z</time>
      </trkpt>
      <trkpt lat="45.9463118" lon="4.5999978">
        <ele>499.0600000</ele>
        <time>2013-04-07T09:50:03Z</time>
      </trkpt>
      <trkpt lat="45.9461431" lon="4.5998799">
        <ele>501.9500000</ele>
        <time>2013-04-07T09:50:16Z</time>
      </trkpt>
      <trkpt lat="45.9459403" lon="4.5997275">
        <ele>505.3100000</ele>
        <time>2013-04-07T09:50:31Z</time>
      </trkpt>
      <trkpt lat="45.9457482" lon="4.5995618">
        <ele>507.7100000</ele>
        <time>2013-04-07T09:50:46Z</time>
      </trkpt>
      <trkpt lat="45.9457120" lon="4.5995385">
        <ele>508.6700000</ele>
        <time>2013-04-07T09:50:49Z</time>
      </trkpt>
      <trkpt lat="45.9456969" lon="4.5995348">
        <ele>508.1900000</ele>
        <time>2013-04-07T09:50:50Z</time>
      </trkpt>
      <trkpt lat="45.9455296" lon="4.5994136">
        <ele>511.0800000</ele>
        <time>2013-04-07T09:51:04Z</time>
      </trkpt>
      <trkpt lat="45.9454428" lon="4.5993612">
        <ele>512.5200000</ele>
        <time>2013-04-07T09:51:12Z</time>
      </trkpt>
      <trkpt lat="45.9454317" lon="4.5993649">
        <ele>512.0400000</ele>
        <time>2013-04-07T09:51:13Z</time>
      </trkpt>
      <trkpt lat="45.9454056" lon="4.5993818">
        <ele>512.0400000</ele>
        <time>2013-04-07T09:51:15Z</time>
      </trkpt>
      <trkpt lat="45.9453895" lon="4.5993921">
        <ele>513.0000000</ele>
        <time>2013-04-07T09:51:16Z</time>
      </trkpt>
      <trkpt lat="45.9453741" lon="4.5994060">
        <ele>512.5200000</ele>
        <time>2013-04-07T09:51:17Z</time>
      </trkpt>
      <trkpt lat="45.9450418" lon="4.5997566">
        <ele>514.4400000</ele>
        <time>2013-04-07T09:51:34Z</time>
      </trkpt>
      <trkpt lat="45.9448350" lon="4.6000746">
        <ele>512.5200000</ele>
        <time>2013-04-07T09:51:42Z</time>
      </trkpt>
      <trkpt lat="45.9444361" lon="4.6006629">
        <ele>511.0800000</ele>
        <time>2013-04-07T09:51:55Z</time>
      </trkpt>
      <trkpt lat="45.9444385" lon="4.6007231">
        <ele>511.0800000</ele>
        <time>2013-04-07T09:51:56Z</time>
      </trkpt>
      <trkpt lat="45.9444658" lon="4.6007791">
        <ele>510.6000000</ele>
        <time>2013-04-07T09:51:57Z</time>
      </trkpt>
      <trkpt lat="45.9445333" lon="4.6009259">
        <ele>509.6400000</ele>
        <time>2013-04-07T09:52:00Z</time>
      </trkpt>
      <trkpt lat="45.9445231" lon="4.6009792">
        <ele>509.1600000</ele>
        <time>2013-04-07T09:52:01Z</time>
      </trkpt>
      <trkpt lat="45.9445008" lon="4.6010147">
        <ele>508.6700000</ele>
        <time>2013-04-07T09:52:02Z</time>
      </trkpt>
      <trkpt lat="45.9444723" lon="4.6010368">
        <ele>508.6700000</ele>
        <time>2013-04-07T09:52:03Z</time>
      </trkpt>
      <trkpt lat="45.9444430" lon="4.6010584">
        <ele>508.6700000</ele>
        <time>2013-04-07T09:52:04Z</time>
      </trkpt>
      <trkpt lat="45.9444119" lon="4.6010837">
        <ele>508.6700000</ele>
        <time>2013-04-07T09:52:05Z</time>
      </trkpt>
      <trkpt lat="45.9443791" lon="4.6011110">
        <ele>508.6700000</ele>
        <time>2013-04-07T09:52:06Z</time>
      </trkpt>
      <trkpt lat="45.9442678" lon="4.6011829">
        <ele>508.6700000</ele>
        <time>2013-04-07T09:52:09Z</time>
      </trkpt>
      <trkpt lat="45.9441056" lon="4.6012771">
        <ele>508.6700000</ele>
        <time>2013-04-07T09:52:13Z</time>
      </trkpt>
      <trkpt lat="45.9438025" lon="4.6013302">
        <ele>508.1900000</ele>
        <time>2013-04-07T09:52:19Z</time>
      </trkpt>
      <trkpt lat="45.9437507" lon="4.6013167">
        <ele>507.7100000</ele>
        <time>2013-04-07T09:52:20Z</time>
      </trkpt>
      <trkpt lat="45.9437014" lon="4.6012941">
        <ele>508.1900000</ele>
        <time>2013-04-07T09:52:21Z</time>
      </trkpt>
      <trkpt lat="45.9436522" lon="4.6012685">
        <ele>507.7100000</ele>
        <time>2013-04-07T09:52:22Z</time>
      </trkpt>
      <trkpt lat="45.9436004" lon="4.6012447">
        <ele>507.7100000</ele>
        <time>2013-04-07T09:52:23Z</time>
      </trkpt>
      <trkpt lat="45.9435450" lon="4.6012250">
        <ele>507.2300000</ele>
        <time>2013-04-07T09:52:24Z</time>
      </trkpt>
      <trkpt lat="45.9427941" lon="4.6011877">
        <ele>504.8300000</ele>
        <time>2013-04-07T09:52:36Z</time>
      </trkpt>
      <trkpt lat="45.9424086" lon="4.6012460">
        <ele>504.3500000</ele>
        <time>2013-04-07T09:52:42Z</time>
      </trkpt>
      <trkpt lat="45.9423559" lon="4.6012888">
        <ele>504.3500000</ele>
        <time>2013-04-07T09:52:43Z</time>
      </trkpt>
      <trkpt lat="45.9422395" lon="4.6013949">
        <ele>501.4600000</ele>
        <time>2013-04-07T09:52:45Z</time>
      </trkpt>
      <trkpt lat="45.9421668" lon="4.6014224">
        <ele>500.5000000</ele>
        <time>2013-04-07T09:52:46Z</time>
      </trkpt>
      <trkpt lat="45.9419607" lon="4.6014564">
        <ele>500.5000000</ele>
        <time>2013-04-07T09:52:49Z</time>
      </trkpt>
      <trkpt lat="45.9419112" lon="4.6014550">
        <ele>500.9800000</ele>
        <time>2013-04-07T09:52:50Z</time>
      </trkpt>
      <trkpt lat="45.9418398" lon="4.6012839">
        <ele>502.9100000</ele>
        <time>2013-04-07T09:52:56Z</time>
      </trkpt>
      <trkpt lat="45.9418367" lon="4.6012561">
        <ele>502.9100000</ele>
        <time>2013-04-07T09:52:57Z</time>
      </trkpt>
      <trkpt lat="45.9417906" lon="4.6008826">
        <ele>506.7500000</ele>
        <time>2013-04-07T09:53:11Z</time>
      </trkpt>
      <trkpt lat="45.9417814" lon="4.6007730">
        <ele>507.7100000</ele>
        <time>2013-04-07T09:53:16Z</time>
      </trkpt>
      <trkpt lat="45.9417219" lon="4.6004602">
        <ele>510.1200000</ele>
        <time>2013-04-07T09:53:31Z</time>
      </trkpt>
      <trkpt lat="45.9415545" lon="4.6004459">
        <ele>511.5600000</ele>
        <time>2013-04-07T09:53:42Z</time>
      </trkpt>
      <trkpt lat="45.9413111" lon="4.6004789">
        <ele>513.0000000</ele>
        <time>2013-04-07T09:53:52Z</time>
      </trkpt>
      <trkpt lat="45.9411747" lon="4.6005256">
        <ele>512.5200000</ele>
        <time>2013-04-07T09:53:58Z</time>
      </trkpt>
      <trkpt lat="45.9411348" lon="4.6005640">
        <ele>511.5600000</ele>
        <time>2013-04-07T09:53:59Z</time>
      </trkpt>
      <trkpt lat="45.9407520" lon="4.6008433">
        <ele>508.6700000</ele>
        <time>2013-04-07T09:54:06Z</time>
      </trkpt>
      <trkpt lat="45.9401961" lon="4.6013036">
        <ele>508.1900000</ele>
        <time>2013-04-07T09:54:17Z</time>
      </trkpt>
      <trkpt lat="45.9401632" lon="4.6013364">
        <ele>508.1900000</ele>
        <time>2013-04-07T09:54:18Z</time>
      </trkpt>
      <trkpt lat="45.9401381" lon="4.6013755">
        <ele>508.1900000</ele>
        <time>2013-04-07T09:54:19Z</time>
      </trkpt>
      <trkpt lat="45.9401340" lon="4.6014254">
        <ele>507.7100000</ele>
        <time>2013-04-07T09:54:20Z</time>
      </trkpt>
      <trkpt lat="45.9401468" lon="4.6014817">
        <ele>507.7100000</ele>
        <time>2013-04-07T09:54:21Z</time>
      </trkpt>
      <trkpt lat="45.9401647" lon="4.6015387">
        <ele>506.7500000</ele>
        <time>2013-04-07T09:54:22Z</time>
      </trkpt>
      <trkpt lat="45.9401862" lon="4.6015968">
        <ele>506.7500000</ele>
        <time>2013-04-07T09:54:23Z</time>
      </trkpt>
      <trkpt lat="45.9402798" lon="4.6018453">
        <ele>505.3100000</ele>
        <time>2013-04-07T09:54:27Z</time>
      </trkpt>
      <trkpt lat="45.9404319" lon="4.6022422">
        <ele>502.4300000</ele>
        <time>2013-04-07T09:54:34Z</time>
      </trkpt>
      <trkpt lat="45.9405293" lon="4.6024354">
        <ele>500.0200000</ele>
        <time>2013-04-07T09:54:41Z</time>
      </trkpt>
      <trkpt lat="45.9405496" lon="4.6024904">
        <ele>499.5400000</ele>
        <time>2013-04-07T09:54:42Z</time>
      </trkpt>
      <trkpt lat="45.9405634" lon="4.6025565">
        <ele>498.1000000</ele>
        <time>2013-04-07T09:54:43Z</time>
      </trkpt>
      <trkpt lat="45.9406022" lon="4.6027750">
        <ele>495.2200000</ele>
        <time>2013-04-07T09:54:46Z</time>
      </trkpt>
      <trkpt lat="45.9406183" lon="4.6028474">
        <ele>493.7700000</ele>
        <time>2013-04-07T09:54:47Z</time>
      </trkpt>
      <trkpt lat="45.9406375" lon="4.6029102">
        <ele>492.8100000</ele>
        <time>2013-04-07T09:54:48Z</time>
      </trkpt>
      <trkpt lat="45.9407069" lon="4.6031071">
        <ele>488.4900000</ele>
        <time>2013-04-07T09:54:52Z</time>
      </trkpt>
      <trkpt lat="45.9407423" lon="4.6031610">
        <ele>486.5600000</ele>
        <time>2013-04-07T09:54:53Z</time>
      </trkpt>
      <trkpt lat="45.9407867" lon="4.6032069">
        <ele>485.6000000</ele>
        <time>2013-04-07T09:54:54Z</time>
      </trkpt>
      <trkpt lat="45.9409330" lon="4.6033288">
        <ele>482.2400000</ele>
        <time>2013-04-07T09:54:57Z</time>
      </trkpt>
      <trkpt lat="45.9409782" lon="4.6033520">
        <ele>481.7600000</ele>
        <time>2013-04-07T09:54:58Z</time>
      </trkpt>
      <trkpt lat="45.9410182" lon="4.6033726">
        <ele>480.3200000</ele>
        <time>2013-04-07T09:54:59Z</time>
      </trkpt>
      <trkpt lat="45.9410517" lon="4.6034103">
        <ele>479.3500000</ele>
        <time>2013-04-07T09:55:00Z</time>
      </trkpt>
      <trkpt lat="45.9410775" lon="4.6034652">
        <ele>478.3900000</ele>
        <time>2013-04-07T09:55:01Z</time>
      </trkpt>
      <trkpt lat="45.9411002" lon="4.6035371">
        <ele>476.9500000</ele>
        <time>2013-04-07T09:55:02Z</time>
      </trkpt>
      <trkpt lat="45.9411238" lon="4.6036208">
        <ele>475.0300000</ele>
        <time>2013-04-07T09:55:03Z</time>
      </trkpt>
      <trkpt lat="45.9411470" lon="4.6036980">
        <ele>473.5900000</ele>
        <time>2013-04-07T09:55:04Z</time>
      </trkpt>
      <trkpt lat="45.9411695" lon="4.6037637">
        <ele>472.1400000</ele>
        <time>2013-04-07T09:55:05Z</time>
      </trkpt>
      <trkpt lat="45.9412098" lon="4.6038794">
        <ele>469.7400000</ele>
        <time>2013-04-07T09:55:07Z</time>
      </trkpt>
      <trkpt lat="45.9412025" lon="4.6039293">
        <ele>468.7800000</ele>
        <time>2013-04-07T09:55:08Z</time>
      </trkpt>
      <trkpt lat="45.9411709" lon="4.6039694">
        <ele>467.8200000</ele>
        <time>2013-04-07T09:55:09Z</time>
      </trkpt>
      <trkpt lat="45.9411243" lon="4.6040081">
        <ele>466.3800000</ele>
        <time>2013-04-07T09:55:10Z</time>
      </trkpt>
      <trkpt lat="45.9410703" lon="4.6040447">
        <ele>465.4200000</ele>
        <time>2013-04-07T09:55:11Z</time>
      </trkpt>
      <trkpt lat="45.9410073" lon="4.6040799">
        <ele>463.9700000</ele>
        <time>2013-04-07T09:55:12Z</time>
      </trkpt>
      <trkpt lat="45.9407852" lon="4.6042144">
        <ele>461.5700000</ele>
        <time>2013-04-07T09:55:16Z</time>
      </trkpt>
      <trkpt lat="45.9407557" lon="4.6042758">
        <ele>460.1300000</ele>
        <time>2013-04-07T09:55:17Z</time>
      </trkpt>
      <trkpt lat="45.9406997" lon="4.6044479">
        <ele>456.7600000</ele>
        <time>2013-04-07T09:55:19Z</time>
      </trkpt>
      <trkpt lat="45.9406602" lon="4.6045289">
        <ele>455.3200000</ele>
        <time>2013-04-07T09:55:20Z</time>
      </trkpt>
      <trkpt lat="45.9406047" lon="4.6045914">
        <ele>454.3600000</ele>
        <time>2013-04-07T09:55:21Z</time>
      </trkpt>
      <trkpt lat="45.9405377" lon="4.6046365">
        <ele>452.9200000</ele>
        <time>2013-04-07T09:55:22Z</time>
      </trkpt>
      <trkpt lat="45.9404634" lon="4.6046717">
        <ele>453.4000000</ele>
        <time>2013-04-07T09:55:23Z</time>
      </trkpt>
      <trkpt lat="45.9403856" lon="4.6046977">
        <ele>452.4400000</ele>
        <time>2013-04-07T09:55:24Z</time>
      </trkpt>
      <trkpt lat="45.9403065" lon="4.6047146">
        <ele>451.4800000</ele>
        <time>2013-04-07T09:55:25Z</time>
      </trkpt>
      <trkpt lat="45.9402261" lon="4.6047237">
        <ele>451.4800000</ele>
        <time>2013-04-07T09:55:26Z</time>
      </trkpt>
      <trkpt lat="45.9401481" lon="4.6047364">
        <ele>450.5200000</ele>
        <time>2013-04-07T09:55:27Z</time>
      </trkpt>
      <trkpt lat="45.9400763" lon="4.6047575">
        <ele>450.5200000</ele>
        <time>2013-04-07T09:55:28Z</time>
      </trkpt>
      <trkpt lat="45.9400183" lon="4.6047817">
        <ele>450.0300000</ele>
        <time>2013-04-07T09:55:29Z</time>
      </trkpt>
      <trkpt lat="45.9399729" lon="4.6048040">
        <ele>449.5500000</ele>
        <time>2013-04-07T09:55:30Z</time>
      </trkpt>
      <trkpt lat="45.9399277" lon="4.6048113">
        <ele>448.5900000</ele>
        <time>2013-04-07T09:55:31Z</time>
      </trkpt>
      <trkpt lat="45.9398790" lon="4.6048078">
        <ele>448.5900000</ele>
        <time>2013-04-07T09:55:32Z</time>
      </trkpt>
      <trkpt lat="45.9398336" lon="4.6047996">
        <ele>448.5900000</ele>
        <time>2013-04-07T09:55:33Z</time>
      </trkpt>
      <trkpt lat="45.9397957" lon="4.6047902">
        <ele>449.0700000</ele>
        <time>2013-04-07T09:55:34Z</time>
      </trkpt>
      <trkpt lat="45.9394704" lon="4.6047570">
        <ele>450.5200000</ele>
        <time>2013-04-07T09:55:47Z</time>
      </trkpt>
      <trkpt lat="45.9394103" lon="4.6047543">
        <ele>451.9600000</ele>
        <time>2013-04-07T09:55:50Z</time>
      </trkpt>
      <trkpt lat="45.9393907" lon="4.6047522">
        <ele>451.9600000</ele>
        <time>2013-04-07T09:55:51Z</time>
      </trkpt>
      <trkpt lat="45.9393305" lon="4.6047295">
        <ele>452.4400000</ele>
        <time>2013-04-07T09:55:55Z</time>
      </trkpt>
      <trkpt lat="45.9393159" lon="4.6047297">
        <ele>452.9200000</ele>
        <time>2013-04-07T09:55:56Z</time>
      </trkpt>
      <trkpt lat="45.9393000" lon="4.6047267">
        <ele>452.9200000</ele>
        <time>2013-04-07T09:55:57Z</time>
      </trkpt>
      <trkpt lat="45.9390068" lon="4.6047216">
        <ele>453.8800000</ele>
        <time>2013-04-07T09:56:14Z</time>
      </trkpt>
      <trkpt lat="45.9387535" lon="4.6047529">
        <ele>455.8000000</ele>
        <time>2013-04-07T09:56:25Z</time>
      </trkpt>
      <trkpt lat="45.9384292" lon="4.6048534">
        <ele>457.7200000</ele>
        <time>2013-04-07T09:56:39Z</time>
      </trkpt>
      <trkpt lat="45.9382339" lon="4.6049003">
        <ele>460.6100000</ele>
        <time>2013-04-07T09:56:52Z</time>
      </trkpt>
      <trkpt lat="45.9382217" lon="4.6048993">
        <ele>460.6100000</ele>
        <time>2013-04-07T09:56:53Z</time>
      </trkpt>
      <trkpt lat="45.9380718" lon="4.6048744">
        <ele>463.4900000</ele>
        <time>2013-04-07T09:57:06Z</time>
      </trkpt>
      <trkpt lat="45.9379020" lon="4.6049254">
        <ele>465.4200000</ele>
        <time>2013-04-07T09:57:21Z</time>
      </trkpt>
      <trkpt lat="45.9378901" lon="4.6049330">
        <ele>464.9300000</ele>
        <time>2013-04-07T09:57:22Z</time>
      </trkpt>
      <trkpt lat="45.9378772" lon="4.6049381">
        <ele>465.4200000</ele>
        <time>2013-04-07T09:57:23Z</time>
      </trkpt>
      <trkpt lat="45.9378518" lon="4.6049403">
        <ele>465.9000000</ele>
        <time>2013-04-07T09:57:25Z</time>
      </trkpt>
      <trkpt lat="45.9378383" lon="4.6049382">
        <ele>465.9000000</ele>
        <time>2013-04-07T09:57:26Z</time>
      </trkpt>
      <trkpt lat="45.9378226" lon="4.6049423">
        <ele>465.9000000</ele>
        <time>2013-04-07T09:57:27Z</time>
      </trkpt>
      <trkpt lat="45.9378069" lon="4.6049459">
        <ele>465.9000000</ele>
        <time>2013-04-07T09:57:28Z</time>
      </trkpt>
      <trkpt lat="45.9377935" lon="4.6049505">
        <ele>466.3800000</ele>
        <time>2013-04-07T09:57:29Z</time>
      </trkpt>
      <trkpt lat="45.9376128" lon="4.6049645">
        <ele>467.8200000</ele>
        <time>2013-04-07T09:57:43Z</time>
      </trkpt>
      <trkpt lat="45.9375564" lon="4.6049615">
        <ele>468.7800000</ele>
        <time>2013-04-07T09:57:48Z</time>
      </trkpt>
      <trkpt lat="45.9375444" lon="4.6049633">
        <ele>469.2600000</ele>
        <time>2013-04-07T09:57:49Z</time>
      </trkpt>
      <trkpt lat="45.9375316" lon="4.6049632">
        <ele>469.2600000</ele>
        <time>2013-04-07T09:57:50Z</time>
      </trkpt>
      <trkpt lat="45.9375192" lon="4.6049578">
        <ele>469.2600000</ele>
        <time>2013-04-07T09:57:51Z</time>
      </trkpt>
      <trkpt lat="45.9375085" lon="4.6049541">
        <ele>469.7400000</ele>
        <time>2013-04-07T09:57:52Z</time>
      </trkpt>
      <trkpt lat="45.9374969" lon="4.6049508">
        <ele>469.7400000</ele>
        <time>2013-04-07T09:57:53Z</time>
      </trkpt>
      <trkpt lat="45.9374851" lon="4.6049485">
        <ele>470.2200000</ele>
        <time>2013-04-07T09:57:54Z</time>
      </trkpt>
      <trkpt lat="45.9374736" lon="4.6049448">
        <ele>470.2200000</ele>
        <time>2013-04-07T09:57:55Z</time>
      </trkpt>
      <trkpt lat="45.9374628" lon="4.6049386">
        <ele>471.1800000</ele>
        <time>2013-04-07T09:57:56Z</time>
      </trkpt>
      <trkpt lat="45.9374523" lon="4.6049353">
        <ele>471.1800000</ele>
        <time>2013-04-07T09:57:57Z</time>
      </trkpt>
      <trkpt lat="45.9374427" lon="4.6049365">
        <ele>471.1800000</ele>
        <time>2013-04-07T09:57:58Z</time>
      </trkpt>
      <trkpt lat="45.9373895" lon="4.6049101">
        <ele>473.1100000</ele>
        <time>2013-04-07T09:58:03Z</time>
      </trkpt>
      <trkpt lat="45.9373015" lon="4.6048956">
        <ele>472.6300000</ele>
        <time>2013-04-07T09:58:10Z</time>
      </trkpt>
      <trkpt lat="45.9372806" lon="4.6049026">
        <ele>472.6300000</ele>
        <time>2013-04-07T09:58:11Z</time>
      </trkpt>
      <trkpt lat="45.9372551" lon="4.6049163">
        <ele>472.6300000</ele>
        <time>2013-04-07T09:58:12Z</time>
      </trkpt>
      <trkpt lat="45.9370736" lon="4.6050086">
        <ele>468.7800000</ele>
        <time>2013-04-07T09:58:16Z</time>
      </trkpt>
      <trkpt lat="45.9369372" lon="4.6050827">
        <ele>465.4200000</ele>
        <time>2013-04-07T09:58:18Z</time>
      </trkpt>
      <trkpt lat="45.9368628" lon="4.6051355">
        <ele>464.9300000</ele>
        <time>2013-04-07T09:58:19Z</time>
      </trkpt>
      <trkpt lat="45.9367011" lon="4.6052833">
        <ele>461.5700000</ele>
        <time>2013-04-07T09:58:21Z</time>
      </trkpt>
      <trkpt lat="45.9364406" lon="4.6055545">
        <ele>456.7600000</ele>
        <time>2013-04-07T09:58:24Z</time>
      </trkpt>
      <trkpt lat="45.9362744" lon="4.6057471">
        <ele>455.3200000</ele>
        <time>2013-04-07T09:58:26Z</time>
      </trkpt>
      <trkpt lat="45.9360161" lon="4.6061189">
        <ele>451.9600000</ele>
        <time>2013-04-07T09:58:30Z</time>
      </trkpt>
      <trkpt lat="45.9356401" lon="4.6067452">
        <ele>448.5900000</ele>
        <time>2013-04-07T09:58:37Z</time>
      </trkpt>
      <trkpt lat="45.9355835" lon="4.6068363">
        <ele>448.5900000</ele>
        <time>2013-04-07T09:58:38Z</time>
      </trkpt>
      <trkpt lat="45.9354193" lon="4.6071552">
        <ele>445.2300000</ele>
        <time>2013-04-07T09:58:41Z</time>
      </trkpt>
      <trkpt lat="45.9353275" lon="4.6073897">
        <ele>444.2700000</ele>
        <time>2013-04-07T09:58:43Z</time>
      </trkpt>
      <trkpt lat="45.9351949" lon="4.6078961">
        <ele>441.3800000</ele>
        <time>2013-04-07T09:58:47Z</time>
      </trkpt>
      <trkpt lat="45.9351623" lon="4.6080291">
        <ele>441.3800000</ele>
        <time>2013-04-07T09:58:48Z</time>
      </trkpt>
      <trkpt lat="45.9350748" lon="4.6084237">
        <ele>439.9400000</ele>
        <time>2013-04-07T09:58:51Z</time>
      </trkpt>
      <trkpt lat="45.9349606" lon="4.6094752">
        <ele>441.3800000</ele>
        <time>2013-04-07T09:59:00Z</time>
      </trkpt>
      <trkpt lat="45.9349358" lon="4.6095581">
        <ele>441.3800000</ele>
        <time>2013-04-07T09:59:01Z</time>
      </trkpt>
      <trkpt lat="45.9349068" lon="4.6096390">
        <ele>441.3800000</ele>
        <time>2013-04-07T09:59:02Z</time>
      </trkpt>
      <trkpt lat="45.9348771" lon="4.6097198">
        <ele>441.3800000</ele>
        <time>2013-04-07T09:59:03Z</time>
      </trkpt>
      <trkpt lat="45.9348489" lon="4.6097995">
        <ele>440.9000000</ele>
        <time>2013-04-07T09:59:04Z</time>
      </trkpt>
      <trkpt lat="45.9348234" lon="4.6098803">
        <ele>440.9000000</ele>
        <time>2013-04-07T09:59:05Z</time>
      </trkpt>
      <trkpt lat="45.9347923" lon="4.6099604">
        <ele>440.4200000</ele>
        <time>2013-04-07T09:59:06Z</time>
      </trkpt>
      <trkpt lat="45.9347551" lon="4.6100338">
        <ele>440.9000000</ele>
        <time>2013-04-07T09:59:07Z</time>
      </trkpt>
      <trkpt lat="45.9345114" lon="4.6103499">
        <ele>439.4600000</ele>
        <time>2013-04-07T09:59:13Z</time>
      </trkpt>
      <trkpt lat="45.9339905" lon="4.6107067">
        <ele>439.9400000</ele>
        <time>2013-04-07T09:59:23Z</time>
      </trkpt>
      <trkpt lat="45.9339486" lon="4.6107175">
        <ele>439.9400000</ele>
        <time>2013-04-07T09:59:24Z</time>
      </trkpt>
      <trkpt lat="45.9339179" lon="4.6107180">
        <ele>440.9000000</ele>
        <time>2013-04-07T09:59:25Z</time>
      </trkpt>
      <trkpt lat="45.9338960" lon="4.6107124">
        <ele>441.3800000</ele>
        <time>2013-04-07T09:59:26Z</time>
      </trkpt>
      <trkpt lat="45.9338727" lon="4.6107117">
        <ele>442.3400000</ele>
        <time>2013-04-07T09:59:27Z</time>
      </trkpt>
      <trkpt lat="45.9338447" lon="4.6107138">
        <ele>442.3400000</ele>
        <time>2013-04-07T09:59:28Z</time>
      </trkpt>
      <trkpt lat="45.9335540" lon="4.6107754">
        <ele>441.3800000</ele>
        <time>2013-04-07T09:59:37Z</time>
      </trkpt>
      <trkpt lat="45.9335168" lon="4.6108079">
        <ele>441.3800000</ele>
        <time>2013-04-07T09:59:38Z</time>
      </trkpt>
      <trkpt lat="45.9334775" lon="4.6108543">
        <ele>439.9400000</ele>
        <time>2013-04-07T09:59:39Z</time>
      </trkpt>
      <trkpt lat="45.9334312" lon="4.6109088">
        <ele>439.9400000</ele>
        <time>2013-04-07T09:59:40Z</time>
      </trkpt>
      <trkpt lat="45.9333798" lon="4.6109581">
        <ele>438.9800000</ele>
        <time>2013-04-07T09:59:41Z</time>
      </trkpt>
      <trkpt lat="45.9331051" lon="4.6111705">
        <ele>436.1000000</ele>
        <time>2013-04-07T09:59:45Z</time>
      </trkpt>
      <trkpt lat="45.9321234" lon="4.6116542">
        <ele>433.6900000</ele>
        <time>2013-04-07T09:59:57Z</time>
      </trkpt>
      <trkpt lat="45.9312489" lon="4.6118941">
        <ele>432.7300000</ele>
        <time>2013-04-07T10:00:10Z</time>
      </trkpt>
      <trkpt lat="45.9305758" lon="4.6123322">
        <ele>432.2500000</ele>
        <time>2013-04-07T10:00:22Z</time>
      </trkpt>
      <trkpt lat="45.9303046" lon="4.6126346">
        <ele>430.8100000</ele>
        <time>2013-04-07T10:00:29Z</time>
      </trkpt>
      <trkpt lat="45.9300947" lon="4.6129648">
        <ele>428.4000000</ele>
        <time>2013-04-07T10:00:35Z</time>
      </trkpt>
      <trkpt lat="45.9299429" lon="4.6131456">
        <ele>426.9600000</ele>
        <time>2013-04-07T10:00:38Z</time>
      </trkpt>
      <trkpt lat="45.9299041" lon="4.6131762">
        <ele>426.9600000</ele>
        <time>2013-04-07T10:00:39Z</time>
      </trkpt>
      <trkpt lat="45.9298850" lon="4.6131895">
        <ele>427.4400000</ele>
        <time>2013-04-07T10:00:40Z</time>
      </trkpt>
      <trkpt lat="45.9298792" lon="4.6132001">
        <ele>426.9600000</ele>
        <time>2013-04-07T10:00:41Z</time>
      </trkpt>
      <trkpt lat="45.9299159" lon="4.6132304">
        <ele>426.4800000</ele>
        <time>2013-04-07T10:00:44Z</time>
      </trkpt>
      <trkpt lat="45.9300520" lon="4.6132459">
        <ele>424.5600000</ele>
        <time>2013-04-07T10:00:48Z</time>
      </trkpt>
      <trkpt lat="45.9301052" lon="4.6132687">
        <ele>423.6000000</ele>
        <time>2013-04-07T10:00:49Z</time>
      </trkpt>
      <trkpt lat="45.9301628" lon="4.6133038">
        <ele>422.6400000</ele>
        <time>2013-04-07T10:00:50Z</time>
      </trkpt>
      <trkpt lat="45.9302211" lon="4.6133518">
        <ele>421.6800000</ele>
        <time>2013-04-07T10:00:51Z</time>
      </trkpt>
      <trkpt lat="45.9302796" lon="4.6134072">
        <ele>420.7100000</ele>
        <time>2013-04-07T10:00:52Z</time>
      </trkpt>
      <trkpt lat="45.9304030" lon="4.6135073">
        <ele>418.3100000</ele>
        <time>2013-04-07T10:00:54Z</time>
      </trkpt>
      <trkpt lat="45.9304705" lon="4.6135341">
        <ele>416.8700000</ele>
        <time>2013-04-07T10:00:55Z</time>
      </trkpt>
      <trkpt lat="45.9305337" lon="4.6135448">
        <ele>415.9100000</ele>
        <time>2013-04-07T10:00:56Z</time>
      </trkpt>
      <trkpt lat="45.9306211" lon="4.6135558">
        <ele>414.9500000</ele>
        <time>2013-04-07T10:00:58Z</time>
      </trkpt>
      <trkpt lat="45.9306332" lon="4.6136013">
        <ele>413.9800000</ele>
        <time>2013-04-07T10:01:00Z</time>
      </trkpt>
      <trkpt lat="45.9305505" lon="4.6136804">
        <ele>413.9800000</ele>
        <time>2013-04-07T10:01:03Z</time>
      </trkpt>
      <trkpt lat="45.9305100" lon="4.6137106">
        <ele>413.9800000</ele>
        <time>2013-04-07T10:01:04Z</time>
      </trkpt>
      <trkpt lat="45.9300247" lon="4.6141231">
        <ele>413.9800000</ele>
        <time>2013-04-07T10:01:15Z</time>
      </trkpt>
      <trkpt lat="45.9295976" lon="4.6143939">
        <ele>413.9800000</ele>
        <time>2013-04-07T10:01:24Z</time>
      </trkpt>
      <trkpt lat="45.9295569" lon="4.6144404">
        <ele>414.4700000</ele>
        <time>2013-04-07T10:01:25Z</time>
      </trkpt>
      <trkpt lat="45.9295181" lon="4.6144928">
        <ele>413.5000000</ele>
        <time>2013-04-07T10:01:26Z</time>
      </trkpt>
      <trkpt lat="45.9293652" lon="4.6147848">
        <ele>409.6600000</ele>
        <time>2013-04-07T10:01:30Z</time>
      </trkpt>
      <trkpt lat="45.9293297" lon="4.6148878">
        <ele>409.1800000</ele>
        <time>2013-04-07T10:01:31Z</time>
      </trkpt>
      <trkpt lat="45.9292308" lon="4.6152639">
        <ele>403.8900000</ele>
        <time>2013-04-07T10:01:34Z</time>
      </trkpt>
      <trkpt lat="45.9291554" lon="4.6155371">
        <ele>401.4900000</ele>
        <time>2013-04-07T10:01:36Z</time>
      </trkpt>
      <trkpt lat="45.9291124" lon="4.6156521">
        <ele>399.5700000</ele>
        <time>2013-04-07T10:01:37Z</time>
      </trkpt>
      <trkpt lat="45.9290714" lon="4.6157446">
        <ele>400.5300000</ele>
        <time>2013-04-07T10:01:38Z</time>
      </trkpt>
      <trkpt lat="45.9290099" lon="4.6158734">
        <ele>400.0500000</ele>
        <time>2013-04-07T10:01:40Z</time>
      </trkpt>
      <trkpt lat="45.9289739" lon="4.6159296">
        <ele>400.0500000</ele>
        <time>2013-04-07T10:01:41Z</time>
      </trkpt>
      <trkpt lat="45.9288846" lon="4.6160550">
        <ele>398.1200000</ele>
        <time>2013-04-07T10:01:43Z</time>
      </trkpt>
      <trkpt lat="45.9287044" lon="4.6162507">
        <ele>395.7200000</ele>
        <time>2013-04-07T10:01:46Z</time>
      </trkpt>
      <trkpt lat="45.9285772" lon="4.6164119">
        <ele>393.8000000</ele>
        <time>2013-04-07T10:01:48Z</time>
      </trkpt>
      <trkpt lat="45.9285181" lon="4.6165151">
        <ele>392.3600000</ele>
        <time>2013-04-07T10:01:49Z</time>
      </trkpt>
      <trkpt lat="45.9284045" lon="4.6167383">
        <ele>388.9900000</ele>
        <time>2013-04-07T10:01:51Z</time>
      </trkpt>
      <trkpt lat="45.9283515" lon="4.6168376">
        <ele>388.9900000</ele>
        <time>2013-04-07T10:01:52Z</time>
      </trkpt>
      <trkpt lat="45.9282938" lon="4.6169109">
        <ele>388.5100000</ele>
        <time>2013-04-07T10:01:53Z</time>
      </trkpt>
      <trkpt lat="45.9282225" lon="4.6169533">
        <ele>388.0300000</ele>
        <time>2013-04-07T10:01:54Z</time>
      </trkpt>
      <trkpt lat="45.9281501" lon="4.6169705">
        <ele>388.0300000</ele>
        <time>2013-04-07T10:01:55Z</time>
      </trkpt>
      <trkpt lat="45.9280915" lon="4.6169815">
        <ele>388.0300000</ele>
        <time>2013-04-07T10:01:56Z</time>
      </trkpt>
      <trkpt lat="45.9280425" lon="4.6170054">
        <ele>388.0300000</ele>
        <time>2013-04-07T10:01:57Z</time>
      </trkpt>
      <trkpt lat="45.9280007" lon="4.6170568">
        <ele>387.5500000</ele>
        <time>2013-04-07T10:01:58Z</time>
      </trkpt>
      <trkpt lat="45.9279718" lon="4.6171322">
        <ele>387.0700000</ele>
        <time>2013-04-07T10:01:59Z</time>
      </trkpt>
      <trkpt lat="45.9279488" lon="4.6172185">
        <ele>387.0700000</ele>
        <time>2013-04-07T10:02:00Z</time>
      </trkpt>
      <trkpt lat="45.9278853" lon="4.6173987">
        <ele>385.6300000</ele>
        <time>2013-04-07T10:02:02Z</time>
      </trkpt>
      <trkpt lat="45.9278398" lon="4.6174871">
        <ele>384.6600000</ele>
        <time>2013-04-07T10:02:03Z</time>
      </trkpt>
      <trkpt lat="45.9276966" lon="4.6177785">
        <ele>381.3000000</ele>
        <time>2013-04-07T10:02:06Z</time>
      </trkpt>
      <trkpt lat="45.9276590" lon="4.6178948">
        <ele>379.8600000</ele>
        <time>2013-04-07T10:02:07Z</time>
      </trkpt>
      <trkpt lat="45.9275948" lon="4.6181331">
        <ele>378.4200000</ele>
        <time>2013-04-07T10:02:09Z</time>
      </trkpt>
      <trkpt lat="45.9275380" lon="4.6183957">
        <ele>377.9400000</ele>
        <time>2013-04-07T10:02:12Z</time>
      </trkpt>
      <trkpt lat="45.9275353" lon="4.6184405">
        <ele>377.9400000</ele>
        <time>2013-04-07T10:02:13Z</time>
      </trkpt>
      <trkpt lat="45.9275435" lon="4.6185078">
        <ele>377.9400000</ele>
        <time>2013-04-07T10:02:19Z</time>
      </trkpt>
      <trkpt lat="45.9275522" lon="4.6185417">
        <ele>377.4500000</ele>
        <time>2013-04-07T10:02:20Z</time>
      </trkpt>
      <trkpt lat="45.9275644" lon="4.6185737">
        <ele>377.4500000</ele>
        <time>2013-04-07T10:02:21Z</time>
      </trkpt>
      <trkpt lat="45.9275780" lon="4.6186066">
        <ele>377.4500000</ele>
        <time>2013-04-07T10:02:22Z</time>
      </trkpt>
      <trkpt lat="45.9275899" lon="4.6186457">
        <ele>377.4500000</ele>
        <time>2013-04-07T10:02:23Z</time>
      </trkpt>
      <trkpt lat="45.9276213" lon="4.6190555">
        <ele>376.4900000</ele>
        <time>2013-04-07T10:02:31Z</time>
      </trkpt>
      <trkpt lat="45.9276070" lon="4.6192551">
        <ele>376.4900000</ele>
        <time>2013-04-07T10:02:34Z</time>
      </trkpt>
      <trkpt lat="45.9275914" lon="4.6193256">
        <ele>376.4900000</ele>
        <time>2013-04-07T10:02:35Z</time>
      </trkpt>
      <trkpt lat="45.9275675" lon="4.6193953">
        <ele>376.9700000</ele>
        <time>2013-04-07T10:02:36Z</time>
      </trkpt>
      <trkpt lat="45.9271999" lon="4.6201914">
        <ele>376.9700000</ele>
        <time>2013-04-07T10:02:49Z</time>
      </trkpt>
      <trkpt lat="45.9271763" lon="4.6202546">
        <ele>376.4900000</ele>
        <time>2013-04-07T10:02:50Z</time>
      </trkpt>
      <trkpt lat="45.9271530" lon="4.6203173">
        <ele>376.9700000</ele>
        <time>2013-04-07T10:02:51Z</time>
      </trkpt>
      <trkpt lat="45.9271259" lon="4.6203831">
        <ele>377.4500000</ele>
        <time>2013-04-07T10:02:52Z</time>
      </trkpt>
      <trkpt lat="45.9270389" lon="4.6206459">
        <ele>377.4500000</ele>
        <time>2013-04-07T10:02:56Z</time>
      </trkpt>
      <trkpt lat="45.9270364" lon="4.6207113">
        <ele>377.4500000</ele>
        <time>2013-04-07T10:02:57Z</time>
      </trkpt>
      <trkpt lat="45.9270550" lon="4.6207695">
        <ele>377.9400000</ele>
        <time>2013-04-07T10:02:58Z</time>
      </trkpt>
      <trkpt lat="45.9270885" lon="4.6208040">
        <ele>377.9400000</ele>
        <time>2013-04-07T10:02:59Z</time>
      </trkpt>
      <trkpt lat="45.9271306" lon="4.6208169">
        <ele>378.4200000</ele>
        <time>2013-04-07T10:03:00Z</time>
      </trkpt>
      <trkpt lat="45.9271766" lon="4.6208291">
        <ele>377.9400000</ele>
        <time>2013-04-07T10:03:01Z</time>
      </trkpt>
      <trkpt lat="45.9272253" lon="4.6208434">
        <ele>377.4500000</ele>
        <time>2013-04-07T10:03:02Z</time>
      </trkpt>
      <trkpt lat="45.9272747" lon="4.6208505">
        <ele>377.9400000</ele>
        <time>2013-04-07T10:03:03Z</time>
      </trkpt>
      <trkpt lat="45.9273230" lon="4.6208563">
        <ele>378.4200000</ele>
        <time>2013-04-07T10:03:04Z</time>
      </trkpt>
      <trkpt lat="45.9279742" lon="4.6210392">
        <ele>379.3800000</ele>
        <time>2013-04-07T10:03:18Z</time>
      </trkpt>
      <trkpt lat="45.9282846" lon="4.6212039">
        <ele>377.9400000</ele>
        <time>2013-04-07T10:03:24Z</time>
      </trkpt>
      <trkpt lat="45.9283284" lon="4.6212554">
        <ele>378.4200000</ele>
        <time>2013-04-07T10:03:25Z</time>
      </trkpt>
      <trkpt lat="45.9283676" lon="4.6213200">
        <ele>377.4500000</ele>
        <time>2013-04-07T10:03:26Z</time>
      </trkpt>
      <trkpt lat="45.9286552" lon="4.6219372">
        <ele>374.5700000</ele>
        <time>2013-04-07T10:03:34Z</time>
      </trkpt>
      <trkpt lat="45.9287011" lon="4.6220003">
        <ele>374.0900000</ele>
        <time>2013-04-07T10:03:35Z</time>
      </trkpt>
      <trkpt lat="45.9287552" lon="4.6220520">
        <ele>373.6100000</ele>
        <time>2013-04-07T10:03:36Z</time>
      </trkpt>
      <trkpt lat="45.9288160" lon="4.6220960">
        <ele>372.6500000</ele>
        <time>2013-04-07T10:03:37Z</time>
      </trkpt>
      <trkpt lat="45.9288825" lon="4.6221363">
        <ele>372.1700000</ele>
        <time>2013-04-07T10:03:38Z</time>
      </trkpt>
      <trkpt lat="45.9289507" lon="4.6221777">
        <ele>371.6900000</ele>
        <time>2013-04-07T10:03:39Z</time>
      </trkpt>
      <trkpt lat="45.9290198" lon="4.6222101">
        <ele>370.7300000</ele>
        <time>2013-04-07T10:03:40Z</time>
      </trkpt>
      <trkpt lat="45.9290848" lon="4.6222370">
        <ele>370.7300000</ele>
        <time>2013-04-07T10:03:41Z</time>
      </trkpt>
      <trkpt lat="45.9291980" lon="4.6222860">
        <ele>369.2800000</ele>
        <time>2013-04-07T10:03:43Z</time>
      </trkpt>
      <trkpt lat="45.9292440" lon="4.6223210">
        <ele>368.3200000</ele>
        <time>2013-04-07T10:03:44Z</time>
      </trkpt>
      <trkpt lat="45.9292834" lon="4.6223767">
        <ele>367.8400000</ele>
        <time>2013-04-07T10:03:45Z</time>
      </trkpt>
      <trkpt lat="45.9293079" lon="4.6224515">
        <ele>367.8400000</ele>
        <time>2013-04-07T10:03:46Z</time>
      </trkpt>
      <trkpt lat="45.9293094" lon="4.6225328">
        <ele>367.8400000</ele>
        <time>2013-04-07T10:03:47Z</time>
      </trkpt>
      <trkpt lat="45.9293014" lon="4.6226123">
        <ele>368.3200000</ele>
        <time>2013-04-07T10:03:48Z</time>
      </trkpt>
      <trkpt lat="45.9292237" lon="4.6237287">
        <ele>365.4400000</ele>
        <time>2013-04-07T10:04:02Z</time>
      </trkpt>
      <trkpt lat="45.9292021" lon="4.6238240">
        <ele>365.4400000</ele>
        <time>2013-04-07T10:04:03Z</time>
      </trkpt>
      <trkpt lat="45.9291737" lon="4.6239164">
        <ele>365.4400000</ele>
        <time>2013-04-07T10:04:04Z</time>
      </trkpt>
      <trkpt lat="45.9291392" lon="4.6240071">
        <ele>365.4400000</ele>
        <time>2013-04-07T10:04:05Z</time>
      </trkpt>
      <trkpt lat="45.9290997" lon="4.6240928">
        <ele>364.9600000</ele>
        <time>2013-04-07T10:04:06Z</time>
      </trkpt>
      <trkpt lat="45.9290594" lon="4.6241759">
        <ele>364.9600000</ele>
        <time>2013-04-07T10:04:07Z</time>
      </trkpt>
      <trkpt lat="45.9286972" lon="4.6252828">
        <ele>365.4400000</ele>
        <time>2013-04-07T10:04:20Z</time>
      </trkpt>
      <trkpt lat="45.9286101" lon="4.6255639">
        <ele>364.4800000</ele>
        <time>2013-04-07T10:04:24Z</time>
      </trkpt>
      <trkpt lat="45.9285794" lon="4.6256220">
        <ele>364.0000000</ele>
        <time>2013-04-07T10:04:25Z</time>
      </trkpt>
      <trkpt lat="45.9285469" lon="4.6256831">
        <ele>364.4800000</ele>
        <time>2013-04-07T10:04:26Z</time>
      </trkpt>
      <trkpt lat="45.9284840" lon="4.6258087">
        <ele>364.9600000</ele>
        <time>2013-04-07T10:04:28Z</time>
      </trkpt>
      <trkpt lat="45.9284468" lon="4.6258706">
        <ele>365.4400000</ele>
        <time>2013-04-07T10:04:29Z</time>
      </trkpt>
      <trkpt lat="45.9284046" lon="4.6259294">
        <ele>364.4800000</ele>
        <time>2013-04-07T10:04:30Z</time>
      </trkpt>
      <trkpt lat="45.9283153" lon="4.6260436">
        <ele>364.4800000</ele>
        <time>2013-04-07T10:04:32Z</time>
      </trkpt>
      <trkpt lat="45.9279628" lon="4.6263902">
        <ele>364.0000000</ele>
        <time>2013-04-07T10:04:38Z</time>
      </trkpt>
      <trkpt lat="45.9278924" lon="4.6264298">
        <ele>363.0400000</ele>
        <time>2013-04-07T10:04:39Z</time>
      </trkpt>
      <trkpt lat="45.9273118" lon="4.6266286">
        <ele>360.6300000</ele>
        <time>2013-04-07T10:04:49Z</time>
      </trkpt>
      <trkpt lat="45.9272513" lon="4.6266412">
        <ele>360.1500000</ele>
        <time>2013-04-07T10:04:50Z</time>
      </trkpt>
      <trkpt lat="45.9271867" lon="4.6266503">
        <ele>359.6700000</ele>
        <time>2013-04-07T10:04:51Z</time>
      </trkpt>
      <trkpt lat="45.9267469" lon="4.6267354">
        <ele>357.7500000</ele>
        <time>2013-04-07T10:04:57Z</time>
      </trkpt>
      <trkpt lat="45.9266808" lon="4.6268069">
        <ele>356.7900000</ele>
        <time>2013-04-07T10:04:58Z</time>
      </trkpt>
      <trkpt lat="45.9266330" lon="4.6269052">
        <ele>356.3100000</ele>
        <time>2013-04-07T10:04:59Z</time>
      </trkpt>
      <trkpt lat="45.9265082" lon="4.6272617">
        <ele>352.9400000</ele>
        <time>2013-04-07T10:05:02Z</time>
      </trkpt>
      <trkpt lat="45.9263668" lon="4.6276430">
        <ele>350.0600000</ele>
        <time>2013-04-07T10:05:05Z</time>
      </trkpt>
      <trkpt lat="45.9263078" lon="4.6277685">
        <ele>350.0600000</ele>
        <time>2013-04-07T10:05:06Z</time>
      </trkpt>
      <trkpt lat="45.9261839" lon="4.6280167">
        <ele>348.1300000</ele>
        <time>2013-04-07T10:05:08Z</time>
      </trkpt>
      <trkpt lat="45.9260648" lon="4.6282658">
        <ele>346.6900000</ele>
        <time>2013-04-07T10:05:10Z</time>
      </trkpt>
      <trkpt lat="45.9258452" lon="4.6287515">
        <ele>343.3300000</ele>
        <time>2013-04-07T10:05:14Z</time>
      </trkpt>
      <trkpt lat="45.9257111" lon="4.6291306">
        <ele>341.8900000</ele>
        <time>2013-04-07T10:05:17Z</time>
      </trkpt>
      <trkpt lat="45.9255296" lon="4.6296108">
        <ele>339.4800000</ele>
        <time>2013-04-07T10:05:21Z</time>
      </trkpt>
      <trkpt lat="45.9254670" lon="4.6296819">
        <ele>339.0000000</ele>
        <time>2013-04-07T10:05:22Z</time>
      </trkpt>
      <trkpt lat="45.9254106" lon="4.6297248">
        <ele>339.4800000</ele>
        <time>2013-04-07T10:05:23Z</time>
      </trkpt>
      <trkpt lat="45.9253776" lon="4.6297577">
        <ele>339.9600000</ele>
        <time>2013-04-07T10:05:24Z</time>
      </trkpt>
      <trkpt lat="45.9253665" lon="4.6297909">
        <ele>339.9600000</ele>
        <time>2013-04-07T10:05:25Z</time>
      </trkpt>
      <trkpt lat="45.9253694" lon="4.6298256">
        <ele>339.9600000</ele>
        <time>2013-04-07T10:05:26Z</time>
      </trkpt>
      <trkpt lat="45.9253833" lon="4.6298589">
        <ele>339.4800000</ele>
        <time>2013-04-07T10:05:27Z</time>
      </trkpt>
      <trkpt lat="45.9254075" lon="4.6298835">
        <ele>339.9600000</ele>
        <time>2013-04-07T10:05:28Z</time>
      </trkpt>
      <trkpt lat="45.9254378" lon="4.6299124">
        <ele>339.0000000</ele>
        <time>2013-04-07T10:05:29Z</time>
      </trkpt>
      <trkpt lat="45.9254705" lon="4.6299502">
        <ele>338.5200000</ele>
        <time>2013-04-07T10:05:30Z</time>
      </trkpt>
      <trkpt lat="45.9260305" lon="4.6307029">
        <ele>338.0400000</ele>
        <time>2013-04-07T10:05:44Z</time>
      </trkpt>
      <trkpt lat="45.9261559" lon="4.6308743">
        <ele>338.5200000</ele>
        <time>2013-04-07T10:05:47Z</time>
      </trkpt>
      <trkpt lat="45.9261954" lon="4.6309282">
        <ele>338.5200000</ele>
        <time>2013-04-07T10:05:48Z</time>
      </trkpt>
      <trkpt lat="45.9264088" lon="4.6312362">
        <ele>338.5200000</ele>
        <time>2013-04-07T10:05:54Z</time>
      </trkpt>
      <trkpt lat="45.9264443" lon="4.6312929">
        <ele>338.5200000</ele>
        <time>2013-04-07T10:05:55Z</time>
      </trkpt>
      <trkpt lat="45.9265456" lon="4.6314657">
        <ele>338.0400000</ele>
        <time>2013-04-07T10:05:58Z</time>
      </trkpt>
      <trkpt lat="45.9268744" lon="4.6318691">
        <ele>338.0400000</ele>
        <time>2013-04-07T10:06:06Z</time>
      </trkpt>
      <trkpt lat="45.9269109" lon="4.6319135">
        <ele>338.5200000</ele>
        <time>2013-04-07T10:06:07Z</time>
      </trkpt>
      <trkpt lat="45.9273414" lon="4.6324113">
        <ele>338.0400000</ele>
        <time>2013-04-07T10:06:19Z</time>
      </trkpt>
      <trkpt lat="45.9274410" lon="4.6325261">
        <ele>338.0400000</ele>
        <time>2013-04-07T10:06:22Z</time>
      </trkpt>
      <trkpt lat="45.9274547" lon="4.6325745">
        <ele>338.0400000</ele>
        <time>2013-04-07T10:06:23Z</time>
      </trkpt>
      <trkpt lat="45.9274516" lon="4.6326333">
        <ele>338.0400000</ele>
        <time>2013-04-07T10:06:24Z</time>
      </trkpt>
      <trkpt lat="45.9274339" lon="4.6326975">
        <ele>338.0400000</ele>
        <time>2013-04-07T10:06:25Z</time>
      </trkpt>
      <trkpt lat="45.9274073" lon="4.6327687">
        <ele>337.5600000</ele>
        <time>2013-04-07T10:06:26Z</time>
      </trkpt>
      <trkpt lat="45.9273521" lon="4.6329227">
        <ele>336.6000000</ele>
        <time>2013-04-07T10:06:28Z</time>
      </trkpt>
      <trkpt lat="45.9268828" lon="4.6341655">
        <ele>333.7100000</ele>
        <time>2013-04-07T10:06:43Z</time>
      </trkpt>
      <trkpt lat="45.9267548" lon="4.6345103">
        <ele>333.7100000</ele>
        <time>2013-04-07T10:06:47Z</time>
      </trkpt>
      <trkpt lat="45.9267348" lon="4.6346028">
        <ele>332.7500000</ele>
        <time>2013-04-07T10:06:48Z</time>
      </trkpt>
      <trkpt lat="45.9265451" lon="4.6357758">
        <ele>331.7900000</ele>
        <time>2013-04-07T10:07:01Z</time>
      </trkpt>
      <trkpt lat="45.9265435" lon="4.6360210">
        <ele>331.7900000</ele>
        <time>2013-04-07T10:07:04Z</time>
      </trkpt>
      <trkpt lat="45.9265367" lon="4.6363868">
        <ele>332.2700000</ele>
        <time>2013-04-07T10:07:09Z</time>
      </trkpt>
      <trkpt lat="45.9265815" lon="4.6368800">
        <ele>332.7500000</ele>
        <time>2013-04-07T10:07:16Z</time>
      </trkpt>
      <trkpt lat="45.9264689" lon="4.6375897">
        <ele>333.7100000</ele>
        <time>2013-04-07T10:07:29Z</time>
      </trkpt>
      <trkpt lat="45.9263119" lon="4.6379264">
        <ele>334.2000000</ele>
        <time>2013-04-07T10:07:38Z</time>
      </trkpt>
      <trkpt lat="45.9263191" lon="4.6379743">
        <ele>334.2000000</ele>
        <time>2013-04-07T10:07:39Z</time>
      </trkpt>
      <trkpt lat="45.9263275" lon="4.6385500">
        <ele>334.2000000</ele>
        <time>2013-04-07T10:07:50Z</time>
      </trkpt>
      <trkpt lat="45.9263363" lon="4.6389402">
        <ele>334.6800000</ele>
        <time>2013-04-07T10:07:58Z</time>
      </trkpt>
      <trkpt lat="45.9263167" lon="4.6389791">
        <ele>335.1600000</ele>
        <time>2013-04-07T10:07:59Z</time>
      </trkpt>
      <trkpt lat="45.9262865" lon="4.6390036">
        <ele>334.6800000</ele>
        <time>2013-04-07T10:08:00Z</time>
      </trkpt>
      <trkpt lat="45.9262514" lon="4.6390104">
        <ele>334.6800000</ele>
        <time>2013-04-07T10:08:01Z</time>
      </trkpt>
      <trkpt lat="45.9262151" lon="4.6390048">
        <ele>334.6800000</ele>
        <time>2013-04-07T10:08:02Z</time>
      </trkpt>
      <trkpt lat="45.9261784" lon="4.6389947">
        <ele>334.6800000</ele>
        <time>2013-04-07T10:08:03Z</time>
      </trkpt>
      <trkpt lat="45.9261421" lon="4.6389818">
        <ele>335.1600000</ele>
        <time>2013-04-07T10:08:04Z</time>
      </trkpt>
      <trkpt lat="45.9260421" lon="4.6389579">
        <ele>334.6800000</ele>
        <time>2013-04-07T10:08:07Z</time>
      </trkpt>
      <trkpt lat="45.9260234" lon="4.6389948">
        <ele>334.6800000</ele>
        <time>2013-04-07T10:08:08Z</time>
      </trkpt>
      <trkpt lat="45.9260130" lon="4.6390437">
        <ele>334.6800000</ele>
        <time>2013-04-07T10:08:09Z</time>
      </trkpt>
      <trkpt lat="45.9260020" lon="4.6390936">
        <ele>334.2000000</ele>
        <time>2013-04-07T10:08:10Z</time>
      </trkpt>
      <trkpt lat="45.9259880" lon="4.6391446">
        <ele>334.6800000</ele>
        <time>2013-04-07T10:08:11Z</time>
      </trkpt>
      <trkpt lat="45.9258745" lon="4.6395211">
        <ele>334.2000000</ele>
        <time>2013-04-07T10:08:18Z</time>
      </trkpt>
      <trkpt lat="45.9258517" lon="4.6395735">
        <ele>334.6800000</ele>
        <time>2013-04-07T10:08:19Z</time>
      </trkpt>
      <trkpt lat="45.9258270" lon="4.6396242">
        <ele>334.6800000</ele>
        <time>2013-04-07T10:08:20Z</time>
      </trkpt>
      <trkpt lat="45.9258086" lon="4.6396744">
        <ele>334.6800000</ele>
        <time>2013-04-07T10:08:21Z</time>
      </trkpt>
      <trkpt lat="45.9257922" lon="4.6397204">
        <ele>334.6800000</ele>
        <time>2013-04-07T10:08:22Z</time>
      </trkpt>
      <trkpt lat="45.9257747" lon="4.6397646">
        <ele>334.6800000</ele>
        <time>2013-04-07T10:08:23Z</time>
      </trkpt>
      <trkpt lat="45.9256354" lon="4.6401618">
        <ele>333.7100000</ele>
        <time>2013-04-07T10:08:31Z</time>
      </trkpt>
      <trkpt lat="45.9256154" lon="4.6402156">
        <ele>333.7100000</ele>
        <time>2013-04-07T10:08:32Z</time>
      </trkpt>
      <trkpt lat="45.9253920" lon="4.6407647">
        <ele>332.7500000</ele>
        <time>2013-04-07T10:08:43Z</time>
      </trkpt>
      <trkpt lat="45.9253636" lon="4.6408153">
        <ele>332.7500000</ele>
        <time>2013-04-07T10:08:44Z</time>
      </trkpt>
      <trkpt lat="45.9252189" lon="4.6410661">
        <ele>332.2700000</ele>
        <time>2013-04-07T10:08:49Z</time>
      </trkpt>
      <trkpt lat="45.9249611" lon="4.6416308">
        <ele>330.3500000</ele>
        <time>2013-04-07T10:08:58Z</time>
      </trkpt>
      <trkpt lat="45.9249438" lon="4.6417023">
        <ele>330.3500000</ele>
        <time>2013-04-07T10:08:59Z</time>
      </trkpt>
      <trkpt lat="45.9249133" lon="4.6418389">
        <ele>329.8700000</ele>
        <time>2013-04-07T10:09:01Z</time>
      </trkpt>
      <trkpt lat="45.9248755" lon="4.6419611">
        <ele>329.3900000</ele>
        <time>2013-04-07T10:09:03Z</time>
      </trkpt>
      <trkpt lat="45.9247576" lon="4.6424636">
        <ele>327.4700000</ele>
        <time>2013-04-07T10:09:11Z</time>
      </trkpt>
      <trkpt lat="45.9247350" lon="4.6424776">
        <ele>327.4700000</ele>
        <time>2013-04-07T10:09:12Z</time>
      </trkpt>
      <trkpt lat="45.9247120" lon="4.6424669">
        <ele>326.9900000</ele>
        <time>2013-04-07T10:09:13Z</time>
      </trkpt>
      <trkpt lat="45.9246947" lon="4.6424438">
        <ele>327.4700000</ele>
        <time>2013-04-07T10:09:14Z</time>
      </trkpt>
      <trkpt lat="45.9246830" lon="4.6424185">
        <ele>327.9500000</ele>
        <time>2013-04-07T10:09:15Z</time>
      </trkpt>
      <trkpt lat="45.9246707" lon="4.6423878">
        <ele>327.9500000</ele>
        <time>2013-04-07T10:09:16Z</time>
      </trkpt>
      <trkpt lat="45.9244388" lon="4.6419166">
        <ele>328.9100000</ele>
        <time>2013-04-07T10:09:29Z</time>
      </trkpt>
      <trkpt lat="45.9242266" lon="4.6415301">
        <ele>330.3500000</ele>
        <time>2013-04-07T10:09:42Z</time>
      </trkpt>
      <trkpt lat="45.9240212" lon="4.6411937">
        <ele>331.3100000</ele>
        <time>2013-04-07T10:09:52Z</time>
      </trkpt>
      <trkpt lat="45.9237538" lon="4.6406531">
        <ele>331.3100000</ele>
        <time>2013-04-07T10:10:05Z</time>
      </trkpt>
      <trkpt lat="45.9236963" lon="4.6404384">
        <ele>331.7900000</ele>
        <time>2013-04-07T10:10:09Z</time>
      </trkpt>
      <trkpt lat="45.9236838" lon="4.6403818">
        <ele>331.7900000</ele>
        <time>2013-04-07T10:10:10Z</time>
      </trkpt>
      <trkpt lat="45.9236792" lon="4.6403269">
        <ele>331.7900000</ele>
        <time>2013-04-07T10:10:11Z</time>
      </trkpt>
      <trkpt lat="45.9236780" lon="4.6402718">
        <ele>331.7900000</ele>
        <time>2013-04-07T10:10:12Z</time>
      </trkpt>
      <trkpt lat="45.9236768" lon="4.6402168">
        <ele>332.2700000</ele>
        <time>2013-04-07T10:10:13Z</time>
      </trkpt>
      <trkpt lat="45.9236783" lon="4.6401633">
        <ele>332.2700000</ele>
        <time>2013-04-07T10:10:14Z</time>
      </trkpt>
      <trkpt lat="45.9236801" lon="4.6401121">
        <ele>332.2700000</ele>
        <time>2013-04-07T10:10:15Z</time>
      </trkpt>
      <trkpt lat="45.9236669" lon="4.6397034">
        <ele>332.2700000</ele>
        <time>2013-04-07T10:10:22Z</time>
      </trkpt>
      <trkpt lat="45.9236741" lon="4.6396381">
        <ele>332.2700000</ele>
        <time>2013-04-07T10:10:23Z</time>
      </trkpt>
      <trkpt lat="45.9237086" lon="4.6391799">
        <ele>336.6000000</ele>
        <time>2013-04-07T10:10:29Z</time>
      </trkpt>
      <trkpt lat="45.9237144" lon="4.6390986">
        <ele>329.8700000</ele>
        <time>2013-04-07T10:10:30Z</time>
      </trkpt>
      <trkpt lat="45.9237678" lon="4.6381103">
        <ele>326.9900000</ele>
        <time>2013-04-07T10:10:41Z</time>
      </trkpt>
      <trkpt lat="45.9238097" lon="4.6377268">
        <ele>326.0200000</ele>
        <time>2013-04-07T10:10:45Z</time>
      </trkpt>
      <trkpt lat="45.9238079" lon="4.6376266">
        <ele>325.5400000</ele>
        <time>2013-04-07T10:10:46Z</time>
      </trkpt>
      <trkpt lat="45.9237913" lon="4.6375257">
        <ele>325.5400000</ele>
        <time>2013-04-07T10:10:47Z</time>
      </trkpt>
      <trkpt lat="45.9237535" lon="4.6374301">
        <ele>325.0600000</ele>
        <time>2013-04-07T10:10:48Z</time>
      </trkpt>
      <trkpt lat="45.9236957" lon="4.6373473">
        <ele>324.1000000</ele>
        <time>2013-04-07T10:10:49Z</time>
      </trkpt>
      <trkpt lat="45.9236269" lon="4.6372759">
        <ele>323.1400000</ele>
        <time>2013-04-07T10:10:50Z</time>
      </trkpt>
      <trkpt lat="45.9235493" lon="4.6372219">
        <ele>322.1800000</ele>
        <time>2013-04-07T10:10:51Z</time>
      </trkpt>
      <trkpt lat="45.9234618" lon="4.6371907">
        <ele>321.2200000</ele>
        <time>2013-04-07T10:10:52Z</time>
      </trkpt>
      <trkpt lat="45.9233687" lon="4.6371784">
        <ele>320.2600000</ele>
        <time>2013-04-07T10:10:53Z</time>
      </trkpt>
      <trkpt lat="45.9232738" lon="4.6371751">
        <ele>319.7800000</ele>
        <time>2013-04-07T10:10:54Z</time>
      </trkpt>
      <trkpt lat="45.9231780" lon="4.6371772">
        <ele>319.3000000</ele>
        <time>2013-04-07T10:10:55Z</time>
      </trkpt>
      <trkpt lat="45.9229879" lon="4.6372065">
        <ele>318.8100000</ele>
        <time>2013-04-07T10:10:57Z</time>
      </trkpt>
      <trkpt lat="45.9228972" lon="4.6372407">
        <ele>318.8100000</ele>
        <time>2013-04-07T10:10:58Z</time>
      </trkpt>
      <trkpt lat="45.9228142" lon="4.6372922">
        <ele>319.3000000</ele>
        <time>2013-04-07T10:10:59Z</time>
      </trkpt>
      <trkpt lat="45.9227390" lon="4.6373593">
        <ele>319.3000000</ele>
        <time>2013-04-07T10:11:00Z</time>
      </trkpt>
      <trkpt lat="45.9226683" lon="4.6374350">
        <ele>319.3000000</ele>
        <time>2013-04-07T10:11:01Z</time>
      </trkpt>
      <trkpt lat="45.9225388" lon="4.6376033">
        <ele>319.3000000</ele>
        <time>2013-04-07T10:11:03Z</time>
      </trkpt>
      <trkpt lat="45.9224738" lon="4.6376888">
        <ele>319.3000000</ele>
        <time>2013-04-07T10:11:04Z</time>
      </trkpt>
      <trkpt lat="45.9224063" lon="4.6377709">
        <ele>318.8100000</ele>
        <time>2013-04-07T10:11:05Z</time>
      </trkpt>
      <trkpt lat="45.9217176" lon="4.6386239">
        <ele>319.3000000</ele>
        <time>2013-04-07T10:11:17Z</time>
      </trkpt>
      <trkpt lat="45.9207569" lon="4.6397268">
        <ele>316.4100000</ele>
        <time>2013-04-07T10:11:33Z</time>
      </trkpt>
      <trkpt lat="45.9200414" lon="4.6405619">
        <ele>314.4900000</ele>
        <time>2013-04-07T10:11:45Z</time>
      </trkpt>
      <trkpt lat="45.9199420" lon="4.6407013">
        <ele>315.4500000</ele>
        <time>2013-04-07T10:11:47Z</time>
      </trkpt>
      <trkpt lat="45.9198927" lon="4.6407497">
        <ele>314.9700000</ele>
        <time>2013-04-07T10:11:48Z</time>
      </trkpt>
      <trkpt lat="45.9198456" lon="4.6407647">
        <ele>314.4900000</ele>
        <time>2013-04-07T10:11:49Z</time>
      </trkpt>
      <trkpt lat="45.9198033" lon="4.6407443">
        <ele>314.9700000</ele>
        <time>2013-04-07T10:11:50Z</time>
      </trkpt>
      <trkpt lat="45.9197710" lon="4.6407129">
        <ele>314.9700000</ele>
        <time>2013-04-07T10:11:51Z</time>
      </trkpt>
      <trkpt lat="45.9197437" lon="4.6406784">
        <ele>315.4500000</ele>
        <time>2013-04-07T10:11:52Z</time>
      </trkpt>
      <trkpt lat="45.9194541" lon="4.6402155">
        <ele>317.8500000</ele>
        <time>2013-04-07T10:12:03Z</time>
      </trkpt>
      <trkpt lat="45.9191159" lon="4.6396811">
        <ele>318.8100000</ele>
        <time>2013-04-07T10:12:16Z</time>
      </trkpt>
      <trkpt lat="45.9189024" lon="4.6393744">
        <ele>318.8100000</ele>
        <time>2013-04-07T10:12:23Z</time>
      </trkpt>
      <trkpt lat="45.9188070" lon="4.6392513">
        <ele>318.8100000</ele>
        <time>2013-04-07T10:12:26Z</time>
      </trkpt>
      <trkpt lat="45.9187799" lon="4.6392100">
        <ele>318.8100000</ele>
        <time>2013-04-07T10:12:27Z</time>
      </trkpt>
      <trkpt lat="45.9187514" lon="4.6391776">
        <ele>318.8100000</ele>
        <time>2013-04-07T10:12:28Z</time>
      </trkpt>
      <trkpt lat="45.9187186" lon="4.6391521">
        <ele>318.3300000</ele>
        <time>2013-04-07T10:12:29Z</time>
      </trkpt>
      <trkpt lat="45.9186789" lon="4.6391383">
        <ele>318.8100000</ele>
        <time>2013-04-07T10:12:30Z</time>
      </trkpt>
      <trkpt lat="45.9186340" lon="4.6391418">
        <ele>318.8100000</ele>
        <time>2013-04-07T10:12:31Z</time>
      </trkpt>
      <trkpt lat="45.9185916" lon="4.6391670">
        <ele>318.3300000</ele>
        <time>2013-04-07T10:12:32Z</time>
      </trkpt>
      <trkpt lat="45.9185532" lon="4.6392106">
        <ele>318.3300000</ele>
        <time>2013-04-07T10:12:33Z</time>
      </trkpt>
      <trkpt lat="45.9185174" lon="4.6392638">
        <ele>318.3300000</ele>
        <time>2013-04-07T10:12:34Z</time>
      </trkpt>
      <trkpt lat="45.9184824" lon="4.6393195">
        <ele>317.8500000</ele>
        <time>2013-04-07T10:12:35Z</time>
      </trkpt>
      <trkpt lat="45.9184476" lon="4.6393771">
        <ele>317.8500000</ele>
        <time>2013-04-07T10:12:36Z</time>
      </trkpt>
      <trkpt lat="45.9180808" lon="4.6402151">
        <ele>316.4100000</ele>
        <time>2013-04-07T10:12:48Z</time>
      </trkpt>
      <trkpt lat="45.9179785" lon="4.6403827">
        <ele>315.9300000</ele>
        <time>2013-04-07T10:12:51Z</time>
      </trkpt>
      <trkpt lat="45.9179397" lon="4.6404249">
        <ele>315.9300000</ele>
        <time>2013-04-07T10:12:52Z</time>
      </trkpt>
      <trkpt lat="45.9178969" lon="4.6404460">
        <ele>316.4100000</ele>
        <time>2013-04-07T10:12:53Z</time>
      </trkpt>
      <trkpt lat="45.9178537" lon="4.6404475">
        <ele>315.4500000</ele>
        <time>2013-04-07T10:12:54Z</time>
      </trkpt>
      <trkpt lat="45.9178073" lon="4.6404398">
        <ele>315.9300000</ele>
        <time>2013-04-07T10:12:55Z</time>
      </trkpt>
      <trkpt lat="45.9177588" lon="4.6404257">
        <ele>316.4100000</ele>
        <time>2013-04-07T10:12:56Z</time>
      </trkpt>
      <trkpt lat="45.9177115" lon="4.6404007">
        <ele>315.4500000</ele>
        <time>2013-04-07T10:12:57Z</time>
      </trkpt>
      <trkpt lat="45.9176650" lon="4.6403730">
        <ele>315.4500000</ele>
        <time>2013-04-07T10:12:58Z</time>
      </trkpt>
      <trkpt lat="45.9176123" lon="4.6403519">
        <ele>314.9700000</ele>
        <time>2013-04-07T10:12:59Z</time>
      </trkpt>
      <trkpt lat="45.9175573" lon="4.6403352">
        <ele>315.9300000</ele>
        <time>2013-04-07T10:13:00Z</time>
      </trkpt>
      <trkpt lat="45.9174459" lon="4.6402979">
        <ele>315.4500000</ele>
        <time>2013-04-07T10:13:02Z</time>
      </trkpt>
      <trkpt lat="45.9173880" lon="4.6402814">
        <ele>315.4500000</ele>
        <time>2013-04-07T10:13:03Z</time>
      </trkpt>
      <trkpt lat="45.9166832" lon="4.6400420">
        <ele>314.0100000</ele>
        <time>2013-04-07T10:13:15Z</time>
      </trkpt>
      <trkpt lat="45.9159387" lon="4.6397789">
        <ele>313.5300000</ele>
        <time>2013-04-07T10:13:28Z</time>
      </trkpt>
      <trkpt lat="45.9158423" lon="4.6397570">
        <ele>314.0100000</ele>
        <time>2013-04-07T10:13:30Z</time>
      </trkpt>
      <trkpt lat="45.9158033" lon="4.6397830">
        <ele>314.0100000</ele>
        <time>2013-04-07T10:13:31Z</time>
      </trkpt>
      <trkpt lat="45.9157580" lon="4.6399478">
        <ele>313.0500000</ele>
        <time>2013-04-07T10:13:34Z</time>
      </trkpt>
      <trkpt lat="45.9154042" lon="4.6410407">
        <ele>310.6400000</ele>
        <time>2013-04-07T10:13:47Z</time>
      </trkpt>
      <trkpt lat="45.9151853" lon="4.6416908">
        <ele>309.6800000</ele>
        <time>2013-04-07T10:13:55Z</time>
      </trkpt>
      <trkpt lat="45.9151412" lon="4.6418552">
        <ele>309.2000000</ele>
        <time>2013-04-07T10:13:57Z</time>
      </trkpt>
      <trkpt lat="45.9148442" lon="4.6429388">
        <ele>307.2800000</ele>
        <time>2013-04-07T10:14:10Z</time>
      </trkpt>
      <trkpt lat="45.9147635" lon="4.6431952">
        <ele>306.3200000</ele>
        <time>2013-04-07T10:14:14Z</time>
      </trkpt>
      <trkpt lat="45.9146414" lon="4.6432030">
        <ele>306.8000000</ele>
        <time>2013-04-07T10:14:17Z</time>
      </trkpt>
      <trkpt lat="45.9146050" lon="4.6431693">
        <ele>306.8000000</ele>
        <time>2013-04-07T10:14:18Z</time>
      </trkpt>
      <trkpt lat="45.9145644" lon="4.6431381">
        <ele>307.2800000</ele>
        <time>2013-04-07T10:14:19Z</time>
      </trkpt>
      <trkpt lat="45.9139117" lon="4.6429162">
        <ele>307.2800000</ele>
        <time>2013-04-07T10:14:32Z</time>
      </trkpt>
      <trkpt lat="45.9131403" lon="4.6426691">
        <ele>306.3200000</ele>
        <time>2013-04-07T10:14:46Z</time>
      </trkpt>
      <trkpt lat="45.9130903" lon="4.6426508">
        <ele>306.3200000</ele>
        <time>2013-04-07T10:14:47Z</time>
      </trkpt>
      <trkpt lat="45.9130436" lon="4.6426223">
        <ele>305.8400000</ele>
        <time>2013-04-07T10:14:48Z</time>
      </trkpt>
      <trkpt lat="45.9129954" lon="4.6425961">
        <ele>305.8400000</ele>
        <time>2013-04-07T10:14:49Z</time>
      </trkpt>
      <trkpt lat="45.9129458" lon="4.6425938">
        <ele>305.8400000</ele>
        <time>2013-04-07T10:14:50Z</time>
      </trkpt>
      <trkpt lat="45.9128996" lon="4.6426236">
        <ele>306.3200000</ele>
        <time>2013-04-07T10:14:51Z</time>
      </trkpt>
      <trkpt lat="45.9128603" lon="4.6426786">
        <ele>305.8400000</ele>
        <time>2013-04-07T10:14:52Z</time>
      </trkpt>
      <trkpt lat="45.9128272" lon="4.6427473">
        <ele>305.3600000</ele>
        <time>2013-04-07T10:14:53Z</time>
      </trkpt>
      <trkpt lat="45.9127939" lon="4.6428233">
        <ele>304.8800000</ele>
        <time>2013-04-07T10:14:54Z</time>
      </trkpt>
      <trkpt lat="45.9122907" lon="4.6439764">
        <ele>302.4700000</ele>
        <time>2013-04-07T10:15:07Z</time>
      </trkpt>
      <trkpt lat="45.9117961" lon="4.6451265">
        <ele>301.5100000</ele>
        <time>2013-04-07T10:15:20Z</time>
      </trkpt>
      <trkpt lat="45.9112406" lon="4.6464116">
        <ele>298.6300000</ele>
        <time>2013-04-07T10:15:36Z</time>
      </trkpt>
      <trkpt lat="45.9109640" lon="4.6471380">
        <ele>296.7000000</ele>
        <time>2013-04-07T10:15:45Z</time>
      </trkpt>
      <trkpt lat="45.9108628" lon="4.6475180">
        <ele>294.3000000</ele>
        <time>2013-04-07T10:15:49Z</time>
      </trkpt>
      <trkpt lat="45.9107714" lon="4.6477060">
        <ele>292.8600000</ele>
        <time>2013-04-07T10:15:51Z</time>
      </trkpt>
      <trkpt lat="45.9106213" lon="4.6479281">
        <ele>290.9400000</ele>
        <time>2013-04-07T10:15:54Z</time>
      </trkpt>
      <trkpt lat="45.9105686" lon="4.6479734">
        <ele>289.9700000</ele>
        <time>2013-04-07T10:15:55Z</time>
      </trkpt>
      <trkpt lat="45.9105147" lon="4.6480061">
        <ele>288.0500000</ele>
        <time>2013-04-07T10:15:56Z</time>
      </trkpt>
      <trkpt lat="45.9104622" lon="4.6480263">
        <ele>287.5700000</ele>
        <time>2013-04-07T10:15:57Z</time>
      </trkpt>
      <trkpt lat="45.9104090" lon="4.6480375">
        <ele>286.6100000</ele>
        <time>2013-04-07T10:15:58Z</time>
      </trkpt>
      <trkpt lat="45.9103509" lon="4.6480416">
        <ele>284.6900000</ele>
        <time>2013-04-07T10:15:59Z</time>
      </trkpt>
      <trkpt lat="45.9102893" lon="4.6480597">
        <ele>283.2500000</ele>
        <time>2013-04-07T10:16:00Z</time>
      </trkpt>
      <trkpt lat="45.9102324" lon="4.6481061">
        <ele>281.3200000</ele>
        <time>2013-04-07T10:16:01Z</time>
      </trkpt>
      <trkpt lat="45.9101791" lon="4.6481756">
        <ele>279.4000000</ele>
        <time>2013-04-07T10:16:02Z</time>
      </trkpt>
      <trkpt lat="45.9101233" lon="4.6482669">
        <ele>277.9600000</ele>
        <time>2013-04-07T10:16:03Z</time>
      </trkpt>
      <trkpt lat="45.9100696" lon="4.6483699">
        <ele>275.5600000</ele>
        <time>2013-04-07T10:16:04Z</time>
      </trkpt>
      <trkpt lat="45.9100229" lon="4.6484711">
        <ele>274.5900000</ele>
        <time>2013-04-07T10:16:05Z</time>
      </trkpt>
      <trkpt lat="45.9099889" lon="4.6485515">
        <ele>274.5900000</ele>
        <time>2013-04-07T10:16:06Z</time>
      </trkpt>
      <trkpt lat="45.9099615" lon="4.6485976">
        <ele>274.5900000</ele>
        <time>2013-04-07T10:16:07Z</time>
      </trkpt>
      <trkpt lat="45.9099359" lon="4.6486036">
        <ele>274.5900000</ele>
        <time>2013-04-07T10:16:08Z</time>
      </trkpt>
      <trkpt lat="45.9099097" lon="4.6485777">
        <ele>274.5900000</ele>
        <time>2013-04-07T10:16:09Z</time>
      </trkpt>
      <trkpt lat="45.9098851" lon="4.6485396">
        <ele>274.1100000</ele>
        <time>2013-04-07T10:16:10Z</time>
      </trkpt>
      <trkpt lat="45.9098607" lon="4.6484825">
        <ele>272.6700000</ele>
        <time>2013-04-07T10:16:11Z</time>
      </trkpt>
      <trkpt lat="45.9098334" lon="4.6484111">
        <ele>271.2300000</ele>
        <time>2013-04-07T10:16:12Z</time>
      </trkpt>
      <trkpt lat="45.9098037" lon="4.6483263">
        <ele>269.7900000</ele>
        <time>2013-04-07T10:16:13Z</time>
      </trkpt>
      <trkpt lat="45.9097728" lon="4.6482287">
        <ele>268.3500000</ele>
        <time>2013-04-07T10:16:14Z</time>
      </trkpt>
      <trkpt lat="45.9096546" lon="4.6478977">
        <ele>265.9400000</ele>
        <time>2013-04-07T10:16:17Z</time>
      </trkpt>
      <trkpt lat="45.9096058" lon="4.6477993">
        <ele>265.9400000</ele>
        <time>2013-04-07T10:16:18Z</time>
      </trkpt>
      <trkpt lat="45.9095482" lon="4.6477293">
        <ele>266.4200000</ele>
        <time>2013-04-07T10:16:19Z</time>
      </trkpt>
      <trkpt lat="45.9094900" lon="4.6476932">
        <ele>266.9000000</ele>
        <time>2013-04-07T10:16:20Z</time>
      </trkpt>
      <trkpt lat="45.9094350" lon="4.6476813">
        <ele>266.9000000</ele>
        <time>2013-04-07T10:16:21Z</time>
      </trkpt>
      <trkpt lat="45.9093843" lon="4.6476769">
        <ele>267.8600000</ele>
        <time>2013-04-07T10:16:22Z</time>
      </trkpt>
      <trkpt lat="45.9093399" lon="4.6476725">
        <ele>268.3500000</ele>
        <time>2013-04-07T10:16:23Z</time>
      </trkpt>
      <trkpt lat="45.9093010" lon="4.6476663">
        <ele>269.3100000</ele>
        <time>2013-04-07T10:16:24Z</time>
      </trkpt>
      <trkpt lat="45.9090481" lon="4.6475600">
        <ele>272.1900000</ele>
        <time>2013-04-07T10:16:36Z</time>
      </trkpt>
      <trkpt lat="45.9090327" lon="4.6475523">
        <ele>272.6700000</ele>
        <time>2013-04-07T10:16:37Z</time>
      </trkpt>
      <trkpt lat="45.9089690" lon="4.6475608">
        <ele>273.1500000</ele>
        <time>2013-04-07T10:16:41Z</time>
      </trkpt>
      <trkpt lat="45.9086640" lon="4.6474915">
        <ele>272.6700000</ele>
        <time>2013-04-07T10:16:52Z</time>
      </trkpt>
      <trkpt lat="45.9085349" lon="4.6474480">
        <ele>272.6700000</ele>
        <time>2013-04-07T10:16:55Z</time>
      </trkpt>
      <trkpt lat="45.9083645" lon="4.6473652">
        <ele>272.1900000</ele>
        <time>2013-04-07T10:16:59Z</time>
      </trkpt>
      <trkpt lat="45.9081899" lon="4.6472905">
        <ele>272.1900000</ele>
        <time>2013-04-07T10:17:03Z</time>
      </trkpt>
      <trkpt lat="45.9080430" lon="4.6468247">
        <ele>272.1900000</ele>
        <time>2013-04-07T10:17:11Z</time>
      </trkpt>
      <trkpt lat="45.9080329" lon="4.6464415">
        <ele>272.6700000</ele>
        <time>2013-04-07T10:17:18Z</time>
      </trkpt>
      <trkpt lat="45.9080312" lon="4.6463620">
        <ele>273.6300000</ele>
        <time>2013-04-07T10:17:20Z</time>
      </trkpt>
      <trkpt lat="45.9079551" lon="4.6463100">
        <ele>274.1100000</ele>
        <time>2013-04-07T10:17:31Z</time>
      </trkpt>
      <trkpt lat="45.9079312" lon="4.6463056">
        <ele>274.5900000</ele>
        <time>2013-04-07T10:17:36Z</time>
      </trkpt>
      <trkpt lat="45.9077945" lon="4.6463055">
        <ele>277.0000000</ele>
        <time>2013-04-07T10:17:46Z</time>
      </trkpt>
      <trkpt lat="45.9077439" lon="4.6463085">
        <ele>277.4800000</ele>
        <time>2013-04-07T10:17:50Z</time>
      </trkpt>
      <trkpt lat="45.9074846" lon="4.6463213">
        <ele>279.4000000</ele>
        <time>2013-04-07T10:18:04Z</time>
      </trkpt>
      <trkpt lat="45.9072191" lon="4.6463677">
        <ele>279.8800000</ele>
        <time>2013-04-07T10:18:14Z</time>
      </trkpt>
      <trkpt lat="45.9068942" lon="4.6463892">
        <ele>280.8400000</ele>
        <time>2013-04-07T10:18:25Z</time>
      </trkpt>
      <trkpt lat="45.9065684" lon="4.6464696">
        <ele>281.8000000</ele>
        <time>2013-04-07T10:18:34Z</time>
      </trkpt>
      <trkpt lat="45.9064008" lon="4.6464809">
        <ele>281.3200000</ele>
        <time>2013-04-07T10:18:40Z</time>
      </trkpt>
      <trkpt lat="45.9063329" lon="4.6464750">
        <ele>281.3200000</ele>
        <time>2013-04-07T10:18:45Z</time>
      </trkpt>
      <trkpt lat="45.9063737" lon="4.6462715">
        <ele>282.7700000</ele>
        <time>2013-04-07T10:18:56Z</time>
      </trkpt>
      <trkpt lat="45.9064975" lon="4.6459618">
        <ele>283.7300000</ele>
        <time>2013-04-07T10:19:08Z</time>
      </trkpt>
      <trkpt lat="45.9065095" lon="4.6459411">
        <ele>284.2100000</ele>
        <time>2013-04-07T10:19:09Z</time>
      </trkpt>
      <trkpt lat="45.9066000" lon="4.6456931">
        <ele>286.1300000</ele>
        <time>2013-04-07T10:19:19Z</time>
      </trkpt>
      <trkpt lat="45.9066483" lon="4.6455511">
        <ele>286.6100000</ele>
        <time>2013-04-07T10:19:26Z</time>
      </trkpt>
      <trkpt lat="45.9067400" lon="4.6453064">
        <ele>288.0500000</ele>
        <time>2013-04-07T10:19:38Z</time>
      </trkpt>
      <trkpt lat="45.9067755" lon="4.6452141">
        <ele>289.0100000</ele>
        <time>2013-04-07T10:19:42Z</time>
      </trkpt>
      <trkpt lat="45.9068146" lon="4.6451000">
        <ele>289.4900000</ele>
        <time>2013-04-07T10:19:47Z</time>
      </trkpt>
      <trkpt lat="45.9068353" lon="4.6450632">
        <ele>290.4600000</ele>
        <time>2013-04-07T10:19:50Z</time>
      </trkpt>
      <trkpt lat="45.9069038" lon="4.6449101">
        <ele>290.9400000</ele>
        <time>2013-04-07T10:19:56Z</time>
      </trkpt>
      <trkpt lat="45.9069335" lon="4.6448374">
        <ele>290.9400000</ele>
        <time>2013-04-07T10:19:59Z</time>
      </trkpt>
      <trkpt lat="45.9069544" lon="4.6448130">
        <ele>291.4200000</ele>
        <time>2013-04-07T10:20:01Z</time>
      </trkpt>
      <trkpt lat="45.9069836" lon="4.6445513">
        <ele>292.8600000</ele>
        <time>2013-04-07T10:20:11Z</time>
      </trkpt>
      <trkpt lat="45.9069433" lon="4.6444152">
        <ele>293.3400000</ele>
        <time>2013-04-07T10:20:16Z</time>
      </trkpt>
      <trkpt lat="45.9068945" lon="4.6442423">
        <ele>293.8200000</ele>
        <time>2013-04-07T10:20:22Z</time>
      </trkpt>
      <trkpt lat="45.9068912" lon="4.6441900">
        <ele>294.3000000</ele>
        <time>2013-04-07T10:20:25Z</time>
      </trkpt>
      <trkpt lat="45.9069378" lon="4.6438954">
        <ele>295.7400000</ele>
        <time>2013-04-07T10:20:35Z</time>
      </trkpt>
      <trkpt lat="45.9069472" lon="4.6436261">
        <ele>297.1800000</ele>
        <time>2013-04-07T10:20:45Z</time>
      </trkpt>
      <trkpt lat="45.9069015" lon="4.6434593">
        <ele>297.6700000</ele>
        <time>2013-04-07T10:20:50Z</time>
      </trkpt>
      <trkpt lat="45.9067717" lon="4.6431583">
        <ele>298.1500000</ele>
        <time>2013-04-07T10:21:00Z</time>
      </trkpt>
      <trkpt lat="45.9066003" lon="4.6427794">
        <ele>300.0700000</ele>
        <time>2013-04-07T10:21:11Z</time>
      </trkpt>
      <trkpt lat="45.9065370" lon="4.6426593">
        <ele>300.5500000</ele>
        <time>2013-04-07T10:21:15Z</time>
      </trkpt>
      <trkpt lat="45.9064349" lon="4.6424897">
        <ele>301.5100000</ele>
        <time>2013-04-07T10:21:22Z</time>
      </trkpt>
      <trkpt lat="45.9064019" lon="4.6422952">
        <ele>301.5100000</ele>
        <time>2013-04-07T10:21:28Z</time>
      </trkpt>
      <trkpt lat="45.9064724" lon="4.6419002">
        <ele>303.4300000</ele>
        <time>2013-04-07T10:21:39Z</time>
      </trkpt>
      <trkpt lat="45.9065804" lon="4.6415844">
        <ele>303.9100000</ele>
        <time>2013-04-07T10:21:49Z</time>
      </trkpt>
      <trkpt lat="45.9066992" lon="4.6411670">
        <ele>304.3900000</ele>
        <time>2013-04-07T10:22:02Z</time>
      </trkpt>
      <trkpt lat="45.9069277" lon="4.6407047">
        <ele>306.3200000</ele>
        <time>2013-04-07T10:22:17Z</time>
      </trkpt>
      <trkpt lat="45.9070899" lon="4.6402450">
        <ele>306.3200000</ele>
        <time>2013-04-07T10:22:29Z</time>
      </trkpt>
      <trkpt lat="45.9073025" lon="4.6396772">
        <ele>306.8000000</ele>
        <time>2013-04-07T10:22:41Z</time>
      </trkpt>
      <trkpt lat="45.9076127" lon="4.6392617">
        <ele>308.2400000</ele>
        <time>2013-04-07T10:22:54Z</time>
      </trkpt>
      <trkpt lat="45.9077195" lon="4.6390747">
        <ele>309.2000000</ele>
        <time>2013-04-07T10:23:00Z</time>
      </trkpt>
      <trkpt lat="45.9077076" lon="4.6389397">
        <ele>308.2400000</ele>
        <time>2013-04-07T10:23:04Z</time>
      </trkpt>
      <trkpt lat="45.9076213" lon="4.6388202">
        <ele>306.8000000</ele>
        <time>2013-04-07T10:23:07Z</time>
      </trkpt>
      <trkpt lat="45.9075779" lon="4.6387865">
        <ele>305.8400000</ele>
        <time>2013-04-07T10:23:08Z</time>
      </trkpt>
      <trkpt lat="45.9075245" lon="4.6387564">
        <ele>305.3600000</ele>
        <time>2013-04-07T10:23:09Z</time>
      </trkpt>
      <trkpt lat="45.9074707" lon="4.6387360">
        <ele>304.3900000</ele>
        <time>2013-04-07T10:23:10Z</time>
      </trkpt>
      <trkpt lat="45.9074265" lon="4.6387232">
        <ele>303.9100000</ele>
        <time>2013-04-07T10:23:11Z</time>
      </trkpt>
      <trkpt lat="45.9073024" lon="4.6386866">
        <ele>301.5100000</ele>
        <time>2013-04-07T10:23:14Z</time>
      </trkpt>
      <trkpt lat="45.9071534" lon="4.6386102">
        <ele>298.1500000</ele>
        <time>2013-04-07T10:23:18Z</time>
      </trkpt>
      <trkpt lat="45.9070812" lon="4.6385534">
        <ele>295.7400000</ele>
        <time>2013-04-07T10:23:20Z</time>
      </trkpt>
      <trkpt lat="45.9070381" lon="4.6385251">
        <ele>294.7800000</ele>
        <time>2013-04-07T10:23:21Z</time>
      </trkpt>
      <trkpt lat="45.9069929" lon="4.6385076">
        <ele>293.8200000</ele>
        <time>2013-04-07T10:23:22Z</time>
      </trkpt>
      <trkpt lat="45.9069048" lon="4.6384883">
        <ele>291.9000000</ele>
        <time>2013-04-07T10:23:24Z</time>
      </trkpt>
      <trkpt lat="45.9068648" lon="4.6384912">
        <ele>290.9400000</ele>
        <time>2013-04-07T10:23:25Z</time>
      </trkpt>
      <trkpt lat="45.9068290" lon="4.6385025">
        <ele>290.4600000</ele>
        <time>2013-04-07T10:23:26Z</time>
      </trkpt>
      <trkpt lat="45.9067953" lon="4.6385156">
        <ele>289.4900000</ele>
        <time>2013-04-07T10:23:27Z</time>
      </trkpt>
      <trkpt lat="45.9067686" lon="4.6385322">
        <ele>289.0100000</ele>
        <time>2013-04-07T10:23:28Z</time>
      </trkpt>
      <trkpt lat="45.9066001" lon="4.6386055">
        <ele>285.1700000</ele>
        <time>2013-04-07T10:23:33Z</time>
      </trkpt>
      <trkpt lat="45.9065501" lon="4.6386222">
        <ele>284.2100000</ele>
        <time>2013-04-07T10:23:34Z</time>
      </trkpt>
      <trkpt lat="45.9064310" lon="4.6386723">
        <ele>280.8400000</ele>
        <time>2013-04-07T10:23:36Z</time>
      </trkpt>
      <trkpt lat="45.9062572" lon="4.6387430">
        <ele>278.9200000</ele>
        <time>2013-04-07T10:23:39Z</time>
      </trkpt>
      <trkpt lat="45.9062068" lon="4.6387450">
        <ele>278.9200000</ele>
        <time>2013-04-07T10:23:40Z</time>
      </trkpt>
      <trkpt lat="45.9061593" lon="4.6387118">
        <ele>277.9600000</ele>
        <time>2013-04-07T10:23:41Z</time>
      </trkpt>
      <trkpt lat="45.9061215" lon="4.6386489">
        <ele>277.0000000</ele>
        <time>2013-04-07T10:23:42Z</time>
      </trkpt>
      <trkpt lat="45.9060878" lon="4.6385754">
        <ele>277.0000000</ele>
        <time>2013-04-07T10:23:43Z</time>
      </trkpt>
      <trkpt lat="45.9060562" lon="4.6384982">
        <ele>276.5200000</ele>
        <time>2013-04-07T10:23:44Z</time>
      </trkpt>
      <trkpt lat="45.9060236" lon="4.6384228">
        <ele>276.5200000</ele>
        <time>2013-04-07T10:23:45Z</time>
      </trkpt>
      <trkpt lat="45.9059927" lon="4.6383539">
        <ele>276.5200000</ele>
        <time>2013-04-07T10:23:46Z</time>
      </trkpt>
      <trkpt lat="45.9059650" lon="4.6382977">
        <ele>277.0000000</ele>
        <time>2013-04-07T10:23:47Z</time>
      </trkpt>
      <trkpt lat="45.9059309" lon="4.6382492">
        <ele>277.0000000</ele>
        <time>2013-04-07T10:23:48Z</time>
      </trkpt>
      <trkpt lat="45.9059008" lon="4.6382099">
        <ele>277.0000000</ele>
        <time>2013-04-07T10:23:49Z</time>
      </trkpt>
      <trkpt lat="45.9058412" lon="4.6381618">
        <ele>277.9600000</ele>
        <time>2013-04-07T10:23:51Z</time>
      </trkpt>
      <trkpt lat="45.9058173" lon="4.6381462">
        <ele>278.4400000</ele>
        <time>2013-04-07T10:23:52Z</time>
      </trkpt>
      <trkpt lat="45.9057905" lon="4.6381218">
        <ele>278.4400000</ele>
        <time>2013-04-07T10:23:53Z</time>
      </trkpt>
      <trkpt lat="45.9056939" lon="4.6380837">
        <ele>280.3600000</ele>
        <time>2013-04-07T10:23:57Z</time>
      </trkpt>
      <trkpt lat="45.9056739" lon="4.6380726">
        <ele>280.8400000</ele>
        <time>2013-04-07T10:23:58Z</time>
      </trkpt>
      <trkpt lat="45.9056506" lon="4.6380670">
        <ele>280.8400000</ele>
        <time>2013-04-07T10:23:59Z</time>
      </trkpt>
      <trkpt lat="45.9056241" lon="4.6380627">
        <ele>281.3200000</ele>
        <time>2013-04-07T10:24:00Z</time>
      </trkpt>
      <trkpt lat="45.9056020" lon="4.6380617">
        <ele>281.8000000</ele>
        <time>2013-04-07T10:24:01Z</time>
      </trkpt>
      <trkpt lat="45.9055838" lon="4.6380552">
        <ele>281.8000000</ele>
        <time>2013-04-07T10:24:02Z</time>
      </trkpt>
      <trkpt lat="45.9055646" lon="4.6380379">
        <ele>282.2800000</ele>
        <time>2013-04-07T10:24:03Z</time>
      </trkpt>
      <trkpt lat="45.9055449" lon="4.6380223">
        <ele>282.2800000</ele>
        <time>2013-04-07T10:24:04Z</time>
      </trkpt>
      <trkpt lat="45.9055247" lon="4.6380084">
        <ele>282.7700000</ele>
        <time>2013-04-07T10:24:05Z</time>
      </trkpt>
      <trkpt lat="45.9054026" lon="4.6378707">
        <ele>283.7300000</ele>
        <time>2013-04-07T10:24:12Z</time>
      </trkpt>
      <trkpt lat="45.9053866" lon="4.6378468">
        <ele>282.7700000</ele>
        <time>2013-04-07T10:24:13Z</time>
      </trkpt>
      <trkpt lat="45.9053676" lon="4.6378227">
        <ele>284.6900000</ele>
        <time>2013-04-07T10:24:14Z</time>
      </trkpt>
      <trkpt lat="45.9053466" lon="4.6378029">
        <ele>284.2100000</ele>
        <time>2013-04-07T10:24:15Z</time>
      </trkpt>
      <trkpt lat="45.9053248" lon="4.6377750">
        <ele>284.2100000</ele>
        <time>2013-04-07T10:24:16Z</time>
      </trkpt>
      <trkpt lat="45.9053041" lon="4.6377578">
        <ele>284.2100000</ele>
        <time>2013-04-07T10:24:17Z</time>
      </trkpt>
      <trkpt lat="45.9052856" lon="4.6377393">
        <ele>284.6900000</ele>
        <time>2013-04-07T10:24:18Z</time>
      </trkpt>
      <trkpt lat="45.9052639" lon="4.6377209">
        <ele>284.6900000</ele>
        <time>2013-04-07T10:24:19Z</time>
      </trkpt>
      <trkpt lat="45.9052398" lon="4.6376991">
        <ele>284.6900000</ele>
        <time>2013-04-07T10:24:20Z</time>
      </trkpt>
      <trkpt lat="45.9052150" lon="4.6376818">
        <ele>285.1700000</ele>
        <time>2013-04-07T10:24:21Z</time>
      </trkpt>
      <trkpt lat="45.9049594" lon="4.6374717">
        <ele>286.6100000</ele>
        <time>2013-04-07T10:24:33Z</time>
      </trkpt>
      <trkpt lat="45.9049002" lon="4.6374189">
        <ele>286.6100000</ele>
        <time>2013-04-07T10:24:36Z</time>
      </trkpt>
      <trkpt lat="45.9047992" lon="4.6372654">
        <ele>287.5700000</ele>
        <time>2013-04-07T10:24:42Z</time>
      </trkpt>
      <trkpt lat="45.9047860" lon="4.6372431">
        <ele>287.5700000</ele>
        <time>2013-04-07T10:24:43Z</time>
      </trkpt>
      <trkpt lat="45.9047051" lon="4.6371654">
        <ele>288.5300000</ele>
        <time>2013-04-07T10:24:48Z</time>
      </trkpt>
      <trkpt lat="45.9046839" lon="4.6371499">
        <ele>288.0500000</ele>
        <time>2013-04-07T10:24:49Z</time>
      </trkpt>
      <trkpt lat="45.9046614" lon="4.6371375">
        <ele>288.0500000</ele>
        <time>2013-04-07T10:24:50Z</time>
      </trkpt>
      <trkpt lat="45.9045883" lon="4.6370753">
        <ele>288.5300000</ele>
        <time>2013-04-07T10:24:53Z</time>
      </trkpt>
      <trkpt lat="45.9042528" lon="4.6369239">
        <ele>290.4600000</ele>
        <time>2013-04-07T10:25:06Z</time>
      </trkpt>
      <trkpt lat="45.9041842" lon="4.6368833">
        <ele>297.1800000</ele>
        <time>2013-04-07T10:25:10Z</time>
      </trkpt>
      <trkpt lat="45.9041698" lon="4.6368755">
        <ele>287.5700000</ele>
        <time>2013-04-07T10:25:11Z</time>
      </trkpt>
      <trkpt lat="45.9041390" lon="4.6368597">
        <ele>291.9000000</ele>
        <time>2013-04-07T10:25:13Z</time>
      </trkpt>
      <trkpt lat="45.9040547" lon="4.6368327">
        <ele>289.0100000</ele>
        <time>2013-04-07T10:25:18Z</time>
      </trkpt>
      <trkpt lat="45.9040371" lon="4.6368315">
        <ele>292.3800000</ele>
        <time>2013-04-07T10:25:19Z</time>
      </trkpt>
      <trkpt lat="45.9038121" lon="4.6367699">
        <ele>294.7800000</ele>
        <time>2013-04-07T10:25:31Z</time>
      </trkpt>
      <trkpt lat="45.9036524" lon="4.6367041">
        <ele>296.2200000</ele>
        <time>2013-04-07T10:25:41Z</time>
      </trkpt>
      <trkpt lat="45.9036355" lon="4.6366979">
        <ele>296.7000000</ele>
        <time>2013-04-07T10:25:42Z</time>
      </trkpt>
      <trkpt lat="45.9036195" lon="4.6366868">
        <ele>297.1800000</ele>
        <time>2013-04-07T10:25:43Z</time>
      </trkpt>
      <trkpt lat="45.9035200" lon="4.6365937">
        <ele>298.1500000</ele>
        <time>2013-04-07T10:25:51Z</time>
      </trkpt>
      <trkpt lat="45.9035127" lon="4.6365754">
        <ele>298.6300000</ele>
        <time>2013-04-07T10:25:52Z</time>
      </trkpt>
      <trkpt lat="45.9035032" lon="4.6365619">
        <ele>298.6300000</ele>
        <time>2013-04-07T10:25:53Z</time>
      </trkpt>
      <trkpt lat="45.9034940" lon="4.6365423">
        <ele>299.1100000</ele>
        <time>2013-04-07T10:25:54Z</time>
      </trkpt>
      <trkpt lat="45.9034869" lon="4.6365137">
        <ele>299.5900000</ele>
        <time>2013-04-07T10:25:56Z</time>
      </trkpt>
      <trkpt lat="45.9034397" lon="4.6363991">
        <ele>300.5500000</ele>
        <time>2013-04-07T10:26:05Z</time>
      </trkpt>
      <trkpt lat="45.9034313" lon="4.6363784">
        <ele>300.5500000</ele>
        <time>2013-04-07T10:26:06Z</time>
      </trkpt>
      <trkpt lat="45.9033553" lon="4.6362798">
        <ele>301.5100000</ele>
        <time>2013-04-07T10:26:11Z</time>
      </trkpt>
      <trkpt lat="45.9033343" lon="4.6362664">
        <ele>301.0300000</ele>
        <time>2013-04-07T10:26:12Z</time>
      </trkpt>
      <trkpt lat="45.9033141" lon="4.6362482">
        <ele>301.5100000</ele>
        <time>2013-04-07T10:26:13Z</time>
      </trkpt>
      <trkpt lat="45.9032910" lon="4.6362253">
        <ele>301.5100000</ele>
        <time>2013-04-07T10:26:14Z</time>
      </trkpt>
      <trkpt lat="45.9032684" lon="4.6362096">
        <ele>301.5100000</ele>
        <time>2013-04-07T10:26:15Z</time>
      </trkpt>
      <trkpt lat="45.9032444" lon="4.6361911">
        <ele>301.9900000</ele>
        <time>2013-04-07T10:26:16Z</time>
      </trkpt>
      <trkpt lat="45.9032210" lon="4.6361705">
        <ele>301.9900000</ele>
        <time>2013-04-07T10:26:17Z</time>
      </trkpt>
      <trkpt lat="45.9029510" lon="4.6360980">
        <ele>302.9500000</ele>
        <time>2013-04-07T10:26:27Z</time>
      </trkpt>
      <trkpt lat="45.9025019" lon="4.6360593">
        <ele>302.9500000</ele>
        <time>2013-04-07T10:26:40Z</time>
      </trkpt>
      <trkpt lat="45.9021753" lon="4.6359062">
        <ele>303.9100000</ele>
        <time>2013-04-07T10:26:52Z</time>
      </trkpt>
      <trkpt lat="45.9018514" lon="4.6355984">
        <ele>304.3900000</ele>
        <time>2013-04-07T10:27:04Z</time>
      </trkpt>
      <trkpt lat="45.9015708" lon="4.6353138">
        <ele>304.8800000</ele>
        <time>2013-04-07T10:27:14Z</time>
      </trkpt>
      <trkpt lat="45.9012685" lon="4.6349562">
        <ele>304.3900000</ele>
        <time>2013-04-07T10:27:24Z</time>
      </trkpt>
      <trkpt lat="45.9012348" lon="4.6349173">
        <ele>303.9100000</ele>
        <time>2013-04-07T10:27:25Z</time>
      </trkpt>
      <trkpt lat="45.9007321" lon="4.6347268">
        <ele>304.8800000</ele>
        <time>2013-04-07T10:27:38Z</time>
      </trkpt>
      <trkpt lat="45.9006565" lon="4.6347229">
        <ele>304.3900000</ele>
        <time>2013-04-07T10:27:40Z</time>
      </trkpt>
      <trkpt lat="45.9002685" lon="4.6345487">
        <ele>304.8800000</ele>
        <time>2013-04-07T10:27:53Z</time>
      </trkpt>
      <trkpt lat="45.8998234" lon="4.6346240">
        <ele>304.8800000</ele>
        <time>2013-04-07T10:28:05Z</time>
      </trkpt>
      <trkpt lat="45.8993004" lon="4.6346377">
        <ele>304.3900000</ele>
        <time>2013-04-07T10:28:17Z</time>
      </trkpt>
      <trkpt lat="45.8990227" lon="4.6345994">
        <ele>303.9100000</ele>
        <time>2013-04-07T10:28:25Z</time>
      </trkpt>
      <trkpt lat="45.8989818" lon="4.6348536">
        <ele>301.5100000</ele>
        <time>2013-04-07T10:28:32Z</time>
      </trkpt>
      <trkpt lat="45.8989645" lon="4.6350111">
        <ele>304.3900000</ele>
        <time>2013-04-07T10:28:35Z</time>
      </trkpt>
      <trkpt lat="45.8989581" lon="4.6350618">
        <ele>304.8800000</ele>
        <time>2013-04-07T10:28:36Z</time>
      </trkpt>
      <trkpt lat="45.8988673" lon="4.6357226">
        <ele>302.4700000</ele>
        <time>2013-04-07T10:28:47Z</time>
      </trkpt>
      <trkpt lat="45.8988465" lon="4.6357737">
        <ele>302.4700000</ele>
        <time>2013-04-07T10:28:48Z</time>
      </trkpt>
      <trkpt lat="45.8987416" lon="4.6357524">
        <ele>301.9900000</ele>
        <time>2013-04-07T10:28:51Z</time>
      </trkpt>
      <trkpt lat="45.8987144" lon="4.6356957">
        <ele>301.5100000</ele>
        <time>2013-04-07T10:28:52Z</time>
      </trkpt>
      <trkpt lat="45.8986854" lon="4.6356355">
        <ele>301.5100000</ele>
        <time>2013-04-07T10:28:53Z</time>
      </trkpt>
      <trkpt lat="45.8986548" lon="4.6355748">
        <ele>301.5100000</ele>
        <time>2013-04-07T10:28:54Z</time>
      </trkpt>
      <trkpt lat="45.8981827" lon="4.6346931">
        <ele>299.5900000</ele>
        <time>2013-04-07T10:29:07Z</time>
      </trkpt>
      <trkpt lat="45.8981322" lon="4.6346345">
        <ele>298.6300000</ele>
        <time>2013-04-07T10:29:08Z</time>
      </trkpt>
      <trkpt lat="45.8975715" lon="4.6339810">
        <ele>297.6700000</ele>
        <time>2013-04-07T10:29:19Z</time>
      </trkpt>
      <trkpt lat="45.8975104" lon="4.6339021">
        <ele>298.1500000</ele>
        <time>2013-04-07T10:29:21Z</time>
      </trkpt>
      <trkpt lat="45.8974767" lon="4.6338928">
        <ele>298.6300000</ele>
        <time>2013-04-07T10:29:22Z</time>
      </trkpt>
      <trkpt lat="45.8974412" lon="4.6339013">
        <ele>298.1500000</ele>
        <time>2013-04-07T10:29:23Z</time>
      </trkpt>
      <trkpt lat="45.8973992" lon="4.6339193">
        <ele>298.1500000</ele>
        <time>2013-04-07T10:29:24Z</time>
      </trkpt>
      <trkpt lat="45.8973585" lon="4.6339448">
        <ele>297.6700000</ele>
        <time>2013-04-07T10:29:25Z</time>
      </trkpt>
      <trkpt lat="45.8973257" lon="4.6339648">
        <ele>297.6700000</ele>
        <time>2013-04-07T10:29:26Z</time>
      </trkpt>
      <trkpt lat="45.8972991" lon="4.6339861">
        <ele>297.6700000</ele>
        <time>2013-04-07T10:29:27Z</time>
      </trkpt>
      <trkpt lat="45.8972770" lon="4.6340056">
        <ele>297.6700000</ele>
        <time>2013-04-07T10:29:28Z</time>
      </trkpt>
      <trkpt lat="45.8970362" lon="4.6341673">
        <ele>298.6300000</ele>
        <time>2013-04-07T10:29:38Z</time>
      </trkpt>
      <trkpt lat="45.8968123" lon="4.6342480">
        <ele>298.6300000</ele>
        <time>2013-04-07T10:29:49Z</time>
      </trkpt>
      <trkpt lat="45.8965574" lon="4.6343243">
        <ele>300.0700000</ele>
        <time>2013-04-07T10:29:59Z</time>
      </trkpt>
      <trkpt lat="45.8962195" lon="4.6343390">
        <ele>301.0300000</ele>
        <time>2013-04-07T10:30:10Z</time>
      </trkpt>
      <trkpt lat="45.8958404" lon="4.6343038">
        <ele>302.4700000</ele>
        <time>2013-04-07T10:30:22Z</time>
      </trkpt>
      <trkpt lat="45.8958182" lon="4.6343224">
        <ele>301.9900000</ele>
        <time>2013-04-07T10:30:23Z</time>
      </trkpt>
      <trkpt lat="45.8958068" lon="4.6343603">
        <ele>301.9900000</ele>
        <time>2013-04-07T10:30:24Z</time>
      </trkpt>
      <trkpt lat="45.8958079" lon="4.6344117">
        <ele>301.9900000</ele>
        <time>2013-04-07T10:30:25Z</time>
      </trkpt>
      <trkpt lat="45.8958167" lon="4.6344648">
        <ele>301.5100000</ele>
        <time>2013-04-07T10:30:26Z</time>
      </trkpt>
      <trkpt lat="45.8958220" lon="4.6345187">
        <ele>301.0300000</ele>
        <time>2013-04-07T10:30:27Z</time>
      </trkpt>
      <trkpt lat="45.8958126" lon="4.6345734">
        <ele>300.5500000</ele>
        <time>2013-04-07T10:30:28Z</time>
      </trkpt>
      <trkpt lat="45.8957819" lon="4.6346132">
        <ele>300.5500000</ele>
        <time>2013-04-07T10:30:29Z</time>
      </trkpt>
      <trkpt lat="45.8957409" lon="4.6346388">
        <ele>301.0300000</ele>
        <time>2013-04-07T10:30:30Z</time>
      </trkpt>
      <trkpt lat="45.8956986" lon="4.6346559">
        <ele>301.0300000</ele>
        <time>2013-04-07T10:30:31Z</time>
      </trkpt>
      <trkpt lat="45.8956539" lon="4.6346723">
        <ele>301.0300000</ele>
        <time>2013-04-07T10:30:32Z</time>
      </trkpt>
      <trkpt lat="45.8953275" lon="4.6347548">
        <ele>301.0300000</ele>
        <time>2013-04-07T10:30:39Z</time>
      </trkpt>
      <trkpt lat="45.8949313" lon="4.6348194">
        <ele>301.9900000</ele>
        <time>2013-04-07T10:30:49Z</time>
      </trkpt>
      <trkpt lat="45.8949023" lon="4.6349470">
        <ele>301.9900000</ele>
        <time>2013-04-07T10:30:53Z</time>
      </trkpt>
      <trkpt lat="45.8949317" lon="4.6350410">
        <ele>301.0300000</ele>
        <time>2013-04-07T10:30:55Z</time>
      </trkpt>
      <trkpt lat="45.8949631" lon="4.6351518">
        <ele>300.0700000</ele>
        <time>2013-04-07T10:30:57Z</time>
      </trkpt>
      <trkpt lat="45.8949643" lon="4.6352032">
        <ele>300.0700000</ele>
        <time>2013-04-07T10:30:58Z</time>
      </trkpt>
      <trkpt lat="45.8949593" lon="4.6352470">
        <ele>300.0700000</ele>
        <time>2013-04-07T10:30:59Z</time>
      </trkpt>
      <trkpt lat="45.8949394" lon="4.6352788">
        <ele>300.0700000</ele>
        <time>2013-04-07T10:31:00Z</time>
      </trkpt>
      <trkpt lat="45.8949074" lon="4.6353011">
        <ele>300.5500000</ele>
        <time>2013-04-07T10:31:01Z</time>
      </trkpt>
      <trkpt lat="45.8948792" lon="4.6353219">
        <ele>300.0700000</ele>
        <time>2013-04-07T10:31:02Z</time>
      </trkpt>
      <trkpt lat="45.8948500" lon="4.6353439">
        <ele>300.0700000</ele>
        <time>2013-04-07T10:31:03Z</time>
      </trkpt>
      <trkpt lat="45.8948213" lon="4.6353663">
        <ele>300.0700000</ele>
        <time>2013-04-07T10:31:04Z</time>
      </trkpt>
      <trkpt lat="45.8947874" lon="4.6353851">
        <ele>299.5900000</ele>
        <time>2013-04-07T10:31:05Z</time>
      </trkpt>
      <trkpt lat="45.8947568" lon="4.6354005">
        <ele>299.1100000</ele>
        <time>2013-04-07T10:31:06Z</time>
      </trkpt>
      <trkpt lat="45.8947304" lon="4.6354095">
        <ele>299.5900000</ele>
        <time>2013-04-07T10:31:07Z</time>
      </trkpt>
      <trkpt lat="45.8947069" lon="4.6354221">
        <ele>299.5900000</ele>
        <time>2013-04-07T10:31:08Z</time>
      </trkpt>
      <trkpt lat="45.8946828" lon="4.6354243">
        <ele>299.5900000</ele>
        <time>2013-04-07T10:31:09Z</time>
      </trkpt>
      <trkpt lat="45.8946615" lon="4.6354204">
        <ele>299.5900000</ele>
        <time>2013-04-07T10:31:10Z</time>
      </trkpt>
      <trkpt lat="45.8946434" lon="4.6354231">
        <ele>299.5900000</ele>
        <time>2013-04-07T10:31:11Z</time>
      </trkpt>
      <trkpt lat="45.8946274" lon="4.6354575">
        <ele>299.1100000</ele>
        <time>2013-04-07T10:31:20Z</time>
      </trkpt>
      <trkpt lat="45.8946187" lon="4.6354789">
        <ele>299.1100000</ele>
        <time>2013-04-07T10:31:37Z</time>
      </trkpt>
      <trkpt lat="45.8946174" lon="4.6355012">
        <ele>299.1100000</ele>
        <time>2013-04-07T10:32:07Z</time>
      </trkpt>
      <trkpt lat="45.8946086" lon="4.6355313">
        <ele>299.1100000</ele>
        <time>2013-04-07T10:32:35Z</time>
      </trkpt>
      <trkpt lat="45.8945997" lon="4.6355345">
        <ele>299.5900000</ele>
        <time>2013-04-07T10:33:10Z</time>
      </trkpt>
      <trkpt lat="45.8946163" lon="4.6355329">
        <ele>299.1100000</ele>
        <time>2013-04-07T10:33:42Z</time>
      </trkpt>
      <trkpt lat="45.8946169" lon="4.6355025">
        <ele>299.5900000</ele>
        <time>2013-04-07T10:34:15Z</time>
      </trkpt>
      <trkpt lat="45.8946176" lon="4.6354861">
        <ele>299.5900000</ele>
        <time>2013-04-07T10:34:43Z</time>
      </trkpt>
      <trkpt lat="45.8946216" lon="4.6354815">
        <ele>300.0700000</ele>
        <time>2013-04-07T10:35:18Z</time>
      </trkpt>
      <trkpt lat="45.8946231" lon="4.6354873">
        <ele>300.0700000</ele>
        <time>2013-04-07T10:35:43Z</time>
      </trkpt>
      <trkpt lat="45.8946235" lon="4.6354895">
        <ele>300.0700000</ele>
        <time>2013-04-07T10:36:11Z</time>
      </trkpt>
      <trkpt lat="45.8946217" lon="4.6354860">
        <ele>300.5500000</ele>
        <time>2013-04-07T10:36:34Z</time>
      </trkpt>
      <trkpt lat="45.8946238" lon="4.6354722">
        <ele>300.5500000</ele>
        <time>2013-04-07T10:37:00Z</time>
      </trkpt>
      <trkpt lat="45.8946006" lon="4.6354639">
        <ele>300.0700000</ele>
        <time>2013-04-07T10:37:10Z</time>
      </trkpt>
      <trkpt lat="45.8946027" lon="4.6354656">
        <ele>300.0700000</ele>
        <time>2013-04-07T10:37:33Z</time>
      </trkpt>
      <trkpt lat="45.8946012" lon="4.6354647">
        <ele>300.5500000</ele>
        <time>2013-04-07T10:37:55Z</time>
      </trkpt>
      <trkpt lat="45.8945755" lon="4.6354430">
        <ele>300.0700000</ele>
        <time>2013-04-07T10:38:01Z</time>
      </trkpt>
      <trkpt lat="45.8944830" lon="4.6353652">
        <ele>300.0700000</ele>
        <time>2013-04-07T10:38:05Z</time>
      </trkpt>
      <trkpt lat="45.8944418" lon="4.6353638">
        <ele>300.0700000</ele>
        <time>2013-04-07T10:38:06Z</time>
      </trkpt>
      <trkpt lat="45.8944036" lon="4.6353735">
        <ele>300.0700000</ele>
        <time>2013-04-07T10:38:07Z</time>
      </trkpt>
      <trkpt lat="45.8943685" lon="4.6353860">
        <ele>300.5500000</ele>
        <time>2013-04-07T10:38:08Z</time>
      </trkpt>
      <trkpt lat="45.8943316" lon="4.6354008">
        <ele>300.5500000</ele>
        <time>2013-04-07T10:38:09Z</time>
      </trkpt>
      <trkpt lat="45.8942931" lon="4.6354231">
        <ele>300.5500000</ele>
        <time>2013-04-07T10:38:10Z</time>
      </trkpt>
      <trkpt lat="45.8942517" lon="4.6354432">
        <ele>300.5500000</ele>
        <time>2013-04-07T10:38:11Z</time>
      </trkpt>
      <trkpt lat="45.8935933" lon="4.6357151">
        <ele>301.0300000</ele>
        <time>2013-04-07T10:38:25Z</time>
      </trkpt>
      <trkpt lat="45.8927087" lon="4.6360216">
        <ele>301.0300000</ele>
        <time>2013-04-07T10:38:41Z</time>
      </trkpt>
      <trkpt lat="45.8920887" lon="4.6360207">
        <ele>302.9500000</ele>
        <time>2013-04-07T10:38:54Z</time>
      </trkpt>
      <trkpt lat="45.8919377" lon="4.6359612">
        <ele>303.4300000</ele>
        <time>2013-04-07T10:38:58Z</time>
      </trkpt>
      <trkpt lat="45.8919140" lon="4.6359132">
        <ele>302.4700000</ele>
        <time>2013-04-07T10:38:59Z</time>
      </trkpt>
      <trkpt lat="45.8919062" lon="4.6358488">
        <ele>302.4700000</ele>
        <time>2013-04-07T10:39:00Z</time>
      </trkpt>
      <trkpt lat="45.8919092" lon="4.6357742">
        <ele>301.9900000</ele>
        <time>2013-04-07T10:39:01Z</time>
      </trkpt>
      <trkpt lat="45.8919283" lon="4.6356973">
        <ele>301.5100000</ele>
        <time>2013-04-07T10:39:02Z</time>
      </trkpt>
      <trkpt lat="45.8919587" lon="4.6356268">
        <ele>301.5100000</ele>
        <time>2013-04-07T10:39:03Z</time>
      </trkpt>
      <trkpt lat="45.8919893" lon="4.6355628">
        <ele>301.9900000</ele>
        <time>2013-04-07T10:39:04Z</time>
      </trkpt>
      <trkpt lat="45.8920140" lon="4.6355017">
        <ele>301.9900000</ele>
        <time>2013-04-07T10:39:05Z</time>
      </trkpt>
      <trkpt lat="45.8920306" lon="4.6354400">
        <ele>301.9900000</ele>
        <time>2013-04-07T10:39:06Z</time>
      </trkpt>
      <trkpt lat="45.8920361" lon="4.6353782">
        <ele>302.9500000</ele>
        <time>2013-04-07T10:39:07Z</time>
      </trkpt>
      <trkpt lat="45.8920329" lon="4.6353191">
        <ele>303.4300000</ele>
        <time>2013-04-07T10:39:08Z</time>
      </trkpt>
      <trkpt lat="45.8920228" lon="4.6352659">
        <ele>303.9100000</ele>
        <time>2013-04-07T10:39:09Z</time>
      </trkpt>
      <trkpt lat="45.8920061" lon="4.6352168">
        <ele>303.4300000</ele>
        <time>2013-04-07T10:39:10Z</time>
      </trkpt>
      <trkpt lat="45.8919674" lon="4.6350498">
        <ele>303.9100000</ele>
        <time>2013-04-07T10:39:13Z</time>
      </trkpt>
      <trkpt lat="45.8919560" lon="4.6349273">
        <ele>304.3900000</ele>
        <time>2013-04-07T10:39:15Z</time>
      </trkpt>
      <trkpt lat="45.8919598" lon="4.6347406">
        <ele>304.3900000</ele>
        <time>2013-04-07T10:39:18Z</time>
      </trkpt>
      <trkpt lat="45.8920618" lon="4.6341296">
        <ele>306.3200000</ele>
        <time>2013-04-07T10:39:30Z</time>
      </trkpt>
      <trkpt lat="45.8921042" lon="4.6338163">
        <ele>307.7600000</ele>
        <time>2013-04-07T10:39:37Z</time>
      </trkpt>
      <trkpt lat="45.8920908" lon="4.6337758">
        <ele>307.2800000</ele>
        <time>2013-04-07T10:39:38Z</time>
      </trkpt>
      <trkpt lat="45.8920714" lon="4.6337423">
        <ele>307.7600000</ele>
        <time>2013-04-07T10:39:39Z</time>
      </trkpt>
      <trkpt lat="45.8920473" lon="4.6337177">
        <ele>307.7600000</ele>
        <time>2013-04-07T10:39:40Z</time>
      </trkpt>
      <trkpt lat="45.8920161" lon="4.6336949">
        <ele>307.7600000</ele>
        <time>2013-04-07T10:39:41Z</time>
      </trkpt>
      <trkpt lat="45.8919810" lon="4.6336805">
        <ele>307.7600000</ele>
        <time>2013-04-07T10:39:42Z</time>
      </trkpt>
      <trkpt lat="45.8919411" lon="4.6336778">
        <ele>308.2400000</ele>
        <time>2013-04-07T10:39:43Z</time>
      </trkpt>
      <trkpt lat="45.8919026" lon="4.6336816">
        <ele>308.2400000</ele>
        <time>2013-04-07T10:39:44Z</time>
      </trkpt>
      <trkpt lat="45.8914198" lon="4.6336032">
        <ele>309.6800000</ele>
        <time>2013-04-07T10:39:56Z</time>
      </trkpt>
      <trkpt lat="45.8912180" lon="4.6333300">
        <ele>310.1600000</ele>
        <time>2013-04-07T10:40:06Z</time>
      </trkpt>
      <trkpt lat="45.8912646" lon="4.6329142">
        <ele>310.1600000</ele>
        <time>2013-04-07T10:40:15Z</time>
      </trkpt>
      <trkpt lat="45.8912850" lon="4.6328610">
        <ele>310.1600000</ele>
        <time>2013-04-07T10:40:16Z</time>
      </trkpt>
      <trkpt lat="45.8913021" lon="4.6328029">
        <ele>310.1600000</ele>
        <time>2013-04-07T10:40:17Z</time>
      </trkpt>
      <trkpt lat="45.8913291" lon="4.6326795">
        <ele>309.2000000</ele>
        <time>2013-04-07T10:40:19Z</time>
      </trkpt>
      <trkpt lat="45.8913354" lon="4.6326147">
        <ele>309.6800000</ele>
        <time>2013-04-07T10:40:20Z</time>
      </trkpt>
      <trkpt lat="45.8913321" lon="4.6324802">
        <ele>309.2000000</ele>
        <time>2013-04-07T10:40:22Z</time>
      </trkpt>
      <trkpt lat="45.8913102" lon="4.6324247">
        <ele>309.2000000</ele>
        <time>2013-04-07T10:40:23Z</time>
      </trkpt>
      <trkpt lat="45.8912500" lon="4.6323203">
        <ele>309.2000000</ele>
        <time>2013-04-07T10:40:25Z</time>
      </trkpt>
      <trkpt lat="45.8911824" lon="4.6322242">
        <ele>309.2000000</ele>
        <time>2013-04-07T10:40:27Z</time>
      </trkpt>
      <trkpt lat="45.8910530" lon="4.6320274">
        <ele>310.1600000</ele>
        <time>2013-04-07T10:40:31Z</time>
      </trkpt>
      <trkpt lat="45.8910172" lon="4.6319790">
        <ele>310.1600000</ele>
        <time>2013-04-07T10:40:32Z</time>
      </trkpt>
      <trkpt lat="45.8907925" lon="4.6316001">
        <ele>310.1600000</ele>
        <time>2013-04-07T10:40:39Z</time>
      </trkpt>
      <trkpt lat="45.8906681" lon="4.6313874">
        <ele>309.6800000</ele>
        <time>2013-04-07T10:40:43Z</time>
      </trkpt>
      <trkpt lat="45.8906077" lon="4.6312837">
        <ele>309.6800000</ele>
        <time>2013-04-07T10:40:45Z</time>
      </trkpt>
      <trkpt lat="45.8904656" lon="4.6310831">
        <ele>309.2000000</ele>
        <time>2013-04-07T10:40:49Z</time>
      </trkpt>
      <trkpt lat="45.8904145" lon="4.6309875">
        <ele>308.7200000</ele>
        <time>2013-04-07T10:40:51Z</time>
      </trkpt>
      <trkpt lat="45.8902318" lon="4.6306839">
        <ele>307.7600000</ele>
        <time>2013-04-07T10:40:57Z</time>
      </trkpt>
      <trkpt lat="45.8899172" lon="4.6299276">
        <ele>305.3600000</ele>
        <time>2013-04-07T10:41:06Z</time>
      </trkpt>
      <trkpt lat="45.8898703" lon="4.6298533">
        <ele>304.3900000</ele>
        <time>2013-04-07T10:41:07Z</time>
      </trkpt>
      <trkpt lat="45.8898185" lon="4.6297853">
        <ele>304.8800000</ele>
        <time>2013-04-07T10:41:08Z</time>
      </trkpt>
      <trkpt lat="45.8897706" lon="4.6297176">
        <ele>305.3600000</ele>
        <time>2013-04-07T10:41:09Z</time>
      </trkpt>
      <trkpt lat="45.8897258" lon="4.6296471">
        <ele>305.3600000</ele>
        <time>2013-04-07T10:41:10Z</time>
      </trkpt>
      <trkpt lat="45.8896835" lon="4.6295726">
        <ele>305.3600000</ele>
        <time>2013-04-07T10:41:11Z</time>
      </trkpt>
      <trkpt lat="45.8896455" lon="4.6294876">
        <ele>304.8800000</ele>
        <time>2013-04-07T10:41:12Z</time>
      </trkpt>
      <trkpt lat="45.8896086" lon="4.6293993">
        <ele>303.9100000</ele>
        <time>2013-04-07T10:41:13Z</time>
      </trkpt>
      <trkpt lat="45.8895653" lon="4.6293134">
        <ele>303.9100000</ele>
        <time>2013-04-07T10:41:14Z</time>
      </trkpt>
      <trkpt lat="45.8895210" lon="4.6292281">
        <ele>303.9100000</ele>
        <time>2013-04-07T10:41:15Z</time>
      </trkpt>
      <trkpt lat="45.8891270" lon="4.6286028">
        <ele>301.0300000</ele>
        <time>2013-04-07T10:41:23Z</time>
      </trkpt>
      <trkpt lat="45.8890644" lon="4.6285666">
        <ele>301.0300000</ele>
        <time>2013-04-07T10:41:24Z</time>
      </trkpt>
      <trkpt lat="45.8890016" lon="4.6285542">
        <ele>301.0300000</ele>
        <time>2013-04-07T10:41:25Z</time>
      </trkpt>
      <trkpt lat="45.8888857" lon="4.6285506">
        <ele>300.5500000</ele>
        <time>2013-04-07T10:41:27Z</time>
      </trkpt>
      <trkpt lat="45.8888260" lon="4.6285178">
        <ele>299.5900000</ele>
        <time>2013-04-07T10:41:28Z</time>
      </trkpt>
      <trkpt lat="45.8887665" lon="4.6284585">
        <ele>298.1500000</ele>
        <time>2013-04-07T10:41:29Z</time>
      </trkpt>
      <trkpt lat="45.8885780" lon="4.6282608">
        <ele>293.8200000</ele>
        <time>2013-04-07T10:41:32Z</time>
      </trkpt>
      <trkpt lat="45.8885135" lon="4.6282171">
        <ele>292.8600000</ele>
        <time>2013-04-07T10:41:33Z</time>
      </trkpt>
      <trkpt lat="45.8883404" lon="4.6281177">
        <ele>288.5300000</ele>
        <time>2013-04-07T10:41:36Z</time>
      </trkpt>
      <trkpt lat="45.8882826" lon="4.6280875">
        <ele>287.0900000</ele>
        <time>2013-04-07T10:41:37Z</time>
      </trkpt>
      <trkpt lat="45.8882182" lon="4.6280541">
        <ele>284.2100000</ele>
        <time>2013-04-07T10:41:38Z</time>
      </trkpt>
      <trkpt lat="45.8881473" lon="4.6280172">
        <ele>282.2800000</ele>
        <time>2013-04-07T10:41:39Z</time>
      </trkpt>
      <trkpt lat="45.8880802" lon="4.6279777">
        <ele>279.8800000</ele>
        <time>2013-04-07T10:41:40Z</time>
      </trkpt>
      <trkpt lat="45.8879852" lon="4.6278903">
        <ele>277.4800000</ele>
        <time>2013-04-07T10:41:42Z</time>
      </trkpt>
      <trkpt lat="45.8879719" lon="4.6278267">
        <ele>277.0000000</ele>
        <time>2013-04-07T10:41:43Z</time>
      </trkpt>
      <trkpt lat="45.8879421" lon="4.6275750">
        <ele>272.6700000</ele>
        <time>2013-04-07T10:41:46Z</time>
      </trkpt>
      <trkpt lat="45.8879089" lon="4.6273027">
        <ele>268.8300000</ele>
        <time>2013-04-07T10:41:49Z</time>
      </trkpt>
      <trkpt lat="45.8878650" lon="4.6270400">
        <ele>264.5000000</ele>
        <time>2013-04-07T10:41:52Z</time>
      </trkpt>
      <trkpt lat="45.8878433" lon="4.6267592">
        <ele>261.1400000</ele>
        <time>2013-04-07T10:41:55Z</time>
      </trkpt>
      <trkpt lat="45.8878435" lon="4.6266847">
        <ele>260.6500000</ele>
        <time>2013-04-07T10:41:56Z</time>
      </trkpt>
      <trkpt lat="45.8878453" lon="4.6266102">
        <ele>259.2100000</ele>
        <time>2013-04-07T10:41:57Z</time>
      </trkpt>
      <trkpt lat="45.8878512" lon="4.6265390">
        <ele>257.7700000</ele>
        <time>2013-04-07T10:41:58Z</time>
      </trkpt>
      <trkpt lat="45.8878518" lon="4.6263200">
        <ele>254.4100000</ele>
        <time>2013-04-07T10:42:02Z</time>
      </trkpt>
      <trkpt lat="45.8878248" lon="4.6262738">
        <ele>252.9600000</ele>
        <time>2013-04-07T10:42:03Z</time>
      </trkpt>
      <trkpt lat="45.8877848" lon="4.6262507">
        <ele>252.0000000</ele>
        <time>2013-04-07T10:42:04Z</time>
      </trkpt>
      <trkpt lat="45.8877010" lon="4.6262208">
        <ele>250.0800000</ele>
        <time>2013-04-07T10:42:06Z</time>
      </trkpt>
      <trkpt lat="45.8876093" lon="4.6261610">
        <ele>247.2000000</ele>
        <time>2013-04-07T10:42:08Z</time>
      </trkpt>
      <trkpt lat="45.8875658" lon="4.6261432">
        <ele>246.2300000</ele>
        <time>2013-04-07T10:42:09Z</time>
      </trkpt>
      <trkpt lat="45.8875199" lon="4.6261375">
        <ele>244.3100000</ele>
        <time>2013-04-07T10:42:10Z</time>
      </trkpt>
      <trkpt lat="45.8874241" lon="4.6261439">
        <ele>242.8700000</ele>
        <time>2013-04-07T10:42:12Z</time>
      </trkpt>
      <trkpt lat="45.8873535" lon="4.6261433">
        <ele>241.4300000</ele>
        <time>2013-04-07T10:42:14Z</time>
      </trkpt>
      <trkpt lat="45.8873340" lon="4.6260984">
        <ele>240.4700000</ele>
        <time>2013-04-07T10:42:15Z</time>
      </trkpt>
      <trkpt lat="45.8873124" lon="4.6260310">
        <ele>239.0200000</ele>
        <time>2013-04-07T10:42:16Z</time>
      </trkpt>
      <trkpt lat="45.8872745" lon="4.6259585">
        <ele>237.5800000</ele>
        <time>2013-04-07T10:42:17Z</time>
      </trkpt>
      <trkpt lat="45.8872307" lon="4.6258843">
        <ele>235.6600000</ele>
        <time>2013-04-07T10:42:18Z</time>
      </trkpt>
      <trkpt lat="45.8871491" lon="4.6257203">
        <ele>232.7800000</ele>
        <time>2013-04-07T10:42:20Z</time>
      </trkpt>
      <trkpt lat="45.8870530" lon="4.6255049">
        <ele>228.9300000</ele>
        <time>2013-04-07T10:42:23Z</time>
      </trkpt>
      <trkpt lat="45.8870426" lon="4.6254316">
        <ele>228.4500000</ele>
        <time>2013-04-07T10:42:24Z</time>
      </trkpt>
      <trkpt lat="45.8870446" lon="4.6253604">
        <ele>227.4900000</ele>
        <time>2013-04-07T10:42:25Z</time>
      </trkpt>
      <trkpt lat="45.8870559" lon="4.6252890">
        <ele>227.0100000</ele>
        <time>2013-04-07T10:42:26Z</time>
      </trkpt>
      <trkpt lat="45.8870738" lon="4.6252157">
        <ele>226.5300000</ele>
        <time>2013-04-07T10:42:27Z</time>
      </trkpt>
      <trkpt lat="45.8870996" lon="4.6251419">
        <ele>227.0100000</ele>
        <time>2013-04-07T10:42:28Z</time>
      </trkpt>
      <trkpt lat="45.8871270" lon="4.6250745">
        <ele>227.0100000</ele>
        <time>2013-04-07T10:42:29Z</time>
      </trkpt>
      <trkpt lat="45.8871573" lon="4.6250118">
        <ele>227.0100000</ele>
        <time>2013-04-07T10:42:30Z</time>
      </trkpt>
      <trkpt lat="45.8871912" lon="4.6249494">
        <ele>227.4900000</ele>
        <time>2013-04-07T10:42:31Z</time>
      </trkpt>
      <trkpt lat="45.8872238" lon="4.6248862">
        <ele>227.4900000</ele>
        <time>2013-04-07T10:42:32Z</time>
      </trkpt>
      <trkpt lat="45.8872535" lon="4.6248245">
        <ele>227.0100000</ele>
        <time>2013-04-07T10:42:33Z</time>
      </trkpt>
      <trkpt lat="45.8872841" lon="4.6247637">
        <ele>227.0100000</ele>
        <time>2013-04-07T10:42:34Z</time>
      </trkpt>
      <trkpt lat="45.8875189" lon="4.6242300">
        <ele>226.0500000</ele>
        <time>2013-04-07T10:42:42Z</time>
      </trkpt>
      <trkpt lat="45.8876148" lon="4.6239654">
        <ele>226.0500000</ele>
        <time>2013-04-07T10:42:46Z</time>
      </trkpt>
      <trkpt lat="45.8876391" lon="4.6239040">
        <ele>226.0500000</ele>
        <time>2013-04-07T10:42:47Z</time>
      </trkpt>
      <trkpt lat="45.8877026" lon="4.6237251">
        <ele>226.5300000</ele>
        <time>2013-04-07T10:42:51Z</time>
      </trkpt>
      <trkpt lat="45.8877162" lon="4.6236771">
        <ele>225.5700000</ele>
        <time>2013-04-07T10:42:54Z</time>
      </trkpt>
      <trkpt lat="45.8877143" lon="4.6236385">
        <ele>225.5700000</ele>
        <time>2013-04-07T10:42:55Z</time>
      </trkpt>
      <trkpt lat="45.8877083" lon="4.6235875">
        <ele>225.5700000</ele>
        <time>2013-04-07T10:42:56Z</time>
      </trkpt>
      <trkpt lat="45.8877110" lon="4.6235286">
        <ele>225.5700000</ele>
        <time>2013-04-07T10:42:57Z</time>
      </trkpt>
      <trkpt lat="45.8876973" lon="4.6234682">
        <ele>225.5700000</ele>
        <time>2013-04-07T10:42:58Z</time>
      </trkpt>
      <trkpt lat="45.8876744" lon="4.6233958">
        <ele>225.0900000</ele>
        <time>2013-04-07T10:42:59Z</time>
      </trkpt>
      <trkpt lat="45.8876603" lon="4.6233154">
        <ele>225.0900000</ele>
        <time>2013-04-07T10:43:00Z</time>
      </trkpt>
      <trkpt lat="45.8876539" lon="4.6232445">
        <ele>224.6100000</ele>
        <time>2013-04-07T10:43:01Z</time>
      </trkpt>
      <trkpt lat="45.8876531" lon="4.6231738">
        <ele>224.6100000</ele>
        <time>2013-04-07T10:43:02Z</time>
      </trkpt>
      <trkpt lat="45.8876476" lon="4.6231059">
        <ele>224.6100000</ele>
        <time>2013-04-07T10:43:03Z</time>
      </trkpt>
      <trkpt lat="45.8876229" lon="4.6230477">
        <ele>224.6100000</ele>
        <time>2013-04-07T10:43:04Z</time>
      </trkpt>
      <trkpt lat="45.8875865" lon="4.6230159">
        <ele>224.6100000</ele>
        <time>2013-04-07T10:43:05Z</time>
      </trkpt>
      <trkpt lat="45.8875430" lon="4.6230081">
        <ele>224.1200000</ele>
        <time>2013-04-07T10:43:06Z</time>
      </trkpt>
      <trkpt lat="45.8875041" lon="4.6229988">
        <ele>224.1200000</ele>
        <time>2013-04-07T10:43:07Z</time>
      </trkpt>
      <trkpt lat="45.8874664" lon="4.6229697">
        <ele>223.6400000</ele>
        <time>2013-04-07T10:43:08Z</time>
      </trkpt>
      <trkpt lat="45.8874339" lon="4.6229158">
        <ele>222.6800000</ele>
        <time>2013-04-07T10:43:09Z</time>
      </trkpt>
      <trkpt lat="45.8874111" lon="4.6228416">
        <ele>223.1600000</ele>
        <time>2013-04-07T10:43:10Z</time>
      </trkpt>
      <trkpt lat="45.8873954" lon="4.6227647">
        <ele>222.6800000</ele>
        <time>2013-04-07T10:43:11Z</time>
      </trkpt>
      <trkpt lat="45.8873836" lon="4.6226846">
        <ele>222.2000000</ele>
        <time>2013-04-07T10:43:12Z</time>
      </trkpt>
      <trkpt lat="45.8873655" lon="4.6226050">
        <ele>221.7200000</ele>
        <time>2013-04-07T10:43:13Z</time>
      </trkpt>
      <trkpt lat="45.8873339" lon="4.6225235">
        <ele>222.2000000</ele>
        <time>2013-04-07T10:43:14Z</time>
      </trkpt>
      <trkpt lat="45.8873081" lon="4.6224472">
        <ele>221.7200000</ele>
        <time>2013-04-07T10:43:15Z</time>
      </trkpt>
      <trkpt lat="45.8872966" lon="4.6223682">
        <ele>222.6800000</ele>
        <time>2013-04-07T10:43:16Z</time>
      </trkpt>
      <trkpt lat="45.8872778" lon="4.6222958">
        <ele>222.6800000</ele>
        <time>2013-04-07T10:43:17Z</time>
      </trkpt>
      <trkpt lat="45.8872493" lon="4.6222324">
        <ele>223.1600000</ele>
        <time>2013-04-07T10:43:18Z</time>
      </trkpt>
      <trkpt lat="45.8872026" lon="4.6221917">
        <ele>222.6800000</ele>
        <time>2013-04-07T10:43:19Z</time>
      </trkpt>
      <trkpt lat="45.8870300" lon="4.6220934">
        <ele>221.2400000</ele>
        <time>2013-04-07T10:43:22Z</time>
      </trkpt>
      <trkpt lat="45.8864810" lon="4.6215606">
        <ele>220.7600000</ele>
        <time>2013-04-07T10:43:32Z</time>
      </trkpt>
      <trkpt lat="45.8864320" lon="4.6215301">
        <ele>221.2400000</ele>
        <time>2013-04-07T10:43:33Z</time>
      </trkpt>
      <trkpt lat="45.8862956" lon="4.6214294">
        <ele>222.6800000</ele>
        <time>2013-04-07T10:43:40Z</time>
      </trkpt>
      <trkpt lat="45.8861648" lon="4.6212894">
        <ele>222.2000000</ele>
        <time>2013-04-07T10:43:50Z</time>
      </trkpt>
      <trkpt lat="45.8861235" lon="4.6212583">
        <ele>221.7200000</ele>
        <time>2013-04-07T10:43:51Z</time>
      </trkpt>
      <trkpt lat="45.8860810" lon="4.6212265">
        <ele>221.7200000</ele>
        <time>2013-04-07T10:43:52Z</time>
      </trkpt>
      <trkpt lat="45.8860014" lon="4.6211653">
        <ele>222.6800000</ele>
        <time>2013-04-07T10:43:54Z</time>
      </trkpt>
      <trkpt lat="45.8856791" lon="4.6208897">
        <ele>221.2400000</ele>
        <time>2013-04-07T10:44:02Z</time>
      </trkpt>
      <trkpt lat="45.8850467" lon="4.6203446">
        <ele>220.2800000</ele>
        <time>2013-04-07T10:44:14Z</time>
      </trkpt>
      <trkpt lat="45.8841687" lon="4.6195746">
        <ele>221.2400000</ele>
        <time>2013-04-07T10:44:31Z</time>
      </trkpt>
      <trkpt lat="45.8838782" lon="4.6194373">
        <ele>222.6800000</ele>
        <time>2013-04-07T10:44:37Z</time>
      </trkpt>
      <trkpt lat="45.8838310" lon="4.6194315">
        <ele>223.1600000</ele>
        <time>2013-04-07T10:44:38Z</time>
      </trkpt>
      <trkpt lat="45.8837340" lon="4.6194177">
        <ele>223.6400000</ele>
        <time>2013-04-07T10:44:40Z</time>
      </trkpt>
      <trkpt lat="45.8836458" lon="4.6194062">
        <ele>223.6400000</ele>
        <time>2013-04-07T10:44:42Z</time>
      </trkpt>
      <trkpt lat="45.8833886" lon="4.6192590">
        <ele>225.0900000</ele>
        <time>2013-04-07T10:44:49Z</time>
      </trkpt>
      <trkpt lat="45.8833818" lon="4.6192023">
        <ele>225.5700000</ele>
        <time>2013-04-07T10:44:50Z</time>
      </trkpt>
      <trkpt lat="45.8833844" lon="4.6191443">
        <ele>225.0900000</ele>
        <time>2013-04-07T10:44:51Z</time>
      </trkpt>
      <trkpt lat="45.8833915" lon="4.6190787">
        <ele>225.0900000</ele>
        <time>2013-04-07T10:44:52Z</time>
      </trkpt>
      <trkpt lat="45.8834033" lon="4.6190081">
        <ele>224.6100000</ele>
        <time>2013-04-07T10:44:53Z</time>
      </trkpt>
      <trkpt lat="45.8834175" lon="4.6189389">
        <ele>223.6400000</ele>
        <time>2013-04-07T10:44:54Z</time>
      </trkpt>
      <trkpt lat="45.8834664" lon="4.6187213">
        <ele>223.6400000</ele>
        <time>2013-04-07T10:44:57Z</time>
      </trkpt>
      <trkpt lat="45.8834832" lon="4.6186443">
        <ele>223.1600000</ele>
        <time>2013-04-07T10:44:58Z</time>
      </trkpt>
      <trkpt lat="45.8834978" lon="4.6185681">
        <ele>223.1600000</ele>
        <time>2013-04-07T10:44:59Z</time>
      </trkpt>
      <trkpt lat="45.8835108" lon="4.6184929">
        <ele>223.1600000</ele>
        <time>2013-04-07T10:45:00Z</time>
      </trkpt>
      <trkpt lat="45.8835277" lon="4.6184167">
        <ele>223.1600000</ele>
        <time>2013-04-07T10:45:01Z</time>
      </trkpt>
      <trkpt lat="45.8835799" lon="4.6182050">
        <ele>223.6400000</ele>
        <time>2013-04-07T10:45:04Z</time>
      </trkpt>
      <trkpt lat="45.8835982" lon="4.6181370">
        <ele>223.6400000</ele>
        <time>2013-04-07T10:45:05Z</time>
      </trkpt>
      <trkpt lat="45.8838454" lon="4.6172961">
        <ele>223.1600000</ele>
        <time>2013-04-07T10:45:17Z</time>
      </trkpt>
      <trkpt lat="45.8838642" lon="4.6172293">
        <ele>223.6400000</ele>
        <time>2013-04-07T10:45:18Z</time>
      </trkpt>
      <trkpt lat="45.8839090" lon="4.6170985">
        <ele>224.1200000</ele>
        <time>2013-04-07T10:45:20Z</time>
      </trkpt>
      <trkpt lat="45.8842350" lon="4.6162910">
        <ele>225.0900000</ele>
        <time>2013-04-07T10:45:33Z</time>
      </trkpt>
      <trkpt lat="45.8842827" lon="4.6161652">
        <ele>225.0900000</ele>
        <time>2013-04-07T10:45:35Z</time>
      </trkpt>
      <trkpt lat="45.8846040" lon="4.6155948">
        <ele>227.9700000</ele>
        <time>2013-04-07T10:45:48Z</time>
      </trkpt>
      <trkpt lat="45.8848069" lon="4.6152703">
        <ele>230.8500000</ele>
        <time>2013-04-07T10:45:59Z</time>
      </trkpt>
      <trkpt lat="45.8849607" lon="4.6149657">
        <ele>233.2600000</ele>
        <time>2013-04-07T10:46:11Z</time>
      </trkpt>
      <trkpt lat="45.8849618" lon="4.6149351">
        <ele>233.2600000</ele>
        <time>2013-04-07T10:46:12Z</time>
      </trkpt>
      <trkpt lat="45.8849605" lon="4.6149129">
        <ele>233.7400000</ele>
        <time>2013-04-07T10:46:13Z</time>
      </trkpt>
      <trkpt lat="45.8849545" lon="4.6148927">
        <ele>233.7400000</ele>
        <time>2013-04-07T10:46:14Z</time>
      </trkpt>
      <trkpt lat="45.8849451" lon="4.6148717">
        <ele>234.2200000</ele>
        <time>2013-04-07T10:46:15Z</time>
      </trkpt>
      <trkpt lat="45.8849147" lon="4.6148181">
        <ele>234.2200000</ele>
        <time>2013-04-07T10:46:18Z</time>
      </trkpt>
      <trkpt lat="45.8849098" lon="4.6147900">
        <ele>234.7000000</ele>
        <time>2013-04-07T10:46:19Z</time>
      </trkpt>
      <trkpt lat="45.8849099" lon="4.6147652">
        <ele>234.7000000</ele>
        <time>2013-04-07T10:46:20Z</time>
      </trkpt>
      <trkpt lat="45.8849122" lon="4.6147460">
        <ele>235.6600000</ele>
        <time>2013-04-07T10:46:21Z</time>
      </trkpt>
      <trkpt lat="45.8849153" lon="4.6147243">
        <ele>235.6600000</ele>
        <time>2013-04-07T10:46:22Z</time>
      </trkpt>
      <trkpt lat="45.8849201" lon="4.6146986">
        <ele>236.1400000</ele>
        <time>2013-04-07T10:46:23Z</time>
      </trkpt>
      <trkpt lat="45.8849455" lon="4.6146070">
        <ele>236.6200000</ele>
        <time>2013-04-07T10:46:27Z</time>
      </trkpt>
      <trkpt lat="45.8849474" lon="4.6145810">
        <ele>237.1000000</ele>
        <time>2013-04-07T10:46:28Z</time>
      </trkpt>
      <trkpt lat="45.8849677" lon="4.6141941">
        <ele>239.5100000</ele>
        <time>2013-04-07T10:46:41Z</time>
      </trkpt>
      <trkpt lat="45.8849560" lon="4.6140048">
        <ele>240.4700000</ele>
        <time>2013-04-07T10:46:46Z</time>
      </trkpt>
      <trkpt lat="45.8849510" lon="4.6139753">
        <ele>240.4700000</ele>
        <time>2013-04-07T10:46:47Z</time>
      </trkpt>
      <trkpt lat="45.8849470" lon="4.6139442">
        <ele>240.4700000</ele>
        <time>2013-04-07T10:46:48Z</time>
      </trkpt>
      <trkpt lat="45.8849437" lon="4.6139101">
        <ele>240.9500000</ele>
        <time>2013-04-07T10:46:49Z</time>
      </trkpt>
      <trkpt lat="45.8849407" lon="4.6138728">
        <ele>240.9500000</ele>
        <time>2013-04-07T10:46:50Z</time>
      </trkpt>
      <trkpt lat="45.8849105" lon="4.6134847">
        <ele>239.0200000</ele>
        <time>2013-04-07T10:47:02Z</time>
      </trkpt>
      <trkpt lat="45.8849051" lon="4.6134538">
        <ele>243.8300000</ele>
        <time>2013-04-07T10:47:03Z</time>
      </trkpt>
      <trkpt lat="45.8848978" lon="4.6134282">
        <ele>247.6800000</ele>
        <time>2013-04-07T10:47:04Z</time>
      </trkpt>
      <trkpt lat="45.8848919" lon="4.6133972">
        <ele>239.0200000</ele>
        <time>2013-04-07T10:47:05Z</time>
      </trkpt>
      <trkpt lat="45.8848873" lon="4.6133602">
        <ele>242.8700000</ele>
        <time>2013-04-07T10:47:06Z</time>
      </trkpt>
      <trkpt lat="45.8848318" lon="4.6128970">
        <ele>244.3100000</ele>
        <time>2013-04-07T10:47:17Z</time>
      </trkpt>
      <trkpt lat="45.8847635" lon="4.6126832">
        <ele>245.7500000</ele>
        <time>2013-04-07T10:47:26Z</time>
      </trkpt>
      <trkpt lat="45.8847227" lon="4.6125933">
        <ele>246.7200000</ele>
        <time>2013-04-07T10:47:31Z</time>
      </trkpt>
      <trkpt lat="45.8847197" lon="4.6125602">
        <ele>247.2000000</ele>
        <time>2013-04-07T10:47:33Z</time>
      </trkpt>
      <trkpt lat="45.8847206" lon="4.6125346">
        <ele>247.6800000</ele>
        <time>2013-04-07T10:47:34Z</time>
      </trkpt>
      <trkpt lat="45.8847150" lon="4.6125131">
        <ele>248.1600000</ele>
        <time>2013-04-07T10:47:35Z</time>
      </trkpt>
      <trkpt lat="45.8847089" lon="4.6124939">
        <ele>248.1600000</ele>
        <time>2013-04-07T10:47:36Z</time>
      </trkpt>
      <trkpt lat="45.8846949" lon="4.6124585">
        <ele>248.6400000</ele>
        <time>2013-04-07T10:47:38Z</time>
      </trkpt>
      <trkpt lat="45.8846896" lon="4.6124389">
        <ele>249.1200000</ele>
        <time>2013-04-07T10:47:39Z</time>
      </trkpt>
      <trkpt lat="45.8846808" lon="4.6124247">
        <ele>249.1200000</ele>
        <time>2013-04-07T10:47:40Z</time>
      </trkpt>
      <trkpt lat="45.8846707" lon="4.6124098">
        <ele>249.1200000</ele>
        <time>2013-04-07T10:47:41Z</time>
      </trkpt>
      <trkpt lat="45.8846642" lon="4.6123927">
        <ele>249.6000000</ele>
        <time>2013-04-07T10:47:42Z</time>
      </trkpt>
      <trkpt lat="45.8846566" lon="4.6123729">
        <ele>249.6000000</ele>
        <time>2013-04-07T10:47:43Z</time>
      </trkpt>
      <trkpt lat="45.8846541" lon="4.6123524">
        <ele>250.0800000</ele>
        <time>2013-04-07T10:47:44Z</time>
      </trkpt>
      <trkpt lat="45.8846474" lon="4.6123115">
        <ele>250.5600000</ele>
        <time>2013-04-07T10:47:46Z</time>
      </trkpt>
      <trkpt lat="45.8846415" lon="4.6122929">
        <ele>250.5600000</ele>
        <time>2013-04-07T10:47:47Z</time>
      </trkpt>
      <trkpt lat="45.8846345" lon="4.6122739">
        <ele>251.0400000</ele>
        <time>2013-04-07T10:47:48Z</time>
      </trkpt>
      <trkpt lat="45.8846000" lon="4.6121678">
        <ele>252.4800000</ele>
        <time>2013-04-07T10:47:54Z</time>
      </trkpt>
      <trkpt lat="45.8845895" lon="4.6121478">
        <ele>252.0000000</ele>
        <time>2013-04-07T10:47:55Z</time>
      </trkpt>
      <trkpt lat="45.8845827" lon="4.6121325">
        <ele>252.4800000</ele>
        <time>2013-04-07T10:47:56Z</time>
      </trkpt>
      <trkpt lat="45.8845730" lon="4.6121138">
        <ele>252.4800000</ele>
        <time>2013-04-07T10:47:57Z</time>
      </trkpt>
      <trkpt lat="45.8845650" lon="4.6120968">
        <ele>252.9600000</ele>
        <time>2013-04-07T10:47:58Z</time>
      </trkpt>
      <trkpt lat="45.8845567" lon="4.6120753">
        <ele>252.9600000</ele>
        <time>2013-04-07T10:47:59Z</time>
      </trkpt>
      <trkpt lat="45.8844508" lon="4.6118473">
        <ele>255.8500000</ele>
        <time>2013-04-07T10:48:12Z</time>
      </trkpt>
      <trkpt lat="45.8843522" lon="4.6116116">
        <ele>258.2500000</ele>
        <time>2013-04-07T10:48:26Z</time>
      </trkpt>
      <trkpt lat="45.8843340" lon="4.6115753">
        <ele>259.2100000</ele>
        <time>2013-04-07T10:48:28Z</time>
      </trkpt>
      <trkpt lat="45.8842897" lon="4.6113001">
        <ele>259.6900000</ele>
        <time>2013-04-07T10:48:40Z</time>
      </trkpt>
      <trkpt lat="45.8842392" lon="4.6110579">
        <ele>259.2100000</ele>
        <time>2013-04-07T10:48:45Z</time>
      </trkpt>
      <trkpt lat="45.8841873" lon="4.6109367">
        <ele>258.2500000</ele>
        <time>2013-04-07T10:48:47Z</time>
      </trkpt>
      <trkpt lat="45.8841506" lon="4.6108968">
        <ele>258.7300000</ele>
        <time>2013-04-07T10:48:48Z</time>
      </trkpt>
      <trkpt lat="45.8839688" lon="4.6107163">
        <ele>261.1400000</ele>
        <time>2013-04-07T10:48:56Z</time>
      </trkpt>
      <trkpt lat="45.8838173" lon="4.6105516">
        <ele>262.5800000</ele>
        <time>2013-04-07T10:49:06Z</time>
      </trkpt>
      <trkpt lat="45.8838177" lon="4.6105330">
        <ele>263.0600000</ele>
        <time>2013-04-07T10:49:07Z</time>
      </trkpt>
      <trkpt lat="45.8838096" lon="4.6105140">
        <ele>263.0600000</ele>
        <time>2013-04-07T10:49:08Z</time>
      </trkpt>
      <trkpt lat="45.8837690" lon="4.6103969">
        <ele>263.5400000</ele>
        <time>2013-04-07T10:49:13Z</time>
      </trkpt>
      <trkpt lat="45.8837654" lon="4.6103720">
        <ele>264.0200000</ele>
        <time>2013-04-07T10:49:14Z</time>
      </trkpt>
      <trkpt lat="45.8838183" lon="4.6100165">
        <ele>264.9800000</ele>
        <time>2013-04-07T10:49:27Z</time>
      </trkpt>
      <trkpt lat="45.8840909" lon="4.6097031">
        <ele>265.9400000</ele>
        <time>2013-04-07T10:49:40Z</time>
      </trkpt>
      <trkpt lat="45.8845744" lon="4.6093797">
        <ele>266.9000000</ele>
        <time>2013-04-07T10:49:57Z</time>
      </trkpt>
      <trkpt lat="45.8847033" lon="4.6092758">
        <ele>266.9000000</ele>
        <time>2013-04-07T10:50:01Z</time>
      </trkpt>
      <trkpt lat="45.8851553" lon="4.6088589">
        <ele>267.3800000</ele>
        <time>2013-04-07T10:50:15Z</time>
      </trkpt>
      <trkpt lat="45.8855264" lon="4.6084963">
        <ele>267.8600000</ele>
        <time>2013-04-07T10:50:27Z</time>
      </trkpt>
      <trkpt lat="45.8858093" lon="4.6079607">
        <ele>268.8300000</ele>
        <time>2013-04-07T10:50:41Z</time>
      </trkpt>
      <trkpt lat="45.8857120" lon="4.6074422">
        <ele>270.2700000</ele>
        <time>2013-04-07T10:50:52Z</time>
      </trkpt>
      <trkpt lat="45.8855034" lon="4.6073013">
        <ele>271.7100000</ele>
        <time>2013-04-07T10:51:05Z</time>
      </trkpt>
      <trkpt lat="45.8854119" lon="4.6073025">
        <ele>273.1500000</ele>
        <time>2013-04-07T10:51:11Z</time>
      </trkpt>
      <trkpt lat="45.8852572" lon="4.6073118">
        <ele>275.0700000</ele>
        <time>2013-04-07T10:51:23Z</time>
      </trkpt>
      <trkpt lat="45.8850951" lon="4.6073377">
        <ele>277.0000000</ele>
        <time>2013-04-07T10:51:35Z</time>
      </trkpt>
      <trkpt lat="45.8849223" lon="4.6073347">
        <ele>279.8800000</ele>
        <time>2013-04-07T10:51:49Z</time>
      </trkpt>
      <trkpt lat="45.8847666" lon="4.6073999">
        <ele>282.7700000</ele>
        <time>2013-04-07T10:52:02Z</time>
      </trkpt>
      <trkpt lat="45.8847395" lon="4.6074293">
        <ele>283.2500000</ele>
        <time>2013-04-07T10:52:05Z</time>
      </trkpt>
      <trkpt lat="45.8846744" lon="4.6074689">
        <ele>284.2100000</ele>
        <time>2013-04-07T10:52:12Z</time>
      </trkpt>
      <trkpt lat="45.8846067" lon="4.6074422">
        <ele>285.6500000</ele>
        <time>2013-04-07T10:52:18Z</time>
      </trkpt>
      <trkpt lat="45.8845520" lon="4.6074339">
        <ele>287.0900000</ele>
        <time>2013-04-07T10:52:23Z</time>
      </trkpt>
      <trkpt lat="45.8844248" lon="4.6073896">
        <ele>289.4900000</ele>
        <time>2013-04-07T10:52:37Z</time>
      </trkpt>
      <trkpt lat="45.8843423" lon="4.6073386">
        <ele>291.9000000</ele>
        <time>2013-04-07T10:52:50Z</time>
      </trkpt>
      <trkpt lat="45.8842918" lon="4.6073083">
        <ele>292.8600000</ele>
        <time>2013-04-07T10:53:07Z</time>
      </trkpt>
      <trkpt lat="45.8841661" lon="4.6072761">
        <ele>295.7400000</ele>
        <time>2013-04-07T10:53:17Z</time>
      </trkpt>
      <trkpt lat="45.8841053" lon="4.6072607">
        <ele>297.1800000</ele>
        <time>2013-04-07T10:53:22Z</time>
      </trkpt>
      <trkpt lat="45.8840188" lon="4.6072279">
        <ele>300.5500000</ele>
        <time>2013-04-07T10:53:29Z</time>
      </trkpt>
      <trkpt lat="45.8839651" lon="4.6072379">
        <ele>301.5100000</ele>
        <time>2013-04-07T10:53:33Z</time>
      </trkpt>
      <trkpt lat="45.8839198" lon="4.6072640">
        <ele>302.4700000</ele>
        <time>2013-04-07T10:53:37Z</time>
      </trkpt>
      <trkpt lat="45.8838833" lon="4.6072603">
        <ele>303.4300000</ele>
        <time>2013-04-07T10:53:41Z</time>
      </trkpt>
      <trkpt lat="45.8839148" lon="4.6068937">
        <ele>301.9900000</ele>
        <time>2013-04-07T10:53:52Z</time>
      </trkpt>
      <trkpt lat="45.8839130" lon="4.6067499">
        <ele>300.5500000</ele>
        <time>2013-04-07T10:53:55Z</time>
      </trkpt>
      <trkpt lat="45.8838968" lon="4.6065647">
        <ele>300.0700000</ele>
        <time>2013-04-07T10:53:58Z</time>
      </trkpt>
      <trkpt lat="45.8837900" lon="4.6059656">
        <ele>296.2200000</ele>
        <time>2013-04-07T10:54:07Z</time>
      </trkpt>
      <trkpt lat="45.8837906" lon="4.6059021">
        <ele>295.2600000</ele>
        <time>2013-04-07T10:54:08Z</time>
      </trkpt>
      <trkpt lat="45.8838140" lon="4.6058563">
        <ele>294.7800000</ele>
        <time>2013-04-07T10:54:09Z</time>
      </trkpt>
      <trkpt lat="45.8839080" lon="4.6058021">
        <ele>292.8600000</ele>
        <time>2013-04-07T10:54:11Z</time>
      </trkpt>
      <trkpt lat="45.8839528" lon="4.6057505">
        <ele>291.9000000</ele>
        <time>2013-04-07T10:54:12Z</time>
      </trkpt>
      <trkpt lat="45.8839725" lon="4.6056792">
        <ele>291.9000000</ele>
        <time>2013-04-07T10:54:13Z</time>
      </trkpt>
      <trkpt lat="45.8839619" lon="4.6056069">
        <ele>290.9400000</ele>
        <time>2013-04-07T10:54:14Z</time>
      </trkpt>
      <trkpt lat="45.8839325" lon="4.6055429">
        <ele>290.9400000</ele>
        <time>2013-04-07T10:54:15Z</time>
      </trkpt>
      <trkpt lat="45.8838994" lon="4.6054846">
        <ele>290.9400000</ele>
        <time>2013-04-07T10:54:16Z</time>
      </trkpt>
      <trkpt lat="45.8838649" lon="4.6054268">
        <ele>290.9400000</ele>
        <time>2013-04-07T10:54:17Z</time>
      </trkpt>
      <trkpt lat="45.8837970" lon="4.6053129">
        <ele>290.9400000</ele>
        <time>2013-04-07T10:54:19Z</time>
      </trkpt>
      <trkpt lat="45.8835453" lon="4.6048557">
        <ele>287.0900000</ele>
        <time>2013-04-07T10:54:26Z</time>
      </trkpt>
      <trkpt lat="45.8834153" lon="4.6046201">
        <ele>284.6900000</ele>
        <time>2013-04-07T10:54:29Z</time>
      </trkpt>
      <trkpt lat="45.8833658" lon="4.6045560">
        <ele>284.2100000</ele>
        <time>2013-04-07T10:54:30Z</time>
      </trkpt>
      <trkpt lat="45.8833197" lon="4.6045070">
        <ele>284.2100000</ele>
        <time>2013-04-07T10:54:31Z</time>
      </trkpt>
      <trkpt lat="45.8832844" lon="4.6044686">
        <ele>284.2100000</ele>
        <time>2013-04-07T10:54:32Z</time>
      </trkpt>
      <trkpt lat="45.8832652" lon="4.6044335">
        <ele>283.7300000</ele>
        <time>2013-04-07T10:54:33Z</time>
      </trkpt>
      <trkpt lat="45.8832659" lon="4.6043985">
        <ele>284.2100000</ele>
        <time>2013-04-07T10:54:34Z</time>
      </trkpt>
      <trkpt lat="45.8832827" lon="4.6043753">
        <ele>283.2500000</ele>
        <time>2013-04-07T10:54:35Z</time>
      </trkpt>
      <trkpt lat="45.8833131" lon="4.6043673">
        <ele>283.2500000</ele>
        <time>2013-04-07T10:54:36Z</time>
      </trkpt>
      <trkpt lat="45.8833542" lon="4.6043667">
        <ele>282.2800000</ele>
        <time>2013-04-07T10:54:37Z</time>
      </trkpt>
      <trkpt lat="45.8834548" lon="4.6043547">
        <ele>281.3200000</ele>
        <time>2013-04-07T10:54:39Z</time>
      </trkpt>
      <trkpt lat="45.8835117" lon="4.6043387">
        <ele>280.8400000</ele>
        <time>2013-04-07T10:54:40Z</time>
      </trkpt>
      <trkpt lat="45.8835704" lon="4.6043150">
        <ele>279.8800000</ele>
        <time>2013-04-07T10:54:41Z</time>
      </trkpt>
      <trkpt lat="45.8837387" lon="4.6041839">
        <ele>277.9600000</ele>
        <time>2013-04-07T10:54:45Z</time>
      </trkpt>
      <trkpt lat="45.8837344" lon="4.6041494">
        <ele>277.9600000</ele>
        <time>2013-04-07T10:54:46Z</time>
      </trkpt>
      <trkpt lat="45.8837103" lon="4.6041290">
        <ele>277.4800000</ele>
        <time>2013-04-07T10:54:47Z</time>
      </trkpt>
      <trkpt lat="45.8836735" lon="4.6041220">
        <ele>277.4800000</ele>
        <time>2013-04-07T10:54:48Z</time>
      </trkpt>
      <trkpt lat="45.8836317" lon="4.6041199">
        <ele>277.0000000</ele>
        <time>2013-04-07T10:54:49Z</time>
      </trkpt>
      <trkpt lat="45.8835858" lon="4.6041171">
        <ele>276.0400000</ele>
        <time>2013-04-07T10:54:50Z</time>
      </trkpt>
      <trkpt lat="45.8835364" lon="4.6041033">
        <ele>276.0400000</ele>
        <time>2013-04-07T10:54:51Z</time>
      </trkpt>
      <trkpt lat="45.8834868" lon="4.6040719">
        <ele>275.5600000</ele>
        <time>2013-04-07T10:54:52Z</time>
      </trkpt>
      <trkpt lat="45.8834353" lon="4.6040296">
        <ele>275.0700000</ele>
        <time>2013-04-07T10:54:53Z</time>
      </trkpt>
      <trkpt lat="45.8833787" lon="4.6039835">
        <ele>274.5900000</ele>
        <time>2013-04-07T10:54:54Z</time>
      </trkpt>
      <trkpt lat="45.8833177" lon="4.6039403">
        <ele>274.1100000</ele>
        <time>2013-04-07T10:54:55Z</time>
      </trkpt>
      <trkpt lat="45.8832502" lon="4.6039024">
        <ele>273.6300000</ele>
        <time>2013-04-07T10:54:56Z</time>
      </trkpt>
      <trkpt lat="45.8831817" lon="4.6038702">
        <ele>273.6300000</ele>
        <time>2013-04-07T10:54:57Z</time>
      </trkpt>
      <trkpt lat="45.8831123" lon="4.6038526">
        <ele>272.6700000</ele>
        <time>2013-04-07T10:54:58Z</time>
      </trkpt>
      <trkpt lat="45.8830393" lon="4.6038474">
        <ele>273.1500000</ele>
        <time>2013-04-07T10:54:59Z</time>
      </trkpt>
      <trkpt lat="45.8829659" lon="4.6038476">
        <ele>273.1500000</ele>
        <time>2013-04-07T10:55:00Z</time>
      </trkpt>
      <trkpt lat="45.8828975" lon="4.6038545">
        <ele>273.1500000</ele>
        <time>2013-04-07T10:55:01Z</time>
      </trkpt>
      <trkpt lat="45.8826655" lon="4.6038922">
        <ele>274.5900000</ele>
        <time>2013-04-07T10:55:05Z</time>
      </trkpt>
      <trkpt lat="45.8826186" lon="4.6038967">
        <ele>275.0700000</ele>
        <time>2013-04-07T10:55:06Z</time>
      </trkpt>
      <trkpt lat="45.8825761" lon="4.6039000">
        <ele>275.5600000</ele>
        <time>2013-04-07T10:55:07Z</time>
      </trkpt>
      <trkpt lat="45.8825368" lon="4.6039008">
        <ele>276.0400000</ele>
        <time>2013-04-07T10:55:08Z</time>
      </trkpt>
      <trkpt lat="45.8825010" lon="4.6039063">
        <ele>276.5200000</ele>
        <time>2013-04-07T10:55:09Z</time>
      </trkpt>
      <trkpt lat="45.8824722" lon="4.6039182">
        <ele>277.0000000</ele>
        <time>2013-04-07T10:55:10Z</time>
      </trkpt>
      <trkpt lat="45.8824401" lon="4.6039240">
        <ele>277.4800000</ele>
        <time>2013-04-07T10:55:11Z</time>
      </trkpt>
      <trkpt lat="45.8824050" lon="4.6039263">
        <ele>277.0000000</ele>
        <time>2013-04-07T10:55:12Z</time>
      </trkpt>
      <trkpt lat="45.8823673" lon="4.6039253">
        <ele>277.4800000</ele>
        <time>2013-04-07T10:55:13Z</time>
      </trkpt>
      <trkpt lat="45.8820145" lon="4.6038231">
        <ele>279.8800000</ele>
        <time>2013-04-07T10:55:23Z</time>
      </trkpt>
      <trkpt lat="45.8817014" lon="4.6035669">
        <ele>280.8400000</ele>
        <time>2013-04-07T10:55:34Z</time>
      </trkpt>
      <trkpt lat="45.8816475" lon="4.6032872">
        <ele>282.2800000</ele>
        <time>2013-04-07T10:55:41Z</time>
      </trkpt>
      <trkpt lat="45.8816566" lon="4.6032598">
        <ele>282.2800000</ele>
        <time>2013-04-07T10:55:42Z</time>
      </trkpt>
      <trkpt lat="45.8816621" lon="4.6032370">
        <ele>282.2800000</ele>
        <time>2013-04-07T10:55:43Z</time>
      </trkpt>
      <trkpt lat="45.8816671" lon="4.6032141">
        <ele>283.2500000</ele>
        <time>2013-04-07T10:55:44Z</time>
      </trkpt>
      <trkpt lat="45.8816766" lon="4.6031892">
        <ele>283.2500000</ele>
        <time>2013-04-07T10:55:45Z</time>
      </trkpt>
      <trkpt lat="45.8816896" lon="4.6031673">
        <ele>283.2500000</ele>
        <time>2013-04-07T10:55:46Z</time>
      </trkpt>
      <trkpt lat="45.8818445" lon="4.6028892">
        <ele>287.0900000</ele>
        <time>2013-04-07T10:55:57Z</time>
      </trkpt>
      <trkpt lat="45.8818594" lon="4.6028586">
        <ele>287.0900000</ele>
        <time>2013-04-07T10:55:58Z</time>
      </trkpt>
      <trkpt lat="45.8818782" lon="4.6027914">
        <ele>287.5700000</ele>
        <time>2013-04-07T10:56:00Z</time>
      </trkpt>
      <trkpt lat="45.8818772" lon="4.6027554">
        <ele>287.5700000</ele>
        <time>2013-04-07T10:56:01Z</time>
      </trkpt>
      <trkpt lat="45.8818694" lon="4.6027232">
        <ele>288.0500000</ele>
        <time>2013-04-07T10:56:02Z</time>
      </trkpt>
      <trkpt lat="45.8818552" lon="4.6026928">
        <ele>288.0500000</ele>
        <time>2013-04-07T10:56:03Z</time>
      </trkpt>
      <trkpt lat="45.8818434" lon="4.6026677">
        <ele>288.5300000</ele>
        <time>2013-04-07T10:56:04Z</time>
      </trkpt>
      <trkpt lat="45.8818335" lon="4.6026541">
        <ele>288.5300000</ele>
        <time>2013-04-07T10:56:05Z</time>
      </trkpt>
      <trkpt lat="45.8818175" lon="4.6026442">
        <ele>288.5300000</ele>
        <time>2013-04-07T10:56:06Z</time>
      </trkpt>
      <trkpt lat="45.8818010" lon="4.6026375">
        <ele>289.0100000</ele>
        <time>2013-04-07T10:56:07Z</time>
      </trkpt>
      <trkpt lat="45.8817875" lon="4.6026369">
        <ele>289.4900000</ele>
        <time>2013-04-07T10:56:08Z</time>
      </trkpt>
      <trkpt lat="45.8817694" lon="4.6026416">
        <ele>289.0100000</ele>
        <time>2013-04-07T10:56:09Z</time>
      </trkpt>
      <trkpt lat="45.8815274" lon="4.6026762">
        <ele>290.9400000</ele>
        <time>2013-04-07T10:56:22Z</time>
      </trkpt>
      <trkpt lat="45.8812742" lon="4.6027733">
        <ele>293.8200000</ele>
        <time>2013-04-07T10:56:37Z</time>
      </trkpt>
      <trkpt lat="45.8811149" lon="4.6028226">
        <ele>295.7400000</ele>
        <time>2013-04-07T10:56:47Z</time>
      </trkpt>
      <trkpt lat="45.8808684" lon="4.6029231">
        <ele>298.1500000</ele>
        <time>2013-04-07T10:57:03Z</time>
      </trkpt>
      <trkpt lat="45.8807083" lon="4.6029839">
        <ele>301.0300000</ele>
        <time>2013-04-07T10:57:16Z</time>
      </trkpt>
      <trkpt lat="45.8805454" lon="4.6030054">
        <ele>303.9100000</ele>
        <time>2013-04-07T10:57:29Z</time>
      </trkpt>
      <trkpt lat="45.8805328" lon="4.6030025">
        <ele>303.4300000</ele>
        <time>2013-04-07T10:57:30Z</time>
      </trkpt>
      <trkpt lat="45.8805212" lon="4.6030017">
        <ele>304.3900000</ele>
        <time>2013-04-07T10:57:31Z</time>
      </trkpt>
      <trkpt lat="45.8805100" lon="4.6030029">
        <ele>304.3900000</ele>
        <time>2013-04-07T10:57:32Z</time>
      </trkpt>
      <trkpt lat="45.8805017" lon="4.6030086">
        <ele>304.8800000</ele>
        <time>2013-04-07T10:57:33Z</time>
      </trkpt>
      <trkpt lat="45.8804915" lon="4.6030123">
        <ele>304.8800000</ele>
        <time>2013-04-07T10:57:34Z</time>
      </trkpt>
      <trkpt lat="45.8804780" lon="4.6030114">
        <ele>305.3600000</ele>
        <time>2013-04-07T10:57:35Z</time>
      </trkpt>
      <trkpt lat="45.8804640" lon="4.6030117">
        <ele>305.8400000</ele>
        <time>2013-04-07T10:57:36Z</time>
      </trkpt>
      <trkpt lat="45.8804510" lon="4.6030136">
        <ele>305.3600000</ele>
        <time>2013-04-07T10:57:37Z</time>
      </trkpt>
      <trkpt lat="45.8804372" lon="4.6030173">
        <ele>305.8400000</ele>
        <time>2013-04-07T10:57:38Z</time>
      </trkpt>
      <trkpt lat="45.8804245" lon="4.6030198">
        <ele>305.8400000</ele>
        <time>2013-04-07T10:57:39Z</time>
      </trkpt>
      <trkpt lat="45.8804122" lon="4.6030208">
        <ele>306.3200000</ele>
        <time>2013-04-07T10:57:40Z</time>
      </trkpt>
      <trkpt lat="45.8803993" lon="4.6030234">
        <ele>306.3200000</ele>
        <time>2013-04-07T10:57:41Z</time>
      </trkpt>
      <trkpt lat="45.8803888" lon="4.6030296">
        <ele>306.8000000</ele>
        <time>2013-04-07T10:57:42Z</time>
      </trkpt>
      <trkpt lat="45.8803779" lon="4.6030355">
        <ele>306.8000000</ele>
        <time>2013-04-07T10:57:43Z</time>
      </trkpt>
      <trkpt lat="45.8803670" lon="4.6030412">
        <ele>306.8000000</ele>
        <time>2013-04-07T10:57:44Z</time>
      </trkpt>
      <trkpt lat="45.8803556" lon="4.6030460">
        <ele>306.8000000</ele>
        <time>2013-04-07T10:57:45Z</time>
      </trkpt>
      <trkpt lat="45.8803451" lon="4.6030520">
        <ele>307.2800000</ele>
        <time>2013-04-07T10:57:46Z</time>
      </trkpt>
      <trkpt lat="45.8803343" lon="4.6030577">
        <ele>307.7600000</ele>
        <time>2013-04-07T10:57:47Z</time>
      </trkpt>
      <trkpt lat="45.8803204" lon="4.6030594">
        <ele>307.2800000</ele>
        <time>2013-04-07T10:57:48Z</time>
      </trkpt>
      <trkpt lat="45.8803063" lon="4.6030614">
        <ele>308.2400000</ele>
        <time>2013-04-07T10:57:49Z</time>
      </trkpt>
      <trkpt lat="45.8802930" lon="4.6030638">
        <ele>308.2400000</ele>
        <time>2013-04-07T10:57:50Z</time>
      </trkpt>
      <trkpt lat="45.8802806" lon="4.6030640">
        <ele>308.7200000</ele>
        <time>2013-04-07T10:57:51Z</time>
      </trkpt>
      <trkpt lat="45.8802671" lon="4.6030622">
        <ele>308.2400000</ele>
        <time>2013-04-07T10:57:52Z</time>
      </trkpt>
      <trkpt lat="45.8802556" lon="4.6030601">
        <ele>308.7200000</ele>
        <time>2013-04-07T10:57:53Z</time>
      </trkpt>
      <trkpt lat="45.8802443" lon="4.6030645">
        <ele>309.2000000</ele>
        <time>2013-04-07T10:57:54Z</time>
      </trkpt>
      <trkpt lat="45.8802334" lon="4.6030676">
        <ele>309.2000000</ele>
        <time>2013-04-07T10:57:55Z</time>
      </trkpt>
      <trkpt lat="45.8802236" lon="4.6030700">
        <ele>309.6800000</ele>
        <time>2013-04-07T10:57:56Z</time>
      </trkpt>
      <trkpt lat="45.8800972" lon="4.6030947">
        <ele>311.6000000</ele>
        <time>2013-04-07T10:58:06Z</time>
      </trkpt>
      <trkpt lat="45.8800852" lon="4.6031007">
        <ele>312.0900000</ele>
        <time>2013-04-07T10:58:07Z</time>
      </trkpt>
      <trkpt lat="45.8800730" lon="4.6031038">
        <ele>312.5700000</ele>
        <time>2013-04-07T10:58:08Z</time>
      </trkpt>
      <trkpt lat="45.8800609" lon="4.6031069">
        <ele>312.0900000</ele>
        <time>2013-04-07T10:58:09Z</time>
      </trkpt>
      <trkpt lat="45.8800488" lon="4.6031072">
        <ele>312.5700000</ele>
        <time>2013-04-07T10:58:10Z</time>
      </trkpt>
      <trkpt lat="45.8800373" lon="4.6031047">
        <ele>313.0500000</ele>
        <time>2013-04-07T10:58:11Z</time>
      </trkpt>
      <trkpt lat="45.8800265" lon="4.6031069">
        <ele>313.0500000</ele>
        <time>2013-04-07T10:58:12Z</time>
      </trkpt>
      <trkpt lat="45.8800145" lon="4.6031081">
        <ele>313.5300000</ele>
        <time>2013-04-07T10:58:13Z</time>
      </trkpt>
      <trkpt lat="45.8798567" lon="4.6031394">
        <ele>316.4100000</ele>
        <time>2013-04-07T10:58:27Z</time>
      </trkpt>
      <trkpt lat="45.8797802" lon="4.6031406">
        <ele>318.3300000</ele>
        <time>2013-04-07T10:58:34Z</time>
      </trkpt>
      <trkpt lat="45.8797334" lon="4.6031674">
        <ele>319.3000000</ele>
        <time>2013-04-07T10:58:40Z</time>
      </trkpt>
      <trkpt lat="45.8797232" lon="4.6031688">
        <ele>319.7800000</ele>
        <time>2013-04-07T10:58:41Z</time>
      </trkpt>
      <trkpt lat="45.8797112" lon="4.6031656">
        <ele>320.2600000</ele>
        <time>2013-04-07T10:58:42Z</time>
      </trkpt>
      <trkpt lat="45.8796682" lon="4.6031860">
        <ele>321.2200000</ele>
        <time>2013-04-07T10:58:46Z</time>
      </trkpt>
      <trkpt lat="45.8796584" lon="4.6031946">
        <ele>321.2200000</ele>
        <time>2013-04-07T10:58:47Z</time>
      </trkpt>
      <trkpt lat="45.8796469" lon="4.6031963">
        <ele>321.7000000</ele>
        <time>2013-04-07T10:58:48Z</time>
      </trkpt>
      <trkpt lat="45.8795049" lon="4.6032311">
        <ele>324.1000000</ele>
        <time>2013-04-07T10:59:01Z</time>
      </trkpt>
      <trkpt lat="45.8794937" lon="4.6032329">
        <ele>324.1000000</ele>
        <time>2013-04-07T10:59:02Z</time>
      </trkpt>
      <trkpt lat="45.8794816" lon="4.6032333">
        <ele>324.5800000</ele>
        <time>2013-04-07T10:59:03Z</time>
      </trkpt>
      <trkpt lat="45.8794685" lon="4.6032366">
        <ele>324.5800000</ele>
        <time>2013-04-07T10:59:04Z</time>
      </trkpt>
      <trkpt lat="45.8794543" lon="4.6032376">
        <ele>324.5800000</ele>
        <time>2013-04-07T10:59:05Z</time>
      </trkpt>
      <trkpt lat="45.8794423" lon="4.6032393">
        <ele>325.0600000</ele>
        <time>2013-04-07T10:59:06Z</time>
      </trkpt>
      <trkpt lat="45.8794084" lon="4.6032416">
        <ele>326.0200000</ele>
        <time>2013-04-07T10:59:10Z</time>
      </trkpt>
      <trkpt lat="45.8793993" lon="4.6032390">
        <ele>326.0200000</ele>
        <time>2013-04-07T10:59:11Z</time>
      </trkpt>
      <trkpt lat="45.8793880" lon="4.6032417">
        <ele>326.0200000</ele>
        <time>2013-04-07T10:59:12Z</time>
      </trkpt>
      <trkpt lat="45.8793765" lon="4.6032438">
        <ele>326.5000000</ele>
        <time>2013-04-07T10:59:13Z</time>
      </trkpt>
      <trkpt lat="45.8792436" lon="4.6032872">
        <ele>329.3900000</ele>
        <time>2013-04-07T10:59:27Z</time>
      </trkpt>
      <trkpt lat="45.8792041" lon="4.6032912">
        <ele>329.8700000</ele>
        <time>2013-04-07T10:59:31Z</time>
      </trkpt>
      <trkpt lat="45.8791839" lon="4.6032955">
        <ele>330.8300000</ele>
        <time>2013-04-07T10:59:33Z</time>
      </trkpt>
      <trkpt lat="45.8791709" lon="4.6032967">
        <ele>330.8300000</ele>
        <time>2013-04-07T10:59:34Z</time>
      </trkpt>
      <trkpt lat="45.8791577" lon="4.6033008">
        <ele>330.3500000</ele>
        <time>2013-04-07T10:59:35Z</time>
      </trkpt>
      <trkpt lat="45.8790999" lon="4.6033127">
        <ele>332.2700000</ele>
        <time>2013-04-07T10:59:40Z</time>
      </trkpt>
      <trkpt lat="45.8789368" lon="4.6033654">
        <ele>333.7100000</ele>
        <time>2013-04-07T10:59:54Z</time>
      </trkpt>
      <trkpt lat="45.8788722" lon="4.6033855">
        <ele>334.6800000</ele>
        <time>2013-04-07T10:59:59Z</time>
      </trkpt>
      <trkpt lat="45.8788601" lon="4.6033970">
        <ele>335.1600000</ele>
        <time>2013-04-07T11:00:00Z</time>
      </trkpt>
      <trkpt lat="45.8788471" lon="4.6033993">
        <ele>334.6800000</ele>
        <time>2013-04-07T11:00:01Z</time>
      </trkpt>
      <trkpt lat="45.8786427" lon="4.6034245">
        <ele>338.0400000</ele>
        <time>2013-04-07T11:00:16Z</time>
      </trkpt>
      <trkpt lat="45.8786316" lon="4.6034201">
        <ele>338.0400000</ele>
        <time>2013-04-07T11:00:17Z</time>
      </trkpt>
      <trkpt lat="45.8786195" lon="4.6034131">
        <ele>338.0400000</ele>
        <time>2013-04-07T11:00:18Z</time>
      </trkpt>
      <trkpt lat="45.8786077" lon="4.6034058">
        <ele>338.5200000</ele>
        <time>2013-04-07T11:00:19Z</time>
      </trkpt>
      <trkpt lat="45.8785979" lon="4.6033924">
        <ele>338.5200000</ele>
        <time>2013-04-07T11:00:20Z</time>
      </trkpt>
      <trkpt lat="45.8785871" lon="4.6033744">
        <ele>338.5200000</ele>
        <time>2013-04-07T11:00:21Z</time>
      </trkpt>
      <trkpt lat="45.8785778" lon="4.6033547">
        <ele>338.5200000</ele>
        <time>2013-04-07T11:00:22Z</time>
      </trkpt>
      <trkpt lat="45.8785694" lon="4.6033354">
        <ele>338.5200000</ele>
        <time>2013-04-07T11:00:23Z</time>
      </trkpt>
      <trkpt lat="45.8785582" lon="4.6033185">
        <ele>339.0000000</ele>
        <time>2013-04-07T11:00:24Z</time>
      </trkpt>
      <trkpt lat="45.8785465" lon="4.6033005">
        <ele>339.0000000</ele>
        <time>2013-04-07T11:00:25Z</time>
      </trkpt>
      <trkpt lat="45.8784216" lon="4.6031552">
        <ele>339.4800000</ele>
        <time>2013-04-07T11:00:33Z</time>
      </trkpt>
      <trkpt lat="45.8783855" lon="4.6031396">
        <ele>339.0000000</ele>
        <time>2013-04-07T11:00:34Z</time>
      </trkpt>
      <trkpt lat="45.8779201" lon="4.6033169">
        <ele>340.9200000</ele>
        <time>2013-04-07T11:00:48Z</time>
      </trkpt>
      <trkpt lat="45.8776037" lon="4.6035667">
        <ele>343.3300000</ele>
        <time>2013-04-07T11:01:00Z</time>
      </trkpt>
      <trkpt lat="45.8771615" lon="4.6038878">
        <ele>346.2100000</ele>
        <time>2013-04-07T11:01:16Z</time>
      </trkpt>
      <trkpt lat="45.8767384" lon="4.6042118">
        <ele>348.1300000</ele>
        <time>2013-04-07T11:01:32Z</time>
      </trkpt>
      <trkpt lat="45.8766101" lon="4.6041807">
        <ele>348.1300000</ele>
        <time>2013-04-07T11:01:38Z</time>
      </trkpt>
      <trkpt lat="45.8765843" lon="4.6041921">
        <ele>348.1300000</ele>
        <time>2013-04-07T11:01:39Z</time>
      </trkpt>
      <trkpt lat="45.8765607" lon="4.6042015">
        <ele>348.1300000</ele>
        <time>2013-04-07T11:01:40Z</time>
      </trkpt>
      <trkpt lat="45.8765376" lon="4.6042012">
        <ele>348.1300000</ele>
        <time>2013-04-07T11:01:41Z</time>
      </trkpt>
      <trkpt lat="45.8765147" lon="4.6041951">
        <ele>348.6200000</ele>
        <time>2013-04-07T11:01:42Z</time>
      </trkpt>
      <trkpt lat="45.8764892" lon="4.6041864">
        <ele>348.1300000</ele>
        <time>2013-04-07T11:01:43Z</time>
      </trkpt>
      <trkpt lat="45.8761859" lon="4.6040540">
        <ele>347.6500000</ele>
        <time>2013-04-07T11:01:54Z</time>
      </trkpt>
      <trkpt lat="45.8758382" lon="4.6038767">
        <ele>346.2100000</ele>
        <time>2013-04-07T11:02:05Z</time>
      </trkpt>
      <trkpt lat="45.8757849" lon="4.6038023">
        <ele>345.7300000</ele>
        <time>2013-04-07T11:02:08Z</time>
      </trkpt>
      <trkpt lat="45.8757935" lon="4.6037617">
        <ele>345.7300000</ele>
        <time>2013-04-07T11:02:09Z</time>
      </trkpt>
      <trkpt lat="45.8758953" lon="4.6035049">
        <ele>341.8900000</ele>
        <time>2013-04-07T11:02:13Z</time>
      </trkpt>
      <trkpt lat="45.8759199" lon="4.6034187">
        <ele>341.4100000</ele>
        <time>2013-04-07T11:02:14Z</time>
      </trkpt>
      <trkpt lat="45.8759151" lon="4.6033233">
        <ele>339.9600000</ele>
        <time>2013-04-07T11:02:15Z</time>
      </trkpt>
      <trkpt lat="45.8758764" lon="4.6032379">
        <ele>340.4400000</ele>
        <time>2013-04-07T11:02:16Z</time>
      </trkpt>
      <trkpt lat="45.8758216" lon="4.6031732">
        <ele>340.4400000</ele>
        <time>2013-04-07T11:02:17Z</time>
      </trkpt>
      <trkpt lat="45.8757604" lon="4.6031248">
        <ele>339.9600000</ele>
        <time>2013-04-07T11:02:18Z</time>
      </trkpt>
      <trkpt lat="45.8757010" lon="4.6030904">
        <ele>340.4400000</ele>
        <time>2013-04-07T11:02:19Z</time>
      </trkpt>
      <trkpt lat="45.8756017" lon="4.6030367">
        <ele>341.4100000</ele>
        <time>2013-04-07T11:02:21Z</time>
      </trkpt>
      <trkpt lat="45.8755595" lon="4.6030136">
        <ele>341.8900000</ele>
        <time>2013-04-07T11:02:22Z</time>
      </trkpt>
      <trkpt lat="45.8755202" lon="4.6029894">
        <ele>342.8500000</ele>
        <time>2013-04-07T11:02:23Z</time>
      </trkpt>
      <trkpt lat="45.8754848" lon="4.6029609">
        <ele>342.8500000</ele>
        <time>2013-04-07T11:02:24Z</time>
      </trkpt>
      <trkpt lat="45.8754549" lon="4.6029297">
        <ele>343.8100000</ele>
        <time>2013-04-07T11:02:25Z</time>
      </trkpt>
      <trkpt lat="45.8754344" lon="4.6028920">
        <ele>343.8100000</ele>
        <time>2013-04-07T11:02:26Z</time>
      </trkpt>
      <trkpt lat="45.8754186" lon="4.6028532">
        <ele>343.8100000</ele>
        <time>2013-04-07T11:02:27Z</time>
      </trkpt>
      <trkpt lat="45.8754008" lon="4.6028137">
        <ele>344.2900000</ele>
        <time>2013-04-07T11:02:28Z</time>
      </trkpt>
      <trkpt lat="45.8753813" lon="4.6027761">
        <ele>343.8100000</ele>
        <time>2013-04-07T11:02:29Z</time>
      </trkpt>
      <trkpt lat="45.8753477" lon="4.6027153">
        <ele>344.2900000</ele>
        <time>2013-04-07T11:02:31Z</time>
      </trkpt>
      <trkpt lat="45.8753519" lon="4.6026914">
        <ele>344.7700000</ele>
        <time>2013-04-07T11:02:32Z</time>
      </trkpt>
      <trkpt lat="45.8753582" lon="4.6026651">
        <ele>344.7700000</ele>
        <time>2013-04-07T11:02:33Z</time>
      </trkpt>
      <trkpt lat="45.8754449" lon="4.6021682">
        <ele>344.2900000</ele>
        <time>2013-04-07T11:02:44Z</time>
      </trkpt>
      <trkpt lat="45.8754436" lon="4.6020051">
        <ele>345.7300000</ele>
        <time>2013-04-07T11:02:48Z</time>
      </trkpt>
      <trkpt lat="45.8754284" lon="4.6019839">
        <ele>345.7300000</ele>
        <time>2013-04-07T11:02:49Z</time>
      </trkpt>
      <trkpt lat="45.8754069" lon="4.6019715">
        <ele>345.7300000</ele>
        <time>2013-04-07T11:02:50Z</time>
      </trkpt>
      <trkpt lat="45.8753786" lon="4.6019673">
        <ele>345.7300000</ele>
        <time>2013-04-07T11:02:51Z</time>
      </trkpt>
      <trkpt lat="45.8753486" lon="4.6019701">
        <ele>345.2500000</ele>
        <time>2013-04-07T11:02:52Z</time>
      </trkpt>
      <trkpt lat="45.8753174" lon="4.6019734">
        <ele>345.7300000</ele>
        <time>2013-04-07T11:02:53Z</time>
      </trkpt>
      <trkpt lat="45.8752850" lon="4.6019689">
        <ele>345.2500000</ele>
        <time>2013-04-07T11:02:54Z</time>
      </trkpt>
      <trkpt lat="45.8752429" lon="4.6019557">
        <ele>345.7300000</ele>
        <time>2013-04-07T11:02:55Z</time>
      </trkpt>
      <trkpt lat="45.8752002" lon="4.6019371">
        <ele>346.2100000</ele>
        <time>2013-04-07T11:02:56Z</time>
      </trkpt>
      <trkpt lat="45.8751577" lon="4.6019172">
        <ele>346.2100000</ele>
        <time>2013-04-07T11:02:57Z</time>
      </trkpt>
      <trkpt lat="45.8751123" lon="4.6019023">
        <ele>345.2500000</ele>
        <time>2013-04-07T11:02:58Z</time>
      </trkpt>
      <trkpt lat="45.8750682" lon="4.6018865">
        <ele>345.7300000</ele>
        <time>2013-04-07T11:02:59Z</time>
      </trkpt>
      <trkpt lat="45.8750267" lon="4.6018704">
        <ele>345.7300000</ele>
        <time>2013-04-07T11:03:00Z</time>
      </trkpt>
      <trkpt lat="45.8747852" lon="4.6017234">
        <ele>345.7300000</ele>
        <time>2013-04-07T11:03:06Z</time>
      </trkpt>
      <trkpt lat="45.8743576" lon="4.6015280">
        <ele>342.3700000</ele>
        <time>2013-04-07T11:03:14Z</time>
      </trkpt>
      <trkpt lat="45.8742326" lon="4.6014802">
        <ele>341.4100000</ele>
        <time>2013-04-07T11:03:16Z</time>
      </trkpt>
      <trkpt lat="45.8741688" lon="4.6014770">
        <ele>340.9200000</ele>
        <time>2013-04-07T11:03:17Z</time>
      </trkpt>
      <trkpt lat="45.8739005" lon="4.6015087">
        <ele>339.9600000</ele>
        <time>2013-04-07T11:03:21Z</time>
      </trkpt>
      <trkpt lat="45.8738313" lon="4.6015252">
        <ele>339.4800000</ele>
        <time>2013-04-07T11:03:22Z</time>
      </trkpt>
      <trkpt lat="45.8736306" lon="4.6015825">
        <ele>338.0400000</ele>
        <time>2013-04-07T11:03:25Z</time>
      </trkpt>
      <trkpt lat="45.8735669" lon="4.6015706">
        <ele>336.6000000</ele>
        <time>2013-04-07T11:03:26Z</time>
      </trkpt>
      <trkpt lat="45.8733499" lon="4.6014720">
        <ele>335.1600000</ele>
        <time>2013-04-07T11:03:29Z</time>
      </trkpt>
      <trkpt lat="45.8728785" lon="4.6012674">
        <ele>333.2300000</ele>
        <time>2013-04-07T11:03:35Z</time>
      </trkpt>
      <trkpt lat="45.8725892" lon="4.6012035">
        <ele>334.2000000</ele>
        <time>2013-04-07T11:03:39Z</time>
      </trkpt>
      <trkpt lat="45.8725264" lon="4.6011637">
        <ele>334.2000000</ele>
        <time>2013-04-07T11:03:40Z</time>
      </trkpt>
      <trkpt lat="45.8724663" lon="4.6011103">
        <ele>333.7100000</ele>
        <time>2013-04-07T11:03:41Z</time>
      </trkpt>
      <trkpt lat="45.8723402" lon="4.6010006">
        <ele>332.7500000</ele>
        <time>2013-04-07T11:03:43Z</time>
      </trkpt>
      <trkpt lat="45.8722687" lon="4.6009814">
        <ele>332.2700000</ele>
        <time>2013-04-07T11:03:44Z</time>
      </trkpt>
      <trkpt lat="45.8721991" lon="4.6010051">
        <ele>332.7500000</ele>
        <time>2013-04-07T11:03:45Z</time>
      </trkpt>
      <trkpt lat="45.8721434" lon="4.6010629">
        <ele>333.2300000</ele>
        <time>2013-04-07T11:03:46Z</time>
      </trkpt>
      <trkpt lat="45.8720993" lon="4.6011345">
        <ele>334.2000000</ele>
        <time>2013-04-07T11:03:47Z</time>
      </trkpt>
      <trkpt lat="45.8720612" lon="4.6012041">
        <ele>334.6800000</ele>
        <time>2013-04-07T11:03:48Z</time>
      </trkpt>
      <trkpt lat="45.8719224" lon="4.6014484">
        <ele>337.0800000</ele>
        <time>2013-04-07T11:03:53Z</time>
      </trkpt>
      <trkpt lat="45.8716523" lon="4.6019221">
        <ele>339.9600000</ele>
        <time>2013-04-07T11:04:08Z</time>
      </trkpt>
      <trkpt lat="45.8716123" lon="4.6019906">
        <ele>340.4400000</ele>
        <time>2013-04-07T11:04:12Z</time>
      </trkpt>
      <trkpt lat="45.8716060" lon="4.6020078">
        <ele>340.9200000</ele>
        <time>2013-04-07T11:04:13Z</time>
      </trkpt>
      <trkpt lat="45.8715529" lon="4.6020993">
        <ele>342.3700000</ele>
        <time>2013-04-07T11:04:22Z</time>
      </trkpt>
      <trkpt lat="45.8715511" lon="4.6020940">
        <ele>341.8900000</ele>
        <time>2013-04-07T11:04:47Z</time>
      </trkpt>
      <trkpt lat="45.8715170" lon="4.6021046">
        <ele>341.4100000</ele>
        <time>2013-04-07T11:05:12Z</time>
      </trkpt>
      <trkpt lat="45.8714968" lon="4.6021025">
        <ele>341.4100000</ele>
        <time>2013-04-07T11:05:13Z</time>
      </trkpt>
      <trkpt lat="45.8714706" lon="4.6020948">
        <ele>340.9200000</ele>
        <time>2013-04-07T11:05:14Z</time>
      </trkpt>
      <trkpt lat="45.8714414" lon="4.6020822">
        <ele>341.4100000</ele>
        <time>2013-04-07T11:05:15Z</time>
      </trkpt>
      <trkpt lat="45.8714106" lon="4.6020620">
        <ele>340.9200000</ele>
        <time>2013-04-07T11:05:16Z</time>
      </trkpt>
      <trkpt lat="45.8713791" lon="4.6020381">
        <ele>340.9200000</ele>
        <time>2013-04-07T11:05:17Z</time>
      </trkpt>
      <trkpt lat="45.8710007" lon="4.6017400">
        <ele>339.4800000</ele>
        <time>2013-04-07T11:05:28Z</time>
      </trkpt>
      <trkpt lat="45.8709605" lon="4.6017112">
        <ele>339.4800000</ele>
        <time>2013-04-07T11:05:29Z</time>
      </trkpt>
      <trkpt lat="45.8705277" lon="4.6014007">
        <ele>339.4800000</ele>
        <time>2013-04-07T11:05:41Z</time>
      </trkpt>
      <trkpt lat="45.8705092" lon="4.6014213">
        <ele>339.4800000</ele>
        <time>2013-04-07T11:05:42Z</time>
      </trkpt>
      <trkpt lat="45.8705022" lon="4.6014466">
        <ele>339.9600000</ele>
        <time>2013-04-07T11:05:43Z</time>
      </trkpt>
      <trkpt lat="45.8704982" lon="4.6014722">
        <ele>339.9600000</ele>
        <time>2013-04-07T11:05:44Z</time>
      </trkpt>
      <trkpt lat="45.8704935" lon="4.6014992">
        <ele>339.9600000</ele>
        <time>2013-04-07T11:05:45Z</time>
      </trkpt>
      <trkpt lat="45.8704863" lon="4.6015258">
        <ele>339.9600000</ele>
        <time>2013-04-07T11:05:46Z</time>
      </trkpt>
      <trkpt lat="45.8704759" lon="4.6015486">
        <ele>340.4400000</ele>
        <time>2013-04-07T11:05:47Z</time>
      </trkpt>
      <trkpt lat="45.8704661" lon="4.6015710">
        <ele>340.4400000</ele>
        <time>2013-04-07T11:05:48Z</time>
      </trkpt>
      <trkpt lat="45.8703492" lon="4.6019083">
        <ele>342.3700000</ele>
        <time>2013-04-07T11:06:02Z</time>
      </trkpt>
      <trkpt lat="45.8702263" lon="4.6022566">
        <ele>344.7700000</ele>
        <time>2013-04-07T11:06:18Z</time>
      </trkpt>
      <trkpt lat="45.8701723" lon="4.6024498">
        <ele>346.6900000</ele>
        <time>2013-04-07T11:06:29Z</time>
      </trkpt>
      <trkpt lat="45.8701644" lon="4.6024645">
        <ele>347.1700000</ele>
        <time>2013-04-07T11:06:30Z</time>
      </trkpt>
      <trkpt lat="45.8701595" lon="4.6024826">
        <ele>347.1700000</ele>
        <time>2013-04-07T11:06:31Z</time>
      </trkpt>
      <trkpt lat="45.8701526" lon="4.6025008">
        <ele>347.6500000</ele>
        <time>2013-04-07T11:06:32Z</time>
      </trkpt>
      <trkpt lat="45.8701447" lon="4.6025182">
        <ele>347.6500000</ele>
        <time>2013-04-07T11:06:33Z</time>
      </trkpt>
      <trkpt lat="45.8701371" lon="4.6025339">
        <ele>347.6500000</ele>
        <time>2013-04-07T11:06:34Z</time>
      </trkpt>
      <trkpt lat="45.8700756" lon="4.6027454">
        <ele>350.0600000</ele>
        <time>2013-04-07T11:06:47Z</time>
      </trkpt>
      <trkpt lat="45.8700483" lon="4.6028198">
        <ele>351.5000000</ele>
        <time>2013-04-07T11:06:52Z</time>
      </trkpt>
      <trkpt lat="45.8700431" lon="4.6028355">
        <ele>351.5000000</ele>
        <time>2013-04-07T11:06:53Z</time>
      </trkpt>
      <trkpt lat="45.8700372" lon="4.6028518">
        <ele>351.9800000</ele>
        <time>2013-04-07T11:06:54Z</time>
      </trkpt>
      <trkpt lat="45.8700314" lon="4.6028683">
        <ele>352.4600000</ele>
        <time>2013-04-07T11:06:55Z</time>
      </trkpt>
      <trkpt lat="45.8700067" lon="4.6029590">
        <ele>353.9000000</ele>
        <time>2013-04-07T11:07:02Z</time>
      </trkpt>
      <trkpt lat="45.8699975" lon="4.6029864">
        <ele>354.3800000</ele>
        <time>2013-04-07T11:07:04Z</time>
      </trkpt>
      <trkpt lat="45.8699876" lon="4.6030178">
        <ele>354.8600000</ele>
        <time>2013-04-07T11:07:06Z</time>
      </trkpt>
      <trkpt lat="45.8699816" lon="4.6030333">
        <ele>355.3400000</ele>
        <time>2013-04-07T11:07:07Z</time>
      </trkpt>
      <trkpt lat="45.8699763" lon="4.6030512">
        <ele>355.3400000</ele>
        <time>2013-04-07T11:07:08Z</time>
      </trkpt>
      <trkpt lat="45.8699693" lon="4.6030691">
        <ele>355.8300000</ele>
        <time>2013-04-07T11:07:09Z</time>
      </trkpt>
      <trkpt lat="45.8699635" lon="4.6030832">
        <ele>356.3100000</ele>
        <time>2013-04-07T11:07:10Z</time>
      </trkpt>
      <trkpt lat="45.8699599" lon="4.6030981">
        <ele>356.3100000</ele>
        <time>2013-04-07T11:07:11Z</time>
      </trkpt>
      <trkpt lat="45.8699572" lon="4.6031113">
        <ele>356.3100000</ele>
        <time>2013-04-07T11:07:12Z</time>
      </trkpt>
      <trkpt lat="45.8699536" lon="4.6031243">
        <ele>356.7900000</ele>
        <time>2013-04-07T11:07:13Z</time>
      </trkpt>
      <trkpt lat="45.8699479" lon="4.6031369">
        <ele>356.7900000</ele>
        <time>2013-04-07T11:07:14Z</time>
      </trkpt>
      <trkpt lat="45.8699166" lon="4.6031366">
        <ele>357.2700000</ele>
        <time>2013-04-07T11:07:18Z</time>
      </trkpt>
      <trkpt lat="45.8699058" lon="4.6031283">
        <ele>357.2700000</ele>
        <time>2013-04-07T11:07:19Z</time>
      </trkpt>
      <trkpt lat="45.8698954" lon="4.6031199">
        <ele>357.2700000</ele>
        <time>2013-04-07T11:07:20Z</time>
      </trkpt>
      <trkpt lat="45.8698845" lon="4.6031108">
        <ele>356.7900000</ele>
        <time>2013-04-07T11:07:21Z</time>
      </trkpt>
      <trkpt lat="45.8698748" lon="4.6030986">
        <ele>356.7900000</ele>
        <time>2013-04-07T11:07:22Z</time>
      </trkpt>
      <trkpt lat="45.8698641" lon="4.6030876">
        <ele>356.7900000</ele>
        <time>2013-04-07T11:07:23Z</time>
      </trkpt>
      <trkpt lat="45.8698310" lon="4.6030283">
        <ele>356.3100000</ele>
        <time>2013-04-07T11:07:26Z</time>
      </trkpt>
      <trkpt lat="45.8698113" lon="4.6030109">
        <ele>356.3100000</ele>
        <time>2013-04-07T11:07:27Z</time>
      </trkpt>
      <trkpt lat="45.8697898" lon="4.6029880">
        <ele>356.3100000</ele>
        <time>2013-04-07T11:07:28Z</time>
      </trkpt>
      <trkpt lat="45.8695247" lon="4.6026471">
        <ele>355.8300000</ele>
        <time>2013-04-07T11:07:42Z</time>
      </trkpt>
      <trkpt lat="45.8692777" lon="4.6023447">
        <ele>356.3100000</ele>
        <time>2013-04-07T11:07:57Z</time>
      </trkpt>
      <trkpt lat="45.8690813" lon="4.6019352">
        <ele>356.7900000</ele>
        <time>2013-04-07T11:08:12Z</time>
      </trkpt>
      <trkpt lat="45.8690220" lon="4.6018805">
        <ele>357.2700000</ele>
        <time>2013-04-07T11:08:16Z</time>
      </trkpt>
      <trkpt lat="45.8690029" lon="4.6018710">
        <ele>357.2700000</ele>
        <time>2013-04-07T11:08:17Z</time>
      </trkpt>
      <trkpt lat="45.8689874" lon="4.6018602">
        <ele>357.7500000</ele>
        <time>2013-04-07T11:08:18Z</time>
      </trkpt>
      <trkpt lat="45.8689724" lon="4.6018511">
        <ele>358.2300000</ele>
        <time>2013-04-07T11:08:19Z</time>
      </trkpt>
      <trkpt lat="45.8689556" lon="4.6018456">
        <ele>358.2300000</ele>
        <time>2013-04-07T11:08:20Z</time>
      </trkpt>
      <trkpt lat="45.8689399" lon="4.6018408">
        <ele>358.2300000</ele>
        <time>2013-04-07T11:08:21Z</time>
      </trkpt>
      <trkpt lat="45.8687967" lon="4.6018242">
        <ele>360.1500000</ele>
        <time>2013-04-07T11:08:31Z</time>
      </trkpt>
      <trkpt lat="45.8685703" lon="4.6018797">
        <ele>363.5200000</ele>
        <time>2013-04-07T11:08:46Z</time>
      </trkpt>
      <trkpt lat="45.8683285" lon="4.6019418">
        <ele>365.9200000</ele>
        <time>2013-04-07T11:09:03Z</time>
      </trkpt>
      <trkpt lat="45.8680372" lon="4.6019861">
        <ele>367.3600000</ele>
        <time>2013-04-07T11:09:20Z</time>
      </trkpt>
      <trkpt lat="45.8678406" lon="4.6020307">
        <ele>370.2400000</ele>
        <time>2013-04-07T11:09:33Z</time>
      </trkpt>
      <trkpt lat="45.8676285" lon="4.6020776">
        <ele>373.1300000</ele>
        <time>2013-04-07T11:09:48Z</time>
      </trkpt>
      <trkpt lat="45.8676007" lon="4.6021209">
        <ele>373.6100000</ele>
        <time>2013-04-07T11:09:51Z</time>
      </trkpt>
      <trkpt lat="45.8676147" lon="4.6023361">
        <ele>373.6100000</ele>
        <time>2013-04-07T11:09:58Z</time>
      </trkpt>
      <trkpt lat="45.8677477" lon="4.6030104">
        <ele>372.6500000</ele>
        <time>2013-04-07T11:10:13Z</time>
      </trkpt>
      <trkpt lat="45.8677629" lon="4.6034052">
        <ele>372.6500000</ele>
        <time>2013-04-07T11:10:20Z</time>
      </trkpt>
      <trkpt lat="45.8677338" lon="4.6034411">
        <ele>372.1700000</ele>
        <time>2013-04-07T11:10:21Z</time>
      </trkpt>
      <trkpt lat="45.8677001" lon="4.6034637">
        <ele>372.1700000</ele>
        <time>2013-04-07T11:10:22Z</time>
      </trkpt>
      <trkpt lat="45.8676623" lon="4.6034817">
        <ele>371.6900000</ele>
        <time>2013-04-07T11:10:23Z</time>
      </trkpt>
      <trkpt lat="45.8676203" lon="4.6034949">
        <ele>372.6500000</ele>
        <time>2013-04-07T11:10:24Z</time>
      </trkpt>
      <trkpt lat="45.8675776" lon="4.6035099">
        <ele>372.1700000</ele>
        <time>2013-04-07T11:10:25Z</time>
      </trkpt>
      <trkpt lat="45.8675367" lon="4.6035298">
        <ele>372.1700000</ele>
        <time>2013-04-07T11:10:26Z</time>
      </trkpt>
      <trkpt lat="45.8674997" lon="4.6035477">
        <ele>371.6900000</ele>
        <time>2013-04-07T11:10:27Z</time>
      </trkpt>
      <trkpt lat="45.8674582" lon="4.6035701">
        <ele>372.1700000</ele>
        <time>2013-04-07T11:10:28Z</time>
      </trkpt>
      <trkpt lat="45.8674092" lon="4.6035949">
        <ele>371.6900000</ele>
        <time>2013-04-07T11:10:29Z</time>
      </trkpt>
      <trkpt lat="45.8673598" lon="4.6036205">
        <ele>371.6900000</ele>
        <time>2013-04-07T11:10:30Z</time>
      </trkpt>
      <trkpt lat="45.8673129" lon="4.6036384">
        <ele>372.1700000</ele>
        <time>2013-04-07T11:10:31Z</time>
      </trkpt>
      <trkpt lat="45.8672680" lon="4.6036425">
        <ele>372.1700000</ele>
        <time>2013-04-07T11:10:32Z</time>
      </trkpt>
      <trkpt lat="45.8672191" lon="4.6036467">
        <ele>371.6900000</ele>
        <time>2013-04-07T11:10:33Z</time>
      </trkpt>
      <trkpt lat="45.8671655" lon="4.6036496">
        <ele>371.6900000</ele>
        <time>2013-04-07T11:10:34Z</time>
      </trkpt>
      <trkpt lat="45.8671116" lon="4.6036472">
        <ele>371.6900000</ele>
        <time>2013-04-07T11:10:35Z</time>
      </trkpt>
      <trkpt lat="45.8663715" lon="4.6037725">
        <ele>369.7600000</ele>
        <time>2013-04-07T11:10:48Z</time>
      </trkpt>
      <trkpt lat="45.8661290" lon="4.6038007">
        <ele>370.2400000</ele>
        <time>2013-04-07T11:10:52Z</time>
      </trkpt>
      <trkpt lat="45.8660721" lon="4.6037874">
        <ele>369.7600000</ele>
        <time>2013-04-07T11:10:53Z</time>
      </trkpt>
      <trkpt lat="45.8660304" lon="4.6037519">
        <ele>370.2400000</ele>
        <time>2013-04-07T11:10:54Z</time>
      </trkpt>
      <trkpt lat="45.8660066" lon="4.6037042">
        <ele>370.7300000</ele>
        <time>2013-04-07T11:10:55Z</time>
      </trkpt>
      <trkpt lat="45.8659975" lon="4.6036524">
        <ele>370.7300000</ele>
        <time>2013-04-07T11:10:56Z</time>
      </trkpt>
      <trkpt lat="45.8659961" lon="4.6036003">
        <ele>371.2100000</ele>
        <time>2013-04-07T11:10:57Z</time>
      </trkpt>
      <trkpt lat="45.8659957" lon="4.6035480">
        <ele>371.6900000</ele>
        <time>2013-04-07T11:10:58Z</time>
      </trkpt>
      <trkpt lat="45.8659930" lon="4.6034948">
        <ele>371.2100000</ele>
        <time>2013-04-07T11:10:59Z</time>
      </trkpt>
      <trkpt lat="45.8659855" lon="4.6034415">
        <ele>372.6500000</ele>
        <time>2013-04-07T11:11:00Z</time>
      </trkpt>
      <trkpt lat="45.8659626" lon="4.6034012">
        <ele>372.1700000</ele>
        <time>2013-04-07T11:11:01Z</time>
      </trkpt>
      <trkpt lat="45.8659311" lon="4.6033812">
        <ele>372.6500000</ele>
        <time>2013-04-07T11:11:02Z</time>
      </trkpt>
      <trkpt lat="45.8658968" lon="4.6033792">
        <ele>373.1300000</ele>
        <time>2013-04-07T11:11:03Z</time>
      </trkpt>
      <trkpt lat="45.8658581" lon="4.6033860">
        <ele>372.6500000</ele>
        <time>2013-04-07T11:11:04Z</time>
      </trkpt>
      <trkpt lat="45.8658135" lon="4.6033947">
        <ele>372.6500000</ele>
        <time>2013-04-07T11:11:05Z</time>
      </trkpt>
      <trkpt lat="45.8656185" lon="4.6034238">
        <ele>370.7300000</ele>
        <time>2013-04-07T11:11:09Z</time>
      </trkpt>
      <trkpt lat="45.8655677" lon="4.6034431">
        <ele>370.7300000</ele>
        <time>2013-04-07T11:11:10Z</time>
      </trkpt>
      <trkpt lat="45.8655246" lon="4.6034851">
        <ele>369.7600000</ele>
        <time>2013-04-07T11:11:11Z</time>
      </trkpt>
      <trkpt lat="45.8654937" lon="4.6035478">
        <ele>369.2800000</ele>
        <time>2013-04-07T11:11:12Z</time>
      </trkpt>
      <trkpt lat="45.8654823" lon="4.6036218">
        <ele>368.8000000</ele>
        <time>2013-04-07T11:11:13Z</time>
      </trkpt>
      <trkpt lat="45.8655025" lon="4.6037686">
        <ele>368.3200000</ele>
        <time>2013-04-07T11:11:15Z</time>
      </trkpt>
      <trkpt lat="45.8655820" lon="4.6042747">
        <ele>366.4000000</ele>
        <time>2013-04-07T11:11:21Z</time>
      </trkpt>
      <trkpt lat="45.8656008" lon="4.6048765">
        <ele>363.0400000</ele>
        <time>2013-04-07T11:11:27Z</time>
      </trkpt>
      <trkpt lat="45.8656126" lon="4.6055616">
        <ele>361.1100000</ele>
        <time>2013-04-07T11:11:35Z</time>
      </trkpt>
      <trkpt lat="45.8655986" lon="4.6055813">
        <ele>362.0700000</ele>
        <time>2013-04-07T11:11:36Z</time>
      </trkpt>
      <trkpt lat="45.8655802" lon="4.6055862">
        <ele>362.0700000</ele>
        <time>2013-04-07T11:11:37Z</time>
      </trkpt>
      <trkpt lat="45.8655534" lon="4.6055851">
        <ele>361.5900000</ele>
        <time>2013-04-07T11:11:38Z</time>
      </trkpt>
      <trkpt lat="45.8655206" lon="4.6055793">
        <ele>361.5900000</ele>
        <time>2013-04-07T11:11:39Z</time>
      </trkpt>
      <trkpt lat="45.8654825" lon="4.6055761">
        <ele>361.5900000</ele>
        <time>2013-04-07T11:11:40Z</time>
      </trkpt>
      <trkpt lat="45.8654407" lon="4.6055743">
        <ele>361.5900000</ele>
        <time>2013-04-07T11:11:41Z</time>
      </trkpt>
      <trkpt lat="45.8653980" lon="4.6055735">
        <ele>361.5900000</ele>
        <time>2013-04-07T11:11:42Z</time>
      </trkpt>
      <trkpt lat="45.8646364" lon="4.6055736">
        <ele>358.7100000</ele>
        <time>2013-04-07T11:11:55Z</time>
      </trkpt>
      <trkpt lat="45.8644831" lon="4.6055680">
        <ele>357.2700000</ele>
        <time>2013-04-07T11:11:57Z</time>
      </trkpt>
      <trkpt lat="45.8641433" lon="4.6055684">
        <ele>354.3800000</ele>
        <time>2013-04-07T11:12:01Z</time>
      </trkpt>
      <trkpt lat="45.8637800" lon="4.6055739">
        <ele>350.5400000</ele>
        <time>2013-04-07T11:12:05Z</time>
      </trkpt>
      <trkpt lat="45.8633859" lon="4.6055756">
        <ele>347.1700000</ele>
        <time>2013-04-07T11:12:09Z</time>
      </trkpt>
      <trkpt lat="45.8629025" lon="4.6055689">
        <ele>345.7300000</ele>
        <time>2013-04-07T11:12:14Z</time>
      </trkpt>
      <trkpt lat="45.8628138" lon="4.6055481">
        <ele>345.7300000</ele>
        <time>2013-04-07T11:12:15Z</time>
      </trkpt>
      <trkpt lat="45.8627286" lon="4.6055168">
        <ele>344.7700000</ele>
        <time>2013-04-07T11:12:16Z</time>
      </trkpt>
      <trkpt lat="45.8624815" lon="4.6054311">
        <ele>344.7700000</ele>
        <time>2013-04-07T11:12:19Z</time>
      </trkpt>
      <trkpt lat="45.8623973" lon="4.6054303">
        <ele>344.2900000</ele>
        <time>2013-04-07T11:12:20Z</time>
      </trkpt>
      <trkpt lat="45.8623161" lon="4.6054596">
        <ele>344.2900000</ele>
        <time>2013-04-07T11:12:21Z</time>
      </trkpt>
      <trkpt lat="45.8621523" lon="4.6055233">
        <ele>344.2900000</ele>
        <time>2013-04-07T11:12:23Z</time>
      </trkpt>
      <trkpt lat="45.8620695" lon="4.6055041">
        <ele>343.8100000</ele>
        <time>2013-04-07T11:12:24Z</time>
      </trkpt>
      <trkpt lat="45.8619932" lon="4.6054557">
        <ele>342.8500000</ele>
        <time>2013-04-07T11:12:25Z</time>
      </trkpt>
      <trkpt lat="45.8619239" lon="4.6053977">
        <ele>342.8500000</ele>
        <time>2013-04-07T11:12:26Z</time>
      </trkpt>
      <trkpt lat="45.8611891" lon="4.6048601">
        <ele>339.0000000</ele>
        <time>2013-04-07T11:12:36Z</time>
      </trkpt>
      <trkpt lat="45.8607806" lon="4.6046233">
        <ele>335.6400000</ele>
        <time>2013-04-07T11:12:41Z</time>
      </trkpt>
      <trkpt lat="45.8603603" lon="4.6043043">
        <ele>332.2700000</ele>
        <time>2013-04-07T11:12:46Z</time>
      </trkpt>
      <trkpt lat="45.8600434" lon="4.6039847">
        <ele>329.3900000</ele>
        <time>2013-04-07T11:12:50Z</time>
      </trkpt>
      <trkpt lat="45.8597689" lon="4.6035903">
        <ele>326.5000000</ele>
        <time>2013-04-07T11:12:54Z</time>
      </trkpt>
      <trkpt lat="45.8595340" lon="4.6031509">
        <ele>323.1400000</ele>
        <time>2013-04-07T11:12:58Z</time>
      </trkpt>
      <trkpt lat="45.8591911" lon="4.6024853">
        <ele>320.2600000</ele>
        <time>2013-04-07T11:13:04Z</time>
      </trkpt>
      <trkpt lat="45.8588535" lon="4.6018469">
        <ele>319.7800000</ele>
        <time>2013-04-07T11:13:10Z</time>
      </trkpt>
      <trkpt lat="45.8587567" lon="4.6016305">
        <ele>319.3000000</ele>
        <time>2013-04-07T11:13:12Z</time>
      </trkpt>
      <trkpt lat="45.8587041" lon="4.6015346">
        <ele>318.8100000</ele>
        <time>2013-04-07T11:13:13Z</time>
      </trkpt>
      <trkpt lat="45.8583726" lon="4.6010390">
        <ele>317.8500000</ele>
        <time>2013-04-07T11:13:20Z</time>
      </trkpt>
      <trkpt lat="45.8583258" lon="4.6010178">
        <ele>317.3700000</ele>
        <time>2013-04-07T11:13:21Z</time>
      </trkpt>
      <trkpt lat="45.8582733" lon="4.6010255">
        <ele>316.8900000</ele>
        <time>2013-04-07T11:13:22Z</time>
      </trkpt>
      <trkpt lat="45.8582212" lon="4.6010549">
        <ele>316.8900000</ele>
        <time>2013-04-07T11:13:23Z</time>
      </trkpt>
      <trkpt lat="45.8581705" lon="4.6010964">
        <ele>316.4100000</ele>
        <time>2013-04-07T11:13:24Z</time>
      </trkpt>
      <trkpt lat="45.8581208" lon="4.6011419">
        <ele>316.4100000</ele>
        <time>2013-04-07T11:13:25Z</time>
      </trkpt>
      <trkpt lat="45.8580705" lon="4.6011861">
        <ele>316.4100000</ele>
        <time>2013-04-07T11:13:26Z</time>
      </trkpt>
      <trkpt lat="45.8580161" lon="4.6012067">
        <ele>315.9300000</ele>
        <time>2013-04-07T11:13:27Z</time>
      </trkpt>
      <trkpt lat="45.8579616" lon="4.6012047">
        <ele>315.9300000</ele>
        <time>2013-04-07T11:13:28Z</time>
      </trkpt>
      <trkpt lat="45.8579157" lon="4.6012008">
        <ele>315.9300000</ele>
        <time>2013-04-07T11:13:29Z</time>
      </trkpt>
      <trkpt lat="45.8578805" lon="4.6012162">
        <ele>315.9300000</ele>
        <time>2013-04-07T11:13:30Z</time>
      </trkpt>
      <trkpt lat="45.8578565" lon="4.6012566">
        <ele>315.9300000</ele>
        <time>2013-04-07T11:13:31Z</time>
      </trkpt>
      <trkpt lat="45.8578427" lon="4.6013058">
        <ele>315.9300000</ele>
        <time>2013-04-07T11:13:32Z</time>
      </trkpt>
      <trkpt lat="45.8578356" lon="4.6013559">
        <ele>316.4100000</ele>
        <time>2013-04-07T11:13:33Z</time>
      </trkpt>
      <trkpt lat="45.8578329" lon="4.6014084">
        <ele>316.4100000</ele>
        <time>2013-04-07T11:13:34Z</time>
      </trkpt>
      <trkpt lat="45.8578189" lon="4.6018258">
        <ele>317.8500000</ele>
        <time>2013-04-07T11:13:42Z</time>
      </trkpt>
      <trkpt lat="45.8578081" lon="4.6024569">
        <ele>320.2600000</ele>
        <time>2013-04-07T11:13:56Z</time>
      </trkpt>
      <trkpt lat="45.8577999" lon="4.6029603">
        <ele>323.1400000</ele>
        <time>2013-04-07T11:14:08Z</time>
      </trkpt>
      <trkpt lat="45.8577869" lon="4.6034931">
        <ele>326.0200000</ele>
        <time>2013-04-07T11:14:23Z</time>
      </trkpt>
      <trkpt lat="45.8577815" lon="4.6038953">
        <ele>327.4700000</ele>
        <time>2013-04-07T11:14:35Z</time>
      </trkpt>
      <trkpt lat="45.8577735" lon="4.6044583">
        <ele>329.8700000</ele>
        <time>2013-04-07T11:14:52Z</time>
      </trkpt>
      <trkpt lat="45.8576069" lon="4.6045745">
        <ele>331.3100000</ele>
        <time>2013-04-07T11:15:02Z</time>
      </trkpt>
      <trkpt lat="45.8570742" lon="4.6045173">
        <ele>330.8300000</ele>
        <time>2013-04-07T11:15:18Z</time>
      </trkpt>
      <trkpt lat="45.8569268" lon="4.6045047">
        <ele>329.8700000</ele>
        <time>2013-04-07T11:15:22Z</time>
      </trkpt>
      <trkpt lat="45.8568309" lon="4.6045021">
        <ele>329.8700000</ele>
        <time>2013-04-07T11:15:24Z</time>
      </trkpt>
      <trkpt lat="45.8567790" lon="4.6044932">
        <ele>329.8700000</ele>
        <time>2013-04-07T11:15:25Z</time>
      </trkpt>
      <trkpt lat="45.8567271" lon="4.6044849">
        <ele>329.8700000</ele>
        <time>2013-04-07T11:15:26Z</time>
      </trkpt>
      <trkpt lat="45.8561369" lon="4.6043433">
        <ele>328.9100000</ele>
        <time>2013-04-07T11:15:39Z</time>
      </trkpt>
      <trkpt lat="45.8560599" lon="4.6043277">
        <ele>327.4700000</ele>
        <time>2013-04-07T11:15:41Z</time>
      </trkpt>
      <trkpt lat="45.8559563" lon="4.6043066">
        <ele>326.0200000</ele>
        <time>2013-04-07T11:15:43Z</time>
      </trkpt>
      <trkpt lat="45.8559051" lon="4.6042717">
        <ele>326.0200000</ele>
        <time>2013-04-07T11:15:44Z</time>
      </trkpt>
      <trkpt lat="45.8558572" lon="4.6042246">
        <ele>325.5400000</ele>
        <time>2013-04-07T11:15:45Z</time>
      </trkpt>
      <trkpt lat="45.8556213" lon="4.6039553">
        <ele>321.7000000</ele>
        <time>2013-04-07T11:15:50Z</time>
      </trkpt>
      <trkpt lat="45.8555953" lon="4.6038937">
        <ele>321.2200000</ele>
        <time>2013-04-07T11:15:51Z</time>
      </trkpt>
      <trkpt lat="45.8556011" lon="4.6037755">
        <ele>320.7400000</ele>
        <time>2013-04-07T11:15:53Z</time>
      </trkpt>
      <trkpt lat="45.8555277" lon="4.6034342">
        <ele>317.3700000</ele>
        <time>2013-04-07T11:15:59Z</time>
      </trkpt>
      <trkpt lat="45.8553577" lon="4.6030939">
        <ele>313.0500000</ele>
        <time>2013-04-07T11:16:03Z</time>
      </trkpt>
      <trkpt lat="45.8551055" lon="4.6026437">
        <ele>311.1200000</ele>
        <time>2013-04-07T11:16:09Z</time>
      </trkpt>
      <trkpt lat="45.8550644" lon="4.6026413">
        <ele>311.6000000</ele>
        <time>2013-04-07T11:16:10Z</time>
      </trkpt>
      <trkpt lat="45.8550281" lon="4.6026687">
        <ele>311.6000000</ele>
        <time>2013-04-07T11:16:11Z</time>
      </trkpt>
      <trkpt lat="45.8550003" lon="4.6027180">
        <ele>310.6400000</ele>
        <time>2013-04-07T11:16:12Z</time>
      </trkpt>
      <trkpt lat="45.8549770" lon="4.6027825">
        <ele>310.6400000</ele>
        <time>2013-04-07T11:16:13Z</time>
      </trkpt>
      <trkpt lat="45.8549546" lon="4.6028592">
        <ele>310.6400000</ele>
        <time>2013-04-07T11:16:14Z</time>
      </trkpt>
      <trkpt lat="45.8548957" lon="4.6031067">
        <ele>310.1600000</ele>
        <time>2013-04-07T11:16:17Z</time>
      </trkpt>
      <trkpt lat="45.8548856" lon="4.6031938">
        <ele>310.1600000</ele>
        <time>2013-04-07T11:16:18Z</time>
      </trkpt>
      <trkpt lat="45.8548820" lon="4.6032786">
        <ele>309.6800000</ele>
        <time>2013-04-07T11:16:19Z</time>
      </trkpt>
      <trkpt lat="45.8548754" lon="4.6033577">
        <ele>310.1600000</ele>
        <time>2013-04-07T11:16:20Z</time>
      </trkpt>
      <trkpt lat="45.8548662" lon="4.6034342">
        <ele>310.1600000</ele>
        <time>2013-04-07T11:16:21Z</time>
      </trkpt>
      <trkpt lat="45.8548337" lon="4.6036741">
        <ele>309.6800000</ele>
        <time>2013-04-07T11:16:24Z</time>
      </trkpt>
      <trkpt lat="45.8548325" lon="4.6037506">
        <ele>310.1600000</ele>
        <time>2013-04-07T11:16:25Z</time>
      </trkpt>
      <trkpt lat="45.8548308" lon="4.6038211">
        <ele>310.1600000</ele>
        <time>2013-04-07T11:16:26Z</time>
      </trkpt>
      <trkpt lat="45.8548305" lon="4.6038882">
        <ele>309.6800000</ele>
        <time>2013-04-07T11:16:27Z</time>
      </trkpt>
      <trkpt lat="45.8548370" lon="4.6039499">
        <ele>310.1600000</ele>
        <time>2013-04-07T11:16:28Z</time>
      </trkpt>
      <trkpt lat="45.8548538" lon="4.6040063">
        <ele>310.6400000</ele>
        <time>2013-04-07T11:16:29Z</time>
      </trkpt>
      <trkpt lat="45.8548799" lon="4.6040539">
        <ele>310.6400000</ele>
        <time>2013-04-07T11:16:30Z</time>
      </trkpt>
      <trkpt lat="45.8548976" lon="4.6040979">
        <ele>311.1200000</ele>
        <time>2013-04-07T11:16:31Z</time>
      </trkpt>
      <trkpt lat="45.8548996" lon="4.6041428">
        <ele>311.6000000</ele>
        <time>2013-04-07T11:16:32Z</time>
      </trkpt>
      <trkpt lat="45.8548900" lon="4.6041914">
        <ele>311.6000000</ele>
        <time>2013-04-07T11:16:33Z</time>
      </trkpt>
      <trkpt lat="45.8548784" lon="4.6042417">
        <ele>311.1200000</ele>
        <time>2013-04-07T11:16:34Z</time>
      </trkpt>
      <trkpt lat="45.8548427" lon="4.6043861">
        <ele>311.6000000</ele>
        <time>2013-04-07T11:16:37Z</time>
      </trkpt>
      <trkpt lat="45.8548128" lon="4.6044100">
        <ele>311.1200000</ele>
        <time>2013-04-07T11:16:38Z</time>
      </trkpt>
      <trkpt lat="45.8547789" lon="4.6044272">
        <ele>310.6400000</ele>
        <time>2013-04-07T11:16:39Z</time>
      </trkpt>
      <trkpt lat="45.8547540" lon="4.6044598">
        <ele>310.1600000</ele>
        <time>2013-04-07T11:16:40Z</time>
      </trkpt>
      <trkpt lat="45.8547402" lon="4.6045051">
        <ele>310.1600000</ele>
        <time>2013-04-07T11:16:41Z</time>
      </trkpt>
      <trkpt lat="45.8547293" lon="4.6045574">
        <ele>310.1600000</ele>
        <time>2013-04-07T11:16:42Z</time>
      </trkpt>
      <trkpt lat="45.8547170" lon="4.6046159">
        <ele>310.1600000</ele>
        <time>2013-04-07T11:16:43Z</time>
      </trkpt>
      <trkpt lat="45.8546979" lon="4.6046740">
        <ele>310.1600000</ele>
        <time>2013-04-07T11:16:44Z</time>
      </trkpt>
      <trkpt lat="45.8546696" lon="4.6047345">
        <ele>309.6800000</ele>
        <time>2013-04-07T11:16:45Z</time>
      </trkpt>
      <trkpt lat="45.8546398" lon="4.6047965">
        <ele>309.6800000</ele>
        <time>2013-04-07T11:16:46Z</time>
      </trkpt>
      <trkpt lat="45.8546154" lon="4.6048664">
        <ele>309.2000000</ele>
        <time>2013-04-07T11:16:47Z</time>
      </trkpt>
      <trkpt lat="45.8545960" lon="4.6049391">
        <ele>309.2000000</ele>
        <time>2013-04-07T11:16:48Z</time>
      </trkpt>
      <trkpt lat="45.8545810" lon="4.6050153">
        <ele>309.2000000</ele>
        <time>2013-04-07T11:16:49Z</time>
      </trkpt>
      <trkpt lat="45.8544854" lon="4.6054317">
        <ele>309.2000000</ele>
        <time>2013-04-07T11:16:54Z</time>
      </trkpt>
      <trkpt lat="45.8542803" lon="4.6064335">
        <ele>306.8000000</ele>
        <time>2013-04-07T11:17:05Z</time>
      </trkpt>
      <trkpt lat="45.8541606" lon="4.6067757">
        <ele>307.2800000</ele>
        <time>2013-04-07T11:17:09Z</time>
      </trkpt>
      <trkpt lat="45.8539039" lon="4.6073634">
        <ele>309.2000000</ele>
        <time>2013-04-07T11:17:17Z</time>
      </trkpt>
      <trkpt lat="45.8537912" lon="4.6076754">
        <ele>309.6800000</ele>
        <time>2013-04-07T11:17:22Z</time>
      </trkpt>
      <trkpt lat="45.8536141" lon="4.6081596">
        <ele>312.0900000</ele>
        <time>2013-04-07T11:17:34Z</time>
      </trkpt>
      <trkpt lat="45.8533632" lon="4.6087456">
        <ele>311.6000000</ele>
        <time>2013-04-07T11:17:48Z</time>
      </trkpt>
      <trkpt lat="45.8530881" lon="4.6096880">
        <ele>309.6800000</ele>
        <time>2013-04-07T11:18:02Z</time>
      </trkpt>
      <trkpt lat="45.8528360" lon="4.6105049">
        <ele>308.7200000</ele>
        <time>2013-04-07T11:18:14Z</time>
      </trkpt>
      <trkpt lat="45.8528098" lon="4.6105373">
        <ele>308.7200000</ele>
        <time>2013-04-07T11:18:15Z</time>
      </trkpt>
      <trkpt lat="45.8527881" lon="4.6105550">
        <ele>307.7600000</ele>
        <time>2013-04-07T11:18:16Z</time>
      </trkpt>
      <trkpt lat="45.8527141" lon="4.6105917">
        <ele>306.8000000</ele>
        <time>2013-04-07T11:18:19Z</time>
      </trkpt>
      <trkpt lat="45.8526690" lon="4.6106083">
        <ele>306.3200000</ele>
        <time>2013-04-07T11:18:20Z</time>
      </trkpt>
      <trkpt lat="45.8526175" lon="4.6106347">
        <ele>305.3600000</ele>
        <time>2013-04-07T11:18:21Z</time>
      </trkpt>
      <trkpt lat="45.8524445" lon="4.6107467">
        <ele>302.4700000</ele>
        <time>2013-04-07T11:18:24Z</time>
      </trkpt>
      <trkpt lat="45.8523415" lon="4.6108258">
        <ele>301.9900000</ele>
        <time>2013-04-07T11:18:26Z</time>
      </trkpt>
      <trkpt lat="45.8522219" lon="4.6108464">
        <ele>301.0300000</ele>
        <time>2013-04-07T11:18:33Z</time>
      </trkpt>
      <trkpt lat="45.8522079" lon="4.6108447">
        <ele>300.5500000</ele>
        <time>2013-04-07T11:18:34Z</time>
      </trkpt>
      <trkpt lat="45.8521960" lon="4.6108570">
        <ele>300.5500000</ele>
        <time>2013-04-07T11:18:35Z</time>
      </trkpt>
      <trkpt lat="45.8521971" lon="4.6108838">
        <ele>300.5500000</ele>
        <time>2013-04-07T11:18:37Z</time>
      </trkpt>
      <trkpt lat="45.8522084" lon="4.6108949">
        <ele>300.0700000</ele>
        <time>2013-04-07T11:18:38Z</time>
      </trkpt>
      <trkpt lat="45.8522233" lon="4.6108959">
        <ele>300.0700000</ele>
        <time>2013-04-07T11:18:39Z</time>
      </trkpt>
      <trkpt lat="45.8522379" lon="4.6108908">
        <ele>300.5500000</ele>
        <time>2013-04-07T11:18:40Z</time>
      </trkpt>
      <trkpt lat="45.8522523" lon="4.6108816">
        <ele>300.5500000</ele>
        <time>2013-04-07T11:18:41Z</time>
      </trkpt>
      <trkpt lat="45.8522707" lon="4.6108730">
        <ele>301.0300000</ele>
        <time>2013-04-07T11:18:42Z</time>
      </trkpt>
      <trkpt lat="45.8522893" lon="4.6108631">
        <ele>300.5500000</ele>
        <time>2013-04-07T11:18:43Z</time>
      </trkpt>
      <trkpt lat="45.8523050" lon="4.6108546">
        <ele>301.0300000</ele>
        <time>2013-04-07T11:18:44Z</time>
      </trkpt>
      <trkpt lat="45.8523186" lon="4.6108463">
        <ele>301.0300000</ele>
        <time>2013-04-07T11:18:45Z</time>
      </trkpt>
      <trkpt lat="45.8523095" lon="4.6108338">
        <ele>301.5100000</ele>
        <time>2013-04-07T11:18:51Z</time>
      </trkpt>
      <trkpt lat="45.8522902" lon="4.6108382">
        <ele>301.0300000</ele>
        <time>2013-04-07T11:18:52Z</time>
      </trkpt>
      <trkpt lat="45.8522658" lon="4.6108439">
        <ele>300.5500000</ele>
        <time>2013-04-07T11:18:53Z</time>
      </trkpt>
      <trkpt lat="45.8522368" lon="4.6108503">
        <ele>300.5500000</ele>
        <time>2013-04-07T11:18:54Z</time>
      </trkpt>
      <trkpt lat="45.8522028" lon="4.6108599">
        <ele>300.0700000</ele>
        <time>2013-04-07T11:18:55Z</time>
      </trkpt>
      <trkpt lat="45.8521623" lon="4.6108699">
        <ele>299.5900000</ele>
        <time>2013-04-07T11:18:56Z</time>
      </trkpt>
      <trkpt lat="45.8519840" lon="4.6108969">
        <ele>296.7000000</ele>
        <time>2013-04-07T11:18:59Z</time>
      </trkpt>
      <trkpt lat="45.8518426" lon="4.6109056">
        <ele>294.3000000</ele>
        <time>2013-04-07T11:19:01Z</time>
      </trkpt>
      <trkpt lat="45.8517820" lon="4.6109235">
        <ele>293.8200000</ele>
        <time>2013-04-07T11:19:02Z</time>
      </trkpt>
      <trkpt lat="45.8515842" lon="4.6109767">
        <ele>291.9000000</ele>
        <time>2013-04-07T11:19:06Z</time>
      </trkpt>
      <trkpt lat="45.8515271" lon="4.6109677">
        <ele>291.4200000</ele>
        <time>2013-04-07T11:19:07Z</time>
      </trkpt>
      <trkpt lat="45.8514651" lon="4.6109585">
        <ele>290.4600000</ele>
        <time>2013-04-07T11:19:08Z</time>
      </trkpt>
      <trkpt lat="45.8514007" lon="4.6109563">
        <ele>289.9700000</ele>
        <time>2013-04-07T11:19:09Z</time>
      </trkpt>
      <trkpt lat="45.8513352" lon="4.6109623">
        <ele>289.9700000</ele>
        <time>2013-04-07T11:19:10Z</time>
      </trkpt>
      <trkpt lat="45.8512688" lon="4.6109719">
        <ele>289.0100000</ele>
        <time>2013-04-07T11:19:11Z</time>
      </trkpt>
      <trkpt lat="45.8504624" lon="4.6110579">
        <ele>290.9400000</ele>
        <time>2013-04-07T11:19:24Z</time>
      </trkpt>
      <trkpt lat="45.8495198" lon="4.6111661">
        <ele>293.3400000</ele>
        <time>2013-04-07T11:19:41Z</time>
      </trkpt>
      <trkpt lat="45.8489549" lon="4.6112697">
        <ele>295.2600000</ele>
        <time>2013-04-07T11:19:53Z</time>
      </trkpt>
      <trkpt lat="45.8489188" lon="4.6112562">
        <ele>295.2600000</ele>
        <time>2013-04-07T11:19:54Z</time>
      </trkpt>
      <trkpt lat="45.8488983" lon="4.6112147">
        <ele>294.7800000</ele>
        <time>2013-04-07T11:19:55Z</time>
      </trkpt>
      <trkpt lat="45.8488982" lon="4.6111614">
        <ele>295.7400000</ele>
        <time>2013-04-07T11:19:56Z</time>
      </trkpt>
      <trkpt lat="45.8489045" lon="4.6111041">
        <ele>295.2600000</ele>
        <time>2013-04-07T11:19:57Z</time>
      </trkpt>
      <trkpt lat="45.8489061" lon="4.6110438">
        <ele>295.2600000</ele>
        <time>2013-04-07T11:19:58Z</time>
      </trkpt>
      <trkpt lat="45.8489187" lon="4.6102721">
        <ele>293.8200000</ele>
        <time>2013-04-07T11:20:11Z</time>
      </trkpt>
      <trkpt lat="45.8489207" lon="4.6098323">
        <ele>292.8600000</ele>
        <time>2013-04-07T11:20:20Z</time>
      </trkpt>
      <trkpt lat="45.8489075" lon="4.6096981">
        <ele>291.4200000</ele>
        <time>2013-04-07T11:20:22Z</time>
      </trkpt>
      <trkpt lat="45.8488971" lon="4.6096317">
        <ele>291.4200000</ele>
        <time>2013-04-07T11:20:23Z</time>
      </trkpt>
      <trkpt lat="45.8488772" lon="4.6095058">
        <ele>291.4200000</ele>
        <time>2013-04-07T11:20:25Z</time>
      </trkpt>
      <trkpt lat="45.8488680" lon="4.6094474">
        <ele>291.9000000</ele>
        <time>2013-04-07T11:20:26Z</time>
      </trkpt>
      <trkpt lat="45.8488503" lon="4.6092792">
        <ele>291.4200000</ele>
        <time>2013-04-07T11:20:29Z</time>
      </trkpt>
      <trkpt lat="45.8487182" lon="4.6086299">
        <ele>291.9000000</ele>
        <time>2013-04-07T11:20:41Z</time>
      </trkpt>
      <trkpt lat="45.8487111" lon="4.6085149">
        <ele>291.9000000</ele>
        <time>2013-04-07T11:20:49Z</time>
      </trkpt>
      <trkpt lat="45.8487012" lon="4.6084854">
        <ele>290.4600000</ele>
        <time>2013-04-07T11:20:59Z</time>
      </trkpt>
      <trkpt lat="45.8487004" lon="4.6084844">
        <ele>293.8200000</ele>
        <time>2013-04-07T11:21:00Z</time>
      </trkpt>
      <trkpt lat="45.8486986" lon="4.6084807">
        <ele>290.4600000</ele>
        <time>2013-04-07T11:21:02Z</time>
      </trkpt>
      <trkpt lat="45.8486910" lon="4.6084639">
        <ele>293.3400000</ele>
        <time>2013-04-07T11:21:24Z</time>
      </trkpt>
      <trkpt lat="45.8486877" lon="4.6084639">
        <ele>292.8600000</ele>
        <time>2013-04-07T11:21:33Z</time>
      </trkpt>
    </trkseg>
  </trk>

</gpx>
